<?xml version="1.0" encoding="UTF-8" standalone="no" ?>
<gpx xmlns="http://www.topografix.com/GPX/1/1" xmlns:xsi="http://www.w3.org/2001/XMLSchema-instance" xsi:schemaLocation="http://www.topografix.com/GPX/1/1 http://www.topografix.com/GPX/1/1/gpx.xsd" version="1.1" creator="VisuGPX - https://www.visugpx.com">
  <metadata>
    <name>TNT 2e partie - Cap Gris-nez - Arras</name>
  </metadata>
  <trk>
    <name><![CDATA[TNT 2e partie - Cap Gris-nez - Arras]]></name>
    <trkseg>
      <trkpt lat="50.86455" lon="1.59029">
        <ele>39.517989</ele>
        <time>2019-06-16T07:11:53.631Z</time>
      </trkpt>
      <trkpt lat="50.86477" lon="1.59033">
        <ele>39.517989</ele>
        <time>2019-06-16T07:11:58.123Z</time>
      </trkpt>
      <trkpt lat="50.86501" lon="1.59026">
        <ele>39.517989</ele>
        <time>2019-06-16T07:12:02.824Z</time>
      </trkpt>
      <trkpt lat="50.86514" lon="1.59021">
        <ele>39.517989</ele>
        <time>2019-06-16T07:12:05.343Z</time>
      </trkpt>
      <trkpt lat="50.86527" lon="1.59014">
        <ele>39.517989</ele>
        <time>2019-06-16T07:12:07.886Z</time>
      </trkpt>
      <trkpt lat="50.86547" lon="1.59003">
        <ele>39.369409</ele>
        <time>2019-06-16T07:12:11.816Z</time>
      </trkpt>
      <trkpt lat="50.86578" lon="1.58985">
        <ele>38.372551</ele>
        <time>2019-06-16T07:12:17.568Z</time>
      </trkpt>
      <trkpt lat="50.86682" lon="1.58935">
        <ele>35.14511</ele>
        <time>2019-06-16T07:12:35.854Z</time>
      </trkpt>
      <trkpt lat="50.86694" lon="1.58921">
        <ele>34.71032</ele>
        <time>2019-06-16T07:12:38.187Z</time>
      </trkpt>
      <trkpt lat="50.86713" lon="1.58892">
        <ele>34.123492</ele>
        <time>2019-06-16T07:12:42.870Z</time>
      </trkpt>
      <trkpt lat="50.86782" lon="1.58769">
        <ele>33.574348</ele>
        <time>2019-06-16T07:13:03.270Z</time>
      </trkpt>
      <trkpt lat="50.86785" lon="1.58756">
        <ele>33.526296</ele>
        <time>2019-06-16T07:13:04.914Z</time>
      </trkpt>
      <trkpt lat="50.86784" lon="1.58738">
        <ele>33.465646</ele>
        <time>2019-06-16T07:13:07.921Z</time>
      </trkpt>
      <trkpt lat="50.86751" lon="1.58673">
        <ele>33.403368</ele>
        <time>2019-06-16T07:13:23.793Z</time>
      </trkpt>
      <trkpt lat="50.86748" lon="1.5866">
        <ele>33.677928</ele>
        <time>2019-06-16T07:13:26.610Z</time>
      </trkpt>
      <trkpt lat="50.86753" lon="1.5863">
        <ele>34.285652</ele>
        <time>2019-06-16T07:13:33.062Z</time>
      </trkpt>
      <trkpt lat="50.8676" lon="1.58623">
        <ele>34.547428</ele>
        <time>2019-06-16T07:13:36.450Z</time>
      </trkpt>
      <trkpt lat="50.86772" lon="1.58622">
        <ele>34.917855</ele>
        <time>2019-06-16T07:13:41.496Z</time>
      </trkpt>
      <trkpt lat="50.86798" lon="1.58658">
        <ele>35.993</ele>
        <time>2019-06-16T07:13:55.270Z</time>
      </trkpt>
      <trkpt lat="50.86821" lon="1.58676">
        <ele>36.813779</ele>
        <time>2019-06-16T07:14:05.985Z</time>
      </trkpt>
      <trkpt lat="50.86826" lon="1.5868">
        <ele>36.967908</ele>
        <time>2019-06-16T07:14:08.110Z</time>
      </trkpt>
      <trkpt lat="50.86848" lon="1.58696">
        <ele>37.723232</ele>
        <time>2019-06-16T07:14:17.588Z</time>
      </trkpt>
      <trkpt lat="50.86867" lon="1.5871">
        <ele>38.39831</ele>
        <time>2019-06-16T07:14:28.029Z</time>
      </trkpt>
      <trkpt lat="50.86892" lon="1.58722">
        <ele>39.056746</ele>
        <time>2019-06-16T07:14:37.269Z</time>
      </trkpt>
      <trkpt lat="50.86895" lon="1.58715">
        <ele>39.160013</ele>
        <time>2019-06-16T07:14:41.305Z</time>
      </trkpt>
      <trkpt lat="50.86915" lon="1.58688">
        <ele>39.628545</ele>
        <time>2019-06-16T07:14:50.480Z</time>
      </trkpt>
      <trkpt lat="50.86921" lon="1.58675">
        <ele>39.816567</ele>
        <time>2019-06-16T07:14:56.648Z</time>
      </trkpt>
      <trkpt lat="50.86924" lon="1.58674">
        <ele>39.859698</ele>
        <time>2019-06-16T07:14:58.376Z</time>
      </trkpt>
      <trkpt lat="50.86928" lon="1.58675">
        <ele>39.931796</ele>
        <time>2019-06-16T07:15:01.149Z</time>
      </trkpt>
      <trkpt lat="50.86932" lon="1.58677">
        <ele>40.008652</ele>
        <time>2019-06-16T07:15:04.134Z</time>
      </trkpt>
      <trkpt lat="50.86936" lon="1.5868">
        <ele>40.078625</ele>
        <time>2019-06-16T07:15:06.840Z</time>
      </trkpt>
      <trkpt lat="50.86939" lon="1.58673">
        <ele>40.172067</ele>
        <time>2019-06-16T07:15:10.503Z</time>
      </trkpt>
      <trkpt lat="50.86952" lon="1.58638">
        <ele>40.628457</ele>
        <time>2019-06-16T07:15:28.263Z</time>
      </trkpt>
      <trkpt lat="50.86952" lon="1.58609">
        <ele>40.961101</ele>
        <time>2019-06-16T07:15:41.210Z</time>
      </trkpt>
      <trkpt lat="50.86953" lon="1.58601">
        <ele>41.048326</ele>
        <time>2019-06-16T07:15:44.614Z</time>
      </trkpt>
      <trkpt lat="50.86954" lon="1.58601">
        <ele>41.080653</ele>
        <time>2019-06-16T07:15:45.926Z</time>
      </trkpt>
      <trkpt lat="50.86956" lon="1.58599">
        <ele>41.115513</ele>
        <time>2019-06-16T07:15:47.232Z</time>
      </trkpt>
      <trkpt lat="50.86957" lon="1.58597">
        <ele>41.148029</ele>
        <time>2019-06-16T07:15:48.542Z</time>
      </trkpt>
      <trkpt lat="50.86957" lon="1.58593">
        <ele>41.189086</ele>
        <time>2019-06-16T07:15:50.108Z</time>
      </trkpt>
      <trkpt lat="50.86956" lon="1.5859">
        <ele>41.229459</ele>
        <time>2019-06-16T07:15:51.683Z</time>
      </trkpt>
      <trkpt lat="50.86955" lon="1.58588">
        <ele>41.26971</ele>
        <time>2019-06-16T07:15:53.262Z</time>
      </trkpt>
      <trkpt lat="50.86957" lon="1.58581">
        <ele>41.368235</ele>
        <time>2019-06-16T07:15:57.128Z</time>
      </trkpt>
      <trkpt lat="50.86981" lon="1.58554">
        <ele>41.886442</ele>
        <time>2019-06-16T07:16:17.192Z</time>
      </trkpt>
      <trkpt lat="50.86984" lon="1.58475">
        <ele>41.785231</ele>
        <time>2019-06-16T07:16:52.339Z</time>
      </trkpt>
      <trkpt lat="50.87001" lon="1.58408">
        <ele>41.461599</ele>
        <time>2019-06-16T07:17:24.054Z</time>
      </trkpt>
      <trkpt lat="50.87006" lon="1.58394">
        <ele>41.388983</ele>
        <time>2019-06-16T07:17:31.196Z</time>
      </trkpt>
      <trkpt lat="50.8704" lon="1.58325">
        <ele>40.993476</ele>
        <time>2019-06-16T07:18:09.905Z</time>
      </trkpt>
      <trkpt lat="50.8705" lon="1.58327">
        <ele>40.923824</ele>
        <time>2019-06-16T07:18:16.674Z</time>
      </trkpt>
      <trkpt lat="50.87056" lon="1.58342">
        <ele>40.841037</ele>
        <time>2019-06-16T07:18:24.777Z</time>
      </trkpt>
      <trkpt lat="50.87066" lon="1.58341">
        <ele>40.80092</ele>
        <time>2019-06-16T07:18:31.225Z</time>
      </trkpt>
      <trkpt lat="50.87073" lon="1.58299">
        <ele>40.920262</ele>
        <time>2019-06-16T07:18:50.350Z</time>
      </trkpt>
      <trkpt lat="50.8708" lon="1.58294">
        <ele>40.950621</ele>
        <time>2019-06-16T07:18:55.239Z</time>
      </trkpt>
      <trkpt lat="50.87086" lon="1.58292">
        <ele>40.980823</ele>
        <time>2019-06-16T07:19:00.052Z</time>
      </trkpt>
      <trkpt lat="50.8708" lon="1.58279">
        <ele>41.026011</ele>
        <time>2019-06-16T07:19:07.288Z</time>
      </trkpt>
      <trkpt lat="50.87075" lon="1.58274">
        <ele>41.053066</ele>
        <time>2019-06-16T07:19:11.615Z</time>
      </trkpt>
      <trkpt lat="50.87055" lon="1.58253">
        <ele>41.155264</ele>
        <time>2019-06-16T07:19:27.974Z</time>
      </trkpt>
      <trkpt lat="50.8704" lon="1.58243">
        <ele>41.2292</ele>
        <time>2019-06-16T07:19:39.809Z</time>
      </trkpt>
      <trkpt lat="50.8703" lon="1.58238">
        <ele>41.273262</ele>
        <time>2019-06-16T07:19:46.829Z</time>
      </trkpt>
      <trkpt lat="50.87009" lon="1.58232">
        <ele>41.365314</ele>
        <time>2019-06-16T07:20:01.555Z</time>
      </trkpt>
      <trkpt lat="50.87002" lon="1.58232">
        <ele>41.396657</ele>
        <time>2019-06-16T07:20:06.531Z</time>
      </trkpt>
      <trkpt lat="50.86996" lon="1.58244">
        <ele>41.439736</ele>
        <time>2019-06-16T07:20:13.434Z</time>
      </trkpt>
      <trkpt lat="50.86987" lon="1.58268">
        <ele>41.515984</ele>
        <time>2019-06-16T07:20:25.636Z</time>
      </trkpt>
      <trkpt lat="50.8698" lon="1.58287">
        <ele>41.577067</ele>
        <time>2019-06-16T07:20:35.217Z</time>
      </trkpt>
      <trkpt lat="50.86975" lon="1.58318">
        <ele>41.72695</ele>
        <time>2019-06-16T07:20:49.184Z</time>
      </trkpt>
      <trkpt lat="50.86975" lon="1.58354">
        <ele>41.898035</ele>
        <time>2019-06-16T07:21:05.192Z</time>
      </trkpt>
      <trkpt lat="50.86978" lon="1.58363">
        <ele>41.946924</ele>
        <time>2019-06-16T07:21:09.720Z</time>
      </trkpt>
      <trkpt lat="50.86993" lon="1.58398">
        <ele>42.146706</ele>
        <time>2019-06-16T07:21:28.361Z</time>
      </trkpt>
      <trkpt lat="50.87001" lon="1.58408">
        <ele>42.220167</ele>
        <time>2019-06-16T07:21:35.175Z</time>
      </trkpt>
      <trkpt lat="50.86984" lon="1.58475">
        <ele>42.559879</ele>
        <time>2019-06-16T07:22:06.889Z</time>
      </trkpt>
      <trkpt lat="50.86981" lon="1.58554">
        <ele>42.8834</ele>
        <time>2019-06-16T07:22:42.036Z</time>
      </trkpt>
      <trkpt lat="50.86957" lon="1.58581">
        <ele>42.508138</ele>
        <time>2019-06-16T07:23:02.100Z</time>
      </trkpt>
      <trkpt lat="50.86955" lon="1.58588">
        <ele>42.436791</ele>
        <time>2019-06-16T07:23:05.966Z</time>
      </trkpt>
      <trkpt lat="50.86952" lon="1.58588">
        <ele>42.409534</ele>
        <time>2019-06-16T07:23:07.430Z</time>
      </trkpt>
      <trkpt lat="50.86951" lon="1.5859">
        <ele>42.381994</ele>
        <time>2019-06-16T07:23:08.889Z</time>
      </trkpt>
      <trkpt lat="50.86949" lon="1.58593">
        <ele>42.347321</ele>
        <time>2019-06-16T07:23:10.753Z</time>
      </trkpt>
      <trkpt lat="50.86942" lon="1.58588">
        <ele>42.239921</ele>
        <time>2019-06-16T07:23:16.515Z</time>
      </trkpt>
      <trkpt lat="50.86898" lon="1.5857">
        <ele>41.65894</ele>
        <time>2019-06-16T07:23:47.629Z</time>
      </trkpt>
      <trkpt lat="50.86865" lon="1.5855">
        <ele>41.199055</ele>
        <time>2019-06-16T07:24:12.267Z</time>
      </trkpt>
      <trkpt lat="50.86853" lon="1.5854">
        <ele>41.013208</ele>
        <time>2019-06-16T07:24:22.282Z</time>
      </trkpt>
      <trkpt lat="50.86845" lon="1.58529">
        <ele>40.887208</ele>
        <time>2019-06-16T07:24:29.023Z</time>
      </trkpt>
      <trkpt lat="50.86842" lon="1.58524">
        <ele>40.828535</ele>
        <time>2019-06-16T07:24:32.174Z</time>
      </trkpt>
      <trkpt lat="50.86824" lon="1.58454">
        <ele>39.6401</ele>
        <time>2019-06-16T07:25:05.448Z</time>
      </trkpt>
      <trkpt lat="50.86814" lon="1.58444">
        <ele>39.25731</ele>
        <time>2019-06-16T07:25:13.553Z</time>
      </trkpt>
      <trkpt lat="50.86811" lon="1.58461">
        <ele>38.879756</ele>
        <time>2019-06-16T07:25:16.376Z</time>
      </trkpt>
      <trkpt lat="50.86804" lon="1.58476">
        <ele>38.49475</ele>
        <time>2019-06-16T07:25:18.949Z</time>
      </trkpt>
      <trkpt lat="50.8676" lon="1.58602">
        <ele>35.515966</ele>
        <time>2019-06-16T07:25:40.046Z</time>
      </trkpt>
      <trkpt lat="50.8676" lon="1.58623">
        <ele>35.080311</ele>
        <time>2019-06-16T07:25:43.036Z</time>
      </trkpt>
      <trkpt lat="50.86753" lon="1.5863">
        <ele>34.806745</ele>
        <time>2019-06-16T07:25:44.384Z</time>
      </trkpt>
      <trkpt lat="50.86748" lon="1.5866">
        <ele>34.598245</ele>
        <time>2019-06-16T07:25:47.841Z</time>
      </trkpt>
      <trkpt lat="50.86751" lon="1.58673">
        <ele>34.543244</ele>
        <time>2019-06-16T07:25:49.290Z</time>
      </trkpt>
      <trkpt lat="50.86784" lon="1.58738">
        <ele>34.212025</ele>
        <time>2019-06-16T07:25:58.994Z</time>
      </trkpt>
      <trkpt lat="50.86785" lon="1.58756">
        <ele>34.140058</ele>
        <time>2019-06-16T07:26:01.130Z</time>
      </trkpt>
      <trkpt lat="50.86782" lon="1.58769">
        <ele>34.083039</ele>
        <time>2019-06-16T07:26:03.626Z</time>
      </trkpt>
      <trkpt lat="50.86713" lon="1.58892">
        <ele>34.22383</ele>
        <time>2019-06-16T07:26:31.748Z</time>
      </trkpt>
      <trkpt lat="50.86694" lon="1.58921">
        <ele>35.004373</ele>
        <time>2019-06-16T07:26:41.429Z</time>
      </trkpt>
      <trkpt lat="50.86682" lon="1.58935">
        <ele>35.431428</ele>
        <time>2019-06-16T07:26:48.145Z</time>
      </trkpt>
      <trkpt lat="50.86578" lon="1.58985">
        <ele>38.601453</ele>
        <time>2019-06-16T07:27:31.354Z</time>
      </trkpt>
      <trkpt lat="50.86547" lon="1.59003">
        <ele>39.51984</ele>
        <time>2019-06-16T07:27:44.604Z</time>
      </trkpt>
      <trkpt lat="50.86527" lon="1.59014">
        <ele>40.088843</ele>
        <time>2019-06-16T07:27:51.797Z</time>
      </trkpt>
      <trkpt lat="50.86514" lon="1.59021">
        <ele>40.455027</ele>
        <time>2019-06-16T07:27:56.261Z</time>
      </trkpt>
      <trkpt lat="50.86501" lon="1.59026">
        <ele>40.803511</ele>
        <time>2019-06-16T07:28:00.380Z</time>
      </trkpt>
      <trkpt lat="50.86477" lon="1.59033">
        <ele>41.462613</ele>
        <time>2019-06-16T07:28:09.019Z</time>
      </trkpt>
      <trkpt lat="50.86453" lon="1.59028">
        <ele>42.12129</ele>
        <time>2019-06-16T07:28:17.650Z</time>
      </trkpt>
      <trkpt lat="50.86432" lon="1.59034">
        <ele>42.683923</ele>
        <time>2019-06-16T07:28:25.544Z</time>
      </trkpt>
      <trkpt lat="50.86425" lon="1.59041">
        <ele>42.917495</ele>
        <time>2019-06-16T07:28:28.794Z</time>
      </trkpt>
      <trkpt lat="50.86424" lon="1.59042">
        <ele>42.953832</ele>
        <time>2019-06-16T07:28:29.530Z</time>
      </trkpt>
      <trkpt lat="50.86419" lon="1.59055">
        <ele>43.206185</ele>
        <time>2019-06-16T07:28:32.389Z</time>
      </trkpt>
      <trkpt lat="50.86402" lon="1.59104">
        <ele>44.172333</ele>
        <time>2019-06-16T07:28:44.397Z</time>
      </trkpt>
      <trkpt lat="50.86384" lon="1.5916">
        <ele>45.245525</ele>
        <time>2019-06-16T07:28:57.652Z</time>
      </trkpt>
      <trkpt lat="50.8638" lon="1.59169">
        <ele>45.444205</ele>
        <time>2019-06-16T07:29:00.939Z</time>
      </trkpt>
      <trkpt lat="50.86369" lon="1.59183">
        <ele>45.826916</ele>
        <time>2019-06-16T07:29:06.304Z</time>
      </trkpt>
      <trkpt lat="50.86355" lon="1.59191">
        <ele>46.213052</ele>
        <time>2019-06-16T07:29:10.817Z</time>
      </trkpt>
      <trkpt lat="50.86348" lon="1.59192">
        <ele>46.425248</ele>
        <time>2019-06-16T07:29:14.302Z</time>
      </trkpt>
      <trkpt lat="50.86333" lon="1.59187">
        <ele>46.850947</ele>
        <time>2019-06-16T07:29:20.428Z</time>
      </trkpt>
      <trkpt lat="50.86289" lon="1.59163">
        <ele>48.0997</ele>
        <time>2019-06-16T07:29:36.663Z</time>
      </trkpt>
      <trkpt lat="50.86249" lon="1.59156">
        <ele>48.831272</ele>
        <time>2019-06-16T07:29:50.870Z</time>
      </trkpt>
      <trkpt lat="50.86235" lon="1.59157">
        <ele>48.998161</ele>
        <time>2019-06-16T07:29:56.931Z</time>
      </trkpt>
      <trkpt lat="50.8622" lon="1.5916">
        <ele>49.160377</ele>
        <time>2019-06-16T07:30:01.055Z</time>
      </trkpt>
      <trkpt lat="50.86174" lon="1.59176">
        <ele>49.693877</ele>
        <time>2019-06-16T07:30:14.750Z</time>
      </trkpt>
      <trkpt lat="50.86114" lon="1.59217">
        <ele>50.420094</ele>
        <time>2019-06-16T07:30:30.556Z</time>
      </trkpt>
      <trkpt lat="50.86099" lon="1.59222">
        <ele>50.583761</ele>
        <time>2019-06-16T07:30:34.490Z</time>
      </trkpt>
      <trkpt lat="50.86089" lon="1.59224">
        <ele>50.475791</ele>
        <time>2019-06-16T07:30:36.422Z</time>
      </trkpt>
      <trkpt lat="50.85973" lon="1.59221">
        <ele>49.141814</ele>
        <time>2019-06-16T07:30:59.294Z</time>
      </trkpt>
      <trkpt lat="50.8592" lon="1.59219">
        <ele>48.534876</ele>
        <time>2019-06-16T07:31:09.077Z</time>
      </trkpt>
      <trkpt lat="50.85875" lon="1.59217">
        <ele>47.990061</ele>
        <time>2019-06-16T07:31:17.440Z</time>
      </trkpt>
      <trkpt lat="50.85853" lon="1.5921">
        <ele>47.710314</ele>
        <time>2019-06-16T07:31:21.946Z</time>
      </trkpt>
      <trkpt lat="50.85835" lon="1.59207">
        <ele>47.492638</ele>
        <time>2019-06-16T07:31:25.516Z</time>
      </trkpt>
      <trkpt lat="50.85817" lon="1.59215">
        <ele>47.255886</ele>
        <time>2019-06-16T07:31:29.411Z</time>
      </trkpt>
      <trkpt lat="50.85792" lon="1.59235">
        <ele>46.914023</ele>
        <time>2019-06-16T07:31:35.093Z</time>
      </trkpt>
      <trkpt lat="50.85785" lon="1.59237">
        <ele>46.834163</ele>
        <time>2019-06-16T07:31:36.445Z</time>
      </trkpt>
      <trkpt lat="50.857" lon="1.59243">
        <ele>46.484694</ele>
        <time>2019-06-16T07:31:54.247Z</time>
      </trkpt>
      <trkpt lat="50.85601" lon="1.59234">
        <ele>46.829243</ele>
        <time>2019-06-16T07:32:19.387Z</time>
      </trkpt>
      <trkpt lat="50.85491" lon="1.59235">
        <ele>47.618193</ele>
        <time>2019-06-16T07:32:48.878Z</time>
      </trkpt>
      <trkpt lat="50.85462" lon="1.59246">
        <ele>47.887179</ele>
        <time>2019-06-16T07:32:57.107Z</time>
      </trkpt>
      <trkpt lat="50.85423" lon="1.59292">
        <ele>48.319832</ele>
        <time>2019-06-16T07:33:09.966Z</time>
      </trkpt>
      <trkpt lat="50.85391" lon="1.59341">
        <ele>48.690438</ele>
        <time>2019-06-16T07:33:21.655Z</time>
      </trkpt>
      <trkpt lat="50.85386" lon="1.59346">
        <ele>48.734659</ele>
        <time>2019-06-16T07:33:23.438Z</time>
      </trkpt>
      <trkpt lat="50.85336" lon="1.59403">
        <ele>49.183517</ele>
        <time>2019-06-16T07:33:38.899Z</time>
      </trkpt>
      <trkpt lat="50.85298" lon="1.59442">
        <ele>49.519597</ele>
        <time>2019-06-16T07:33:50.878Z</time>
      </trkpt>
      <trkpt lat="50.85277" lon="1.59462">
        <ele>49.695234</ele>
        <time>2019-06-16T07:33:56.994Z</time>
      </trkpt>
      <trkpt lat="50.85243" lon="1.59487">
        <ele>49.986684</ele>
        <time>2019-06-16T07:34:06.884Z</time>
      </trkpt>
      <trkpt lat="50.85173" lon="1.59534">
        <ele>50.623781</ele>
        <time>2019-06-16T07:34:26.386Z</time>
      </trkpt>
      <trkpt lat="50.85164" lon="1.59537">
        <ele>50.696707</ele>
        <time>2019-06-16T07:34:28.970Z</time>
      </trkpt>
      <trkpt lat="50.84983" lon="1.59621">
        <ele>52.319368</ele>
        <time>2019-06-16T07:35:21.702Z</time>
      </trkpt>
      <trkpt lat="50.84859" lon="1.59652">
        <ele>53.159994</ele>
        <time>2019-06-16T07:35:55.712Z</time>
      </trkpt>
      <trkpt lat="50.84803" lon="1.59691">
        <ele>53.38679</ele>
        <time>2019-06-16T07:36:11.302Z</time>
      </trkpt>
      <trkpt lat="50.84738" lon="1.5969">
        <ele>53.623537</ele>
        <time>2019-06-16T07:36:26.633Z</time>
      </trkpt>
      <trkpt lat="50.84658" lon="1.59675">
        <ele>53.654377</ele>
        <time>2019-06-16T07:36:45.095Z</time>
      </trkpt>
      <trkpt lat="50.84632" lon="1.59676">
        <ele>53.660971</ele>
        <time>2019-06-16T07:36:50.881Z</time>
      </trkpt>
      <trkpt lat="50.84495" lon="1.5974">
        <ele>54.456681</ele>
        <time>2019-06-16T07:37:25.406Z</time>
      </trkpt>
      <trkpt lat="50.84482" lon="1.59741">
        <ele>54.601907</ele>
        <time>2019-06-16T07:37:29.090Z</time>
      </trkpt>
      <trkpt lat="50.8444" lon="1.5972">
        <ele>55.107124</ele>
        <time>2019-06-16T07:37:41.982Z</time>
      </trkpt>
      <trkpt lat="50.84426" lon="1.59719">
        <ele>55.273124</ele>
        <time>2019-06-16T07:37:47.247Z</time>
      </trkpt>
      <trkpt lat="50.8441" lon="1.59719">
        <ele>55.460914</ele>
        <time>2019-06-16T07:37:52.373Z</time>
      </trkpt>
      <trkpt lat="50.84369" lon="1.5973">
        <ele>56.031516</ele>
        <time>2019-06-16T07:38:12.135Z</time>
      </trkpt>
      <trkpt lat="50.84298" lon="1.59755">
        <ele>57.288326</ele>
        <time>2019-06-16T07:38:47.580Z</time>
      </trkpt>
      <trkpt lat="50.84292" lon="1.59762">
        <ele>57.413061</ele>
        <time>2019-06-16T07:38:51.710Z</time>
      </trkpt>
      <trkpt lat="50.84283" lon="1.59761">
        <ele>57.576142</ele>
        <time>2019-06-16T07:38:54.991Z</time>
      </trkpt>
      <trkpt lat="50.84132" lon="1.5981">
        <ele>58.188888</ele>
        <time>2019-06-16T07:39:37.696Z</time>
      </trkpt>
      <trkpt lat="50.84118" lon="1.59812">
        <ele>58.073511</ele>
        <time>2019-06-16T07:39:40.736Z</time>
      </trkpt>
      <trkpt lat="50.84081" lon="1.59817">
        <ele>57.761288</ele>
        <time>2019-06-16T07:39:47.849Z</time>
      </trkpt>
      <trkpt lat="50.84062" lon="1.59813">
        <ele>57.595319</ele>
        <time>2019-06-16T07:39:51.346Z</time>
      </trkpt>
      <trkpt lat="50.84025" lon="1.598">
        <ele>57.10339</ele>
        <time>2019-06-16T07:39:58.365Z</time>
      </trkpt>
      <trkpt lat="50.83997" lon="1.59779">
        <ele>56.171383</ele>
        <time>2019-06-16T07:40:03.887Z</time>
      </trkpt>
      <trkpt lat="50.83969" lon="1.59774">
        <ele>55.32102</ele>
        <time>2019-06-16T07:40:09.123Z</time>
      </trkpt>
      <trkpt lat="50.83966" lon="1.59774">
        <ele>55.220955</ele>
        <time>2019-06-16T07:40:09.611Z</time>
      </trkpt>
      <trkpt lat="50.83959" lon="1.59779">
        <ele>54.997335</ele>
        <time>2019-06-16T07:40:10.918Z</time>
      </trkpt>
      <trkpt lat="50.8393" lon="1.59817">
        <ele>53.860438</ele>
        <time>2019-06-16T07:40:17.540Z</time>
      </trkpt>
      <trkpt lat="50.83924" lon="1.59819">
        <ele>53.668519</ele>
        <time>2019-06-16T07:40:18.699Z</time>
      </trkpt>
      <trkpt lat="50.83908" lon="1.5982">
        <ele>53.189734</ele>
        <time>2019-06-16T07:40:21.713Z</time>
      </trkpt>
      <trkpt lat="50.83896" lon="1.5982">
        <ele>52.807558</ele>
        <time>2019-06-16T07:40:23.871Z</time>
      </trkpt>
      <trkpt lat="50.83894" lon="1.59815">
        <ele>52.681333</ele>
        <time>2019-06-16T07:40:24.619Z</time>
      </trkpt>
      <trkpt lat="50.83888" lon="1.59823">
        <ele>52.465613</ele>
        <time>2019-06-16T07:40:25.874Z</time>
      </trkpt>
      <trkpt lat="50.83882" lon="1.59832">
        <ele>52.207162</ele>
        <time>2019-06-16T07:40:27.531Z</time>
      </trkpt>
      <trkpt lat="50.83806" lon="1.59993">
        <ele>49.726583</ele>
        <time>2019-06-16T07:40:51.266Z</time>
      </trkpt>
      <trkpt lat="50.83779" lon="1.60052">
        <ele>48.864992</ele>
        <time>2019-06-16T07:41:00.652Z</time>
      </trkpt>
      <trkpt lat="50.83666" lon="1.60329">
        <ele>48.268239</ele>
        <time>2019-06-16T07:41:49.551Z</time>
      </trkpt>
      <trkpt lat="50.83596" lon="1.6051">
        <ele>47.035228</ele>
        <time>2019-06-16T07:42:18.858Z</time>
      </trkpt>
      <trkpt lat="50.83589" lon="1.60504">
        <ele>46.96534</ele>
        <time>2019-06-16T07:42:20.432Z</time>
      </trkpt>
      <trkpt lat="50.83575" lon="1.60479">
        <ele>46.769496</ele>
        <time>2019-06-16T07:42:24.623Z</time>
      </trkpt>
      <trkpt lat="50.83449" lon="1.60315">
        <ele>42.127797</ele>
        <time>2019-06-16T07:42:54.101Z</time>
      </trkpt>
      <trkpt lat="50.83443" lon="1.6031">
        <ele>41.93421</ele>
        <time>2019-06-16T07:42:55.179Z</time>
      </trkpt>
      <trkpt lat="50.83433" lon="1.60288">
        <ele>41.451578</ele>
        <time>2019-06-16T07:42:58.260Z</time>
      </trkpt>
      <trkpt lat="50.83383" lon="1.60176">
        <ele>39.072355</ele>
        <time>2019-06-16T07:43:14.045Z</time>
      </trkpt>
      <trkpt lat="50.83333" lon="1.60112">
        <ele>37.295651</ele>
        <time>2019-06-16T07:43:25.934Z</time>
      </trkpt>
      <trkpt lat="50.83248" lon="1.60028">
        <ele>34.905418</ele>
        <time>2019-06-16T07:43:44.959Z</time>
      </trkpt>
      <trkpt lat="50.83181" lon="1.5995">
        <ele>33.01723</ele>
        <time>2019-06-16T07:44:00.871Z</time>
      </trkpt>
      <trkpt lat="50.83181" lon="1.5995">
        <ele>33.01723</ele>
        <time>2019-06-16T07:44:00.890Z</time>
      </trkpt>
      <trkpt lat="50.83088" lon="1.59834">
        <ele>30.211459</ele>
        <time>2019-06-16T07:44:23.355Z</time>
      </trkpt>
      <trkpt lat="50.8303" lon="1.59748">
        <ele>28.315856</ele>
        <time>2019-06-16T07:44:37.993Z</time>
      </trkpt>
      <trkpt lat="50.83013" lon="1.59738">
        <ele>27.861382</ele>
        <time>2019-06-16T07:44:41.466Z</time>
      </trkpt>
      <trkpt lat="50.82973" lon="1.59748">
        <ele>26.854019</ele>
        <time>2019-06-16T07:44:48.956Z</time>
      </trkpt>
      <trkpt lat="50.82953" lon="1.59756">
        <ele>26.31957</ele>
        <time>2019-06-16T07:44:52.840Z</time>
      </trkpt>
      <trkpt lat="50.82935" lon="1.59727">
        <ele>25.676549</ele>
        <time>2019-06-16T07:44:57.599Z</time>
      </trkpt>
      <trkpt lat="50.82886" lon="1.59605">
        <ele>23.423784</ele>
        <time>2019-06-16T07:45:14.583Z</time>
      </trkpt>
      <trkpt lat="50.82808" lon="1.59488">
        <ele>21.118228</ele>
        <time>2019-06-16T07:45:35.165Z</time>
      </trkpt>
      <trkpt lat="50.82709" lon="1.59316">
        <ele>17.955474</ele>
        <time>2019-06-16T07:46:03.183Z</time>
      </trkpt>
      <trkpt lat="50.82703" lon="1.59299">
        <ele>17.68261</ele>
        <time>2019-06-16T07:46:05.538Z</time>
      </trkpt>
      <trkpt lat="50.827" lon="1.59282">
        <ele>17.441243</ele>
        <time>2019-06-16T07:46:07.671Z</time>
      </trkpt>
      <trkpt lat="50.82694" lon="1.59283">
        <ele>17.306773</ele>
        <time>2019-06-16T07:46:08.848Z</time>
      </trkpt>
      <trkpt lat="50.82682" lon="1.59282">
        <ele>17.063846</ele>
        <time>2019-06-16T07:46:10.806Z</time>
      </trkpt>
      <trkpt lat="50.8266" lon="1.59274">
        <ele>16.566908</ele>
        <time>2019-06-16T07:46:15.031Z</time>
      </trkpt>
      <trkpt lat="50.82609" lon="1.59239">
        <ele>15.473876</ele>
        <time>2019-06-16T07:46:25.062Z</time>
      </trkpt>
      <trkpt lat="50.82605" lon="1.59236">
        <ele>15.389863</ele>
        <time>2019-06-16T07:46:25.886Z</time>
      </trkpt>
      <trkpt lat="50.82606" lon="1.5923">
        <ele>15.325382</ele>
        <time>2019-06-16T07:46:26.613Z</time>
      </trkpt>
      <trkpt lat="50.82608" lon="1.59221">
        <ele>15.221389</ele>
        <time>2019-06-16T07:46:27.790Z</time>
      </trkpt>
      <trkpt lat="50.82597" lon="1.59198">
        <ele>14.901383</ele>
        <time>2019-06-16T07:46:31.303Z</time>
      </trkpt>
      <trkpt lat="50.8258" lon="1.59157">
        <ele>14.377947</ele>
        <time>2019-06-16T07:46:37.126Z</time>
      </trkpt>
      <trkpt lat="50.82515" lon="1.59009">
        <ele>12.590831</ele>
        <time>2019-06-16T07:47:00.068Z</time>
      </trkpt>
      <trkpt lat="50.8251" lon="1.59004">
        <ele>12.532953</ele>
        <time>2019-06-16T07:47:01.261Z</time>
      </trkpt>
      <trkpt lat="50.8251" lon="1.59004">
        <ele>12.532953</ele>
        <time>2019-06-16T07:47:01.266Z</time>
      </trkpt>
      <trkpt lat="50.8251" lon="1.59004">
        <ele>12.532953</ele>
        <time>2019-06-16T07:47:01.319Z</time>
      </trkpt>
      <trkpt lat="50.82504" lon="1.59004">
        <ele>12.481644</ele>
        <time>2019-06-16T07:47:02.630Z</time>
      </trkpt>
      <trkpt lat="50.82466" lon="1.59038">
        <ele>12.07607</ele>
        <time>2019-06-16T07:47:12.064Z</time>
      </trkpt>
      <trkpt lat="50.8245" lon="1.59051">
        <ele>11.917875</ele>
        <time>2019-06-16T07:47:15.680Z</time>
      </trkpt>
      <trkpt lat="50.82445" lon="1.59056">
        <ele>11.86088</ele>
        <time>2019-06-16T07:47:16.893Z</time>
      </trkpt>
      <trkpt lat="50.82423" lon="1.59076">
        <ele>11.628347</ele>
        <time>2019-06-16T07:47:22.470Z</time>
      </trkpt>
      <trkpt lat="50.82396" lon="1.591">
        <ele>11.346106</ele>
        <time>2019-06-16T07:47:29.104Z</time>
      </trkpt>
      <trkpt lat="50.82366" lon="1.59127">
        <ele>10.999042</ele>
        <time>2019-06-16T07:47:36.522Z</time>
      </trkpt>
      <trkpt lat="50.82316" lon="1.5917">
        <ele>10.364501</ele>
        <time>2019-06-16T07:47:48.280Z</time>
      </trkpt>
      <trkpt lat="50.82284" lon="1.59199">
        <ele>9.948645</ele>
        <time>2019-06-16T07:47:55.802Z</time>
      </trkpt>
      <trkpt lat="50.82281" lon="1.59204">
        <ele>9.895664</ele>
        <time>2019-06-16T07:47:56.729Z</time>
      </trkpt>
      <trkpt lat="50.82282" lon="1.59211">
        <ele>9.843681</ele>
        <time>2019-06-16T07:47:57.724Z</time>
      </trkpt>
      <trkpt lat="50.8229" lon="1.59234">
        <ele>9.655946</ele>
        <time>2019-06-16T07:48:01.169Z</time>
      </trkpt>
      <trkpt lat="50.82273" lon="1.59246">
        <ele>9.450235</ele>
        <time>2019-06-16T07:48:13.881Z</time>
      </trkpt>
      <trkpt lat="50.82267" lon="1.59242">
        <ele>9.375398</ele>
        <time>2019-06-16T07:48:18.501Z</time>
      </trkpt>
      <trkpt lat="50.82252" lon="1.59249">
        <ele>9.200712</ele>
        <time>2019-06-16T07:48:29.265Z</time>
      </trkpt>
      <trkpt lat="50.82248" lon="1.5925">
        <ele>9.154093</ele>
        <time>2019-06-16T07:48:32.117Z</time>
      </trkpt>
      <trkpt lat="50.82237" lon="1.59282">
        <ele>9.00579</ele>
        <time>2019-06-16T07:48:47.909Z</time>
      </trkpt>
      <trkpt lat="50.82232" lon="1.59282">
        <ele>8.97268</ele>
        <time>2019-06-16T07:48:51.873Z</time>
      </trkpt>
      <trkpt lat="50.82192" lon="1.5931">
        <ele>8.720069</ele>
        <time>2019-06-16T07:49:00.816Z</time>
      </trkpt>
      <trkpt lat="50.82131" lon="1.59357">
        <ele>8.32647</ele>
        <time>2019-06-16T07:49:15.263Z</time>
      </trkpt>
      <trkpt lat="50.82155" lon="1.59442">
        <ele>8.357835</ele>
        <time>2019-06-16T07:49:29.033Z</time>
      </trkpt>
      <trkpt lat="50.82146" lon="1.59451">
        <ele>8.559216</ele>
        <time>2019-06-16T07:49:32.554Z</time>
      </trkpt>
      <trkpt lat="50.8207" lon="1.59562">
        <ele>10.456103</ele>
        <time>2019-06-16T07:50:04.797Z</time>
      </trkpt>
      <trkpt lat="50.82064" lon="1.59567">
        <ele>10.575753</ele>
        <time>2019-06-16T07:50:07.817Z</time>
      </trkpt>
      <trkpt lat="50.82058" lon="1.59573">
        <ele>10.716509</ele>
        <time>2019-06-16T07:50:10.249Z</time>
      </trkpt>
      <trkpt lat="50.82046" lon="1.59582">
        <ele>10.962832</ele>
        <time>2019-06-16T07:50:14.882Z</time>
      </trkpt>
      <trkpt lat="50.82038" lon="1.59589">
        <ele>11.119834</ele>
        <time>2019-06-16T07:50:18.198Z</time>
      </trkpt>
      <trkpt lat="50.82008" lon="1.59615">
        <ele>11.933708</ele>
        <time>2019-06-16T07:50:30.938Z</time>
      </trkpt>
      <trkpt lat="50.81983" lon="1.59642">
        <ele>12.774337</ele>
        <time>2019-06-16T07:50:42.174Z</time>
      </trkpt>
      <trkpt lat="50.81972" lon="1.59662">
        <ele>13.234711</ele>
        <time>2019-06-16T07:50:48.821Z</time>
      </trkpt>
      <trkpt lat="50.81954" lon="1.59689">
        <ele>13.930391</ele>
        <time>2019-06-16T07:50:57.631Z</time>
      </trkpt>
      <trkpt lat="50.81947" lon="1.597">
        <ele>14.19137</ele>
        <time>2019-06-16T07:51:01.710Z</time>
      </trkpt>
      <trkpt lat="50.81955" lon="1.59711">
        <ele>14.485342</ele>
        <time>2019-06-16T07:51:05.188Z</time>
      </trkpt>
      <trkpt lat="50.81951" lon="1.59719">
        <ele>14.657765</ele>
        <time>2019-06-16T07:51:07.906Z</time>
      </trkpt>
      <trkpt lat="50.81945" lon="1.59742">
        <ele>15.103894</ele>
        <time>2019-06-16T07:51:14.532Z</time>
      </trkpt>
      <trkpt lat="50.81872" lon="1.59864">
        <ele>17.408384</ele>
        <time>2019-06-16T07:51:52.931Z</time>
      </trkpt>
      <trkpt lat="50.81872" lon="1.59893">
        <ele>17.722981</ele>
        <time>2019-06-16T07:51:58.763Z</time>
      </trkpt>
      <trkpt lat="50.8186" lon="1.59896">
        <ele>17.93181</ele>
        <time>2019-06-16T07:52:02.676Z</time>
      </trkpt>
      <trkpt lat="50.81856" lon="1.59901">
        <ele>18.021705</ele>
        <time>2019-06-16T07:52:04.722Z</time>
      </trkpt>
      <trkpt lat="50.81794" lon="1.59998">
        <ele>19.496685</ele>
        <time>2019-06-16T07:52:31.588Z</time>
      </trkpt>
      <trkpt lat="50.81794" lon="1.60029">
        <ele>19.705616</ele>
        <time>2019-06-16T07:52:37.889Z</time>
      </trkpt>
      <trkpt lat="50.81782" lon="1.60068">
        <ele>19.993212</ele>
        <time>2019-06-16T07:52:46.114Z</time>
      </trkpt>
      <trkpt lat="50.81761" lon="1.60082">
        <ele>20.235073</ele>
        <time>2019-06-16T07:52:53.381Z</time>
      </trkpt>
      <trkpt lat="50.81682" lon="1.60254">
        <ele>21.635068</ele>
        <time>2019-06-16T07:53:32.597Z</time>
      </trkpt>
      <trkpt lat="50.81677" lon="1.60272">
        <ele>21.759126</ele>
        <time>2019-06-16T07:53:36.102Z</time>
      </trkpt>
      <trkpt lat="50.81636" lon="1.60301">
        <ele>22.224511</ele>
        <time>2019-06-16T07:53:49.399Z</time>
      </trkpt>
      <trkpt lat="50.81589" lon="1.60351">
        <ele>22.80769</ele>
        <time>2019-06-16T07:54:06.520Z</time>
      </trkpt>
      <trkpt lat="50.8155" lon="1.60395">
        <ele>23.353731</ele>
        <time>2019-06-16T07:54:21.224Z</time>
      </trkpt>
      <trkpt lat="50.81541" lon="1.60418">
        <ele>23.604236</ele>
        <time>2019-06-16T07:54:26.384Z</time>
      </trkpt>
      <trkpt lat="50.81527" lon="1.60418">
        <ele>23.82654</ele>
        <time>2019-06-16T07:54:30.759Z</time>
      </trkpt>
      <trkpt lat="50.8152" lon="1.60426">
        <ele>23.956604</ele>
        <time>2019-06-16T07:54:33.589Z</time>
      </trkpt>
      <trkpt lat="50.81515" lon="1.6045">
        <ele>24.196621</ele>
        <time>2019-06-16T07:54:38.596Z</time>
      </trkpt>
      <trkpt lat="50.81491" lon="1.60451">
        <ele>24.567517</ele>
        <time>2019-06-16T07:54:46.336Z</time>
      </trkpt>
      <trkpt lat="50.81468" lon="1.6046">
        <ele>24.93395</ele>
        <time>2019-06-16T07:54:53.904Z</time>
      </trkpt>
      <trkpt lat="50.81445" lon="1.6048">
        <ele>25.330577</ele>
        <time>2019-06-16T07:55:02.492Z</time>
      </trkpt>
      <trkpt lat="50.81433" lon="1.60502">
        <ele>25.620626</ele>
        <time>2019-06-16T07:55:08.773Z</time>
      </trkpt>
      <trkpt lat="50.81413" lon="1.60522">
        <ele>25.969749</ele>
        <time>2019-06-16T07:55:16.553Z</time>
      </trkpt>
      <trkpt lat="50.81405" lon="1.60522">
        <ele>26.096506</ele>
        <time>2019-06-16T07:55:20.085Z</time>
      </trkpt>
      <trkpt lat="50.81366" lon="1.60558">
        <ele>26.761079</ele>
        <time>2019-06-16T07:55:35.612Z</time>
      </trkpt>
      <trkpt lat="50.81359" lon="1.60548">
        <ele>26.890653</ele>
        <time>2019-06-16T07:55:38.378Z</time>
      </trkpt>
      <trkpt lat="50.81292" lon="1.60613">
        <ele>28.043019</ele>
        <time>2019-06-16T07:56:03.976Z</time>
      </trkpt>
      <trkpt lat="50.81286" lon="1.60619">
        <ele>28.158799</ele>
        <time>2019-06-16T07:56:06.942Z</time>
      </trkpt>
      <trkpt lat="50.81283" lon="1.60622">
        <ele>28.207903</ele>
        <time>2019-06-16T07:56:07.890Z</time>
      </trkpt>
      <trkpt lat="50.81241" lon="1.60656">
        <ele>28.479586</ele>
        <time>2019-06-16T07:56:20.747Z</time>
      </trkpt>
      <trkpt lat="50.81231" lon="1.60682">
        <ele>28.358143</ele>
        <time>2019-06-16T07:56:26.019Z</time>
      </trkpt>
      <trkpt lat="50.81211" lon="1.60697">
        <ele>28.221689</ele>
        <time>2019-06-16T07:56:31.333Z</time>
      </trkpt>
      <trkpt lat="50.81201" lon="1.60698">
        <ele>28.162007</ele>
        <time>2019-06-16T07:56:33.749Z</time>
      </trkpt>
      <trkpt lat="50.81196" lon="1.6069">
        <ele>28.116419</ele>
        <time>2019-06-16T07:56:36.856Z</time>
      </trkpt>
      <trkpt lat="50.81194" lon="1.6068">
        <ele>28.076942</ele>
        <time>2019-06-16T07:56:39.048Z</time>
      </trkpt>
      <trkpt lat="50.81177" lon="1.60626">
        <ele>27.840899</ele>
        <time>2019-06-16T07:56:52.451Z</time>
      </trkpt>
      <trkpt lat="50.81171" lon="1.60632">
        <ele>27.796404</ele>
        <time>2019-06-16T07:56:54.899Z</time>
      </trkpt>
      <trkpt lat="50.81163" lon="1.60639">
        <ele>27.738658</ele>
        <time>2019-06-16T07:56:57.916Z</time>
      </trkpt>
      <trkpt lat="50.81144" lon="1.60567">
        <ele>27.271997</ele>
        <time>2019-06-16T07:57:14.005Z</time>
      </trkpt>
      <trkpt lat="50.81128" lon="1.60498">
        <ele>26.06755</ele>
        <time>2019-06-16T07:57:29.048Z</time>
      </trkpt>
      <trkpt lat="50.81126" lon="1.60486">
        <ele>25.8739</ele>
        <time>2019-06-16T07:57:31.341Z</time>
      </trkpt>
      <trkpt lat="50.81097" lon="1.60354">
        <ele>23.613258</ele>
        <time>2019-06-16T07:57:47.663Z</time>
      </trkpt>
      <trkpt lat="50.81093" lon="1.60342">
        <ele>23.392075</ele>
        <time>2019-06-16T07:57:49.302Z</time>
      </trkpt>
      <trkpt lat="50.81091" lon="1.60333">
        <ele>23.237817</ele>
        <time>2019-06-16T07:57:50.410Z</time>
      </trkpt>
      <trkpt lat="50.81078" lon="1.60321">
        <ele>22.853364</ele>
        <time>2019-06-16T07:57:53.068Z</time>
      </trkpt>
      <trkpt lat="50.8102" lon="1.60263">
        <ele>20.800933</ele>
        <time>2019-06-16T07:58:05.592Z</time>
      </trkpt>
      <trkpt lat="50.80978" lon="1.60221">
        <ele>19.329267</ele>
        <time>2019-06-16T07:58:14.563Z</time>
      </trkpt>
      <trkpt lat="50.80876" lon="1.60121">
        <ele>15.535021</ele>
        <time>2019-06-16T07:58:36.249Z</time>
      </trkpt>
      <trkpt lat="50.80825" lon="1.60069">
        <ele>13.514944</ele>
        <time>2019-06-16T07:58:46.881Z</time>
      </trkpt>
      <trkpt lat="50.80825" lon="1.60069">
        <ele>13.514944</ele>
        <time>2019-06-16T07:58:46.893Z</time>
      </trkpt>
      <trkpt lat="50.80825" lon="1.60069">
        <ele>13.514944</ele>
        <time>2019-06-16T07:58:47.012Z</time>
      </trkpt>
      <trkpt lat="50.80781" lon="1.60023">
        <ele>11.741305</ele>
        <time>2019-06-16T07:58:56.492Z</time>
      </trkpt>
      <trkpt lat="50.8077" lon="1.60015">
        <ele>11.391035</ele>
        <time>2019-06-16T07:58:58.593Z</time>
      </trkpt>
      <trkpt lat="50.80767" lon="1.59992">
        <ele>11.047003</ele>
        <time>2019-06-16T07:59:01.301Z</time>
      </trkpt>
      <trkpt lat="50.80764" lon="1.59978">
        <ele>10.824591</ele>
        <time>2019-06-16T07:59:03.049Z</time>
      </trkpt>
      <trkpt lat="50.80746" lon="1.59982">
        <ele>10.389249</ele>
        <time>2019-06-16T07:59:06.368Z</time>
      </trkpt>
      <trkpt lat="50.80701" lon="1.60003">
        <ele>9.296798</ele>
        <time>2019-06-16T07:59:15.159Z</time>
      </trkpt>
      <trkpt lat="50.80679" lon="1.60017">
        <ele>8.744896</ele>
        <time>2019-06-16T07:59:19.601Z</time>
      </trkpt>
      <trkpt lat="50.8065" lon="1.60037">
        <ele>8.019293</ele>
        <time>2019-06-16T07:59:25.657Z</time>
      </trkpt>
      <trkpt lat="50.80633" lon="1.60048">
        <ele>7.591279</ele>
        <time>2019-06-16T07:59:29.351Z</time>
      </trkpt>
      <trkpt lat="50.80626" lon="1.60069">
        <ele>7.345578</ele>
        <time>2019-06-16T07:59:32.296Z</time>
      </trkpt>
      <trkpt lat="50.80625" lon="1.60073">
        <ele>7.34825</ele>
        <time>2019-06-16T07:59:32.875Z</time>
      </trkpt>
      <trkpt lat="50.80618" lon="1.60102">
        <ele>7.366617</ele>
        <time>2019-06-16T07:59:37.164Z</time>
      </trkpt>
      <trkpt lat="50.80621" lon="1.6011">
        <ele>7.371853</ele>
        <time>2019-06-16T07:59:38.437Z</time>
      </trkpt>
      <trkpt lat="50.80668" lon="1.60195">
        <ele>7.437795</ele>
        <time>2019-06-16T07:59:54.855Z</time>
      </trkpt>
      <trkpt lat="50.80744" lon="1.60332">
        <ele>7.919457</ele>
        <time>2019-06-16T08:00:26.824Z</time>
      </trkpt>
      <trkpt lat="50.80788" lon="1.60416">
        <ele>8.641984</ele>
        <time>2019-06-16T08:00:47.210Z</time>
      </trkpt>
      <trkpt lat="50.80788" lon="1.60421">
        <ele>8.680675</ele>
        <time>2019-06-16T08:00:48.414Z</time>
      </trkpt>
      <trkpt lat="50.80788" lon="1.60438">
        <ele>8.790829</ele>
        <time>2019-06-16T08:00:52.267Z</time>
      </trkpt>
      <trkpt lat="50.80787" lon="1.60455">
        <ele>8.904362</ele>
        <time>2019-06-16T08:00:56.003Z</time>
      </trkpt>
      <trkpt lat="50.80785" lon="1.60468">
        <ele>8.992581</ele>
        <time>2019-06-16T08:00:58.938Z</time>
      </trkpt>
      <trkpt lat="50.80783" lon="1.60484">
        <ele>9.104255</ele>
        <time>2019-06-16T08:01:02.499Z</time>
      </trkpt>
      <trkpt lat="50.80769" lon="1.60574">
        <ele>9.401902</ele>
        <time>2019-06-16T08:01:21.607Z</time>
      </trkpt>
      <trkpt lat="50.80763" lon="1.60616">
        <ele>9.400203</ele>
        <time>2019-06-16T08:01:29.869Z</time>
      </trkpt>
      <trkpt lat="50.80733" lon="1.60726">
        <ele>9.395368</ele>
        <time>2019-06-16T08:01:52.013Z</time>
      </trkpt>
      <trkpt lat="50.80727" lon="1.60749">
        <ele>9.394386</ele>
        <time>2019-06-16T08:01:56.420Z</time>
      </trkpt>
      <trkpt lat="50.80723" lon="1.60766">
        <ele>9.393658</ele>
        <time>2019-06-16T08:01:59.655Z</time>
      </trkpt>
      <trkpt lat="50.80702" lon="1.60862">
        <ele>9.235319</ele>
        <time>2019-06-16T08:02:17.414Z</time>
      </trkpt>
      <trkpt lat="50.80658" lon="1.6097">
        <ele>8.95364</ele>
        <time>2019-06-16T08:02:39.580Z</time>
      </trkpt>
      <trkpt lat="50.80605" lon="1.61101">
        <ele>9.1907</ele>
        <time>2019-06-16T08:03:09.585Z</time>
      </trkpt>
      <trkpt lat="50.80592" lon="1.6113">
        <ele>9.410922</ele>
        <time>2019-06-16T08:03:16.800Z</time>
      </trkpt>
      <trkpt lat="50.80583" lon="1.61136">
        <ele>9.504482</ele>
        <time>2019-06-16T08:03:20.075Z</time>
      </trkpt>
      <trkpt lat="50.80543" lon="1.61167">
        <ele>9.936793</ele>
        <time>2019-06-16T08:03:35.403Z</time>
      </trkpt>
      <trkpt lat="50.80523" lon="1.61199">
        <ele>10.212968</ele>
        <time>2019-06-16T08:03:46.006Z</time>
      </trkpt>
      <trkpt lat="50.80504" lon="1.61256">
        <ele>10.718839</ele>
        <time>2019-06-16T08:04:01.258Z</time>
      </trkpt>
      <trkpt lat="50.80469" lon="1.61295">
        <ele>11.596748</ele>
        <time>2019-06-16T08:04:17.614Z</time>
      </trkpt>
      <trkpt lat="50.80415" lon="1.61338">
        <ele>12.850491</ele>
        <time>2019-06-16T08:04:42.323Z</time>
      </trkpt>
      <trkpt lat="50.80386" lon="1.61379">
        <ele>13.649219</ele>
        <time>2019-06-16T08:04:55.540Z</time>
      </trkpt>
      <trkpt lat="50.80376" lon="1.61401">
        <ele>14.007042</ele>
        <time>2019-06-16T08:05:01.427Z</time>
      </trkpt>
      <trkpt lat="50.80367" lon="1.61428">
        <ele>14.350441</ele>
        <time>2019-06-16T08:05:08.170Z</time>
      </trkpt>
      <trkpt lat="50.80366" lon="1.61449">
        <ele>14.527032</ele>
        <time>2019-06-16T08:05:12.786Z</time>
      </trkpt>
      <trkpt lat="50.80368" lon="1.61479">
        <ele>14.77853</ele>
        <time>2019-06-16T08:05:19.225Z</time>
      </trkpt>
      <trkpt lat="50.80367" lon="1.61497">
        <ele>14.939991</ele>
        <time>2019-06-16T08:05:23.882Z</time>
      </trkpt>
      <trkpt lat="50.80379" lon="1.61508">
        <ele>15.119709</ele>
        <time>2019-06-16T08:05:28.393Z</time>
      </trkpt>
      <trkpt lat="50.80436" lon="1.61598">
        <ele>16.211595</ele>
        <time>2019-06-16T08:05:51.944Z</time>
      </trkpt>
      <trkpt lat="50.80449" lon="1.61617">
        <ele>16.445451</ele>
        <time>2019-06-16T08:05:56.598Z</time>
      </trkpt>
      <trkpt lat="50.80476" lon="1.61659">
        <ele>16.475183</ele>
        <time>2019-06-16T08:06:04.955Z</time>
      </trkpt>
      <trkpt lat="50.80495" lon="1.6168">
        <ele>16.289026</ele>
        <time>2019-06-16T08:06:09.691Z</time>
      </trkpt>
      <trkpt lat="50.80523" lon="1.61689">
        <ele>16.054374</ele>
        <time>2019-06-16T08:06:15.258Z</time>
      </trkpt>
      <trkpt lat="50.80536" lon="1.61687">
        <ele>15.94974</ele>
        <time>2019-06-16T08:06:17.983Z</time>
      </trkpt>
      <trkpt lat="50.80534" lon="1.61709">
        <ele>15.836563</ele>
        <time>2019-06-16T08:06:20.543Z</time>
      </trkpt>
      <trkpt lat="50.80527" lon="1.6173">
        <ele>15.712569</ele>
        <time>2019-06-16T08:06:23.654Z</time>
      </trkpt>
      <trkpt lat="50.80516" lon="1.61761">
        <ele>15.534688</ele>
        <time>2019-06-16T08:06:27.814Z</time>
      </trkpt>
      <trkpt lat="50.80502" lon="1.61804">
        <ele>15.28061</ele>
        <time>2019-06-16T08:06:33.828Z</time>
      </trkpt>
      <trkpt lat="50.80492" lon="1.61832">
        <ele>15.157399</ele>
        <time>2019-06-16T08:06:37.717Z</time>
      </trkpt>
      <trkpt lat="50.80475" lon="1.61884">
        <ele>15.018354</ele>
        <time>2019-06-16T08:06:44.883Z</time>
      </trkpt>
      <trkpt lat="50.80399" lon="1.62105">
        <ele>14.506733</ele>
        <time>2019-06-16T08:07:20.175Z</time>
      </trkpt>
      <trkpt lat="50.80388" lon="1.62139">
        <ele>14.492649</ele>
        <time>2019-06-16T08:07:26.674Z</time>
      </trkpt>
      <trkpt lat="50.80379" lon="1.62179">
        <ele>14.477002</ele>
        <time>2019-06-16T08:07:33.157Z</time>
      </trkpt>
      <trkpt lat="50.80377" lon="1.62194">
        <ele>14.471421</ele>
        <time>2019-06-16T08:07:35.819Z</time>
      </trkpt>
      <trkpt lat="50.80377" lon="1.6222">
        <ele>14.461882</ele>
        <time>2019-06-16T08:07:39.637Z</time>
      </trkpt>
      <trkpt lat="50.80378" lon="1.62303">
        <ele>14.431428</ele>
        <time>2019-06-16T08:07:51.677Z</time>
      </trkpt>
      <trkpt lat="50.8032" lon="1.62718">
        <ele>11.392221</ele>
        <time>2019-06-16T08:08:43.002Z</time>
      </trkpt>
      <trkpt lat="50.80317" lon="1.62727">
        <ele>11.343898</ele>
        <time>2019-06-16T08:08:44.091Z</time>
      </trkpt>
      <trkpt lat="50.80299" lon="1.62732">
        <ele>11.205864</ele>
        <time>2019-06-16T08:08:48.078Z</time>
      </trkpt>
      <trkpt lat="50.80247" lon="1.62742">
        <ele>10.808649</ele>
        <time>2019-06-16T08:08:58.964Z</time>
      </trkpt>
      <trkpt lat="50.802" lon="1.62745">
        <ele>10.551982</ele>
        <time>2019-06-16T08:09:09.295Z</time>
      </trkpt>
      <trkpt lat="50.80198" lon="1.62745">
        <ele>10.566486</ele>
        <time>2019-06-16T08:09:10.017Z</time>
      </trkpt>
      <trkpt lat="50.80188" lon="1.62747">
        <ele>10.617538</ele>
        <time>2019-06-16T08:09:12.928Z</time>
      </trkpt>
      <trkpt lat="50.80161" lon="1.62751">
        <ele>10.758613</ele>
        <time>2019-06-16T08:09:18.870Z</time>
      </trkpt>
      <trkpt lat="50.80154" lon="1.62753">
        <ele>10.795167</ele>
        <time>2019-06-16T08:09:21.186Z</time>
      </trkpt>
      <trkpt lat="50.80138" lon="1.62777">
        <ele>10.906518</ele>
        <time>2019-06-16T08:09:26.648Z</time>
      </trkpt>
      <trkpt lat="50.80132" lon="1.62806">
        <ele>11.007559</ele>
        <time>2019-06-16T08:09:32.216Z</time>
      </trkpt>
      <trkpt lat="50.80123" lon="1.62879">
        <ele>11.249722</ele>
        <time>2019-06-16T08:09:44.606Z</time>
      </trkpt>
      <trkpt lat="50.80121" lon="1.62952">
        <ele>11.379672</ele>
        <time>2019-06-16T08:09:56.438Z</time>
      </trkpt>
      <trkpt lat="50.80128" lon="1.63005">
        <ele>11.145419</ele>
        <time>2019-06-16T08:10:04.274Z</time>
      </trkpt>
      <trkpt lat="50.80179" lon="1.63214">
        <ele>10.157371</ele>
        <time>2019-06-16T08:10:32.271Z</time>
      </trkpt>
      <trkpt lat="50.80198" lon="1.6329">
        <ele>9.659314</ele>
        <time>2019-06-16T08:10:42.344Z</time>
      </trkpt>
      <trkpt lat="50.80201" lon="1.63323">
        <ele>9.454625</ele>
        <time>2019-06-16T08:10:46.434Z</time>
      </trkpt>
      <trkpt lat="50.80195" lon="1.63337">
        <ele>9.350792</ele>
        <time>2019-06-16T08:10:48.595Z</time>
      </trkpt>
      <trkpt lat="50.80172" lon="1.63349">
        <ele>9.116909</ele>
        <time>2019-06-16T08:10:53.350Z</time>
      </trkpt>
      <trkpt lat="50.80084" lon="1.63368">
        <ele>8.483236</ele>
        <time>2019-06-16T08:11:11.537Z</time>
      </trkpt>
      <trkpt lat="50.80057" lon="1.63357">
        <ele>8.504909</ele>
        <time>2019-06-16T08:11:17.503Z</time>
      </trkpt>
      <trkpt lat="50.79799" lon="1.63089">
        <ele>9.608851</ele>
        <time>2019-06-16T08:12:32.239Z</time>
      </trkpt>
      <trkpt lat="50.79735" lon="1.63072">
        <ele>11.0377</ele>
        <time>2019-06-16T08:12:51.791Z</time>
      </trkpt>
      <trkpt lat="50.79677" lon="1.63066">
        <ele>12.356335</ele>
        <time>2019-06-16T08:13:11.087Z</time>
      </trkpt>
      <trkpt lat="50.79634" lon="1.6306">
        <ele>13.319827</ele>
        <time>2019-06-16T08:13:27.414Z</time>
      </trkpt>
      <trkpt lat="50.79605" lon="1.63061">
        <ele>14.097549</ele>
        <time>2019-06-16T08:13:39.185Z</time>
      </trkpt>
      <trkpt lat="50.79508" lon="1.63088">
        <ele>17.138394</ele>
        <time>2019-06-16T08:14:20.596Z</time>
      </trkpt>
      <trkpt lat="50.79486" lon="1.63096">
        <ele>17.829498</ele>
        <time>2019-06-16T08:14:29.568Z</time>
      </trkpt>
      <trkpt lat="50.79469" lon="1.63107">
        <ele>18.393988</ele>
        <time>2019-06-16T08:14:35.561Z</time>
      </trkpt>
      <trkpt lat="50.79435" lon="1.63129">
        <ele>19.140468</ele>
        <time>2019-06-16T08:14:47.006Z</time>
      </trkpt>
      <trkpt lat="50.79408" lon="1.63144">
        <ele>18.949906</ele>
        <time>2019-06-16T08:14:54.820Z</time>
      </trkpt>
      <trkpt lat="50.79376" lon="1.63158">
        <ele>18.730791</ele>
        <time>2019-06-16T08:15:02.872Z</time>
      </trkpt>
      <trkpt lat="50.79192" lon="1.63242">
        <ele>16.618607</ele>
        <time>2019-06-16T08:15:38.034Z</time>
      </trkpt>
      <trkpt lat="50.79078" lon="1.63388">
        <ele>14.777162</ele>
        <time>2019-06-16T08:16:06.147Z</time>
      </trkpt>
      <trkpt lat="50.79017" lon="1.63428">
        <ele>14.475133</ele>
        <time>2019-06-16T08:16:20.128Z</time>
      </trkpt>
      <trkpt lat="50.78993" lon="1.63382">
        <ele>14.301456</ele>
        <time>2019-06-16T08:16:28.779Z</time>
      </trkpt>
      <trkpt lat="50.78984" lon="1.63336">
        <ele>14.234461</ele>
        <time>2019-06-16T08:16:36.099Z</time>
      </trkpt>
      <trkpt lat="50.78965" lon="1.63287">
        <ele>14.659933</ele>
        <time>2019-06-16T08:16:45.055Z</time>
      </trkpt>
      <trkpt lat="50.78775" lon="1.62991">
        <ele>19.550908</ele>
        <time>2019-06-16T08:18:07.302Z</time>
      </trkpt>
      <trkpt lat="50.78758" lon="1.62962">
        <ele>20.184516</ele>
        <time>2019-06-16T08:18:18.128Z</time>
      </trkpt>
      <trkpt lat="50.78632" lon="1.62757">
        <ele>28.345528</ele>
        <time>2019-06-16T08:19:46.434Z</time>
      </trkpt>
      <trkpt lat="50.78611" lon="1.62721">
        <ele>29.804818</ele>
        <time>2019-06-16T08:20:01.495Z</time>
      </trkpt>
      <trkpt lat="50.78567" lon="1.62616">
        <ele>32.419059</ele>
        <time>2019-06-16T08:20:36.137Z</time>
      </trkpt>
      <trkpt lat="50.78532" lon="1.62567">
        <ele>33.98526</ele>
        <time>2019-06-16T08:20:53.823Z</time>
      </trkpt>
      <trkpt lat="50.78519" lon="1.62557">
        <ele>34.45477</ele>
        <time>2019-06-16T08:20:59.146Z</time>
      </trkpt>
      <trkpt lat="50.785" lon="1.62542">
        <ele>35.154142</ele>
        <time>2019-06-16T08:21:05.974Z</time>
      </trkpt>
      <trkpt lat="50.78487" lon="1.62526">
        <ele>35.63341</ele>
        <time>2019-06-16T08:21:11.582Z</time>
      </trkpt>
      <trkpt lat="50.78483" lon="1.62516">
        <ele>35.742265</ele>
        <time>2019-06-16T08:21:13.974Z</time>
      </trkpt>
      <trkpt lat="50.78481" lon="1.62509">
        <ele>35.810689</ele>
        <time>2019-06-16T08:21:15.405Z</time>
      </trkpt>
      <trkpt lat="50.78475" lon="1.62489">
        <ele>36.019502</ele>
        <time>2019-06-16T08:21:20.020Z</time>
      </trkpt>
      <trkpt lat="50.78463" lon="1.62429">
        <ele>36.596688</ele>
        <time>2019-06-16T08:21:32.528Z</time>
      </trkpt>
      <trkpt lat="50.78432" lon="1.62315">
        <ele>37.73996</ele>
        <time>2019-06-16T08:21:56.004Z</time>
      </trkpt>
      <trkpt lat="50.78418" lon="1.62266">
        <ele>38.222494</ele>
        <time>2019-06-16T08:22:05.363Z</time>
      </trkpt>
      <trkpt lat="50.78409" lon="1.62237">
        <ele>38.388216</ele>
        <time>2019-06-16T08:22:10.953Z</time>
      </trkpt>
      <trkpt lat="50.78383" lon="1.62207">
        <ele>38.655305</ele>
        <time>2019-06-16T08:22:19.621Z</time>
      </trkpt>
      <trkpt lat="50.78367" lon="1.6219">
        <ele>38.816934</ele>
        <time>2019-06-16T08:22:24.780Z</time>
      </trkpt>
      <trkpt lat="50.78349" lon="1.62175">
        <ele>38.981897</ele>
        <time>2019-06-16T08:22:29.882Z</time>
      </trkpt>
      <trkpt lat="50.78324" lon="1.62158">
        <ele>39.204155</ele>
        <time>2019-06-16T08:22:36.956Z</time>
      </trkpt>
      <trkpt lat="50.78282" lon="1.62141">
        <ele>39.569836</ele>
        <time>2019-06-16T08:22:48.345Z</time>
      </trkpt>
      <trkpt lat="50.78273" lon="1.62141">
        <ele>39.644111</ele>
        <time>2019-06-16T08:22:50.999Z</time>
      </trkpt>
      <trkpt lat="50.78267" lon="1.62129">
        <ele>39.735291</ele>
        <time>2019-06-16T08:22:53.096Z</time>
      </trkpt>
      <trkpt lat="50.78258" lon="1.62115">
        <ele>39.89379</ele>
        <time>2019-06-16T08:22:56.335Z</time>
      </trkpt>
      <trkpt lat="50.78234" lon="1.62083">
        <ele>40.289278</ele>
        <time>2019-06-16T08:23:04.584Z</time>
      </trkpt>
      <trkpt lat="50.78221" lon="1.62066">
        <ele>40.503759</ele>
        <time>2019-06-16T08:23:09.761Z</time>
      </trkpt>
      <trkpt lat="50.78148" lon="1.61997">
        <ele>41.567824</ele>
        <time>2019-06-16T08:23:34.321Z</time>
      </trkpt>
      <trkpt lat="50.78128" lon="1.61961">
        <ele>41.951135</ele>
        <time>2019-06-16T08:23:43.404Z</time>
      </trkpt>
      <trkpt lat="50.78114" lon="1.61935">
        <ele>42.30524</ele>
        <time>2019-06-16T08:23:49.741Z</time>
      </trkpt>
      <trkpt lat="50.78113" lon="1.61934">
        <ele>42.325589</ele>
        <time>2019-06-16T08:23:50.337Z</time>
      </trkpt>
      <trkpt lat="50.78099" lon="1.61914">
        <ele>42.636488</ele>
        <time>2019-06-16T08:23:55.940Z</time>
      </trkpt>
      <trkpt lat="50.7809" lon="1.61905">
        <ele>42.822263</ele>
        <time>2019-06-16T08:23:59.510Z</time>
      </trkpt>
      <trkpt lat="50.78062" lon="1.61875">
        <ele>43.385509</ele>
        <time>2019-06-16T08:24:10.076Z</time>
      </trkpt>
      <trkpt lat="50.77993" lon="1.61793">
        <ele>44.827368</ele>
        <time>2019-06-16T08:24:37.408Z</time>
      </trkpt>
      <trkpt lat="50.77972" lon="1.61766">
        <ele>45.041768</ele>
        <time>2019-06-16T08:24:45.484Z</time>
      </trkpt>
      <trkpt lat="50.77915" lon="1.61695">
        <ele>45.386157</ele>
        <time>2019-06-16T08:25:04.513Z</time>
      </trkpt>
      <trkpt lat="50.77899" lon="1.61683">
        <ele>45.468497</ele>
        <time>2019-06-16T08:25:08.465Z</time>
      </trkpt>
      <trkpt lat="50.77896" lon="1.61683">
        <ele>45.486596</ele>
        <time>2019-06-16T08:25:09.639Z</time>
      </trkpt>
      <trkpt lat="50.77873" lon="1.61485">
        <ele>45.225314</ele>
        <time>2019-06-16T08:25:37.817Z</time>
      </trkpt>
      <trkpt lat="50.77865" lon="1.61412">
        <ele>44.779154</ele>
        <time>2019-06-16T08:25:47.468Z</time>
      </trkpt>
      <trkpt lat="50.77857" lon="1.61324">
        <ele>44.244288</ele>
        <time>2019-06-16T08:25:58.864Z</time>
      </trkpt>
      <trkpt lat="50.77852" lon="1.61276">
        <ele>43.894766</ele>
        <time>2019-06-16T08:26:05.047Z</time>
      </trkpt>
      <trkpt lat="50.77783" lon="1.613">
        <ele>42.952094</ele>
        <time>2019-06-16T08:26:18.816Z</time>
      </trkpt>
      <trkpt lat="50.77771" lon="1.61303">
        <ele>42.790003</ele>
        <time>2019-06-16T08:26:21.340Z</time>
      </trkpt>
      <trkpt lat="50.77771" lon="1.61286">
        <ele>42.647408</ele>
        <time>2019-06-16T08:26:23.403Z</time>
      </trkpt>
      <trkpt lat="50.77772" lon="1.61236">
        <ele>42.227115</ele>
        <time>2019-06-16T08:26:29.677Z</time>
      </trkpt>
      <trkpt lat="50.77772" lon="1.612">
        <ele>41.928491</ele>
        <time>2019-06-16T08:26:33.999Z</time>
      </trkpt>
      <trkpt lat="50.77772" lon="1.61155">
        <ele>41.383797</ele>
        <time>2019-06-16T08:26:39.401Z</time>
      </trkpt>
      <trkpt lat="50.77773" lon="1.61147">
        <ele>41.225012</ele>
        <time>2019-06-16T08:26:40.479Z</time>
      </trkpt>
      <trkpt lat="50.77773" lon="1.61137">
        <ele>41.050991</ele>
        <time>2019-06-16T08:26:41.642Z</time>
      </trkpt>
      <trkpt lat="50.77769" lon="1.61113">
        <ele>40.602971</ele>
        <time>2019-06-16T08:26:44.500Z</time>
      </trkpt>
      <trkpt lat="50.7777" lon="1.6111">
        <ele>40.533884</ele>
        <time>2019-06-16T08:26:44.955Z</time>
      </trkpt>
      <trkpt lat="50.7777" lon="1.61105">
        <ele>40.443177</ele>
        <time>2019-06-16T08:26:45.536Z</time>
      </trkpt>
      <trkpt lat="50.77769" lon="1.61101">
        <ele>40.37402</ele>
        <time>2019-06-16T08:26:45.991Z</time>
      </trkpt>
      <trkpt lat="50.77774" lon="1.61093">
        <ele>40.182233</ele>
        <time>2019-06-16T08:26:47.267Z</time>
      </trkpt>
      <trkpt lat="50.77779" lon="1.61086">
        <ele>39.975587</ele>
        <time>2019-06-16T08:26:48.639Z</time>
      </trkpt>
      <trkpt lat="50.77777" lon="1.61078">
        <ele>39.816336</ele>
        <time>2019-06-16T08:26:49.646Z</time>
      </trkpt>
      <trkpt lat="50.77754" lon="1.6103">
        <ele>38.727682</ele>
        <time>2019-06-16T08:26:56.626Z</time>
      </trkpt>
      <trkpt lat="50.77708" lon="1.60923">
        <ele>36.189108</ele>
        <time>2019-06-16T08:27:10.349Z</time>
      </trkpt>
      <trkpt lat="50.77667" lon="1.6083">
        <ele>32.042799</ele>
        <time>2019-06-16T08:27:21.474Z</time>
      </trkpt>
      <trkpt lat="50.77664" lon="1.60827">
        <ele>31.879015</ele>
        <time>2019-06-16T08:27:21.862Z</time>
      </trkpt>
      <trkpt lat="50.77662" lon="1.60827">
        <ele>31.722583</ele>
        <time>2019-06-16T08:27:22.231Z</time>
      </trkpt>
      <trkpt lat="50.7763" lon="1.60834">
        <ele>29.872161</ele>
        <time>2019-06-16T08:27:27.263Z</time>
      </trkpt>
      <trkpt lat="50.77593" lon="1.60843">
        <ele>27.679682</ele>
        <time>2019-06-16T08:27:33.005Z</time>
      </trkpt>
      <trkpt lat="50.77539" lon="1.60855">
        <ele>24.974534</ele>
        <time>2019-06-16T08:27:41.320Z</time>
      </trkpt>
      <trkpt lat="50.77534" lon="1.60805">
        <ele>23.629604</ele>
        <time>2019-06-16T08:27:46.162Z</time>
      </trkpt>
      <trkpt lat="50.77366" lon="1.60818">
        <ele>17.3446</ele>
        <time>2019-06-16T08:28:14.817Z</time>
      </trkpt>
      <trkpt lat="50.77333" lon="1.60755">
        <ele>16.069462</ele>
        <time>2019-06-16T08:28:24.274Z</time>
      </trkpt>
      <trkpt lat="50.77296" lon="1.60692">
        <ele>14.759501</ele>
        <time>2019-06-16T08:28:34.248Z</time>
      </trkpt>
      <trkpt lat="50.77282" lon="1.6067">
        <ele>14.279629</ele>
        <time>2019-06-16T08:28:37.790Z</time>
      </trkpt>
      <trkpt lat="50.77278" lon="1.60664">
        <ele>14.138757</ele>
        <time>2019-06-16T08:28:38.959Z</time>
      </trkpt>
      <trkpt lat="50.77274" lon="1.60662">
        <ele>14.030237</ele>
        <time>2019-06-16T08:28:39.742Z</time>
      </trkpt>
      <trkpt lat="50.7725" lon="1.60662">
        <ele>13.462972</ele>
        <time>2019-06-16T08:28:44.093Z</time>
      </trkpt>
      <trkpt lat="50.77246" lon="1.60669">
        <ele>13.322402</ele>
        <time>2019-06-16T08:28:45.325Z</time>
      </trkpt>
      <trkpt lat="50.77225" lon="1.60742">
        <ele>12.11662</ele>
        <time>2019-06-16T08:28:54.972Z</time>
      </trkpt>
      <trkpt lat="50.772" lon="1.60713">
        <ele>11.387445</ele>
        <time>2019-06-16T08:29:00.667Z</time>
      </trkpt>
      <trkpt lat="50.77195" lon="1.60709">
        <ele>11.251463</ele>
        <time>2019-06-16T08:29:01.711Z</time>
      </trkpt>
      <trkpt lat="50.77186" lon="1.60712">
        <ele>11.025377</ele>
        <time>2019-06-16T08:29:03.310Z</time>
      </trkpt>
      <trkpt lat="50.77178" lon="1.60718">
        <ele>10.829949</ele>
        <time>2019-06-16T08:29:04.793Z</time>
      </trkpt>
      <trkpt lat="50.7715" lon="1.60754">
        <ele>9.96592</ele>
        <time>2019-06-16T08:29:11.184Z</time>
      </trkpt>
      <trkpt lat="50.77062" lon="1.60864">
        <ele>8.339423</ele>
        <time>2019-06-16T08:29:32.166Z</time>
      </trkpt>
      <trkpt lat="50.77051" lon="1.6087">
        <ele>8.174135</ele>
        <time>2019-06-16T08:29:34.302Z</time>
      </trkpt>
      <trkpt lat="50.77053" lon="1.60835">
        <ele>7.859026</ele>
        <time>2019-06-16T08:29:38.800Z</time>
      </trkpt>
      <trkpt lat="50.77055" lon="1.60782">
        <ele>7.383964</ele>
        <time>2019-06-16T08:29:45.733Z</time>
      </trkpt>
      <trkpt lat="50.77063" lon="1.60769">
        <ele>7.348729</ele>
        <time>2019-06-16T08:29:48.013Z</time>
      </trkpt>
      <trkpt lat="50.77066" lon="1.60756">
        <ele>7.392728</ele>
        <time>2019-06-16T08:29:49.934Z</time>
      </trkpt>
      <trkpt lat="50.77071" lon="1.60755">
        <ele>7.413986</ele>
        <time>2019-06-16T08:29:50.909Z</time>
      </trkpt>
      <trkpt lat="50.77074" lon="1.60751">
        <ele>7.435234</ele>
        <time>2019-06-16T08:29:51.953Z</time>
      </trkpt>
      <trkpt lat="50.77076" lon="1.60744">
        <ele>7.456589</ele>
        <time>2019-06-16T08:29:53.113Z</time>
      </trkpt>
      <trkpt lat="50.77075" lon="1.60738">
        <ele>7.475268</ele>
        <time>2019-06-16T08:29:54.010Z</time>
      </trkpt>
      <trkpt lat="50.7707" lon="1.6073">
        <ele>7.511738</ele>
        <time>2019-06-16T08:29:55.797Z</time>
      </trkpt>
      <trkpt lat="50.77066" lon="1.6073">
        <ele>7.530306</ele>
        <time>2019-06-16T08:29:56.635Z</time>
      </trkpt>
      <trkpt lat="50.77067" lon="1.60692">
        <ele>7.649197</ele>
        <time>2019-06-16T08:30:06.409Z</time>
      </trkpt>
      <trkpt lat="50.77062" lon="1.60692">
        <ele>7.671193</ele>
        <time>2019-06-16T08:30:08.226Z</time>
      </trkpt>
      <trkpt lat="50.77026" lon="1.60688">
        <ele>7.84975</ele>
        <time>2019-06-16T08:30:23.284Z</time>
      </trkpt>
      <trkpt lat="50.77015" lon="1.60687">
        <ele>7.903073</ele>
        <time>2019-06-16T08:30:26.548Z</time>
      </trkpt>
      <trkpt lat="50.77014" lon="1.60679">
        <ele>7.927637</ele>
        <time>2019-06-16T08:30:30.051Z</time>
      </trkpt>
      <trkpt lat="50.77011" lon="1.60674">
        <ele>7.947011</ele>
        <time>2019-06-16T08:30:32.820Z</time>
      </trkpt>
      <trkpt lat="50.77001" lon="1.60666">
        <ele>8.000854</ele>
        <time>2019-06-16T08:30:40.507Z</time>
      </trkpt>
      <trkpt lat="50.76994" lon="1.60665">
        <ele>8.039</ele>
        <time>2019-06-16T08:30:45.921Z</time>
      </trkpt>
      <trkpt lat="50.76964" lon="1.60662">
        <ele>8.184259</ele>
        <time>2019-06-16T08:31:06.636Z</time>
      </trkpt>
      <trkpt lat="50.76961" lon="1.60734">
        <ele>8.480565</ele>
        <time>2019-06-16T08:31:18.766Z</time>
      </trkpt>
      <trkpt lat="50.76926" lon="1.60728">
        <ele>8.707959</ele>
        <time>2019-06-16T08:31:28.463Z</time>
      </trkpt>
      <trkpt lat="50.76887" lon="1.6072">
        <ele>8.970595</ele>
        <time>2019-06-16T08:31:39.542Z</time>
      </trkpt>
      <trkpt lat="50.76838" lon="1.60713">
        <ele>9.289615</ele>
        <time>2019-06-16T08:31:51.845Z</time>
      </trkpt>
      <trkpt lat="50.76838" lon="1.60717">
        <ele>9.3067</ele>
        <time>2019-06-16T08:31:52.455Z</time>
      </trkpt>
      <trkpt lat="50.76835" lon="1.60717">
        <ele>9.328477</ele>
        <time>2019-06-16T08:31:53.194Z</time>
      </trkpt>
      <trkpt lat="50.76794" lon="1.60711">
        <ele>9.410777</ele>
        <time>2019-06-16T08:32:02.626Z</time>
      </trkpt>
      <trkpt lat="50.76761" lon="1.60705">
        <ele>9.443868</ele>
        <time>2019-06-16T08:32:10.156Z</time>
      </trkpt>
      <trkpt lat="50.76757" lon="1.60705">
        <ele>9.447166</ele>
        <time>2019-06-16T08:32:11.061Z</time>
      </trkpt>
      <trkpt lat="50.7673" lon="1.607">
        <ele>9.474982</ele>
        <time>2019-06-16T08:32:17.434Z</time>
      </trkpt>
      <trkpt lat="50.76716" lon="1.60698">
        <ele>9.488791</ele>
        <time>2019-06-16T08:32:20.773Z</time>
      </trkpt>
      <trkpt lat="50.76717" lon="1.60648">
        <ele>9.520272</ele>
        <time>2019-06-16T08:32:28.220Z</time>
      </trkpt>
      <trkpt lat="50.76719" lon="1.60636">
        <ele>9.527594</ele>
        <time>2019-06-16T08:32:33.379Z</time>
      </trkpt>
      <trkpt lat="50.76697" lon="1.60632">
        <ele>9.549791</ele>
        <time>2019-06-16T08:32:48.878Z</time>
      </trkpt>
      <trkpt lat="50.7668" lon="1.60628">
        <ele>9.733379</ele>
        <time>2019-06-16T08:33:00.962Z</time>
      </trkpt>
      <trkpt lat="50.76679" lon="1.60646">
        <ele>9.920254</ele>
        <time>2019-06-16T08:33:08.976Z</time>
      </trkpt>
      <trkpt lat="50.76679" lon="1.60661">
        <ele>10.074294</ele>
        <time>2019-06-16T08:33:11.560Z</time>
      </trkpt>
      <trkpt lat="50.76678" lon="1.60691">
        <ele>10.387036</ele>
        <time>2019-06-16T08:33:16.626Z</time>
      </trkpt>
      <trkpt lat="50.76676" lon="1.60749">
        <ele>10.977237</ele>
        <time>2019-06-16T08:33:26.533Z</time>
      </trkpt>
      <trkpt lat="50.76637" lon="1.60739">
        <ele>11.612664</ele>
        <time>2019-06-16T08:33:38.736Z</time>
      </trkpt>
      <trkpt lat="50.76616" lon="1.60733">
        <ele>11.959359</ele>
        <time>2019-06-16T08:33:45.805Z</time>
      </trkpt>
      <trkpt lat="50.76615" lon="1.60742">
        <ele>12.049284</ele>
        <time>2019-06-16T08:33:47.685Z</time>
      </trkpt>
      <trkpt lat="50.76602" lon="1.60852">
        <ele>14.229112</ele>
        <time>2019-06-16T08:34:16.425Z</time>
      </trkpt>
      <trkpt lat="50.76597" lon="1.60907">
        <ele>15.609013</ele>
        <time>2019-06-16T08:34:32.166Z</time>
      </trkpt>
      <trkpt lat="50.76591" lon="1.60964">
        <ele>17.020242</ele>
        <time>2019-06-16T08:34:48.484Z</time>
      </trkpt>
      <trkpt lat="50.76584" lon="1.61007">
        <ele>18.124832</ele>
        <time>2019-06-16T08:35:01.838Z</time>
      </trkpt>
      <trkpt lat="50.76577" lon="1.60996">
        <ele>18.498136</ele>
        <time>2019-06-16T08:35:05.394Z</time>
      </trkpt>
      <trkpt lat="50.76573" lon="1.61002">
        <ele>18.723545</ele>
        <time>2019-06-16T08:35:08.942Z</time>
      </trkpt>
      <trkpt lat="50.7651" lon="1.61076">
        <ele>20.645126</ele>
        <time>2019-06-16T08:35:41.220Z</time>
      </trkpt>
      <trkpt lat="50.76503" lon="1.61081">
        <ele>20.797725</ele>
        <time>2019-06-16T08:35:43.877Z</time>
      </trkpt>
      <trkpt lat="50.76465" lon="1.61128">
        <ele>21.74467</ele>
        <time>2019-06-16T08:36:00.057Z</time>
      </trkpt>
      <trkpt lat="50.76435" lon="1.61216">
        <ele>22.990227</ele>
        <time>2019-06-16T08:36:16.540Z</time>
      </trkpt>
      <trkpt lat="50.7642" lon="1.61262">
        <ele>22.741418</ele>
        <time>2019-06-16T08:36:23.806Z</time>
      </trkpt>
      <trkpt lat="50.764" lon="1.61303">
        <ele>22.425129</ele>
        <time>2019-06-16T08:36:30.551Z</time>
      </trkpt>
      <trkpt lat="50.76383" lon="1.61328">
        <ele>22.195759</ele>
        <time>2019-06-16T08:36:35.560Z</time>
      </trkpt>
      <trkpt lat="50.76382" lon="1.61334">
        <ele>22.156343</ele>
        <time>2019-06-16T08:36:36.331Z</time>
      </trkpt>
      <trkpt lat="50.76365" lon="1.61335">
        <ele>21.989188</ele>
        <time>2019-06-16T08:36:39.544Z</time>
      </trkpt>
      <trkpt lat="50.76359" lon="1.61337">
        <ele>21.929488</ele>
        <time>2019-06-16T08:36:40.711Z</time>
      </trkpt>
      <trkpt lat="50.76359" lon="1.61347">
        <ele>21.867339</ele>
        <time>2019-06-16T08:36:42.035Z</time>
      </trkpt>
      <trkpt lat="50.76366" lon="1.61372">
        <ele>21.701096</ele>
        <time>2019-06-16T08:36:45.140Z</time>
      </trkpt>
      <trkpt lat="50.76367" lon="1.61374">
        <ele>21.683753</ele>
        <time>2019-06-16T08:36:45.530Z</time>
      </trkpt>
      <trkpt lat="50.76368" lon="1.61377">
        <ele>21.66799</ele>
        <time>2019-06-16T08:36:45.810Z</time>
      </trkpt>
      <trkpt lat="50.76373" lon="1.61387">
        <ele>21.588988</ele>
        <time>2019-06-16T08:36:47.213Z</time>
      </trkpt>
      <trkpt lat="50.76379" lon="1.61398">
        <ele>21.498727</ele>
        <time>2019-06-16T08:36:49.155Z</time>
      </trkpt>
      <trkpt lat="50.76385" lon="1.61409">
        <ele>21.40609</ele>
        <time>2019-06-16T08:36:51.041Z</time>
      </trkpt>
      <trkpt lat="50.76399" lon="1.61437">
        <ele>21.213865</ele>
        <time>2019-06-16T08:36:55.189Z</time>
      </trkpt>
      <trkpt lat="50.76426" lon="1.61443">
        <ele>21.042316</ele>
        <time>2019-06-16T08:37:00.363Z</time>
      </trkpt>
      <trkpt lat="50.76434" lon="1.61443">
        <ele>20.993949</ele>
        <time>2019-06-16T08:37:01.849Z</time>
      </trkpt>
      <trkpt lat="50.76449" lon="1.61441">
        <ele>20.895159</ele>
        <time>2019-06-16T08:37:05.349Z</time>
      </trkpt>
      <trkpt lat="50.76449" lon="1.61448">
        <ele>20.868928</ele>
        <time>2019-06-16T08:37:06.066Z</time>
      </trkpt>
      <trkpt lat="50.76452" lon="1.61508">
        <ele>20.627438</ele>
        <time>2019-06-16T08:37:14.394Z</time>
      </trkpt>
      <trkpt lat="50.76449" lon="1.6152">
        <ele>20.575823</ele>
        <time>2019-06-16T08:37:16.010Z</time>
      </trkpt>
      <trkpt lat="50.76444" lon="1.61528">
        <ele>20.528808</ele>
        <time>2019-06-16T08:37:17.691Z</time>
      </trkpt>
      <trkpt lat="50.76437" lon="1.61531">
        <ele>20.486702</ele>
        <time>2019-06-16T08:37:19.739Z</time>
      </trkpt>
      <trkpt lat="50.76367" lon="1.61554">
        <ele>20.26051</ele>
        <time>2019-06-16T08:37:36.139Z</time>
      </trkpt>
      <trkpt lat="50.76333" lon="1.61582">
        <ele>20.593642</ele>
        <time>2019-06-16T08:37:45.277Z</time>
      </trkpt>
      <trkpt lat="50.76316" lon="1.61603">
        <ele>20.777871</ele>
        <time>2019-06-16T08:37:50.556Z</time>
      </trkpt>
      <trkpt lat="50.76295" lon="1.61619">
        <ele>20.982533</ele>
        <time>2019-06-16T08:37:57.662Z</time>
      </trkpt>
      <trkpt lat="50.76267" lon="1.6164">
        <ele>21.25051</ele>
        <time>2019-06-16T08:38:06.764Z</time>
      </trkpt>
      <trkpt lat="50.76246" lon="1.61645">
        <ele>21.436136</ele>
        <time>2019-06-16T08:38:13.267Z</time>
      </trkpt>
      <trkpt lat="50.76213" lon="1.61654">
        <ele>21.748952</ele>
        <time>2019-06-16T08:38:23.676Z</time>
      </trkpt>
      <trkpt lat="50.76206" lon="1.61663">
        <ele>21.852287</ele>
        <time>2019-06-16T08:38:26.183Z</time>
      </trkpt>
      <trkpt lat="50.76157" lon="1.61712">
        <ele>22.594603</ele>
        <time>2019-06-16T08:38:44.519Z</time>
      </trkpt>
      <trkpt lat="50.761" lon="1.61736">
        <ele>23.344776</ele>
        <time>2019-06-16T08:39:03.189Z</time>
      </trkpt>
      <trkpt lat="50.76061" lon="1.61765">
        <ele>23.890209</ele>
        <time>2019-06-16T08:39:14.586Z</time>
      </trkpt>
      <trkpt lat="50.76032" lon="1.61803">
        <ele>23.874277</ele>
        <time>2019-06-16T08:39:24.257Z</time>
      </trkpt>
      <trkpt lat="50.76019" lon="1.61832">
        <ele>23.811218</ele>
        <time>2019-06-16T08:39:29.448Z</time>
      </trkpt>
      <trkpt lat="50.76012" lon="1.61862">
        <ele>23.753277</ele>
        <time>2019-06-16T08:39:33.553Z</time>
      </trkpt>
      <trkpt lat="50.76006" lon="1.61887">
        <ele>23.707114</ele>
        <time>2019-06-16T08:39:37.959Z</time>
      </trkpt>
      <trkpt lat="50.76006" lon="1.61899">
        <ele>23.685362</ele>
        <time>2019-06-16T08:39:39.341Z</time>
      </trkpt>
      <trkpt lat="50.76025" lon="1.61975">
        <ele>23.540149</ele>
        <time>2019-06-16T08:39:50.361Z</time>
      </trkpt>
      <trkpt lat="50.76047" lon="1.62003">
        <ele>23.460219</ele>
        <time>2019-06-16T08:39:57.520Z</time>
      </trkpt>
      <trkpt lat="50.76053" lon="1.62009">
        <ele>23.532317</ele>
        <time>2019-06-16T08:39:58.837Z</time>
      </trkpt>
      <trkpt lat="50.76056" lon="1.62011">
        <ele>23.578913</ele>
        <time>2019-06-16T08:39:59.873Z</time>
      </trkpt>
      <trkpt lat="50.76067" lon="1.62024">
        <ele>23.746433</ele>
        <time>2019-06-16T08:40:03.143Z</time>
      </trkpt>
      <trkpt lat="50.76089" lon="1.62077">
        <ele>24.259284</ele>
        <time>2019-06-16T08:40:11.953Z</time>
      </trkpt>
      <trkpt lat="50.7609" lon="1.62121">
        <ele>24.614321</ele>
        <time>2019-06-16T08:40:18.631Z</time>
      </trkpt>
      <trkpt lat="50.76074" lon="1.62189">
        <ele>25.195536</ele>
        <time>2019-06-16T08:40:32.067Z</time>
      </trkpt>
      <trkpt lat="50.76074" lon="1.62189">
        <ele>25.195536</ele>
        <time>2019-06-16T08:40:32.183Z</time>
      </trkpt>
      <trkpt lat="50.76085" lon="1.62266">
        <ele>26.040787</ele>
        <time>2019-06-16T08:40:53.471Z</time>
      </trkpt>
      <trkpt lat="50.76104" lon="1.6231">
        <ele>27.439391</ele>
        <time>2019-06-16T08:41:08.248Z</time>
      </trkpt>
      <trkpt lat="50.76158" lon="1.62373">
        <ele>30.245995</ele>
        <time>2019-06-16T08:41:37.566Z</time>
      </trkpt>
      <trkpt lat="50.76159" lon="1.62377">
        <ele>30.362922</ele>
        <time>2019-06-16T08:41:39.870Z</time>
      </trkpt>
      <trkpt lat="50.76155" lon="1.62383">
        <ele>30.607085</ele>
        <time>2019-06-16T08:41:43.151Z</time>
      </trkpt>
      <trkpt lat="50.76072" lon="1.62495">
        <ele>34.938128</ele>
        <time>2019-06-16T08:42:30.959Z</time>
      </trkpt>
      <trkpt lat="50.76" lon="1.62546">
        <ele>37.852932</ele>
        <time>2019-06-16T08:43:03.771Z</time>
      </trkpt>
      <trkpt lat="50.75968" lon="1.62587">
        <ele>39.394341</ele>
        <time>2019-06-16T08:43:19.959Z</time>
      </trkpt>
      <trkpt lat="50.75935" lon="1.62642">
        <ele>41.113729</ele>
        <time>2019-06-16T08:43:38.592Z</time>
      </trkpt>
      <trkpt lat="50.7593" lon="1.62646">
        <ele>41.304926</ele>
        <time>2019-06-16T08:43:40.748Z</time>
      </trkpt>
      <trkpt lat="50.75921" lon="1.62651">
        <ele>41.662207</ele>
        <time>2019-06-16T08:43:45.701Z</time>
      </trkpt>
      <trkpt lat="50.75821" lon="1.62687">
        <ele>45.321372</ele>
        <time>2019-06-16T08:44:28.034Z</time>
      </trkpt>
      <trkpt lat="50.75743" lon="1.62724">
        <ele>47.246638</ele>
        <time>2019-06-16T08:45:02.104Z</time>
      </trkpt>
      <trkpt lat="50.75632" lon="1.6283">
        <ele>49.360395</ele>
        <time>2019-06-16T08:45:39.626Z</time>
      </trkpt>
      <trkpt lat="50.75627" lon="1.62835">
        <ele>49.336083</ele>
        <time>2019-06-16T08:45:41.303Z</time>
      </trkpt>
      <trkpt lat="50.75617" lon="1.62846">
        <ele>49.283979</ele>
        <time>2019-06-16T08:45:43.546Z</time>
      </trkpt>
      <trkpt lat="50.75507" lon="1.62954">
        <ele>48.746284</ele>
        <time>2019-06-16T08:46:11.336Z</time>
      </trkpt>
      <trkpt lat="50.75503" lon="1.62959">
        <ele>48.726512</ele>
        <time>2019-06-16T08:46:12.067Z</time>
      </trkpt>
      <trkpt lat="50.755" lon="1.62959">
        <ele>48.714775</ele>
        <time>2019-06-16T08:46:12.863Z</time>
      </trkpt>
      <trkpt lat="50.75357" lon="1.62923">
        <ele>50.197185</ele>
        <time>2019-06-16T08:46:50.696Z</time>
      </trkpt>
      <trkpt lat="50.75233" lon="1.62861">
        <ele>52.981044</ele>
        <time>2019-06-16T08:47:40.987Z</time>
      </trkpt>
      <trkpt lat="50.75141" lon="1.62836">
        <ele>55.640475</ele>
        <time>2019-06-16T08:48:15.811Z</time>
      </trkpt>
      <trkpt lat="50.75137" lon="1.6284">
        <ele>55.767084</ele>
        <time>2019-06-16T08:48:17.788Z</time>
      </trkpt>
      <trkpt lat="50.75133" lon="1.62846">
        <ele>55.927911</ele>
        <time>2019-06-16T08:48:20.047Z</time>
      </trkpt>
      <trkpt lat="50.75123" lon="1.62847">
        <ele>56.160941</ele>
        <time>2019-06-16T08:48:23.166Z</time>
      </trkpt>
      <trkpt lat="50.75101" lon="1.62831">
        <ele>56.752401</ele>
        <time>2019-06-16T08:48:32.037Z</time>
      </trkpt>
      <trkpt lat="50.74995" lon="1.62741">
        <ele>59.625096</ele>
        <time>2019-06-16T08:49:12.996Z</time>
      </trkpt>
      <trkpt lat="50.74975" lon="1.62742">
        <ele>60.103568</ele>
        <time>2019-06-16T08:49:19.059Z</time>
      </trkpt>
      <trkpt lat="50.74938" lon="1.62745">
        <ele>61.349638</ele>
        <time>2019-06-16T08:49:33.385Z</time>
      </trkpt>
      <trkpt lat="50.74922" lon="1.62723">
        <ele>62.10503</ele>
        <time>2019-06-16T08:49:41.816Z</time>
      </trkpt>
      <trkpt lat="50.74918" lon="1.62709">
        <ele>62.448086</ele>
        <time>2019-06-16T08:49:45.770Z</time>
      </trkpt>
      <trkpt lat="50.74914" lon="1.62699">
        <ele>62.708989</ele>
        <time>2019-06-16T08:49:48.367Z</time>
      </trkpt>
      <trkpt lat="50.74908" lon="1.6269">
        <ele>63.014801</ele>
        <time>2019-06-16T08:49:51.933Z</time>
      </trkpt>
      <trkpt lat="50.74876" lon="1.62675">
        <ele>64.185312</ele>
        <time>2019-06-16T08:50:05.290Z</time>
      </trkpt>
      <trkpt lat="50.74843" lon="1.62678">
        <ele>65.392853</ele>
        <time>2019-06-16T08:50:19.638Z</time>
      </trkpt>
      <trkpt lat="50.74832" lon="1.62683">
        <ele>65.805393</ele>
        <time>2019-06-16T08:50:24.719Z</time>
      </trkpt>
      <trkpt lat="50.74821" lon="1.6269">
        <ele>66.211797</ele>
        <time>2019-06-16T08:50:30.370Z</time>
      </trkpt>
      <trkpt lat="50.74793" lon="1.62715">
        <ele>67.494387</ele>
        <time>2019-06-16T08:50:44.762Z</time>
      </trkpt>
      <trkpt lat="50.74733" lon="1.62693">
        <ele>70.193802</ele>
        <time>2019-06-16T08:51:13.166Z</time>
      </trkpt>
      <trkpt lat="50.74669" lon="1.62693">
        <ele>72.966061</ele>
        <time>2019-06-16T08:51:43.454Z</time>
      </trkpt>
      <trkpt lat="50.74635" lon="1.62709">
        <ele>74.521472</ele>
        <time>2019-06-16T08:51:58.293Z</time>
      </trkpt>
      <trkpt lat="50.74636" lon="1.62736">
        <ele>75.051972</ele>
        <time>2019-06-16T08:52:05.373Z</time>
      </trkpt>
      <trkpt lat="50.7463" lon="1.62744">
        <ele>75.294081</ele>
        <time>2019-06-16T08:52:08.673Z</time>
      </trkpt>
      <trkpt lat="50.74589" lon="1.62761">
        <ele>76.534921</ele>
        <time>2019-06-16T08:52:25.247Z</time>
      </trkpt>
      <trkpt lat="50.74534" lon="1.62751">
        <ele>78.180207</ele>
        <time>2019-06-16T08:52:46.237Z</time>
      </trkpt>
      <trkpt lat="50.74493" lon="1.62754">
        <ele>79.417419</ele>
        <time>2019-06-16T08:53:01.193Z</time>
      </trkpt>
      <trkpt lat="50.74272" lon="1.62802">
        <ele>84.39342</ele>
        <time>2019-06-16T08:54:17.434Z</time>
      </trkpt>
      <trkpt lat="50.74194" lon="1.62756">
        <ele>85.922814</ele>
        <time>2019-06-16T08:54:44.868Z</time>
      </trkpt>
      <trkpt lat="50.74164" lon="1.62734">
        <ele>86.548597</ele>
        <time>2019-06-16T08:54:55.168Z</time>
      </trkpt>
      <trkpt lat="50.74162" lon="1.62727">
        <ele>86.633093</ele>
        <time>2019-06-16T08:54:56.561Z</time>
      </trkpt>
      <trkpt lat="50.74163" lon="1.62724">
        <ele>86.669854</ele>
        <time>2019-06-16T08:54:58.118Z</time>
      </trkpt>
      <trkpt lat="50.74164" lon="1.62719">
        <ele>86.733855</ele>
        <time>2019-06-16T08:54:59.181Z</time>
      </trkpt>
      <trkpt lat="50.74131" lon="1.62695">
        <ele>87.310417</ele>
        <time>2019-06-16T08:55:09.943Z</time>
      </trkpt>
      <trkpt lat="50.74112" lon="1.6268">
        <ele>87.471607</ele>
        <time>2019-06-16T08:55:15.189Z</time>
      </trkpt>
      <trkpt lat="50.74097" lon="1.6267">
        <ele>87.59393</ele>
        <time>2019-06-16T08:55:20.507Z</time>
      </trkpt>
      <trkpt lat="50.74081" lon="1.62657">
        <ele>87.729947</ele>
        <time>2019-06-16T08:55:24.653Z</time>
      </trkpt>
      <trkpt lat="50.74064" lon="1.62647">
        <ele>87.862198</ele>
        <time>2019-06-16T08:55:30.107Z</time>
      </trkpt>
      <trkpt lat="50.74053" lon="1.62644">
        <ele>87.947618</ele>
        <time>2019-06-16T08:55:32.551Z</time>
      </trkpt>
      <trkpt lat="50.74047" lon="1.6264">
        <ele>87.995617</ele>
        <time>2019-06-16T08:55:34.016Z</time>
      </trkpt>
      <trkpt lat="50.74043" lon="1.62635">
        <ele>88.035734</ele>
        <time>2019-06-16T08:55:35.230Z</time>
      </trkpt>
      <trkpt lat="50.74041" lon="1.62631">
        <ele>88.059132</ele>
        <time>2019-06-16T08:55:36.048Z</time>
      </trkpt>
      <trkpt lat="50.74035" lon="1.62625">
        <ele>88.115985</ele>
        <time>2019-06-16T08:55:38.870Z</time>
      </trkpt>
      <trkpt lat="50.74031" lon="1.62623">
        <ele>88.144538</ele>
        <time>2019-06-16T08:55:39.745Z</time>
      </trkpt>
      <trkpt lat="50.74034" lon="1.62611">
        <ele>88.207053</ele>
        <time>2019-06-16T08:55:42.737Z</time>
      </trkpt>
      <trkpt lat="50.74036" lon="1.626">
        <ele>88.262283</ele>
        <time>2019-06-16T08:55:45.439Z</time>
      </trkpt>
      <trkpt lat="50.7404" lon="1.62559">
        <ele>88.461939</ele>
        <time>2019-06-16T08:55:55.327Z</time>
      </trkpt>
      <trkpt lat="50.74059" lon="1.62381">
        <ele>89.111369</ele>
        <time>2019-06-16T08:56:39.631Z</time>
      </trkpt>
      <trkpt lat="50.74082" lon="1.62171">
        <ele>89.75971</ele>
        <time>2019-06-16T08:57:35.052Z</time>
      </trkpt>
      <trkpt lat="50.74103" lon="1.61954">
        <ele>90.184196</ele>
        <time>2019-06-16T08:58:29.029Z</time>
      </trkpt>
      <trkpt lat="50.74105" lon="1.61942">
        <ele>90.124885</ele>
        <time>2019-06-16T08:58:32.230Z</time>
      </trkpt>
      <trkpt lat="50.74097" lon="1.61937">
        <ele>90.06716</ele>
        <time>2019-06-16T08:58:33.899Z</time>
      </trkpt>
      <trkpt lat="50.74086" lon="1.6192">
        <ele>89.953413</ele>
        <time>2019-06-16T08:58:37.238Z</time>
      </trkpt>
      <trkpt lat="50.74083" lon="1.61896">
        <ele>89.839576</ele>
        <time>2019-06-16T08:58:40.724Z</time>
      </trkpt>
      <trkpt lat="50.74085" lon="1.61884">
        <ele>89.782373</ele>
        <time>2019-06-16T08:58:42.336Z</time>
      </trkpt>
      <trkpt lat="50.74027" lon="1.61866">
        <ele>89.345913</ele>
        <time>2019-06-16T08:58:54.775Z</time>
      </trkpt>
      <trkpt lat="50.74025" lon="1.61865">
        <ele>89.327349</ele>
        <time>2019-06-16T08:58:55.349Z</time>
      </trkpt>
      <trkpt lat="50.74021" lon="1.61864">
        <ele>89.303564</ele>
        <time>2019-06-16T08:58:55.994Z</time>
      </trkpt>
      <trkpt lat="50.74013" lon="1.6186">
        <ele>89.237056</ele>
        <time>2019-06-16T08:58:57.802Z</time>
      </trkpt>
      <trkpt lat="50.73988" lon="1.61841">
        <ele>89.03715</ele>
        <time>2019-06-16T08:59:03.436Z</time>
      </trkpt>
      <trkpt lat="50.73962" lon="1.61822">
        <ele>88.74605</ele>
        <time>2019-06-16T08:59:09.285Z</time>
      </trkpt>
      <trkpt lat="50.73934" lon="1.61802">
        <ele>88.376707</ele>
        <time>2019-06-16T08:59:15.420Z</time>
      </trkpt>
      <trkpt lat="50.73883" lon="1.61763">
        <ele>87.685839</ele>
        <time>2019-06-16T08:59:27.216Z</time>
      </trkpt>
      <trkpt lat="50.7388" lon="1.61761">
        <ele>87.647788</ele>
        <time>2019-06-16T08:59:27.792Z</time>
      </trkpt>
      <trkpt lat="50.73879" lon="1.61759">
        <ele>87.624869</ele>
        <time>2019-06-16T08:59:28.222Z</time>
      </trkpt>
      <trkpt lat="50.73873" lon="1.6175">
        <ele>87.524544</ele>
        <time>2019-06-16T08:59:29.925Z</time>
      </trkpt>
      <trkpt lat="50.73873" lon="1.61748">
        <ele>87.511985</ele>
        <time>2019-06-16T08:59:30.161Z</time>
      </trkpt>
      <trkpt lat="50.73874" lon="1.61745">
        <ele>87.480704</ele>
        <time>2019-06-16T08:59:30.706Z</time>
      </trkpt>
      <trkpt lat="50.73876" lon="1.61742">
        <ele>87.449452</ele>
        <time>2019-06-16T08:59:31.226Z</time>
      </trkpt>
      <trkpt lat="50.73876" lon="1.61738">
        <ele>87.418975</ele>
        <time>2019-06-16T08:59:31.768Z</time>
      </trkpt>
      <trkpt lat="50.73876" lon="1.61734">
        <ele>87.386631</ele>
        <time>2019-06-16T08:59:32.338Z</time>
      </trkpt>
      <trkpt lat="50.73873" lon="1.61723">
        <ele>87.292058</ele>
        <time>2019-06-16T08:59:33.825Z</time>
      </trkpt>
      <trkpt lat="50.73871" lon="1.61721">
        <ele>87.260377</ele>
        <time>2019-06-16T08:59:34.356Z</time>
      </trkpt>
      <trkpt lat="50.73868" lon="1.6172">
        <ele>87.233456</ele>
        <time>2019-06-16T08:59:34.747Z</time>
      </trkpt>
      <trkpt lat="50.73862" lon="1.61721">
        <ele>87.156329</ele>
        <time>2019-06-16T08:59:35.957Z</time>
      </trkpt>
      <trkpt lat="50.7386" lon="1.61723">
        <ele>87.129372</ele>
        <time>2019-06-16T08:59:36.372Z</time>
      </trkpt>
      <trkpt lat="50.73858" lon="1.61718">
        <ele>87.087027</ele>
        <time>2019-06-16T08:59:37.040Z</time>
      </trkpt>
      <trkpt lat="50.73853" lon="1.61708">
        <ele>86.984798</ele>
        <time>2019-06-16T08:59:38.747Z</time>
      </trkpt>
      <trkpt lat="50.73826" lon="1.61659">
        <ele>86.181291</ele>
        <time>2019-06-16T08:59:46.679Z</time>
      </trkpt>
      <trkpt lat="50.73821" lon="1.61649">
        <ele>85.992472</ele>
        <time>2019-06-16T08:59:48.050Z</time>
      </trkpt>
      <trkpt lat="50.73796" lon="1.61593">
        <ele>84.873449</ele>
        <time>2019-06-16T08:59:56.263Z</time>
      </trkpt>
      <trkpt lat="50.73779" lon="1.61554">
        <ele>84.104102</ele>
        <time>2019-06-16T09:00:01.948Z</time>
      </trkpt>
      <trkpt lat="50.73743" lon="1.61465">
        <ele>82.397104</ele>
        <time>2019-06-16T09:00:13.333Z</time>
      </trkpt>
      <trkpt lat="50.73691" lon="1.61344">
        <ele>76.956195</ele>
        <time>2019-06-16T09:00:28.033Z</time>
      </trkpt>
      <trkpt lat="50.73687" lon="1.61333">
        <ele>76.465166</ele>
        <time>2019-06-16T09:00:29.203Z</time>
      </trkpt>
      <trkpt lat="50.73682" lon="1.61339">
        <ele>76.062166</ele>
        <time>2019-06-16T09:00:30.164Z</time>
      </trkpt>
      <trkpt lat="50.73673" lon="1.61343">
        <ele>75.452064</ele>
        <time>2019-06-16T09:00:31.783Z</time>
      </trkpt>
      <trkpt lat="50.7364" lon="1.61354">
        <ele>73.381116</ele>
        <time>2019-06-16T09:00:36.944Z</time>
      </trkpt>
      <trkpt lat="50.73631" lon="1.61356">
        <ele>72.820956</ele>
        <time>2019-06-16T09:00:38.382Z</time>
      </trkpt>
      <trkpt lat="50.73611" lon="1.61362">
        <ele>71.509117</ele>
        <time>2019-06-16T09:00:41.551Z</time>
      </trkpt>
      <trkpt lat="50.73567" lon="1.61372">
        <ele>68.497717</ele>
        <time>2019-06-16T09:00:48.359Z</time>
      </trkpt>
      <trkpt lat="50.73538" lon="1.61382">
        <ele>66.444005</ele>
        <time>2019-06-16T09:00:52.821Z</time>
      </trkpt>
      <trkpt lat="50.7351" lon="1.61392">
        <ele>64.439293</ele>
        <time>2019-06-16T09:00:57.244Z</time>
      </trkpt>
      <trkpt lat="50.73431" lon="1.61423">
        <ele>58.706566</ele>
        <time>2019-06-16T09:01:10.415Z</time>
      </trkpt>
      <trkpt lat="50.73414" lon="1.61429">
        <ele>57.952483</ele>
        <time>2019-06-16T09:01:13.189Z</time>
      </trkpt>
      <trkpt lat="50.73398" lon="1.61432">
        <ele>57.448401</ele>
        <time>2019-06-16T09:01:15.956Z</time>
      </trkpt>
      <trkpt lat="50.7338" lon="1.61426">
        <ele>56.870339</ele>
        <time>2019-06-16T09:01:19.089Z</time>
      </trkpt>
      <trkpt lat="50.73375" lon="1.61432">
        <ele>56.679647</ele>
        <time>2019-06-16T09:01:20.156Z</time>
      </trkpt>
      <trkpt lat="50.73337" lon="1.61437">
        <ele>55.472981</ele>
        <time>2019-06-16T09:01:27.094Z</time>
      </trkpt>
      <trkpt lat="50.73317" lon="1.61434">
        <ele>54.853884</ele>
        <time>2019-06-16T09:01:30.796Z</time>
      </trkpt>
      <trkpt lat="50.73287" lon="1.61427">
        <ele>53.889219</ele>
        <time>2019-06-16T09:01:36.677Z</time>
      </trkpt>
      <trkpt lat="50.7326" lon="1.61421">
        <ele>53.048904</ele>
        <time>2019-06-16T09:01:41.959Z</time>
      </trkpt>
      <trkpt lat="50.73206" lon="1.61428">
        <ele>52.267444</ele>
        <time>2019-06-16T09:01:52.824Z</time>
      </trkpt>
      <trkpt lat="50.73105" lon="1.61449">
        <ele>51.293621</ele>
        <time>2019-06-16T09:02:12.833Z</time>
      </trkpt>
      <trkpt lat="50.72995" lon="1.61441">
        <ele>52.82507</ele>
        <time>2019-06-16T09:02:44.774Z</time>
      </trkpt>
      <trkpt lat="50.72988" lon="1.61441">
        <ele>52.981033</ele>
        <time>2019-06-16T09:02:45.948Z</time>
      </trkpt>
      <trkpt lat="50.72989" lon="1.61459">
        <ele>53.282094</ele>
        <time>2019-06-16T09:02:52.603Z</time>
      </trkpt>
      <trkpt lat="50.72987" lon="1.61661">
        <ele>56.65787</ele>
        <time>2019-06-16T09:03:46.648Z</time>
      </trkpt>
      <trkpt lat="50.7298" lon="1.61664">
        <ele>56.853816</ele>
        <time>2019-06-16T09:03:49.355Z</time>
      </trkpt>
      <trkpt lat="50.72807" lon="1.61825">
        <ele>61.553987</ele>
        <time>2019-06-16T09:05:02.325Z</time>
      </trkpt>
      <trkpt lat="50.72798" lon="1.61822">
        <ele>61.663896</ele>
        <time>2019-06-16T09:05:04.385Z</time>
      </trkpt>
      <trkpt lat="50.7279" lon="1.61815">
        <ele>61.769249</ele>
        <time>2019-06-16T09:05:06.267Z</time>
      </trkpt>
      <trkpt lat="50.72765" lon="1.61804">
        <ele>62.065722</ele>
        <time>2019-06-16T09:05:13.076Z</time>
      </trkpt>
      <trkpt lat="50.72762" lon="1.61803">
        <ele>62.098595</ele>
        <time>2019-06-16T09:05:13.579Z</time>
      </trkpt>
      <trkpt lat="50.72761" lon="1.618">
        <ele>62.130571</ele>
        <time>2019-06-16T09:05:14.161Z</time>
      </trkpt>
      <trkpt lat="50.72759" lon="1.61798">
        <ele>62.157461</ele>
        <time>2019-06-16T09:05:14.661Z</time>
      </trkpt>
      <trkpt lat="50.72757" lon="1.61797">
        <ele>62.184699</ele>
        <time>2019-06-16T09:05:15.195Z</time>
      </trkpt>
      <trkpt lat="50.72754" lon="1.61796">
        <ele>62.210588</ele>
        <time>2019-06-16T09:05:15.803Z</time>
      </trkpt>
      <trkpt lat="50.7275" lon="1.61789">
        <ele>62.288056</ele>
        <time>2019-06-16T09:05:17.702Z</time>
      </trkpt>
      <trkpt lat="50.72705" lon="1.617">
        <ele>62.710093</ele>
        <time>2019-06-16T09:05:34.816Z</time>
      </trkpt>
      <trkpt lat="50.72699" lon="1.61683">
        <ele>62.637604</ele>
        <time>2019-06-16T09:05:37.831Z</time>
      </trkpt>
      <trkpt lat="50.72701" lon="1.61677">
        <ele>62.614025</ele>
        <time>2019-06-16T09:05:38.661Z</time>
      </trkpt>
      <trkpt lat="50.72701" lon="1.61671">
        <ele>62.589789</ele>
        <time>2019-06-16T09:05:39.405Z</time>
      </trkpt>
      <trkpt lat="50.727" lon="1.61665">
        <ele>62.566544</ele>
        <time>2019-06-16T09:05:40.208Z</time>
      </trkpt>
      <trkpt lat="50.72698" lon="1.6166">
        <ele>62.543641</ele>
        <time>2019-06-16T09:05:40.991Z</time>
      </trkpt>
      <trkpt lat="50.72695" lon="1.61656">
        <ele>62.520637</ele>
        <time>2019-06-16T09:05:41.956Z</time>
      </trkpt>
      <trkpt lat="50.72682" lon="1.61658">
        <ele>62.446319</ele>
        <time>2019-06-16T09:05:44.687Z</time>
      </trkpt>
      <trkpt lat="50.72681" lon="1.6166">
        <ele>62.433126</ele>
        <time>2019-06-16T09:05:45.387Z</time>
      </trkpt>
      <trkpt lat="50.72673" lon="1.6165">
        <ele>62.376921</ele>
        <time>2019-06-16T09:05:47.971Z</time>
      </trkpt>
      <trkpt lat="50.72657" lon="1.61627">
        <ele>62.246927</ele>
        <time>2019-06-16T09:05:53.879Z</time>
      </trkpt>
      <trkpt lat="50.72641" lon="1.61606">
        <ele>62.124523</ele>
        <time>2019-06-16T09:05:58.652Z</time>
      </trkpt>
      <trkpt lat="50.72618" lon="1.6157">
        <ele>61.935798</ele>
        <time>2019-06-16T09:06:05.535Z</time>
      </trkpt>
      <trkpt lat="50.7261" lon="1.61558">
        <ele>61.872151</ele>
        <time>2019-06-16T09:06:07.781Z</time>
      </trkpt>
      <trkpt lat="50.72599" lon="1.61535">
        <ele>61.662251</ele>
        <time>2019-06-16T09:06:11.614Z</time>
      </trkpt>
      <trkpt lat="50.72588" lon="1.61514">
        <ele>61.206057</ele>
        <time>2019-06-16T09:06:15.004Z</time>
      </trkpt>
      <trkpt lat="50.7257" lon="1.61487">
        <ele>60.564449</ele>
        <time>2019-06-16T09:06:19.851Z</time>
      </trkpt>
      <trkpt lat="50.72565" lon="1.61482">
        <ele>60.41953</ele>
        <time>2019-06-16T09:06:20.904Z</time>
      </trkpt>
      <trkpt lat="50.72562" lon="1.61478">
        <ele>60.315444</ele>
        <time>2019-06-16T09:06:21.677Z</time>
      </trkpt>
      <trkpt lat="50.72558" lon="1.61474">
        <ele>60.20026</ele>
        <time>2019-06-16T09:06:24.730Z</time>
      </trkpt>
      <trkpt lat="50.72514" lon="1.61422">
        <ele>58.778009</ele>
        <time>2019-06-16T09:07:02.900Z</time>
      </trkpt>
      <trkpt lat="50.7249" lon="1.61394">
        <ele>57.984421</ele>
        <time>2019-06-16T09:07:24.196Z</time>
      </trkpt>
      <trkpt lat="50.7248" lon="1.61381">
        <ele>57.657529</ele>
        <time>2019-06-16T09:07:32.935Z</time>
      </trkpt>
      <trkpt lat="50.72476" lon="1.61376">
        <ele>57.529809</ele>
        <time>2019-06-16T09:07:33.855Z</time>
      </trkpt>
      <trkpt lat="50.72464" lon="1.61354">
        <ele>56.988554</ele>
        <time>2019-06-16T09:07:37.096Z</time>
      </trkpt>
      <trkpt lat="50.7246" lon="1.61349">
        <ele>56.693748</ele>
        <time>2019-06-16T09:07:38.050Z</time>
      </trkpt>
      <trkpt lat="50.72468" lon="1.61334">
        <ele>56.011539</ele>
        <time>2019-06-16T09:07:40.259Z</time>
      </trkpt>
      <trkpt lat="50.72478" lon="1.61313">
        <ele>55.135916</ele>
        <time>2019-06-16T09:07:43.125Z</time>
      </trkpt>
      <trkpt lat="50.72486" lon="1.61296">
        <ele>54.451094</ele>
        <time>2019-06-16T09:07:45.245Z</time>
      </trkpt>
      <trkpt lat="50.7249" lon="1.61287">
        <ele>54.071592</ele>
        <time>2019-06-16T09:07:46.490Z</time>
      </trkpt>
      <trkpt lat="50.72497" lon="1.61271">
        <ele>53.386771</ele>
        <time>2019-06-16T09:07:48.859Z</time>
      </trkpt>
      <trkpt lat="50.72501" lon="1.6126">
        <ele>52.970673</ele>
        <time>2019-06-16T09:07:50.071Z</time>
      </trkpt>
      <trkpt lat="50.72509" lon="1.6124">
        <ele>52.180539</ele>
        <time>2019-06-16T09:07:52.433Z</time>
      </trkpt>
      <trkpt lat="50.72516" lon="1.61221">
        <ele>51.442281</ele>
        <time>2019-06-16T09:07:54.960Z</time>
      </trkpt>
      <trkpt lat="50.72521" lon="1.61205">
        <ele>50.81276</ele>
        <time>2019-06-16T09:07:56.736Z</time>
      </trkpt>
      <trkpt lat="50.72537" lon="1.61172">
        <ele>49.42139</ele>
        <time>2019-06-16T09:08:01.047Z</time>
      </trkpt>
      <trkpt lat="50.72544" lon="1.61159">
        <ele>48.853399</ele>
        <time>2019-06-16T09:08:02.634Z</time>
      </trkpt>
      <trkpt lat="50.72548" lon="1.61152">
        <ele>48.532677</ele>
        <time>2019-06-16T09:08:03.711Z</time>
      </trkpt>
      <trkpt lat="50.7255" lon="1.61147">
        <ele>48.344448</ele>
        <time>2019-06-16T09:08:04.327Z</time>
      </trkpt>
      <trkpt lat="50.72551" lon="1.61137">
        <ele>48.004467</ele>
        <time>2019-06-16T09:08:05.357Z</time>
      </trkpt>
      <trkpt lat="50.72552" lon="1.61126">
        <ele>47.639645</ele>
        <time>2019-06-16T09:08:06.496Z</time>
      </trkpt>
      <trkpt lat="50.72566" lon="1.61122">
        <ele>46.621915</ele>
        <time>2019-06-16T09:08:08.682Z</time>
      </trkpt>
      <trkpt lat="50.72575" lon="1.61113">
        <ele>45.834997</ele>
        <time>2019-06-16T09:08:10.550Z</time>
      </trkpt>
      <trkpt lat="50.72581" lon="1.61096">
        <ele>44.9261</ele>
        <time>2019-06-16T09:08:12.582Z</time>
      </trkpt>
      <trkpt lat="50.72582" lon="1.61086">
        <ele>44.45528</ele>
        <time>2019-06-16T09:08:13.534Z</time>
      </trkpt>
      <trkpt lat="50.72579" lon="1.6108">
        <ele>44.153229</ele>
        <time>2019-06-16T09:08:14.106Z</time>
      </trkpt>
      <trkpt lat="50.72558" lon="1.61014">
        <ele>40.708835</ele>
        <time>2019-06-16T09:08:21.246Z</time>
      </trkpt>
      <trkpt lat="50.72555" lon="1.61007">
        <ele>40.316738</ele>
        <time>2019-06-16T09:08:22.030Z</time>
      </trkpt>
      <trkpt lat="50.72543" lon="1.60989">
        <ele>39.12017</ele>
        <time>2019-06-16T09:08:24.408Z</time>
      </trkpt>
      <trkpt lat="50.72498" lon="1.60916">
        <ele>34.38306</ele>
        <time>2019-06-16T09:08:34.027Z</time>
      </trkpt>
      <trkpt lat="50.72479" lon="1.60903">
        <ele>33.037641</ele>
        <time>2019-06-16T09:08:37.072Z</time>
      </trkpt>
      <trkpt lat="50.72475" lon="1.60908">
        <ele>32.743256</ele>
        <time>2019-06-16T09:08:37.720Z</time>
      </trkpt>
      <trkpt lat="50.72448" lon="1.60939">
        <ele>30.562187</ele>
        <time>2019-06-16T09:08:42.823Z</time>
      </trkpt>
      <trkpt lat="50.72443" lon="1.60946">
        <ele>30.107092</ele>
        <time>2019-06-16T09:08:43.833Z</time>
      </trkpt>
      <trkpt lat="50.72438" lon="1.6095">
        <ele>29.749112</ele>
        <time>2019-06-16T09:08:44.640Z</time>
      </trkpt>
      <trkpt lat="50.72404" lon="1.60987">
        <ele>27.068838</ele>
        <time>2019-06-16T09:08:51.004Z</time>
      </trkpt>
      <trkpt lat="50.72399" lon="1.60993">
        <ele>26.647033</ele>
        <time>2019-06-16T09:08:51.985Z</time>
      </trkpt>
      <trkpt lat="50.72395" lon="1.60988">
        <ele>26.334797</ele>
        <time>2019-06-16T09:08:52.738Z</time>
      </trkpt>
      <trkpt lat="50.72384" lon="1.60972">
        <ele>25.364906</ele>
        <time>2019-06-16T09:08:55.020Z</time>
      </trkpt>
      <trkpt lat="50.72332" lon="1.60896">
        <ele>21.27742</ele>
        <time>2019-06-16T09:09:06.056Z</time>
      </trkpt>
      <trkpt lat="50.72298" lon="1.60833">
        <ele>18.793041</ele>
        <time>2019-06-16T09:09:14.321Z</time>
      </trkpt>
      <trkpt lat="50.72275" lon="1.6081">
        <ele>17.495005</ele>
        <time>2019-06-16T09:09:18.621Z</time>
      </trkpt>
      <trkpt lat="50.72252" lon="1.60782">
        <ele>16.150883</ele>
        <time>2019-06-16T09:09:23.359Z</time>
      </trkpt>
      <trkpt lat="50.72228" lon="1.60756">
        <ele>14.772608</ele>
        <time>2019-06-16T09:09:28.230Z</time>
      </trkpt>
      <trkpt lat="50.72208" lon="1.6074">
        <ele>13.97011</ele>
        <time>2019-06-16T09:09:32.139Z</time>
      </trkpt>
      <trkpt lat="50.72202" lon="1.60735">
        <ele>13.837475</ele>
        <time>2019-06-16T09:09:33.158Z</time>
      </trkpt>
      <trkpt lat="50.7219" lon="1.60727">
        <ele>13.556625</ele>
        <time>2019-06-16T09:09:35.529Z</time>
      </trkpt>
      <trkpt lat="50.72153" lon="1.60702">
        <ele>12.730998</ele>
        <time>2019-06-16T09:09:42.583Z</time>
      </trkpt>
      <trkpt lat="50.72147" lon="1.60698">
        <ele>12.589107</ele>
        <time>2019-06-16T09:09:43.815Z</time>
      </trkpt>
      <trkpt lat="50.72126" lon="1.60688">
        <ele>12.144987</ele>
        <time>2019-06-16T09:09:47.777Z</time>
      </trkpt>
      <trkpt lat="50.72076" lon="1.60644">
        <ele>10.947547</ele>
        <time>2019-06-16T09:09:59.029Z</time>
      </trkpt>
      <trkpt lat="50.72063" lon="1.60632">
        <ele>10.646679</ele>
        <time>2019-06-16T09:10:01.894Z</time>
      </trkpt>
      <trkpt lat="50.72043" lon="1.60613">
        <ele>10.287025</ele>
        <time>2019-06-16T09:10:06.618Z</time>
      </trkpt>
      <trkpt lat="50.7204" lon="1.60611">
        <ele>10.251808</ele>
        <time>2019-06-16T09:10:07.134Z</time>
      </trkpt>
      <trkpt lat="50.72037" lon="1.60608">
        <ele>10.215822</ele>
        <time>2019-06-16T09:10:07.795Z</time>
      </trkpt>
      <trkpt lat="50.72037" lon="1.60605">
        <ele>10.19298</ele>
        <time>2019-06-16T09:10:08.197Z</time>
      </trkpt>
      <trkpt lat="50.72036" lon="1.606">
        <ele>10.153349</ele>
        <time>2019-06-16T09:10:08.916Z</time>
      </trkpt>
      <trkpt lat="50.72035" lon="1.60598">
        <ele>10.136509</ele>
        <time>2019-06-16T09:10:09.231Z</time>
      </trkpt>
      <trkpt lat="50.72033" lon="1.60596">
        <ele>10.112589</ele>
        <time>2019-06-16T09:10:09.634Z</time>
      </trkpt>
      <trkpt lat="50.72031" lon="1.60596">
        <ele>10.08877</ele>
        <time>2019-06-16T09:10:10.027Z</time>
      </trkpt>
      <trkpt lat="50.72029" lon="1.60597">
        <ele>10.064443</ele>
        <time>2019-06-16T09:10:10.413Z</time>
      </trkpt>
      <trkpt lat="50.72024" lon="1.60595">
        <ele>10.008368</ele>
        <time>2019-06-16T09:10:11.308Z</time>
      </trkpt>
      <trkpt lat="50.72019" lon="1.60593">
        <ele>9.958758</ele>
        <time>2019-06-16T09:10:12.153Z</time>
      </trkpt>
      <trkpt lat="50.72015" lon="1.6059">
        <ele>9.90757</ele>
        <time>2019-06-16T09:10:13.337Z</time>
      </trkpt>
      <trkpt lat="50.71979" lon="1.6056">
        <ele>9.445547</ele>
        <time>2019-06-16T09:10:21.195Z</time>
      </trkpt>
      <trkpt lat="50.71969" lon="1.60551">
        <ele>9.32063</ele>
        <time>2019-06-16T09:10:23.511Z</time>
      </trkpt>
      <trkpt lat="50.71958" lon="1.60542">
        <ele>9.175801</ele>
        <time>2019-06-16T09:10:25.904Z</time>
      </trkpt>
      <trkpt lat="50.7192" lon="1.60508">
        <ele>8.683816</ele>
        <time>2019-06-16T09:10:34.749Z</time>
      </trkpt>
      <trkpt lat="50.71917" lon="1.60503">
        <ele>8.633728</ele>
        <time>2019-06-16T09:10:35.534Z</time>
      </trkpt>
      <trkpt lat="50.71914" lon="1.60494">
        <ele>8.562872</ele>
        <time>2019-06-16T09:10:36.955Z</time>
      </trkpt>
      <trkpt lat="50.71913" lon="1.60486">
        <ele>8.501953</ele>
        <time>2019-06-16T09:10:38.104Z</time>
      </trkpt>
      <trkpt lat="50.71913" lon="1.60479">
        <ele>8.456268</ele>
        <time>2019-06-16T09:10:38.879Z</time>
      </trkpt>
      <trkpt lat="50.71912" lon="1.60474">
        <ele>8.425013</ele>
        <time>2019-06-16T09:10:39.600Z</time>
      </trkpt>
      <trkpt lat="50.71909" lon="1.60469">
        <ele>8.417315</ele>
        <time>2019-06-16T09:10:40.364Z</time>
      </trkpt>
      <trkpt lat="50.71906" lon="1.60466">
        <ele>8.409896</ele>
        <time>2019-06-16T09:10:41.217Z</time>
      </trkpt>
      <trkpt lat="50.71902" lon="1.60465">
        <ele>8.402642</ele>
        <time>2019-06-16T09:10:42.290Z</time>
      </trkpt>
      <trkpt lat="50.71895" lon="1.60469">
        <ele>8.388259</ele>
        <time>2019-06-16T09:10:43.689Z</time>
      </trkpt>
      <trkpt lat="50.71893" lon="1.60473">
        <ele>8.380967</ele>
        <time>2019-06-16T09:10:44.561Z</time>
      </trkpt>
      <trkpt lat="50.71889" lon="1.60476">
        <ele>8.372287</ele>
        <time>2019-06-16T09:10:45.577Z</time>
      </trkpt>
      <trkpt lat="50.71885" lon="1.60477">
        <ele>8.365744</ele>
        <time>2019-06-16T09:10:46.244Z</time>
      </trkpt>
      <trkpt lat="50.71884" lon="1.60469">
        <ele>8.355729</ele>
        <time>2019-06-16T09:10:47.566Z</time>
      </trkpt>
      <trkpt lat="50.71883" lon="1.60464">
        <ele>8.348101</ele>
        <time>2019-06-16T09:10:48.605Z</time>
      </trkpt>
      <trkpt lat="50.71858" lon="1.60478">
        <ele>8.297461</ele>
        <time>2019-06-16T09:10:54.296Z</time>
      </trkpt>
      <trkpt lat="50.7182" lon="1.60487">
        <ele>8.222815</ele>
        <time>2019-06-16T09:11:02.471Z</time>
      </trkpt>
      <trkpt lat="50.71642" lon="1.60589">
        <ele>8.600476</ele>
        <time>2019-06-16T09:11:52.421Z</time>
      </trkpt>
      <trkpt lat="50.7161" lon="1.60603">
        <ele>8.75191</ele>
        <time>2019-06-16T09:12:01.026Z</time>
      </trkpt>
      <trkpt lat="50.71577" lon="1.60618">
        <ele>8.875796</ele>
        <time>2019-06-16T09:12:09.490Z</time>
      </trkpt>
      <trkpt lat="50.71491" lon="1.60647">
        <ele>8.389378</ele>
        <time>2019-06-16T09:12:29.127Z</time>
      </trkpt>
      <trkpt lat="50.71294" lon="1.60744">
        <ele>6.87883</ele>
        <time>2019-06-16T09:13:11.897Z</time>
      </trkpt>
      <trkpt lat="50.71291" lon="1.6075">
        <ele>6.835336</ele>
        <time>2019-06-16T09:13:12.825Z</time>
      </trkpt>
      <trkpt lat="50.71285" lon="1.60761">
        <ele>6.751204</ele>
        <time>2019-06-16T09:13:14.868Z</time>
      </trkpt>
      <trkpt lat="50.71261" lon="1.60781">
        <ele>6.52129</ele>
        <time>2019-06-16T09:13:20.565Z</time>
      </trkpt>
      <trkpt lat="50.71231" lon="1.60793">
        <ele>6.349029</ele>
        <time>2019-06-16T09:13:27.499Z</time>
      </trkpt>
      <trkpt lat="50.71217" lon="1.608">
        <ele>6.372009</ele>
        <time>2019-06-16T09:13:30.485Z</time>
      </trkpt>
      <trkpt lat="50.71203" lon="1.60807">
        <ele>6.39495</ele>
        <time>2019-06-16T09:13:33.961Z</time>
      </trkpt>
      <trkpt lat="50.71087" lon="1.60866">
        <ele>6.586934</ele>
        <time>2019-06-16T09:14:04.092Z</time>
      </trkpt>
      <trkpt lat="50.71062" lon="1.6086">
        <ele>6.639945</ele>
        <time>2019-06-16T09:14:10.639Z</time>
      </trkpt>
      <trkpt lat="50.71025" lon="1.60883">
        <ele>6.784285</ele>
        <time>2019-06-16T09:14:21.148Z</time>
      </trkpt>
      <trkpt lat="50.71021" lon="1.60885">
        <ele>6.799981</ele>
        <time>2019-06-16T09:14:22.532Z</time>
      </trkpt>
      <trkpt lat="50.71014" lon="1.60895">
        <ele>6.837281</ele>
        <time>2019-06-16T09:14:25.468Z</time>
      </trkpt>
      <trkpt lat="50.7094" lon="1.60941">
        <ele>7.131647</ele>
        <time>2019-06-16T09:14:45.432Z</time>
      </trkpt>
      <trkpt lat="50.70845" lon="1.61019">
        <ele>7.20789</ele>
        <time>2019-06-16T09:15:09.907Z</time>
      </trkpt>
      <trkpt lat="50.70842" lon="1.61023">
        <ele>7.203568</ele>
        <time>2019-06-16T09:15:10.660Z</time>
      </trkpt>
      <trkpt lat="50.70826" lon="1.61038">
        <ele>7.183128</ele>
        <time>2019-06-16T09:15:14.780Z</time>
      </trkpt>
      <trkpt lat="50.70794" lon="1.61072">
        <ele>7.138885</ele>
        <time>2019-06-16T09:15:23.645Z</time>
      </trkpt>
      <trkpt lat="50.70791" lon="1.61075">
        <ele>7.135576</ele>
        <time>2019-06-16T09:15:24.221Z</time>
      </trkpt>
      <trkpt lat="50.70788" lon="1.61078">
        <ele>7.131293</ele>
        <time>2019-06-16T09:15:25.222Z</time>
      </trkpt>
      <trkpt lat="50.70773" lon="1.61101">
        <ele>7.107307</ele>
        <time>2019-06-16T09:15:30.035Z</time>
      </trkpt>
      <trkpt lat="50.70762" lon="1.61116">
        <ele>7.091323</ele>
        <time>2019-06-16T09:15:33.300Z</time>
      </trkpt>
      <trkpt lat="50.70745" lon="1.61134">
        <ele>7.135447</ele>
        <time>2019-06-16T09:15:38.336Z</time>
      </trkpt>
      <trkpt lat="50.70647" lon="1.61246">
        <ele>7.783654</ele>
        <time>2019-06-16T09:16:08.486Z</time>
      </trkpt>
      <trkpt lat="50.70636" lon="1.61257">
        <ele>7.851997</ele>
        <time>2019-06-16T09:16:12.256Z</time>
      </trkpt>
      <trkpt lat="50.70613" lon="1.61281">
        <ele>7.99704</ele>
        <time>2019-06-16T09:16:19.070Z</time>
      </trkpt>
      <trkpt lat="50.706" lon="1.61296">
        <ele>8.294691</ele>
        <time>2019-06-16T09:16:23.675Z</time>
      </trkpt>
      <trkpt lat="50.70559" lon="1.6132">
        <ele>9.593945</ele>
        <time>2019-06-16T09:16:38.130Z</time>
      </trkpt>
      <trkpt lat="50.70553" lon="1.61322">
        <ele>9.776803</ele>
        <time>2019-06-16T09:16:40.162Z</time>
      </trkpt>
      <trkpt lat="50.70548" lon="1.61323">
        <ele>9.927652</ele>
        <time>2019-06-16T09:16:41.763Z</time>
      </trkpt>
      <trkpt lat="50.70523" lon="1.61325">
        <ele>10.669878</ele>
        <time>2019-06-16T09:16:51.051Z</time>
      </trkpt>
      <trkpt lat="50.70515" lon="1.61333">
        <ele>10.96654</ele>
        <time>2019-06-16T09:16:54.286Z</time>
      </trkpt>
      <trkpt lat="50.70507" lon="1.6134">
        <ele>11.218847</ele>
        <time>2019-06-16T09:16:57.628Z</time>
      </trkpt>
      <trkpt lat="50.70505" lon="1.61342">
        <ele>11.311432</ele>
        <time>2019-06-16T09:16:58.576Z</time>
      </trkpt>
      <trkpt lat="50.70495" lon="1.61349">
        <ele>11.622334</ele>
        <time>2019-06-16T09:17:01.994Z</time>
      </trkpt>
      <trkpt lat="50.70479" lon="1.61361">
        <ele>12.158436</ele>
        <time>2019-06-16T09:17:10.806Z</time>
      </trkpt>
      <trkpt lat="50.70478" lon="1.61365">
        <ele>12.238382</ele>
        <time>2019-06-16T09:17:12.562Z</time>
      </trkpt>
      <trkpt lat="50.70471" lon="1.61368">
        <ele>12.444545</ele>
        <time>2019-06-16T09:17:15.026Z</time>
      </trkpt>
      <trkpt lat="50.7046" lon="1.61371">
        <ele>12.76996</ele>
        <time>2019-06-16T09:17:19.344Z</time>
      </trkpt>
      <trkpt lat="50.70454" lon="1.61373">
        <ele>12.94952</ele>
        <time>2019-06-16T09:17:22.606Z</time>
      </trkpt>
      <trkpt lat="50.70452" lon="1.61373">
        <ele>13.009552</ele>
        <time>2019-06-16T09:17:23.682Z</time>
      </trkpt>
      <trkpt lat="50.70447" lon="1.61373">
        <ele>13.153431</ele>
        <time>2019-06-16T09:17:25.570Z</time>
      </trkpt>
      <trkpt lat="50.70443" lon="1.61374">
        <ele>13.285127</ele>
        <time>2019-06-16T09:17:28.309Z</time>
      </trkpt>
      <trkpt lat="50.70434" lon="1.61374">
        <ele>13.661001</ele>
        <time>2019-06-16T09:17:31.794Z</time>
      </trkpt>
      <trkpt lat="50.70427" lon="1.61374">
        <ele>14.007309</ele>
        <time>2019-06-16T09:17:34.532Z</time>
      </trkpt>
      <trkpt lat="50.70422" lon="1.61374">
        <ele>14.251325</ele>
        <time>2019-06-16T09:17:37.740Z</time>
      </trkpt>
      <trkpt lat="50.70389" lon="1.61362">
        <ele>15.876958</ele>
        <time>2019-06-16T09:17:52.736Z</time>
      </trkpt>
      <trkpt lat="50.70357" lon="1.61334">
        <ele>17.661396</ele>
        <time>2019-06-16T09:18:10.758Z</time>
      </trkpt>
      <trkpt lat="50.70352" lon="1.61327">
        <ele>17.998239</ele>
        <time>2019-06-16T09:18:14.965Z</time>
      </trkpt>
      <trkpt lat="50.70347" lon="1.61336">
        <ele>18.366397</ele>
        <time>2019-06-16T09:18:18.661Z</time>
      </trkpt>
      <trkpt lat="50.70344" lon="1.61341">
        <ele>18.595102</ele>
        <time>2019-06-16T09:18:21.821Z</time>
      </trkpt>
      <trkpt lat="50.7034" lon="1.6135">
        <ele>18.92684</ele>
        <time>2019-06-16T09:18:24.137Z</time>
      </trkpt>
      <trkpt lat="50.70247" lon="1.61319">
        <ele>22.951819</ele>
        <time>2019-06-16T09:19:09.023Z</time>
      </trkpt>
      <trkpt lat="50.70184" lon="1.61306">
        <ele>24.695894</ele>
        <time>2019-06-16T09:19:34.139Z</time>
      </trkpt>
      <trkpt lat="50.70155" lon="1.61306">
        <ele>25.475941</ele>
        <time>2019-06-16T09:19:43.184Z</time>
      </trkpt>
      <trkpt lat="50.70033" lon="1.6133">
        <ele>28.1362</ele>
        <time>2019-06-16T09:20:20.187Z</time>
      </trkpt>
      <trkpt lat="50.69991" lon="1.6132">
        <ele>28.816467</ele>
        <time>2019-06-16T09:20:32.725Z</time>
      </trkpt>
      <trkpt lat="50.69977" lon="1.61315">
        <ele>29.058801</ele>
        <time>2019-06-16T09:20:37.452Z</time>
      </trkpt>
      <trkpt lat="50.69964" lon="1.61312">
        <ele>29.262341</ele>
        <time>2019-06-16T09:20:41.559Z</time>
      </trkpt>
      <trkpt lat="50.69924" lon="1.61315">
        <ele>29.907253</ele>
        <time>2019-06-16T09:20:54.749Z</time>
      </trkpt>
      <trkpt lat="50.69916" lon="1.61316">
        <ele>30.040893</ele>
        <time>2019-06-16T09:20:57.347Z</time>
      </trkpt>
      <trkpt lat="50.69873" lon="1.61325">
        <ele>31.103077</ele>
        <time>2019-06-16T09:21:12.313Z</time>
      </trkpt>
      <trkpt lat="50.69804" lon="1.6134">
        <ele>32.775855</ele>
        <time>2019-06-16T09:21:37.415Z</time>
      </trkpt>
      <trkpt lat="50.6977" lon="1.6135">
        <ele>33.627875</ele>
        <time>2019-06-16T09:21:50.494Z</time>
      </trkpt>
      <trkpt lat="50.6969" lon="1.6139">
        <ele>34.753045</ele>
        <time>2019-06-16T09:22:19.923Z</time>
      </trkpt>
      <trkpt lat="50.69681" lon="1.61394">
        <ele>34.820493</ele>
        <time>2019-06-16T09:22:23.288Z</time>
      </trkpt>
      <trkpt lat="50.69677" lon="1.61389">
        <ele>34.852827</ele>
        <time>2019-06-16T09:22:24.666Z</time>
      </trkpt>
      <trkpt lat="50.69649" lon="1.61401">
        <ele>35.067859</ele>
        <time>2019-06-16T09:22:33.481Z</time>
      </trkpt>
      <trkpt lat="50.6962" lon="1.61412">
        <ele>35.278763</ele>
        <time>2019-06-16T09:22:41.091Z</time>
      </trkpt>
      <trkpt lat="50.69601" lon="1.61416">
        <ele>35.417681</ele>
        <time>2019-06-16T09:22:45.583Z</time>
      </trkpt>
      <trkpt lat="50.69587" lon="1.61404">
        <ele>35.531541</ele>
        <time>2019-06-16T09:22:48.738Z</time>
      </trkpt>
      <trkpt lat="50.69585" lon="1.61396">
        <ele>35.572703</ele>
        <time>2019-06-16T09:22:50.088Z</time>
      </trkpt>
      <trkpt lat="50.69575" lon="1.61413">
        <ele>35.599824</ele>
        <time>2019-06-16T09:22:53.067Z</time>
      </trkpt>
      <trkpt lat="50.69572" lon="1.61416">
        <ele>35.463642</ele>
        <time>2019-06-16T09:22:53.628Z</time>
      </trkpt>
      <trkpt lat="50.69566" lon="1.61422">
        <ele>35.130257</ele>
        <time>2019-06-16T09:22:54.895Z</time>
      </trkpt>
      <trkpt lat="50.69559" lon="1.61426">
        <ele>34.808357</ele>
        <time>2019-06-16T09:22:56.244Z</time>
      </trkpt>
      <trkpt lat="50.69542" lon="1.61431">
        <ele>34.026989</ele>
        <time>2019-06-16T09:22:59.309Z</time>
      </trkpt>
      <trkpt lat="50.69479" lon="1.61443">
        <ele>31.152585</ele>
        <time>2019-06-16T09:23:09.607Z</time>
      </trkpt>
      <trkpt lat="50.69466" lon="1.61447">
        <ele>30.549824</ele>
        <time>2019-06-16T09:23:11.677Z</time>
      </trkpt>
      <trkpt lat="50.69458" lon="1.61452">
        <ele>30.132256</ele>
        <time>2019-06-16T09:23:13.081Z</time>
      </trkpt>
      <trkpt lat="50.69443" lon="1.61465">
        <ele>29.39593</ele>
        <time>2019-06-16T09:23:15.672Z</time>
      </trkpt>
      <trkpt lat="50.69424" lon="1.61495">
        <ele>28.180872</ele>
        <time>2019-06-16T09:23:19.791Z</time>
      </trkpt>
      <trkpt lat="50.69408" lon="1.61531">
        <ele>26.741219</ele>
        <time>2019-06-16T09:23:23.999Z</time>
      </trkpt>
      <trkpt lat="50.6935" lon="1.61671">
        <ele>20.747218</ele>
        <time>2019-06-16T09:23:40.039Z</time>
      </trkpt>
      <trkpt lat="50.69331" lon="1.61721">
        <ele>18.636011</ele>
        <time>2019-06-16T09:23:45.833Z</time>
      </trkpt>
      <trkpt lat="50.69136" lon="1.62198">
        <ele>9.544396</ele>
        <time>2019-06-16T09:24:50.576Z</time>
      </trkpt>
      <trkpt lat="50.69127" lon="1.6222">
        <ele>9.208173</ele>
        <time>2019-06-16T09:24:53.843Z</time>
      </trkpt>
      <trkpt lat="50.69082" lon="1.62326">
        <ele>8.815051</ele>
        <time>2019-06-16T09:25:10.296Z</time>
      </trkpt>
      <trkpt lat="50.69072" lon="1.62342">
        <ele>8.761678</ele>
        <time>2019-06-16T09:25:13.446Z</time>
      </trkpt>
      <trkpt lat="50.68802" lon="1.62578">
        <ele>8.897264</ele>
        <time>2019-06-16T09:26:25.920Z</time>
      </trkpt>
      <trkpt lat="50.68768" lon="1.62609">
        <ele>8.892548</ele>
        <time>2019-06-16T09:26:35.125Z</time>
      </trkpt>
      <trkpt lat="50.68747" lon="1.62628">
        <ele>8.889581</ele>
        <time>2019-06-16T09:26:40.585Z</time>
      </trkpt>
      <trkpt lat="50.68727" lon="1.6264">
        <ele>8.887059</ele>
        <time>2019-06-16T09:26:45.414Z</time>
      </trkpt>
      <trkpt lat="50.68687" lon="1.62629">
        <ele>8.882135</ele>
        <time>2019-06-16T09:26:54.281Z</time>
      </trkpt>
      <trkpt lat="50.68669" lon="1.62618">
        <ele>8.8701</ele>
        <time>2019-06-16T09:26:58.107Z</time>
      </trkpt>
      <trkpt lat="50.68626" lon="1.62574">
        <ele>8.608644</ele>
        <time>2019-06-16T09:27:09.192Z</time>
      </trkpt>
      <trkpt lat="50.68604" lon="1.62548">
        <ele>8.468153</ele>
        <time>2019-06-16T09:27:14.850Z</time>
      </trkpt>
      <trkpt lat="50.68587" lon="1.62536">
        <ele>8.376876</ele>
        <time>2019-06-16T09:27:18.518Z</time>
      </trkpt>
      <trkpt lat="50.68582" lon="1.62534">
        <ele>8.347748</ele>
        <time>2019-06-16T09:27:19.645Z</time>
      </trkpt>
      <trkpt lat="50.68568" lon="1.62533">
        <ele>8.279262</ele>
        <time>2019-06-16T09:27:22.374Z</time>
      </trkpt>
      <trkpt lat="50.68542" lon="1.6255">
        <ele>8.13473</ele>
        <time>2019-06-16T09:27:28.122Z</time>
      </trkpt>
      <trkpt lat="50.68509" lon="1.62579">
        <ele>7.959232</ele>
        <time>2019-06-16T09:27:36.236Z</time>
      </trkpt>
      <trkpt lat="50.6849" lon="1.62621">
        <ele>7.892042</ele>
        <time>2019-06-16T09:27:43.262Z</time>
      </trkpt>
      <trkpt lat="50.68482" lon="1.62668">
        <ele>7.827319</ele>
        <time>2019-06-16T09:27:50.114Z</time>
      </trkpt>
      <trkpt lat="50.68488" lon="1.62739">
        <ele>7.73356</ele>
        <time>2019-06-16T09:27:59.941Z</time>
      </trkpt>
      <trkpt lat="50.68491" lon="1.6275">
        <ele>7.717936</ele>
        <time>2019-06-16T09:28:01.802Z</time>
      </trkpt>
      <trkpt lat="50.68496" lon="1.62768">
        <ele>7.692204</ele>
        <time>2019-06-16T09:28:04.509Z</time>
      </trkpt>
      <trkpt lat="50.68499" lon="1.62788">
        <ele>7.665008</ele>
        <time>2019-06-16T09:28:07.292Z</time>
      </trkpt>
      <trkpt lat="50.68499" lon="1.62801">
        <ele>7.648511</ele>
        <time>2019-06-16T09:28:09.210Z</time>
      </trkpt>
      <trkpt lat="50.68494" lon="1.62802">
        <ele>7.637747</ele>
        <time>2019-06-16T09:28:10.413Z</time>
      </trkpt>
      <trkpt lat="50.68488" lon="1.62802">
        <ele>7.625079</ele>
        <time>2019-06-16T09:28:11.785Z</time>
      </trkpt>
      <trkpt lat="50.68479" lon="1.62799">
        <ele>7.605866</ele>
        <time>2019-06-16T09:28:13.832Z</time>
      </trkpt>
      <trkpt lat="50.68471" lon="1.62797">
        <ele>7.596382</ele>
        <time>2019-06-16T09:28:15.646Z</time>
      </trkpt>
      <trkpt lat="50.68429" lon="1.62784">
        <ele>7.592592</ele>
        <time>2019-06-16T09:28:25.530Z</time>
      </trkpt>
      <trkpt lat="50.68339" lon="1.62765">
        <ele>7.584594</ele>
        <time>2019-06-16T09:28:46.013Z</time>
      </trkpt>
      <trkpt lat="50.68325" lon="1.62761">
        <ele>7.583304</ele>
        <time>2019-06-16T09:28:49.321Z</time>
      </trkpt>
      <trkpt lat="50.6827" lon="1.62734">
        <ele>8.519212</ele>
        <time>2019-06-16T09:29:03.067Z</time>
      </trkpt>
      <trkpt lat="50.68266" lon="1.62732">
        <ele>8.671703</ele>
        <time>2019-06-16T09:29:06.348Z</time>
      </trkpt>
      <trkpt lat="50.68258" lon="1.62745">
        <ele>9.038408</ele>
        <time>2019-06-16T09:29:20.348Z</time>
      </trkpt>
      <trkpt lat="50.68255" lon="1.62744">
        <ele>9.135711</ele>
        <time>2019-06-16T09:29:22.463Z</time>
      </trkpt>
      <trkpt lat="50.68246" lon="1.62735">
        <ele>9.483159</ele>
        <time>2019-06-16T09:29:29.944Z</time>
      </trkpt>
      <trkpt lat="50.68242" lon="1.62733">
        <ele>9.599911</ele>
        <time>2019-06-16T09:29:32.468Z</time>
      </trkpt>
      <trkpt lat="50.68248" lon="1.62725">
        <ele>9.838724</ele>
        <time>2019-06-16T09:29:41.657Z</time>
      </trkpt>
      <trkpt lat="50.68241" lon="1.62721">
        <ele>10.057311</ele>
        <time>2019-06-16T09:29:46.363Z</time>
      </trkpt>
      <trkpt lat="50.68196" lon="1.62701">
        <ele>11.584171</ele>
        <time>2019-06-16T09:30:03.629Z</time>
      </trkpt>
      <trkpt lat="50.68187" lon="1.62697">
        <ele>11.882977</ele>
        <time>2019-06-16T09:30:07.011Z</time>
      </trkpt>
      <trkpt lat="50.68178" lon="1.62697">
        <ele>12.184041</ele>
        <time>2019-06-16T09:30:12.256Z</time>
      </trkpt>
      <trkpt lat="50.68183" lon="1.62689">
        <ele>12.418617</ele>
        <time>2019-06-16T09:30:16.153Z</time>
      </trkpt>
      <trkpt lat="50.68189" lon="1.6267">
        <ele>12.846078</ele>
        <time>2019-06-16T09:30:21.791Z</time>
      </trkpt>
      <trkpt lat="50.68191" lon="1.62663">
        <ele>13.003571</ele>
        <time>2019-06-16T09:30:23.930Z</time>
      </trkpt>
      <trkpt lat="50.68192" lon="1.62661">
        <ele>13.071142</ele>
        <time>2019-06-16T09:30:25.230Z</time>
      </trkpt>
      <trkpt lat="50.68193" lon="1.62657">
        <ele>13.137623</ele>
        <time>2019-06-16T09:30:26.586Z</time>
      </trkpt>
      <trkpt lat="50.68192" lon="1.62652">
        <ele>13.24652</ele>
        <time>2019-06-16T09:30:28.879Z</time>
      </trkpt>
      <trkpt lat="50.68191" lon="1.62647">
        <ele>13.356291</ele>
        <time>2019-06-16T09:30:30.791Z</time>
      </trkpt>
      <trkpt lat="50.68188" lon="1.62644">
        <ele>13.607273</ele>
        <time>2019-06-16T09:30:32.206Z</time>
      </trkpt>
      <trkpt lat="50.68185" lon="1.62643">
        <ele>13.973827</ele>
        <time>2019-06-16T09:30:35.096Z</time>
      </trkpt>
      <trkpt lat="50.68182" lon="1.62644">
        <ele>14.230459</ele>
        <time>2019-06-16T09:30:36.374Z</time>
      </trkpt>
      <trkpt lat="50.68176" lon="1.62644">
        <ele>14.886937</ele>
        <time>2019-06-16T09:30:39.778Z</time>
      </trkpt>
      <trkpt lat="50.68172" lon="1.62644">
        <ele>15.277764</ele>
        <time>2019-06-16T09:30:41.549Z</time>
      </trkpt>
      <trkpt lat="50.68167" lon="1.62644">
        <ele>15.826954</ele>
        <time>2019-06-16T09:30:44.144Z</time>
      </trkpt>
      <trkpt lat="50.6816" lon="1.62634">
        <ele>16.876039</ele>
        <time>2019-06-16T09:30:51.636Z</time>
      </trkpt>
      <trkpt lat="50.68103" lon="1.62547">
        <ele>25.226302</ele>
        <time>2019-06-16T09:31:45.682Z</time>
      </trkpt>
      <trkpt lat="50.68103" lon="1.62547">
        <ele>25.226302</ele>
        <time>2019-06-16T09:31:46.012Z</time>
      </trkpt>
      <trkpt lat="50.68097" lon="1.62533">
        <ele>26.404817</ele>
        <time>2019-06-16T09:31:54.657Z</time>
      </trkpt>
      <trkpt lat="50.6806" lon="1.62456">
        <ele>33.053227</ele>
        <time>2019-06-16T09:32:53.780Z</time>
      </trkpt>
      <trkpt lat="50.68042" lon="1.62402">
        <ele>39.333134</ele>
        <time>2019-06-16T09:33:31.081Z</time>
      </trkpt>
      <trkpt lat="50.68026" lon="1.62343">
        <ele>45.896731</ele>
        <time>2019-06-16T09:34:13.325Z</time>
      </trkpt>
      <trkpt lat="50.68016" lon="1.62302">
        <ele>50.354047</ele>
        <time>2019-06-16T09:34:43.565Z</time>
      </trkpt>
      <trkpt lat="50.67971" lon="1.62199">
        <ele>63.237719</ele>
        <time>2019-06-16T09:36:08.684Z</time>
      </trkpt>
      <trkpt lat="50.67874" lon="1.6201">
        <ele>88.845809</ele>
        <time>2019-06-16T09:39:00.394Z</time>
      </trkpt>
      <trkpt lat="50.67855" lon="1.61959">
        <ele>93.553072</ele>
        <time>2019-06-16T09:39:36.004Z</time>
      </trkpt>
      <trkpt lat="50.67786" lon="1.61857">
        <ele>102.640293</ele>
        <time>2019-06-16T09:40:49.649Z</time>
      </trkpt>
      <trkpt lat="50.6773" lon="1.61761">
        <ele>108.9543</ele>
        <time>2019-06-16T09:41:31.496Z</time>
      </trkpt>
      <trkpt lat="50.67718" lon="1.61752">
        <ele>109.131292</ele>
        <time>2019-06-16T09:41:36.238Z</time>
      </trkpt>
      <trkpt lat="50.67718" lon="1.61731">
        <ele>109.316899</ele>
        <time>2019-06-16T09:41:40.621Z</time>
      </trkpt>
      <trkpt lat="50.6771" lon="1.61687">
        <ele>109.71871</ele>
        <time>2019-06-16T09:41:49.349Z</time>
      </trkpt>
      <trkpt lat="50.67692" lon="1.61513">
        <ele>111.113722</ele>
        <time>2019-06-16T09:42:15.169Z</time>
      </trkpt>
      <trkpt lat="50.67703" lon="1.61479">
        <ele>110.951778</ele>
        <time>2019-06-16T09:42:20.426Z</time>
      </trkpt>
      <trkpt lat="50.67701" lon="1.61465">
        <ele>110.894502</ele>
        <time>2019-06-16T09:42:22.174Z</time>
      </trkpt>
      <trkpt lat="50.67681" lon="1.61394">
        <ele>110.569896</ele>
        <time>2019-06-16T09:42:32.718Z</time>
      </trkpt>
      <trkpt lat="50.67674" lon="1.61372">
        <ele>110.46849</ele>
        <time>2019-06-16T09:42:35.907Z</time>
      </trkpt>
      <trkpt lat="50.67657" lon="1.61307">
        <ele>110.175562</ele>
        <time>2019-06-16T09:42:45.261Z</time>
      </trkpt>
      <trkpt lat="50.67604" lon="1.61097">
        <ele>110.003557</ele>
        <time>2019-06-16T09:43:17.348Z</time>
      </trkpt>
      <trkpt lat="50.67606" lon="1.61038">
        <ele>110.010118</ele>
        <time>2019-06-16T09:43:26.949Z</time>
      </trkpt>
      <trkpt lat="50.6761" lon="1.6102">
        <ele>110.012262</ele>
        <time>2019-06-16T09:43:29.930Z</time>
      </trkpt>
      <trkpt lat="50.67591" lon="1.61005">
        <ele>110.042809</ele>
        <time>2019-06-16T09:43:35.770Z</time>
      </trkpt>
      <trkpt lat="50.67531" lon="1.60924">
        <ele>110.440395</ele>
        <time>2019-06-16T09:43:56.345Z</time>
      </trkpt>
      <trkpt lat="50.67509" lon="1.60902">
        <ele>110.571886</ele>
        <time>2019-06-16T09:44:03.454Z</time>
      </trkpt>
      <trkpt lat="50.67477" lon="1.60884">
        <ele>110.7442</ele>
        <time>2019-06-16T09:44:12.067Z</time>
      </trkpt>
      <trkpt lat="50.67446" lon="1.60892">
        <ele>110.900238</ele>
        <time>2019-06-16T09:44:19.579Z</time>
      </trkpt>
      <trkpt lat="50.67362" lon="1.60965">
        <ele>109.952667</ele>
        <time>2019-06-16T09:44:39.297Z</time>
      </trkpt>
      <trkpt lat="50.67349" lon="1.60969">
        <ele>109.813481</ele>
        <time>2019-06-16T09:44:41.890Z</time>
      </trkpt>
      <trkpt lat="50.67342" lon="1.60968">
        <ele>109.735267</ele>
        <time>2019-06-16T09:44:43.190Z</time>
      </trkpt>
      <trkpt lat="50.67316" lon="1.60951">
        <ele>109.438301</ele>
        <time>2019-06-16T09:44:48.692Z</time>
      </trkpt>
      <trkpt lat="50.67289" lon="1.6093">
        <ele>109.117075</ele>
        <time>2019-06-16T09:44:54.309Z</time>
      </trkpt>
      <trkpt lat="50.67089" lon="1.60779">
        <ele>104.113833</ele>
        <time>2019-06-16T09:45:34.079Z</time>
      </trkpt>
      <trkpt lat="50.67033" lon="1.60726">
        <ele>102.446096</ele>
        <time>2019-06-16T09:45:45.643Z</time>
      </trkpt>
      <trkpt lat="50.67017" lon="1.60701">
        <ele>101.85927</ele>
        <time>2019-06-16T09:45:49.711Z</time>
      </trkpt>
      <trkpt lat="50.6701" lon="1.60689">
        <ele>101.597516</ele>
        <time>2019-06-16T09:45:51.549Z</time>
      </trkpt>
      <trkpt lat="50.67" lon="1.60672">
        <ele>101.224372</ele>
        <time>2019-06-16T09:45:54.174Z</time>
      </trkpt>
      <trkpt lat="50.66981" lon="1.60658">
        <ele>100.689529</ele>
        <time>2019-06-16T09:45:57.766Z</time>
      </trkpt>
      <trkpt lat="50.66876" lon="1.60578">
        <ele>98.053617</ele>
        <time>2019-06-16T09:46:18.402Z</time>
      </trkpt>
      <trkpt lat="50.66861" lon="1.60564">
        <ele>97.674858</ele>
        <time>2019-06-16T09:46:21.519Z</time>
      </trkpt>
      <trkpt lat="50.66846" lon="1.60551">
        <ele>97.292329</ele>
        <time>2019-06-16T09:46:24.723Z</time>
      </trkpt>
      <trkpt lat="50.66793" lon="1.605">
        <ele>96.170457</ele>
        <time>2019-06-16T09:46:36.522Z</time>
      </trkpt>
      <trkpt lat="50.66747" lon="1.60487">
        <ele>95.737742</ele>
        <time>2019-06-16T09:46:45.785Z</time>
      </trkpt>
      <trkpt lat="50.66682" lon="1.60456">
        <ele>95.124847</ele>
        <time>2019-06-16T09:46:59.353Z</time>
      </trkpt>
      <trkpt lat="50.66661" lon="1.60434">
        <ele>94.888373</ele>
        <time>2019-06-16T09:47:04.793Z</time>
      </trkpt>
      <trkpt lat="50.6665" lon="1.60414">
        <ele>94.738327</ele>
        <time>2019-06-16T09:47:08.322Z</time>
      </trkpt>
      <trkpt lat="50.66644" lon="1.60416">
        <ele>94.676724</ele>
        <time>2019-06-16T09:47:09.743Z</time>
      </trkpt>
      <trkpt lat="50.66605" lon="1.60415">
        <ele>94.346633</ele>
        <time>2019-06-16T09:47:17.906Z</time>
      </trkpt>
      <trkpt lat="50.6652" lon="1.60438">
        <ele>93.604081</ele>
        <time>2019-06-16T09:47:35.667Z</time>
      </trkpt>
      <trkpt lat="50.66431" lon="1.60435">
        <ele>92.306045</ele>
        <time>2019-06-16T09:47:52.605Z</time>
      </trkpt>
      <trkpt lat="50.6641" lon="1.60441">
        <ele>91.792747</ele>
        <time>2019-06-16T09:47:56.744Z</time>
      </trkpt>
      <trkpt lat="50.66396" lon="1.60446">
        <ele>91.45566</ele>
        <time>2019-06-16T09:47:59.306Z</time>
      </trkpt>
      <trkpt lat="50.66276" lon="1.60489">
        <ele>88.394904</ele>
        <time>2019-06-16T09:48:20.968Z</time>
      </trkpt>
      <trkpt lat="50.66188" lon="1.60505">
        <ele>85.397796</ele>
        <time>2019-06-16T09:48:35.788Z</time>
      </trkpt>
      <trkpt lat="50.66123" lon="1.60495">
        <ele>83.155344</ele>
        <time>2019-06-16T09:48:46.762Z</time>
      </trkpt>
      <trkpt lat="50.66025" lon="1.60452">
        <ele>79.231358</ele>
        <time>2019-06-16T09:49:03.775Z</time>
      </trkpt>
      <trkpt lat="50.65986" lon="1.60446">
        <ele>77.722021</ele>
        <time>2019-06-16T09:49:10.203Z</time>
      </trkpt>
      <trkpt lat="50.65947" lon="1.60449">
        <ele>76.194416</ele>
        <time>2019-06-16T09:49:16.654Z</time>
      </trkpt>
      <trkpt lat="50.65875" lon="1.60475">
        <ele>73.352116</ele>
        <time>2019-06-16T09:49:28.845Z</time>
      </trkpt>
      <trkpt lat="50.6584" lon="1.60491">
        <ele>71.976122</ele>
        <time>2019-06-16T09:49:34.821Z</time>
      </trkpt>
      <trkpt lat="50.65778" lon="1.60513">
        <ele>69.541544</ele>
        <time>2019-06-16T09:49:45.446Z</time>
      </trkpt>
      <trkpt lat="50.65729" lon="1.60539">
        <ele>68.005905</ele>
        <time>2019-06-16T09:49:54.053Z</time>
      </trkpt>
      <trkpt lat="50.65658" lon="1.60606">
        <ele>65.832746</ele>
        <time>2019-06-16T09:50:08.462Z</time>
      </trkpt>
      <trkpt lat="50.65631" lon="1.60645">
        <ele>64.878248</ele>
        <time>2019-06-16T09:50:15.090Z</time>
      </trkpt>
      <trkpt lat="50.65618" lon="1.60677">
        <ele>64.251472</ele>
        <time>2019-06-16T09:50:19.534Z</time>
      </trkpt>
      <trkpt lat="50.65563" lon="1.60829">
        <ele>63.647452</ele>
        <time>2019-06-16T09:50:42.295Z</time>
      </trkpt>
      <trkpt lat="50.65553" lon="1.60852">
        <ele>63.557525</ele>
        <time>2019-06-16T09:50:46.090Z</time>
      </trkpt>
      <trkpt lat="50.65548" lon="1.6088">
        <ele>63.462105</ele>
        <time>2019-06-16T09:50:50.516Z</time>
      </trkpt>
      <trkpt lat="50.65548" lon="1.60896">
        <ele>63.409622</ele>
        <time>2019-06-16T09:50:52.761Z</time>
      </trkpt>
      <trkpt lat="50.65549" lon="1.60941">
        <ele>63.284855</ele>
        <time>2019-06-16T09:50:59.969Z</time>
      </trkpt>
      <trkpt lat="50.65574" lon="1.61183">
        <ele>63.302493</ele>
        <time>2019-06-16T09:51:37.037Z</time>
      </trkpt>
      <trkpt lat="50.65574" lon="1.61183">
        <ele>63.302493</ele>
        <time>2019-06-16T09:51:37.042Z</time>
      </trkpt>
      <trkpt lat="50.65569" lon="1.61265">
        <ele>62.762088</ele>
        <time>2019-06-16T09:51:47.430Z</time>
      </trkpt>
      <trkpt lat="50.65543" lon="1.61379">
        <ele>61.458861</ele>
        <time>2019-06-16T09:52:01.869Z</time>
      </trkpt>
      <trkpt lat="50.65456" lon="1.616">
        <ele>58.171635</ele>
        <time>2019-06-16T09:52:31.501Z</time>
      </trkpt>
      <trkpt lat="50.65443" lon="1.61648">
        <ele>57.43433</ele>
        <time>2019-06-16T09:52:37.612Z</time>
      </trkpt>
      <trkpt lat="50.65439" lon="1.61709">
        <ele>56.558593</ele>
        <time>2019-06-16T09:52:44.928Z</time>
      </trkpt>
      <trkpt lat="50.65438" lon="1.6193">
        <ele>52.945211</ele>
        <time>2019-06-16T09:53:09.903Z</time>
      </trkpt>
      <trkpt lat="50.65436" lon="1.61951">
        <ele>52.603362</ele>
        <time>2019-06-16T09:53:12.162Z</time>
      </trkpt>
      <trkpt lat="50.65427" lon="1.61984">
        <ele>52.015245</ele>
        <time>2019-06-16T09:53:16.042Z</time>
      </trkpt>
      <trkpt lat="50.65407" lon="1.62031">
        <ele>50.962325</ele>
        <time>2019-06-16T09:53:22.320Z</time>
      </trkpt>
      <trkpt lat="50.65362" lon="1.62101">
        <ele>48.973619</ele>
        <time>2019-06-16T09:53:33.269Z</time>
      </trkpt>
      <trkpt lat="50.65355" lon="1.62106">
        <ele>48.74311</ele>
        <time>2019-06-16T09:53:34.446Z</time>
      </trkpt>
      <trkpt lat="50.65354" lon="1.62103">
        <ele>48.655105</ele>
        <time>2019-06-16T09:53:34.933Z</time>
      </trkpt>
      <trkpt lat="50.6535" lon="1.621">
        <ele>48.532453</ele>
        <time>2019-06-16T09:53:35.613Z</time>
      </trkpt>
      <trkpt lat="50.65349" lon="1.62091">
        <ele>48.348619</ele>
        <time>2019-06-16T09:53:36.588Z</time>
      </trkpt>
      <trkpt lat="50.65329" lon="1.61995">
        <ele>46.341118</ele>
        <time>2019-06-16T09:53:47.555Z</time>
      </trkpt>
      <trkpt lat="50.65315" lon="1.61963">
        <ele>45.579323</ele>
        <time>2019-06-16T09:53:51.912Z</time>
      </trkpt>
      <trkpt lat="50.65301" lon="1.61941">
        <ele>45.030159</ele>
        <time>2019-06-16T09:53:55.249Z</time>
      </trkpt>
      <trkpt lat="50.65238" lon="1.61881">
        <ele>42.945852</ele>
        <time>2019-06-16T09:54:08.078Z</time>
      </trkpt>
      <trkpt lat="50.65237" lon="1.61883">
        <ele>42.884337</ele>
        <time>2019-06-16T09:54:08.389Z</time>
      </trkpt>
      <trkpt lat="50.65231" lon="1.61881">
        <ele>42.706529</ele>
        <time>2019-06-16T09:54:09.534Z</time>
      </trkpt>
      <trkpt lat="50.65226" lon="1.61867">
        <ele>42.429504</ele>
        <time>2019-06-16T09:54:11.216Z</time>
      </trkpt>
      <trkpt lat="50.65171" lon="1.61727">
        <ele>39.737781</ele>
        <time>2019-06-16T09:54:29.777Z</time>
      </trkpt>
      <trkpt lat="50.65154" lon="1.61614">
        <ele>38.104735</ele>
        <time>2019-06-16T09:54:42.967Z</time>
      </trkpt>
      <trkpt lat="50.65056" lon="1.61474">
        <ele>35.612686</ele>
        <time>2019-06-16T09:55:07.676Z</time>
      </trkpt>
      <trkpt lat="50.64885" lon="1.61166">
        <ele>31.599172</ele>
        <time>2019-06-16T09:55:57.276Z</time>
      </trkpt>
      <trkpt lat="50.64869" lon="1.61157">
        <ele>31.345007</ele>
        <time>2019-06-16T09:56:00.534Z</time>
      </trkpt>
      <trkpt lat="50.64852" lon="1.61155">
        <ele>31.084534</ele>
        <time>2019-06-16T09:56:03.730Z</time>
      </trkpt>
      <trkpt lat="50.6482" lon="1.6117">
        <ele>30.53891</ele>
        <time>2019-06-16T09:56:10.045Z</time>
      </trkpt>
      <trkpt lat="50.64729" lon="1.61278">
        <ele>28.682394</ele>
        <time>2019-06-16T09:56:31.579Z</time>
      </trkpt>
      <trkpt lat="50.64721" lon="1.61289">
        <ele>28.516408</ele>
        <time>2019-06-16T09:56:33.564Z</time>
      </trkpt>
      <trkpt lat="50.64709" lon="1.61297">
        <ele>28.300049</ele>
        <time>2019-06-16T09:56:35.997Z</time>
      </trkpt>
      <trkpt lat="50.64623" lon="1.6136">
        <ele>26.62621</ele>
        <time>2019-06-16T09:56:53.706Z</time>
      </trkpt>
      <trkpt lat="50.64592" lon="1.61384">
        <ele>25.998105</ele>
        <time>2019-06-16T09:57:00.106Z</time>
      </trkpt>
      <trkpt lat="50.64567" lon="1.61402">
        <ele>25.523248</ele>
        <time>2019-06-16T09:57:04.907Z</time>
      </trkpt>
      <trkpt lat="50.64536" lon="1.61427">
        <ele>25.001951</ele>
        <time>2019-06-16T09:57:11.621Z</time>
      </trkpt>
      <trkpt lat="50.64506" lon="1.61439">
        <ele>24.798585</ele>
        <time>2019-06-16T09:57:17.628Z</time>
      </trkpt>
      <trkpt lat="50.64477" lon="1.61429">
        <ele>24.598062</ele>
        <time>2019-06-16T09:57:23.660Z</time>
      </trkpt>
      <trkpt lat="50.64468" lon="1.61416">
        <ele>24.518601</ele>
        <time>2019-06-16T09:57:25.830Z</time>
      </trkpt>
      <trkpt lat="50.64427" lon="1.61332">
        <ele>24.069879</ele>
        <time>2019-06-16T09:57:40.372Z</time>
      </trkpt>
      <trkpt lat="50.64391" lon="1.61242">
        <ele>24.026323</ele>
        <time>2019-06-16T09:57:56.240Z</time>
      </trkpt>
      <trkpt lat="50.64386" lon="1.61193">
        <ele>24.163954</ele>
        <time>2019-06-16T09:58:03.955Z</time>
      </trkpt>
      <trkpt lat="50.64385" lon="1.61174">
        <ele>24.219052</ele>
        <time>2019-06-16T09:58:07.529Z</time>
      </trkpt>
      <trkpt lat="50.64384" lon="1.61151">
        <ele>24.283516</ele>
        <time>2019-06-16T09:58:11.210Z</time>
      </trkpt>
      <trkpt lat="50.64373" lon="1.61109">
        <ele>24.408539</ele>
        <time>2019-06-16T09:58:18.629Z</time>
      </trkpt>
      <trkpt lat="50.64352" lon="1.61086">
        <ele>24.522079</ele>
        <time>2019-06-16T09:58:25.154Z</time>
      </trkpt>
      <trkpt lat="50.64338" lon="1.61084">
        <ele>24.582165</ele>
        <time>2019-06-16T09:58:28.473Z</time>
      </trkpt>
      <trkpt lat="50.64323" lon="1.61086">
        <ele>24.649222</ele>
        <time>2019-06-16T09:58:32.221Z</time>
      </trkpt>
      <trkpt lat="50.64217" lon="1.61159">
        <ele>24.805739</ele>
        <time>2019-06-16T09:58:58.974Z</time>
      </trkpt>
      <trkpt lat="50.64194" lon="1.61169">
        <ele>24.83686</ele>
        <time>2019-06-16T09:59:04.228Z</time>
      </trkpt>
      <trkpt lat="50.64156" lon="1.61169">
        <ele>24.887144</ele>
        <time>2019-06-16T09:59:12.667Z</time>
      </trkpt>
      <trkpt lat="50.64135" lon="1.61165">
        <ele>24.89092</ele>
        <time>2019-06-16T09:59:17.233Z</time>
      </trkpt>
      <trkpt lat="50.6413" lon="1.61163">
        <ele>24.89066</ele>
        <time>2019-06-16T09:59:18.340Z</time>
      </trkpt>
      <trkpt lat="50.6412" lon="1.61156">
        <ele>24.890093</ele>
        <time>2019-06-16T09:59:20.819Z</time>
      </trkpt>
      <trkpt lat="50.64106" lon="1.61149">
        <ele>24.889307</ele>
        <time>2019-06-16T09:59:24.113Z</time>
      </trkpt>
      <trkpt lat="50.64035" lon="1.61058">
        <ele>24.884532</ele>
        <time>2019-06-16T09:59:44.353Z</time>
      </trkpt>
      <trkpt lat="50.6402" lon="1.61045">
        <ele>24.883658</ele>
        <time>2019-06-16T09:59:48.027Z</time>
      </trkpt>
      <trkpt lat="50.63978" lon="1.61036">
        <ele>25.004783</ele>
        <time>2019-06-16T09:59:57.571Z</time>
      </trkpt>
      <trkpt lat="50.63867" lon="1.61063">
        <ele>25.725594</ele>
        <time>2019-06-16T10:00:25.513Z</time>
      </trkpt>
      <trkpt lat="50.63813" lon="1.61075">
        <ele>26.164795</ele>
        <time>2019-06-16T10:00:40.698Z</time>
      </trkpt>
      <trkpt lat="50.63785" lon="1.61083">
        <ele>26.717333</ele>
        <time>2019-06-16T10:00:48.743Z</time>
      </trkpt>
      <trkpt lat="50.63762" lon="1.61089">
        <ele>27.173278</ele>
        <time>2019-06-16T10:00:55.774Z</time>
      </trkpt>
      <trkpt lat="50.63597" lon="1.61124">
        <ele>30.799337</ele>
        <time>2019-06-16T10:01:52.156Z</time>
      </trkpt>
      <trkpt lat="50.63588" lon="1.61126">
        <ele>31.027584</ele>
        <time>2019-06-16T10:01:55.501Z</time>
      </trkpt>
      <trkpt lat="50.63587" lon="1.6112">
        <ele>31.138564</ele>
        <time>2019-06-16T10:01:56.747Z</time>
      </trkpt>
      <trkpt lat="50.63585" lon="1.61114">
        <ele>31.249435</ele>
        <time>2019-06-16T10:01:57.856Z</time>
      </trkpt>
      <trkpt lat="50.63582" lon="1.6111">
        <ele>31.362234</ele>
        <time>2019-06-16T10:01:59.095Z</time>
      </trkpt>
      <trkpt lat="50.63579" lon="1.61108">
        <ele>31.457544</ele>
        <time>2019-06-16T10:02:00.176Z</time>
      </trkpt>
      <trkpt lat="50.63575" lon="1.61107">
        <ele>31.553697</ele>
        <time>2019-06-16T10:02:01.115Z</time>
      </trkpt>
      <trkpt lat="50.63572" lon="1.61107">
        <ele>31.647545</ele>
        <time>2019-06-16T10:02:02.389Z</time>
      </trkpt>
      <trkpt lat="50.63568" lon="1.61109">
        <ele>31.768131</ele>
        <time>2019-06-16T10:02:03.836Z</time>
      </trkpt>
      <trkpt lat="50.6356" lon="1.61124">
        <ele>32.113429</ele>
        <time>2019-06-16T10:02:09.538Z</time>
      </trkpt>
      <trkpt lat="50.63562" lon="1.61143">
        <ele>32.459185</ele>
        <time>2019-06-16T10:02:13.323Z</time>
      </trkpt>
      <trkpt lat="50.63564" lon="1.61148">
        <ele>32.577779</ele>
        <time>2019-06-16T10:02:14.570Z</time>
      </trkpt>
      <trkpt lat="50.63556" lon="1.61149">
        <ele>32.81089</ele>
        <time>2019-06-16T10:02:17.805Z</time>
      </trkpt>
      <trkpt lat="50.63511" lon="1.61169">
        <ele>34.0971</ele>
        <time>2019-06-16T10:02:36.751Z</time>
      </trkpt>
      <trkpt lat="50.63461" lon="1.61174">
        <ele>35.752433</ele>
        <time>2019-06-16T10:02:55.783Z</time>
      </trkpt>
      <trkpt lat="50.63449" lon="1.61175">
        <ele>36.151548</ele>
        <time>2019-06-16T10:03:00.170Z</time>
      </trkpt>
      <trkpt lat="50.63441" lon="1.61179">
        <ele>36.462442</ele>
        <time>2019-06-16T10:03:04.073Z</time>
      </trkpt>
      <trkpt lat="50.63416" lon="1.61211">
        <ele>37.588645</ele>
        <time>2019-06-16T10:03:16.078Z</time>
      </trkpt>
      <trkpt lat="50.63347" lon="1.61274">
        <ele>40.36567</ele>
        <time>2019-06-16T10:03:50.299Z</time>
      </trkpt>
      <trkpt lat="50.63299" lon="1.61299">
        <ele>42.197399</ele>
        <time>2019-06-16T10:04:12.239Z</time>
      </trkpt>
      <trkpt lat="50.63266" lon="1.61302">
        <ele>43.418427</ele>
        <time>2019-06-16T10:04:25.335Z</time>
      </trkpt>
      <trkpt lat="50.6326" lon="1.61298">
        <ele>43.667793</ele>
        <time>2019-06-16T10:04:29.523Z</time>
      </trkpt>
      <trkpt lat="50.63265" lon="1.61282">
        <ele>44.074963</ele>
        <time>2019-06-16T10:04:33.426Z</time>
      </trkpt>
      <trkpt lat="50.63261" lon="1.6128">
        <ele>44.21242</ele>
        <time>2019-06-16T10:04:34.894Z</time>
      </trkpt>
      <trkpt lat="50.63258" lon="1.61289">
        <ele>44.440126</ele>
        <time>2019-06-16T10:04:37.097Z</time>
      </trkpt>
      <trkpt lat="50.63253" lon="1.61303">
        <ele>44.815168</ele>
        <time>2019-06-16T10:04:41.187Z</time>
      </trkpt>
      <trkpt lat="50.63237" lon="1.61349">
        <ele>46.031166</ele>
        <time>2019-06-16T10:04:53.812Z</time>
      </trkpt>
      <trkpt lat="50.63232" lon="1.61366">
        <ele>46.463284</ele>
        <time>2019-06-16T10:04:59.618Z</time>
      </trkpt>
      <trkpt lat="50.6321" lon="1.61414">
        <ele>47.878824</ele>
        <time>2019-06-16T10:05:14.466Z</time>
      </trkpt>
      <trkpt lat="50.63188" lon="1.61459">
        <ele>49.266081</ele>
        <time>2019-06-16T10:05:29.231Z</time>
      </trkpt>
      <trkpt lat="50.6317" lon="1.61489">
        <ele>50.281084</ele>
        <time>2019-06-16T10:05:39.219Z</time>
      </trkpt>
      <trkpt lat="50.63117" lon="1.61569">
        <ele>53.137488</ele>
        <time>2019-06-16T10:06:09.020Z</time>
      </trkpt>
      <trkpt lat="50.63101" lon="1.6159">
        <ele>53.929505</ele>
        <time>2019-06-16T10:06:18.275Z</time>
      </trkpt>
      <trkpt lat="50.6305" lon="1.61629">
        <ele>56.754654</ele>
        <time>2019-06-16T10:06:44.688Z</time>
      </trkpt>
      <trkpt lat="50.6302" lon="1.61648">
        <ele>58.49189</ele>
        <time>2019-06-16T10:07:01.636Z</time>
      </trkpt>
      <trkpt lat="50.62983" lon="1.61689">
        <ele>60.87732</ele>
        <time>2019-06-16T10:07:24.823Z</time>
      </trkpt>
      <trkpt lat="50.62921" lon="1.61787">
        <ele>64.895657</ele>
        <time>2019-06-16T10:08:07.768Z</time>
      </trkpt>
      <trkpt lat="50.62912" lon="1.61801">
        <ele>65.313395</ele>
        <time>2019-06-16T10:08:14.237Z</time>
      </trkpt>
      <trkpt lat="50.62902" lon="1.61836">
        <ele>66.110933</ele>
        <time>2019-06-16T10:08:24.075Z</time>
      </trkpt>
      <trkpt lat="50.62905" lon="1.61879">
        <ele>67.010217</ele>
        <time>2019-06-16T10:08:35.214Z</time>
      </trkpt>
      <trkpt lat="50.62919" lon="1.61965">
        <ele>68.904318</ele>
        <time>2019-06-16T10:08:55.910Z</time>
      </trkpt>
      <trkpt lat="50.62957" lon="1.62187">
        <ele>70.401032</ele>
        <time>2019-06-16T10:09:32.984Z</time>
      </trkpt>
      <trkpt lat="50.62957" lon="1.62187">
        <ele>70.401032</ele>
        <time>2019-06-16T10:09:32.987Z</time>
      </trkpt>
      <trkpt lat="50.62955" lon="1.62214">
        <ele>70.483928</ele>
        <time>2019-06-16T10:09:36.661Z</time>
      </trkpt>
      <trkpt lat="50.62935" lon="1.6223">
        <ele>70.592671</ele>
        <time>2019-06-16T10:09:41.674Z</time>
      </trkpt>
      <trkpt lat="50.62935" lon="1.62237">
        <ele>70.613658</ele>
        <time>2019-06-16T10:09:42.552Z</time>
      </trkpt>
      <trkpt lat="50.62911" lon="1.62248">
        <ele>70.673985</ele>
        <time>2019-06-16T10:09:48.519Z</time>
      </trkpt>
      <trkpt lat="50.62758" lon="1.62323">
        <ele>70.080394</ele>
        <time>2019-06-16T10:10:23.975Z</time>
      </trkpt>
      <trkpt lat="50.62721" lon="1.6233">
        <ele>69.237944</ele>
        <time>2019-06-16T10:10:30.928Z</time>
      </trkpt>
      <trkpt lat="50.62686" lon="1.62323">
        <ele>68.122195</ele>
        <time>2019-06-16T10:10:37.190Z</time>
      </trkpt>
      <trkpt lat="50.62649" lon="1.62301">
        <ele>66.856946</ele>
        <time>2019-06-16T10:10:43.931Z</time>
      </trkpt>
      <trkpt lat="50.62605" lon="1.62274">
        <ele>65.352599</ele>
        <time>2019-06-16T10:10:51.783Z</time>
      </trkpt>
      <trkpt lat="50.62594" lon="1.62273">
        <ele>65.004431</ele>
        <time>2019-06-16T10:10:53.471Z</time>
      </trkpt>
      <trkpt lat="50.62596" lon="1.62276">
        <ele>64.927957</ele>
        <time>2019-06-16T10:10:54.208Z</time>
      </trkpt>
      <trkpt lat="50.62615" lon="1.62288">
        <ele>64.259557</ele>
        <time>2019-06-16T10:11:00.364Z</time>
      </trkpt>
      <trkpt lat="50.62617" lon="1.62317">
        <ele>63.327707</ele>
        <time>2019-06-16T10:11:05.734Z</time>
      </trkpt>
      <trkpt lat="50.6262" lon="1.62318">
        <ele>63.150377</ele>
        <time>2019-06-16T10:11:06.776Z</time>
      </trkpt>
      <trkpt lat="50.62611" lon="1.6233">
        <ele>62.53929</ele>
        <time>2019-06-16T10:11:08.716Z</time>
      </trkpt>
      <trkpt lat="50.62594" lon="1.62412">
        <ele>59.814656</ele>
        <time>2019-06-16T10:11:17.225Z</time>
      </trkpt>
      <trkpt lat="50.62562" lon="1.62464">
        <ele>57.499884</ele>
        <time>2019-06-16T10:11:24.440Z</time>
      </trkpt>
      <trkpt lat="50.62544" lon="1.62592">
        <ele>53.901581</ele>
        <time>2019-06-16T10:11:37.872Z</time>
      </trkpt>
      <trkpt lat="50.62539" lon="1.62633">
        <ele>52.964374</ele>
        <time>2019-06-16T10:11:42.191Z</time>
      </trkpt>
      <trkpt lat="50.62511" lon="1.6283">
        <ele>48.791218</ele>
        <time>2019-06-16T10:12:04.173Z</time>
      </trkpt>
      <trkpt lat="50.62499" lon="1.62875">
        <ele>48.58606</ele>
        <time>2019-06-16T10:12:09.900Z</time>
      </trkpt>
      <trkpt lat="50.6226" lon="1.63471">
        <ele>46.138668</ele>
        <time>2019-06-16T10:13:45.319Z</time>
      </trkpt>
      <trkpt lat="50.62259" lon="1.63493">
        <ele>46.103053</ele>
        <time>2019-06-16T10:13:48.438Z</time>
      </trkpt>
      <trkpt lat="50.62255" lon="1.63513">
        <ele>46.069125</ele>
        <time>2019-06-16T10:13:51.613Z</time>
      </trkpt>
      <trkpt lat="50.62189" lon="1.63679">
        <ele>46.188604</ele>
        <time>2019-06-16T10:14:19.021Z</time>
      </trkpt>
      <trkpt lat="50.62188" lon="1.63696">
        <ele>46.206848</ele>
        <time>2019-06-16T10:14:21.548Z</time>
      </trkpt>
      <trkpt lat="50.62194" lon="1.63705">
        <ele>46.21992</ele>
        <time>2019-06-16T10:14:23.606Z</time>
      </trkpt>
      <trkpt lat="50.6218" lon="1.63699">
        <ele>46.242775</ele>
        <time>2019-06-16T10:14:26.933Z</time>
      </trkpt>
      <trkpt lat="50.62175" lon="1.63697">
        <ele>46.251854</ele>
        <time>2019-06-16T10:14:28.195Z</time>
      </trkpt>
      <trkpt lat="50.62161" lon="1.63688">
        <ele>46.27664</ele>
        <time>2019-06-16T10:14:32.089Z</time>
      </trkpt>
      <trkpt lat="50.62123" lon="1.63668">
        <ele>46.458172</ele>
        <time>2019-06-16T10:14:42.392Z</time>
      </trkpt>
      <trkpt lat="50.61904" lon="1.63512">
        <ele>48.680033</ele>
        <time>2019-06-16T10:15:48.956Z</time>
      </trkpt>
      <trkpt lat="50.61803" lon="1.63453">
        <ele>49.930722</ele>
        <time>2019-06-16T10:16:21.156Z</time>
      </trkpt>
      <trkpt lat="50.61797" lon="1.6345">
        <ele>50.022535</ele>
        <time>2019-06-16T10:16:23.247Z</time>
      </trkpt>
      <trkpt lat="50.6179" lon="1.63446">
        <ele>50.125266</ele>
        <time>2019-06-16T10:16:25.324Z</time>
      </trkpt>
      <trkpt lat="50.61768" lon="1.63436">
        <ele>50.451936</ele>
        <time>2019-06-16T10:16:32.113Z</time>
      </trkpt>
      <trkpt lat="50.61558" lon="1.63376">
        <ele>53.546865</ele>
        <time>2019-06-16T10:17:36.717Z</time>
      </trkpt>
      <trkpt lat="50.61553" lon="1.63375">
        <ele>53.625737</ele>
        <time>2019-06-16T10:17:38.585Z</time>
      </trkpt>
      <trkpt lat="50.61539" lon="1.63375">
        <ele>53.835069</ele>
        <time>2019-06-16T10:17:42.628Z</time>
      </trkpt>
      <trkpt lat="50.61328" lon="1.63373">
        <ele>57.353797</ele>
        <time>2019-06-16T10:18:48.501Z</time>
      </trkpt>
      <trkpt lat="50.61317" lon="1.63361">
        <ele>57.575696</ele>
        <time>2019-06-16T10:18:52.391Z</time>
      </trkpt>
      <trkpt lat="50.61315" lon="1.63358">
        <ele>57.627075</ele>
        <time>2019-06-16T10:18:53.956Z</time>
      </trkpt>
      <trkpt lat="50.61311" lon="1.63355">
        <ele>57.716299</ele>
        <time>2019-06-16T10:18:56.171Z</time>
      </trkpt>
      <trkpt lat="50.6128" lon="1.63368">
        <ele>58.269458</ele>
        <time>2019-06-16T10:19:06.406Z</time>
      </trkpt>
      <trkpt lat="50.61251" lon="1.63364">
        <ele>58.717473</ele>
        <time>2019-06-16T10:19:15.822Z</time>
      </trkpt>
      <trkpt lat="50.61221" lon="1.63351">
        <ele>59.182655</ele>
        <time>2019-06-16T10:19:26.349Z</time>
      </trkpt>
      <trkpt lat="50.61199" lon="1.63333">
        <ele>59.551681</ele>
        <time>2019-06-16T10:19:35.169Z</time>
      </trkpt>
      <trkpt lat="50.61184" lon="1.63314">
        <ele>59.851337</ele>
        <time>2019-06-16T10:19:40.457Z</time>
      </trkpt>
      <trkpt lat="50.61178" lon="1.63304">
        <ele>59.983351</ele>
        <time>2019-06-16T10:19:44.664Z</time>
      </trkpt>
      <trkpt lat="50.61165" lon="1.63261">
        <ele>60.440052</ele>
        <time>2019-06-16T10:19:52.260Z</time>
      </trkpt>
      <trkpt lat="50.61145" lon="1.63244">
        <ele>60.787639</ele>
        <time>2019-06-16T10:19:58.175Z</time>
      </trkpt>
      <trkpt lat="50.61133" lon="1.63244">
        <ele>60.969303</ele>
        <time>2019-06-16T10:20:01.176Z</time>
      </trkpt>
      <trkpt lat="50.61107" lon="1.63268">
        <ele>61.208669</ele>
        <time>2019-06-16T10:20:08.874Z</time>
      </trkpt>
      <trkpt lat="50.61095" lon="1.6327">
        <ele>61.290975</ele>
        <time>2019-06-16T10:20:12.458Z</time>
      </trkpt>
      <trkpt lat="50.61095" lon="1.63282">
        <ele>61.342795</ele>
        <time>2019-06-16T10:20:14.296Z</time>
      </trkpt>
      <trkpt lat="50.61097" lon="1.63293">
        <ele>61.391633</ele>
        <time>2019-06-16T10:20:16.211Z</time>
      </trkpt>
      <trkpt lat="50.61098" lon="1.63303">
        <ele>61.438714</ele>
        <time>2019-06-16T10:20:17.704Z</time>
      </trkpt>
      <trkpt lat="50.61111" lon="1.63335">
        <ele>61.609907</ele>
        <time>2019-06-16T10:20:24.977Z</time>
      </trkpt>
      <trkpt lat="50.61111" lon="1.63354">
        <ele>61.695066</ele>
        <time>2019-06-16T10:20:27.788Z</time>
      </trkpt>
      <trkpt lat="50.61112" lon="1.63377">
        <ele>61.799264</ele>
        <time>2019-06-16T10:20:31.575Z</time>
      </trkpt>
      <trkpt lat="50.6111" lon="1.63394">
        <ele>61.878761</ele>
        <time>2019-06-16T10:20:34.631Z</time>
      </trkpt>
      <trkpt lat="50.61103" lon="1.63431">
        <ele>62.050823</ele>
        <time>2019-06-16T10:20:40.318Z</time>
      </trkpt>
      <trkpt lat="50.6109" lon="1.63503">
        <ele>62.594727</ele>
        <time>2019-06-16T10:20:52.531Z</time>
      </trkpt>
      <trkpt lat="50.61087" lon="1.63517">
        <ele>62.796138</ele>
        <time>2019-06-16T10:20:54.722Z</time>
      </trkpt>
      <trkpt lat="50.61083" lon="1.63537">
        <ele>63.08074</ele>
        <time>2019-06-16T10:20:58.000Z</time>
      </trkpt>
      <trkpt lat="50.61077" lon="1.63557">
        <ele>63.382052</ele>
        <time>2019-06-16T10:21:02.185Z</time>
      </trkpt>
      <trkpt lat="50.61053" lon="1.63608">
        <ele>64.261152</ele>
        <time>2019-06-16T10:21:15.085Z</time>
      </trkpt>
      <trkpt lat="50.61" lon="1.6368">
        <ele>65.784129</ele>
        <time>2019-06-16T10:21:40.993Z</time>
      </trkpt>
      <trkpt lat="50.60988" lon="1.63697">
        <ele>66.123858</ele>
        <time>2019-06-16T10:21:47.273Z</time>
      </trkpt>
      <trkpt lat="50.60974" lon="1.63674">
        <ele>67.031057</ele>
        <time>2019-06-16T10:21:55.387Z</time>
      </trkpt>
      <trkpt lat="50.60947" lon="1.63721">
        <ele>68.979468</ele>
        <time>2019-06-16T10:22:12.005Z</time>
      </trkpt>
      <trkpt lat="50.60912" lon="1.63771">
        <ele>71.312519</ele>
        <time>2019-06-16T10:22:33.887Z</time>
      </trkpt>
      <trkpt lat="50.60857" lon="1.63815">
        <ele>74.299473</ele>
        <time>2019-06-16T10:23:05.449Z</time>
      </trkpt>
      <trkpt lat="50.60779" lon="1.63861">
        <ele>80.904186</ele>
        <time>2019-06-16T10:23:54.806Z</time>
      </trkpt>
      <trkpt lat="50.60714" lon="1.63882">
        <ele>86.493353</ele>
        <time>2019-06-16T10:24:39.366Z</time>
      </trkpt>
      <trkpt lat="50.60655" lon="1.63912">
        <ele>92.271817</ele>
        <time>2019-06-16T10:25:25.671Z</time>
      </trkpt>
      <trkpt lat="50.60594" lon="1.63977">
        <ele>100.268905</ele>
        <time>2019-06-16T10:26:22.998Z</time>
      </trkpt>
      <trkpt lat="50.60521" lon="1.64007">
        <ele>108.463653</ele>
        <time>2019-06-16T10:27:23.054Z</time>
      </trkpt>
      <trkpt lat="50.6047" lon="1.64015">
        <ele>113.796844</ele>
        <time>2019-06-16T10:28:03.411Z</time>
      </trkpt>
      <trkpt lat="50.60415" lon="1.64007">
        <ele>119.534296</ele>
        <time>2019-06-16T10:28:46.434Z</time>
      </trkpt>
      <trkpt lat="50.60373" lon="1.6401">
        <ele>123.83228</ele>
        <time>2019-06-16T10:29:17.652Z</time>
      </trkpt>
      <trkpt lat="50.60285" lon="1.6403">
        <ele>131.525681</ele>
        <time>2019-06-16T10:30:18.607Z</time>
      </trkpt>
      <trkpt lat="50.60239" lon="1.64052">
        <ele>135.029102</ele>
        <time>2019-06-16T10:30:48.968Z</time>
      </trkpt>
      <trkpt lat="50.60134" lon="1.64041">
        <ele>141.895338</ele>
        <time>2019-06-16T10:31:45.723Z</time>
      </trkpt>
      <trkpt lat="50.60063" lon="1.64049">
        <ele>144.04471</ele>
        <time>2019-06-16T10:32:14.955Z</time>
      </trkpt>
      <trkpt lat="50.60058" lon="1.6405">
        <ele>144.214866</ele>
        <time>2019-06-16T10:32:17.699Z</time>
      </trkpt>
      <trkpt lat="50.60037" lon="1.64066">
        <ele>144.923286</ele>
        <time>2019-06-16T10:32:25.217Z</time>
      </trkpt>
      <trkpt lat="50.59968" lon="1.64147">
        <ele>146.862607</ele>
        <time>2019-06-16T10:32:51.182Z</time>
      </trkpt>
      <trkpt lat="50.5994" lon="1.64167">
        <ele>146.961781</ele>
        <time>2019-06-16T10:32:58.367Z</time>
      </trkpt>
      <trkpt lat="50.59811" lon="1.64262">
        <ele>147.437894</ele>
        <time>2019-06-16T10:33:31.325Z</time>
      </trkpt>
      <trkpt lat="50.59592" lon="1.6446">
        <ele>148.497911</ele>
        <time>2019-06-16T10:34:36.019Z</time>
      </trkpt>
      <trkpt lat="50.59577" lon="1.64467">
        <ele>148.573194</ele>
        <time>2019-06-16T10:34:40.534Z</time>
      </trkpt>
      <trkpt lat="50.59561" lon="1.6446">
        <ele>148.6477</ele>
        <time>2019-06-16T10:34:44.763Z</time>
      </trkpt>
      <trkpt lat="50.5953" lon="1.64428">
        <ele>148.826384</ele>
        <time>2019-06-16T10:34:54.565Z</time>
      </trkpt>
      <trkpt lat="50.59513" lon="1.64422">
        <ele>148.905766</ele>
        <time>2019-06-16T10:34:59.014Z</time>
      </trkpt>
      <trkpt lat="50.59492" lon="1.64446">
        <ele>148.757546</ele>
        <time>2019-06-16T10:35:05.082Z</time>
      </trkpt>
      <trkpt lat="50.59488" lon="1.64453">
        <ele>148.715296</ele>
        <time>2019-06-16T10:35:06.656Z</time>
      </trkpt>
      <trkpt lat="50.59449" lon="1.64553">
        <ele>148.181863</ele>
        <time>2019-06-16T10:35:22.886Z</time>
      </trkpt>
      <trkpt lat="50.59435" lon="1.64589">
        <ele>147.990644</ele>
        <time>2019-06-16T10:35:28.377Z</time>
      </trkpt>
      <trkpt lat="50.59417" lon="1.64633">
        <ele>147.754202</ele>
        <time>2019-06-16T10:35:35.141Z</time>
      </trkpt>
      <trkpt lat="50.59403" lon="1.64652">
        <ele>147.595169</ele>
        <time>2019-06-16T10:35:38.872Z</time>
      </trkpt>
      <trkpt lat="50.59373" lon="1.64684">
        <ele>146.930438</ele>
        <time>2019-06-16T10:35:45.939Z</time>
      </trkpt>
      <trkpt lat="50.59113" lon="1.65151">
        <ele>138.860881</ele>
        <time>2019-06-16T10:37:02.054Z</time>
      </trkpt>
      <trkpt lat="50.59025" lon="1.65364">
        <ele>133.681097</ele>
        <time>2019-06-16T10:37:31.156Z</time>
      </trkpt>
      <trkpt lat="50.58995" lon="1.65421">
        <ele>131.682678</ele>
        <time>2019-06-16T10:37:39.268Z</time>
      </trkpt>
      <trkpt lat="50.58917" lon="1.65485">
        <ele>127.773343</ele>
        <time>2019-06-16T10:37:53.981Z</time>
      </trkpt>
      <trkpt lat="50.58855" lon="1.65546">
        <ele>123.211984</ele>
        <time>2019-06-16T10:38:05.859Z</time>
      </trkpt>
      <trkpt lat="50.58806" lon="1.65643">
        <ele>118.347739</ele>
        <time>2019-06-16T10:38:18.275Z</time>
      </trkpt>
      <trkpt lat="50.58783" lon="1.65671">
        <ele>116.606834</ele>
        <time>2019-06-16T10:38:22.878Z</time>
      </trkpt>
      <trkpt lat="50.5872" lon="1.65721">
        <ele>112.668285</ele>
        <time>2019-06-16T10:38:34.148Z</time>
      </trkpt>
      <trkpt lat="50.58685" lon="1.65762">
        <ele>110.305082</ele>
        <time>2019-06-16T10:38:41.142Z</time>
      </trkpt>
      <trkpt lat="50.58634" lon="1.65802">
        <ele>107.205152</ele>
        <time>2019-06-16T10:38:50.993Z</time>
      </trkpt>
      <trkpt lat="50.58612" lon="1.65812">
        <ele>106.885121</ele>
        <time>2019-06-16T10:38:55.024Z</time>
      </trkpt>
      <trkpt lat="50.58604" lon="1.65818">
        <ele>106.75867</ele>
        <time>2019-06-16T10:38:56.699Z</time>
      </trkpt>
      <trkpt lat="50.58589" lon="1.65837">
        <ele>106.494104</ele>
        <time>2019-06-16T10:39:00.099Z</time>
      </trkpt>
      <trkpt lat="50.58551" lon="1.6589">
        <ele>105.786208</ele>
        <time>2019-06-16T10:39:09.800Z</time>
      </trkpt>
      <trkpt lat="50.58523" lon="1.6595">
        <ele>105.1285</ele>
        <time>2019-06-16T10:39:19.749Z</time>
      </trkpt>
      <trkpt lat="50.58499" lon="1.66024">
        <ele>104.972308</ele>
        <time>2019-06-16T10:39:33.119Z</time>
      </trkpt>
      <trkpt lat="50.58492" lon="1.66072">
        <ele>105.314877</ele>
        <time>2019-06-16T10:39:41.644Z</time>
      </trkpt>
      <trkpt lat="50.58459" lon="1.66203">
        <ele>106.285901</ele>
        <time>2019-06-16T10:40:05.501Z</time>
      </trkpt>
      <trkpt lat="50.58338" lon="1.66373">
        <ele>110.154942</ele>
        <time>2019-06-16T10:40:59.378Z</time>
      </trkpt>
      <trkpt lat="50.58329" lon="1.66389">
        <ele>110.522019</ele>
        <time>2019-06-16T10:41:05.005Z</time>
      </trkpt>
      <trkpt lat="50.58348" lon="1.66429">
        <ele>111.39807</ele>
        <time>2019-06-16T10:41:18.075Z</time>
      </trkpt>
      <trkpt lat="50.58367" lon="1.66469">
        <ele>112.533228</ele>
        <time>2019-06-16T10:41:31.745Z</time>
      </trkpt>
      <trkpt lat="50.58376" lon="1.66533">
        <ele>114.184497</ele>
        <time>2019-06-16T10:41:50.984Z</time>
      </trkpt>
      <trkpt lat="50.58331" lon="1.66517">
        <ele>116.008498</ele>
        <time>2019-06-16T10:42:12.323Z</time>
      </trkpt>
      <trkpt lat="50.58302" lon="1.66512">
        <ele>117.127333</ele>
        <time>2019-06-16T10:42:24.605Z</time>
      </trkpt>
      <trkpt lat="50.58273" lon="1.66553">
        <ele>118.689327</ele>
        <time>2019-06-16T10:42:45.850Z</time>
      </trkpt>
      <trkpt lat="50.58183" lon="1.66698">
        <ele>120.746159</ele>
        <time>2019-06-16T10:43:48.468Z</time>
      </trkpt>
      <trkpt lat="50.58055" lon="1.66867">
        <ele>120.709755</ele>
        <time>2019-06-16T10:44:48.661Z</time>
      </trkpt>
      <trkpt lat="50.57918" lon="1.67088">
        <ele>118.440702</ele>
        <time>2019-06-16T10:45:54.338Z</time>
      </trkpt>
      <trkpt lat="50.579" lon="1.6713">
        <ele>118.004834</ele>
        <time>2019-06-16T10:46:05.076Z</time>
      </trkpt>
      <trkpt lat="50.57819" lon="1.67376">
        <ele>116.51692</ele>
        <time>2019-06-16T10:47:06.688Z</time>
      </trkpt>
      <trkpt lat="50.57802" lon="1.67433">
        <ele>116.228379</ele>
        <time>2019-06-16T10:47:21.061Z</time>
      </trkpt>
      <trkpt lat="50.57782" lon="1.6747">
        <ele>116.024618</ele>
        <time>2019-06-16T10:47:32.233Z</time>
      </trkpt>
      <trkpt lat="50.57705" lon="1.67537">
        <ele>115.445069</ele>
        <time>2019-06-16T10:48:03.763Z</time>
      </trkpt>
      <trkpt lat="50.57632" lon="1.67657">
        <ele>114.108287</ele>
        <time>2019-06-16T10:48:39.908Z</time>
      </trkpt>
      <trkpt lat="50.57567" lon="1.67725">
        <ele>112.822862</ele>
        <time>2019-06-16T10:49:05.480Z</time>
      </trkpt>
      <trkpt lat="50.57397" lon="1.67865">
        <ele>108.393136</ele>
        <time>2019-06-16T10:50:07.108Z</time>
      </trkpt>
      <trkpt lat="50.57258" lon="1.6796">
        <ele>103.587167</ele>
        <time>2019-06-16T10:50:53.686Z</time>
      </trkpt>
      <trkpt lat="50.57199" lon="1.68024">
        <ele>101.186426</ele>
        <time>2019-06-16T10:51:15.243Z</time>
      </trkpt>
      <trkpt lat="50.57144" lon="1.68061">
        <ele>99.080137</ele>
        <time>2019-06-16T10:51:33.383Z</time>
      </trkpt>
      <trkpt lat="50.57032" lon="1.68164">
        <ele>94.726589</ele>
        <time>2019-06-16T10:52:12.997Z</time>
      </trkpt>
      <trkpt lat="50.56936" lon="1.68217">
        <ele>91.869144</ele>
        <time>2019-06-16T10:52:44.906Z</time>
      </trkpt>
      <trkpt lat="50.56803" lon="1.68319">
        <ele>88.024223</ele>
        <time>2019-06-16T10:53:32.016Z</time>
      </trkpt>
      <trkpt lat="50.56613" lon="1.68528">
        <ele>82.469103</ele>
        <time>2019-06-16T10:54:45.865Z</time>
      </trkpt>
      <trkpt lat="50.56558" lon="1.68631">
        <ele>80.697968</ele>
        <time>2019-06-16T10:55:13.838Z</time>
      </trkpt>
      <trkpt lat="50.56542" lon="1.68673">
        <ele>80.106885</ele>
        <time>2019-06-16T10:55:24.088Z</time>
      </trkpt>
      <trkpt lat="50.56479" lon="1.68871">
        <ele>76.93087</ele>
        <time>2019-06-16T10:56:10.300Z</time>
      </trkpt>
      <trkpt lat="50.56444" lon="1.69012">
        <ele>74.074048</ele>
        <time>2019-06-16T10:56:40.468Z</time>
      </trkpt>
      <trkpt lat="50.56444" lon="1.69012">
        <ele>74.067659</ele>
        <time>2019-06-16T10:56:40.518Z</time>
      </trkpt>
      <trkpt lat="50.56441" lon="1.69062">
        <ele>73.122131</ele>
        <time>2019-06-16T10:56:50.204Z</time>
      </trkpt>
      <trkpt lat="50.56397" lon="1.69362">
        <ele>63.262805</ele>
        <time>2019-06-16T10:57:46.457Z</time>
      </trkpt>
      <trkpt lat="50.56401" lon="1.69392">
        <ele>62.062298</ele>
        <time>2019-06-16T10:57:51.897Z</time>
      </trkpt>
      <trkpt lat="50.56412" lon="1.69421">
        <ele>60.705686</ele>
        <time>2019-06-16T10:57:58.022Z</time>
      </trkpt>
      <trkpt lat="50.56449" lon="1.69476">
        <ele>57.573136</ele>
        <time>2019-06-16T10:58:12.093Z</time>
      </trkpt>
      <trkpt lat="50.56462" lon="1.69513">
        <ele>55.92687</ele>
        <time>2019-06-16T10:58:19.482Z</time>
      </trkpt>
      <trkpt lat="50.56466" lon="1.69553">
        <ele>54.306236</ele>
        <time>2019-06-16T10:58:26.651Z</time>
      </trkpt>
      <trkpt lat="50.56461" lon="1.69579">
        <ele>53.244718</ele>
        <time>2019-06-16T10:58:31.319Z</time>
      </trkpt>
      <trkpt lat="50.56447" lon="1.69613">
        <ele>51.746222</ele>
        <time>2019-06-16T10:58:38.417Z</time>
      </trkpt>
      <trkpt lat="50.56394" lon="1.697">
        <ele>47.514961</ele>
        <time>2019-06-16T10:58:59.662Z</time>
      </trkpt>
      <trkpt lat="50.56347" lon="1.69769">
        <ele>43.99855</ele>
        <time>2019-06-16T10:59:18.094Z</time>
      </trkpt>
      <trkpt lat="50.5632" lon="1.69806">
        <ele>42.851089</ele>
        <time>2019-06-16T10:59:24.397Z</time>
      </trkpt>
      <trkpt lat="50.5631" lon="1.69822">
        <ele>42.863628</ele>
        <time>2019-06-16T10:59:26.954Z</time>
      </trkpt>
      <trkpt lat="50.56293" lon="1.69824">
        <ele>42.879174</ele>
        <time>2019-06-16T10:59:30.133Z</time>
      </trkpt>
      <trkpt lat="50.56276" lon="1.69933">
        <ele>42.943411</ele>
        <time>2019-06-16T10:59:45.813Z</time>
      </trkpt>
      <trkpt lat="50.56272" lon="1.69949">
        <ele>42.953304</ele>
        <time>2019-06-16T10:59:49.746Z</time>
      </trkpt>
      <trkpt lat="50.56252" lon="1.69969">
        <ele>42.975004</ele>
        <time>2019-06-16T10:59:58.918Z</time>
      </trkpt>
      <trkpt lat="50.562" lon="1.69997">
        <ele>44.520068</ele>
        <time>2019-06-16T11:00:22.267Z</time>
      </trkpt>
      <trkpt lat="50.56175" lon="1.70011">
        <ele>46.019145</ele>
        <time>2019-06-16T11:00:35.494Z</time>
      </trkpt>
      <trkpt lat="50.56182" lon="1.70019">
        <ele>46.509445</ele>
        <time>2019-06-16T11:00:39.434Z</time>
      </trkpt>
      <trkpt lat="50.56158" lon="1.70049">
        <ele>48.231285</ele>
        <time>2019-06-16T11:00:55.129Z</time>
      </trkpt>
      <trkpt lat="50.56071" lon="1.70087">
        <ele>53.315284</ele>
        <time>2019-06-16T11:01:44.291Z</time>
      </trkpt>
      <trkpt lat="50.55973" lon="1.70099">
        <ele>60.526804</ele>
        <time>2019-06-16T11:02:42.127Z</time>
      </trkpt>
      <trkpt lat="50.5592" lon="1.70125">
        <ele>64.599111</ele>
        <time>2019-06-16T11:03:15.265Z</time>
      </trkpt>
      <trkpt lat="50.55642" lon="1.70322">
        <ele>87.49673</ele>
        <time>2019-06-16T11:06:23.195Z</time>
      </trkpt>
      <trkpt lat="50.55569" lon="1.70392">
        <ele>93.159823</ele>
        <time>2019-06-16T11:07:08.753Z</time>
      </trkpt>
      <trkpt lat="50.5551" lon="1.70478">
        <ele>95.95488</ele>
        <time>2019-06-16T11:07:44.123Z</time>
      </trkpt>
      <trkpt lat="50.55473" lon="1.7051">
        <ele>97.424504</ele>
        <time>2019-06-16T11:07:59.928Z</time>
      </trkpt>
      <trkpt lat="50.55425" lon="1.70539">
        <ele>99.136333</ele>
        <time>2019-06-16T11:08:17.203Z</time>
      </trkpt>
      <trkpt lat="50.5526" lon="1.70634">
        <ele>99.262416</ele>
        <time>2019-06-16T11:08:57.199Z</time>
      </trkpt>
      <trkpt lat="50.55252" lon="1.70583">
        <ele>98.07754</ele>
        <time>2019-06-16T11:09:03.489Z</time>
      </trkpt>
      <trkpt lat="50.55241" lon="1.70533">
        <ele>96.791943</ele>
        <time>2019-06-16T11:09:09.624Z</time>
      </trkpt>
      <trkpt lat="50.5522" lon="1.70348">
        <ele>92.292294</ele>
        <time>2019-06-16T11:09:29.741Z</time>
      </trkpt>
      <trkpt lat="50.55207" lon="1.70302">
        <ele>91.522921</ele>
        <time>2019-06-16T11:09:34.900Z</time>
      </trkpt>
      <trkpt lat="50.55195" lon="1.70288">
        <ele>91.151088</ele>
        <time>2019-06-16T11:09:37.300Z</time>
      </trkpt>
      <trkpt lat="50.55142" lon="1.70252">
        <ele>89.768264</ele>
        <time>2019-06-16T11:09:47.575Z</time>
      </trkpt>
      <trkpt lat="50.55067" lon="1.70227">
        <ele>88.455334</ele>
        <time>2019-06-16T11:10:05.187Z</time>
      </trkpt>
      <trkpt lat="50.55057" lon="1.70217">
        <ele>89.177828</ele>
        <time>2019-06-16T11:10:07.878Z</time>
      </trkpt>
      <trkpt lat="50.55039" lon="1.7028">
        <ele>91.879367</ele>
        <time>2019-06-16T11:10:33.516Z</time>
      </trkpt>
      <trkpt lat="50.54966" lon="1.704">
        <ele>98.414839</ele>
        <time>2019-06-16T11:11:54.341Z</time>
      </trkpt>
      <trkpt lat="50.54874" lon="1.70498">
        <ele>106.711969</ele>
        <time>2019-06-16T11:13:32.692Z</time>
      </trkpt>
      <trkpt lat="50.54831" lon="1.70555">
        <ele>111.007441</ele>
        <time>2019-06-16T11:14:10.793Z</time>
      </trkpt>
      <trkpt lat="50.54827" lon="1.70562">
        <ele>111.453481</ele>
        <time>2019-06-16T11:14:16.637Z</time>
      </trkpt>
      <trkpt lat="50.5481" lon="1.7059">
        <ele>112.950891</ele>
        <time>2019-06-16T11:14:29.448Z</time>
      </trkpt>
      <trkpt lat="50.5474" lon="1.70678">
        <ele>113.450229</ele>
        <time>2019-06-16T11:15:13.064Z</time>
      </trkpt>
      <trkpt lat="50.54642" lon="1.70834">
        <ele>112.520339</ele>
        <time>2019-06-16T11:15:57.757Z</time>
      </trkpt>
      <trkpt lat="50.54477" lon="1.70896">
        <ele>108.206309</ele>
        <time>2019-06-16T11:16:50.875Z</time>
      </trkpt>
      <trkpt lat="50.54295" lon="1.71018">
        <ele>103.664255</ele>
        <time>2019-06-16T11:17:54.685Z</time>
      </trkpt>
      <trkpt lat="50.5411" lon="1.71107">
        <ele>99.163136</ele>
        <time>2019-06-16T11:18:57.445Z</time>
      </trkpt>
      <trkpt lat="50.53973" lon="1.71182">
        <ele>95.106215</ele>
        <time>2019-06-16T11:19:42.589Z</time>
      </trkpt>
      <trkpt lat="50.53913" lon="1.71215">
        <ele>93.099652</ele>
        <time>2019-06-16T11:20:01.697Z</time>
      </trkpt>
      <trkpt lat="50.53887" lon="1.71229">
        <ele>92.213719</ele>
        <time>2019-06-16T11:20:10.230Z</time>
      </trkpt>
      <trkpt lat="50.53877" lon="1.71235">
        <ele>91.894079</ele>
        <time>2019-06-16T11:20:13.165Z</time>
      </trkpt>
      <trkpt lat="50.53589" lon="1.7135">
        <ele>84.554449</ele>
        <time>2019-06-16T11:21:47.231Z</time>
      </trkpt>
      <trkpt lat="50.53462" lon="1.71384">
        <ele>82.547505</ele>
        <time>2019-06-16T11:22:31.918Z</time>
      </trkpt>
      <trkpt lat="50.53402" lon="1.71423">
        <ele>81.826404</ele>
        <time>2019-06-16T11:22:54.575Z</time>
      </trkpt>
      <trkpt lat="50.53394" lon="1.71434">
        <ele>81.714379</ele>
        <time>2019-06-16T11:22:58.086Z</time>
      </trkpt>
      <trkpt lat="50.53392" lon="1.71435">
        <ele>81.6877</ele>
        <time>2019-06-16T11:22:58.878Z</time>
      </trkpt>
      <trkpt lat="50.5338" lon="1.71429">
        <ele>81.549175</ele>
        <time>2019-06-16T11:23:01.473Z</time>
      </trkpt>
      <trkpt lat="50.52858" lon="1.71799">
        <ele>73.210129</ele>
        <time>2019-06-16T11:26:13.401Z</time>
      </trkpt>
      <trkpt lat="50.52664" lon="1.71931">
        <ele>70.139989</ele>
        <time>2019-06-16T11:27:24.207Z</time>
      </trkpt>
      <trkpt lat="50.52583" lon="1.71999">
        <ele>68.971054</ele>
        <time>2019-06-16T11:27:55.065Z</time>
      </trkpt>
      <trkpt lat="50.52577" lon="1.72005">
        <ele>68.8787</ele>
        <time>2019-06-16T11:27:57.408Z</time>
      </trkpt>
      <trkpt lat="50.52572" lon="1.7201">
        <ele>68.794915</ele>
        <time>2019-06-16T11:27:59.531Z</time>
      </trkpt>
      <trkpt lat="50.52379" lon="1.72167">
        <ele>66.488099</ele>
        <time>2019-06-16T11:29:14.302Z</time>
      </trkpt>
      <trkpt lat="50.5228" lon="1.72267">
        <ele>65.248429</ele>
        <time>2019-06-16T11:29:55.607Z</time>
      </trkpt>
      <trkpt lat="50.52203" lon="1.72344">
        <ele>64.246183</ele>
        <time>2019-06-16T11:30:26.873Z</time>
      </trkpt>
      <trkpt lat="50.52166" lon="1.72371">
        <ele>63.393316</ele>
        <time>2019-06-16T11:30:40.433Z</time>
      </trkpt>
      <trkpt lat="50.51908" lon="1.72528">
        <ele>56.168694</ele>
        <time>2019-06-16T11:32:08.295Z</time>
      </trkpt>
      <trkpt lat="50.5186" lon="1.72557">
        <ele>54.546277</ele>
        <time>2019-06-16T11:32:23.433Z</time>
      </trkpt>
      <trkpt lat="50.5173" lon="1.7265">
        <ele>47.770225</ele>
        <time>2019-06-16T11:33:04.936Z</time>
      </trkpt>
      <trkpt lat="50.5167" lon="1.72681">
        <ele>44.357574</ele>
        <time>2019-06-16T11:33:23.354Z</time>
      </trkpt>
      <trkpt lat="50.51599" lon="1.72677">
        <ele>40.027619</ele>
        <time>2019-06-16T11:33:43.267Z</time>
      </trkpt>
      <trkpt lat="50.51565" lon="1.72705">
        <ele>37.717801</ele>
        <time>2019-06-16T11:33:53.784Z</time>
      </trkpt>
      <trkpt lat="50.51523" lon="1.72727">
        <ele>35.034466</ele>
        <time>2019-06-16T11:34:05.860Z</time>
      </trkpt>
      <trkpt lat="50.51474" lon="1.72732">
        <ele>31.846538</ele>
        <time>2019-06-16T11:34:13.587Z</time>
      </trkpt>
      <trkpt lat="50.51434" lon="1.7275">
        <ele>29.143389</ele>
        <time>2019-06-16T11:34:20.170Z</time>
      </trkpt>
      <trkpt lat="50.51311" lon="1.72704">
        <ele>21.682063</ele>
        <time>2019-06-16T11:34:40.560Z</time>
      </trkpt>
      <trkpt lat="50.5125" lon="1.72633">
        <ele>18.163951</ele>
        <time>2019-06-16T11:34:53.433Z</time>
      </trkpt>
      <trkpt lat="50.51195" lon="1.7259">
        <ele>15.326017</ele>
        <time>2019-06-16T11:35:03.987Z</time>
      </trkpt>
      <trkpt lat="50.51153" lon="1.72586">
        <ele>14.233319</ele>
        <time>2019-06-16T11:35:11.566Z</time>
      </trkpt>
      <trkpt lat="50.51119" lon="1.72598">
        <ele>13.350555</ele>
        <time>2019-06-16T11:35:17.938Z</time>
      </trkpt>
      <trkpt lat="50.51086" lon="1.72615">
        <ele>12.471486</ele>
        <time>2019-06-16T11:35:24.449Z</time>
      </trkpt>
      <trkpt lat="50.51081" lon="1.7259">
        <ele>12.041371</ele>
        <time>2019-06-16T11:35:27.511Z</time>
      </trkpt>
      <trkpt lat="50.51058" lon="1.72514">
        <ele>10.719676</ele>
        <time>2019-06-16T11:35:37.566Z</time>
      </trkpt>
      <trkpt lat="50.51059" lon="1.72498">
        <ele>10.628382</ele>
        <time>2019-06-16T11:35:39.431Z</time>
      </trkpt>
      <trkpt lat="50.51054" lon="1.72475">
        <ele>10.489941</ele>
        <time>2019-06-16T11:35:42.350Z</time>
      </trkpt>
      <trkpt lat="50.51048" lon="1.7246">
        <ele>10.38389</ele>
        <time>2019-06-16T11:35:44.668Z</time>
      </trkpt>
      <trkpt lat="50.51031" lon="1.72437">
        <ele>10.1784</ele>
        <time>2019-06-16T11:35:49.044Z</time>
      </trkpt>
      <trkpt lat="50.5091" lon="1.72356">
        <ele>9.0197</ele>
        <time>2019-06-16T11:36:16.289Z</time>
      </trkpt>
      <trkpt lat="50.50876" lon="1.72325">
        <ele>8.793994</ele>
        <time>2019-06-16T11:36:24.395Z</time>
      </trkpt>
      <trkpt lat="50.50858" lon="1.72306">
        <ele>8.664801</ele>
        <time>2019-06-16T11:36:29.125Z</time>
      </trkpt>
      <trkpt lat="50.50838" lon="1.72285">
        <ele>8.528582</ele>
        <time>2019-06-16T11:36:33.887Z</time>
      </trkpt>
      <trkpt lat="50.50807" lon="1.72247">
        <ele>8.298398</ele>
        <time>2019-06-16T11:36:42.112Z</time>
      </trkpt>
      <trkpt lat="50.50782" lon="1.72196">
        <ele>8.06482</ele>
        <time>2019-06-16T11:36:50.425Z</time>
      </trkpt>
      <trkpt lat="50.50725" lon="1.71973">
        <ele>7.686412</ele>
        <time>2019-06-16T11:37:23.110Z</time>
      </trkpt>
      <trkpt lat="50.50703" lon="1.71903">
        <ele>7.709762</ele>
        <time>2019-06-16T11:37:34.783Z</time>
      </trkpt>
      <trkpt lat="50.50572" lon="1.71615">
        <ele>8.465317</ele>
        <time>2019-06-16T11:38:31.191Z</time>
      </trkpt>
      <trkpt lat="50.5045" lon="1.71365">
        <ele>8.012232</ele>
        <time>2019-06-16T11:39:14.319Z</time>
      </trkpt>
      <trkpt lat="50.50426" lon="1.71331">
        <ele>7.822797</ele>
        <time>2019-06-16T11:39:20.893Z</time>
      </trkpt>
      <trkpt lat="50.50384" lon="1.71282">
        <ele>7.518407</ele>
        <time>2019-06-16T11:39:31.376Z</time>
      </trkpt>
      <trkpt lat="50.50292" lon="1.71167">
        <ele>6.863582</ele>
        <time>2019-06-16T11:39:55.203Z</time>
      </trkpt>
      <trkpt lat="50.50095" lon="1.709">
        <ele>6.130902</ele>
        <time>2019-06-16T11:40:51.842Z</time>
      </trkpt>
      <trkpt lat="50.50058" lon="1.70839">
        <ele>6.070801</ele>
        <time>2019-06-16T11:41:03.580Z</time>
      </trkpt>
      <trkpt lat="50.5005" lon="1.7082">
        <ele>6.053939</ele>
        <time>2019-06-16T11:41:06.724Z</time>
      </trkpt>
      <trkpt lat="50.5004" lon="1.70794">
        <ele>6.032097</ele>
        <time>2019-06-16T11:41:11.170Z</time>
      </trkpt>
      <trkpt lat="50.50031" lon="1.70772">
        <ele>6.013705</ele>
        <time>2019-06-16T11:41:14.622Z</time>
      </trkpt>
      <trkpt lat="50.49979" lon="1.70615">
        <ele>5.883741</ele>
        <time>2019-06-16T11:41:39.578Z</time>
      </trkpt>
      <trkpt lat="50.49848" lon="1.70445">
        <ele>5.542621</ele>
        <time>2019-06-16T11:42:16.893Z</time>
      </trkpt>
      <trkpt lat="50.49828" lon="1.70415">
        <ele>5.403001</ele>
        <time>2019-06-16T11:42:22.699Z</time>
      </trkpt>
      <trkpt lat="50.49819" lon="1.70403">
        <ele>5.339182</ele>
        <time>2019-06-16T11:42:25.365Z</time>
      </trkpt>
      <trkpt lat="50.49815" lon="1.70398">
        <ele>5.314162</ele>
        <time>2019-06-16T11:42:26.428Z</time>
      </trkpt>
      <trkpt lat="50.49809" lon="1.70391">
        <ele>5.273544</ele>
        <time>2019-06-16T11:42:28.037Z</time>
      </trkpt>
      <trkpt lat="50.49793" lon="1.70381">
        <ele>5.187333</ele>
        <time>2019-06-16T11:42:31.432Z</time>
      </trkpt>
      <trkpt lat="50.49744" lon="1.70349">
        <ele>4.916114</ele>
        <time>2019-06-16T11:42:42.301Z</time>
      </trkpt>
      <trkpt lat="50.49708" lon="1.70373">
        <ele>4.692673</ele>
        <time>2019-06-16T11:42:50.124Z</time>
      </trkpt>
      <trkpt lat="50.49705" lon="1.70375">
        <ele>4.665426</ele>
        <time>2019-06-16T11:42:50.914Z</time>
      </trkpt>
      <trkpt lat="50.49709" lon="1.7039">
        <ele>4.59839</ele>
        <time>2019-06-16T11:42:52.909Z</time>
      </trkpt>
      <trkpt lat="50.49705" lon="1.70375">
        <ele>4.531354</ele>
        <time>2019-06-16T11:42:55.054Z</time>
      </trkpt>
      <trkpt lat="50.49696" lon="1.70336">
        <ele>4.357682</ele>
        <time>2019-06-16T11:43:00.237Z</time>
      </trkpt>
      <trkpt lat="50.4968" lon="1.70221">
        <ele>3.862799</ele>
        <time>2019-06-16T11:43:15.770Z</time>
      </trkpt>
      <trkpt lat="50.49673" lon="1.70095">
        <ele>3.464338</ele>
        <time>2019-06-16T11:43:32.805Z</time>
      </trkpt>
      <trkpt lat="50.49674" lon="1.70075">
        <ele>3.419647</ele>
        <time>2019-06-16T11:43:35.379Z</time>
      </trkpt>
      <trkpt lat="50.49676" lon="1.70054">
        <ele>3.374292</ele>
        <time>2019-06-16T11:43:38.429Z</time>
      </trkpt>
      <trkpt lat="50.49705" lon="1.69958">
        <ele>3.141509</ele>
        <time>2019-06-16T11:43:52.926Z</time>
      </trkpt>
      <trkpt lat="50.49714" lon="1.69941">
        <ele>3.091953</ele>
        <time>2019-06-16T11:43:56.294Z</time>
      </trkpt>
      <trkpt lat="50.49707" lon="1.69935">
        <ele>3.063701</ele>
        <time>2019-06-16T11:43:57.891Z</time>
      </trkpt>
      <trkpt lat="50.49318" lon="1.69619">
        <ele>2.273378</ele>
        <time>2019-06-16T11:45:33.241Z</time>
      </trkpt>
      <trkpt lat="50.4926" lon="1.69576">
        <ele>2.232384</ele>
        <time>2019-06-16T11:45:47.259Z</time>
      </trkpt>
      <trkpt lat="50.49247" lon="1.69573">
        <ele>2.223704</ele>
        <time>2019-06-16T11:45:50.201Z</time>
      </trkpt>
      <trkpt lat="50.49205" lon="1.69573">
        <ele>2.196591</ele>
        <time>2019-06-16T11:45:59.461Z</time>
      </trkpt>
      <trkpt lat="50.49179" lon="1.69574">
        <ele>2.195105</ele>
        <time>2019-06-16T11:46:05.327Z</time>
      </trkpt>
      <trkpt lat="50.49169" lon="1.69575">
        <ele>2.195349</ele>
        <time>2019-06-16T11:46:07.493Z</time>
      </trkpt>
      <trkpt lat="50.49171" lon="1.6959">
        <ele>2.195587</ele>
        <time>2019-06-16T11:46:11.207Z</time>
      </trkpt>
      <trkpt lat="50.49181" lon="1.69604">
        <ele>2.195902</ele>
        <time>2019-06-16T11:46:15.930Z</time>
      </trkpt>
      <trkpt lat="50.49198" lon="1.69693">
        <ele>2.197348</ele>
        <time>2019-06-16T11:46:37.930Z</time>
      </trkpt>
      <trkpt lat="50.49208" lon="1.69722">
        <ele>2.197871</ele>
        <time>2019-06-16T11:46:45.803Z</time>
      </trkpt>
      <trkpt lat="50.49285" lon="1.69845">
        <ele>2.169561</ele>
        <time>2019-06-16T11:47:26.422Z</time>
      </trkpt>
      <trkpt lat="50.49376" lon="1.70055">
        <ele>2.079945</ele>
        <time>2019-06-16T11:48:26.177Z</time>
      </trkpt>
      <trkpt lat="50.49389" lon="1.70104">
        <ele>2.052877</ele>
        <time>2019-06-16T11:48:38.594Z</time>
      </trkpt>
      <trkpt lat="50.49394" lon="1.70126">
        <ele>2.041128</ele>
        <time>2019-06-16T11:48:43.987Z</time>
      </trkpt>
      <trkpt lat="50.4943" lon="1.70275">
        <ele>1.980165</ele>
        <time>2019-06-16T11:49:21.509Z</time>
      </trkpt>
      <trkpt lat="50.49431" lon="1.70312">
        <ele>1.989832</ele>
        <time>2019-06-16T11:49:30.408Z</time>
      </trkpt>
      <trkpt lat="50.49459" lon="1.70452">
        <ele>2.027385</ele>
        <time>2019-06-16T11:50:05.122Z</time>
      </trkpt>
      <trkpt lat="50.49478" lon="1.70585">
        <ele>2.093096</ele>
        <time>2019-06-16T11:50:37.928Z</time>
      </trkpt>
      <trkpt lat="50.49487" lon="1.70648">
        <ele>2.141055</ele>
        <time>2019-06-16T11:50:53.515Z</time>
      </trkpt>
      <trkpt lat="50.49491" lon="1.70742">
        <ele>2.21077</ele>
        <time>2019-06-16T11:51:16.271Z</time>
      </trkpt>
      <trkpt lat="50.49478" lon="1.70816">
        <ele>2.28578</ele>
        <time>2019-06-16T11:51:34.483Z</time>
      </trkpt>
      <trkpt lat="50.49457" lon="1.7088">
        <ele>2.421248</ele>
        <time>2019-06-16T11:51:52.164Z</time>
      </trkpt>
      <trkpt lat="50.49393" lon="1.70988">
        <ele>2.694465</ele>
        <time>2019-06-16T11:52:28.274Z</time>
      </trkpt>
      <trkpt lat="50.49359" lon="1.71035">
        <ele>2.868539</ele>
        <time>2019-06-16T11:52:46.080Z</time>
      </trkpt>
      <trkpt lat="50.49281" lon="1.71095">
        <ele>3.352951</ele>
        <time>2019-06-16T11:53:20.970Z</time>
      </trkpt>
      <trkpt lat="50.49225" lon="1.71119">
        <ele>3.676066</ele>
        <time>2019-06-16T11:53:44.402Z</time>
      </trkpt>
      <trkpt lat="50.49102" lon="1.71153">
        <ele>3.883733</ele>
        <time>2019-06-16T11:54:32.870Z</time>
      </trkpt>
      <trkpt lat="50.49053" lon="1.71236">
        <ele>3.952111</ele>
        <time>2019-06-16T11:54:59.217Z</time>
      </trkpt>
      <trkpt lat="50.4903" lon="1.71284">
        <ele>3.832352</ele>
        <time>2019-06-16T11:55:12.969Z</time>
      </trkpt>
      <trkpt lat="50.49006" lon="1.71466">
        <ele>3.441518</ele>
        <time>2019-06-16T11:55:55.362Z</time>
      </trkpt>
      <trkpt lat="50.48985" lon="1.71558">
        <ele>3.45058</ele>
        <time>2019-06-16T11:56:18.162Z</time>
      </trkpt>
      <trkpt lat="50.48967" lon="1.71615">
        <ele>3.551769</ele>
        <time>2019-06-16T11:56:33.247Z</time>
      </trkpt>
      <trkpt lat="50.48934" lon="1.71667">
        <ele>3.67109</ele>
        <time>2019-06-16T11:56:51.798Z</time>
      </trkpt>
      <trkpt lat="50.48874" lon="1.71694">
        <ele>3.875067</ele>
        <time>2019-06-16T11:57:16.744Z</time>
      </trkpt>
      <trkpt lat="50.48834" lon="1.71703">
        <ele>4.260759</ele>
        <time>2019-06-16T11:57:33.402Z</time>
      </trkpt>
      <trkpt lat="50.48816" lon="1.7171">
        <ele>4.433614</ele>
        <time>2019-06-16T11:57:38.655Z</time>
      </trkpt>
      <trkpt lat="50.48784" lon="1.71719">
        <ele>4.749146</ele>
        <time>2019-06-16T11:57:47.833Z</time>
      </trkpt>
      <trkpt lat="50.48777" lon="1.7172">
        <ele>4.816073</ele>
        <time>2019-06-16T11:57:50.062Z</time>
      </trkpt>
      <trkpt lat="50.48775" lon="1.71732">
        <ele>4.890629</ele>
        <time>2019-06-16T11:57:51.993Z</time>
      </trkpt>
      <trkpt lat="50.4878" lon="1.71848">
        <ele>5.588771</ele>
        <time>2019-06-16T11:58:13.295Z</time>
      </trkpt>
      <trkpt lat="50.48777" lon="1.71932">
        <ele>6.061799</ele>
        <time>2019-06-16T11:58:28.505Z</time>
      </trkpt>
      <trkpt lat="50.48745" lon="1.72133">
        <ele>7.127177</ele>
        <time>2019-06-16T11:59:04.716Z</time>
      </trkpt>
      <trkpt lat="50.48739" lon="1.7219">
        <ele>7.148778</ele>
        <time>2019-06-16T11:59:14.186Z</time>
      </trkpt>
      <trkpt lat="50.48736" lon="1.72331">
        <ele>7.201585</ele>
        <time>2019-06-16T11:59:35.215Z</time>
      </trkpt>
      <trkpt lat="50.4872" lon="1.72443">
        <ele>6.980478</ele>
        <time>2019-06-16T11:59:51.246Z</time>
      </trkpt>
      <trkpt lat="50.48718" lon="1.72454">
        <ele>6.928453</ele>
        <time>2019-06-16T11:59:52.757Z</time>
      </trkpt>
      <trkpt lat="50.48706" lon="1.72551">
        <ele>6.459979</ele>
        <time>2019-06-16T12:00:06.020Z</time>
      </trkpt>
      <trkpt lat="50.48661" lon="1.72639">
        <ele>5.923473</ele>
        <time>2019-06-16T12:00:21.236Z</time>
      </trkpt>
      <trkpt lat="50.48634" lon="1.72699">
        <ele>5.744951</ele>
        <time>2019-06-16T12:00:31.131Z</time>
      </trkpt>
      <trkpt lat="50.48618" lon="1.72736">
        <ele>5.647777</ele>
        <time>2019-06-16T12:00:37.324Z</time>
      </trkpt>
      <trkpt lat="50.48558" lon="1.72815">
        <ele>5.380449</ele>
        <time>2019-06-16T12:00:55.030Z</time>
      </trkpt>
      <trkpt lat="50.48537" lon="1.72866">
        <ele>5.285444</ele>
        <time>2019-06-16T12:01:04.078Z</time>
      </trkpt>
      <trkpt lat="50.48525" lon="1.72882">
        <ele>5.310242</ele>
        <time>2019-06-16T12:01:07.809Z</time>
      </trkpt>
      <trkpt lat="50.485" lon="1.72922">
        <ele>5.36824</ele>
        <time>2019-06-16T12:01:16.633Z</time>
      </trkpt>
      <trkpt lat="50.48468" lon="1.73018">
        <ele>5.478302</ele>
        <time>2019-06-16T12:01:33.400Z</time>
      </trkpt>
      <trkpt lat="50.48476" lon="1.73048">
        <ele>5.511088</ele>
        <time>2019-06-16T12:01:38.405Z</time>
      </trkpt>
      <trkpt lat="50.48451" lon="1.73201">
        <ele>5.576922</ele>
        <time>2019-06-16T12:02:02.278Z</time>
      </trkpt>
      <trkpt lat="50.48435" lon="1.73327">
        <ele>5.594893</ele>
        <time>2019-06-16T12:02:21.151Z</time>
      </trkpt>
      <trkpt lat="50.48413" lon="1.7344">
        <ele>5.659269</ele>
        <time>2019-06-16T12:02:38.613Z</time>
      </trkpt>
      <trkpt lat="50.48387" lon="1.73435">
        <ele>5.692291</ele>
        <time>2019-06-16T12:02:48.380Z</time>
      </trkpt>
      <trkpt lat="50.48322" lon="1.7341">
        <ele>5.776707</ele>
        <time>2019-06-16T12:03:13.485Z</time>
      </trkpt>
      <trkpt lat="50.48315" lon="1.73404">
        <ele>5.786667</ele>
        <time>2019-06-16T12:03:16.482Z</time>
      </trkpt>
      <trkpt lat="50.48261" lon="1.73357">
        <ele>5.91784</ele>
        <time>2019-06-16T12:03:40.097Z</time>
      </trkpt>
      <trkpt lat="50.48215" lon="1.733">
        <ele>6.103258</ele>
        <time>2019-06-16T12:04:02.895Z</time>
      </trkpt>
      <trkpt lat="50.48148" lon="1.73272">
        <ele>6.321169</ele>
        <time>2019-06-16T12:04:29.851Z</time>
      </trkpt>
      <trkpt lat="50.48128" lon="1.73287">
        <ele>6.392865</ele>
        <time>2019-06-16T12:04:38.701Z</time>
      </trkpt>
      <trkpt lat="50.4812" lon="1.73286">
        <ele>6.421866</ele>
        <time>2019-06-16T12:04:41.688Z</time>
      </trkpt>
      <trkpt lat="50.48098" lon="1.73247">
        <ele>6.547856</ele>
        <time>2019-06-16T12:04:54.503Z</time>
      </trkpt>
      <trkpt lat="50.48076" lon="1.73202">
        <ele>6.686949</ele>
        <time>2019-06-16T12:05:08.623Z</time>
      </trkpt>
      <trkpt lat="50.48038" lon="1.73123">
        <ele>6.92765</ele>
        <time>2019-06-16T12:05:33.198Z</time>
      </trkpt>
      <trkpt lat="50.48017" lon="1.73088">
        <ele>7.043055</ele>
        <time>2019-06-16T12:05:45.159Z</time>
      </trkpt>
      <trkpt lat="50.48" lon="1.73073">
        <ele>7.118586</ele>
        <time>2019-06-16T12:05:52.986Z</time>
      </trkpt>
      <trkpt lat="50.47955" lon="1.73067">
        <ele>7.290143</ele>
        <time>2019-06-16T12:06:10.610Z</time>
      </trkpt>
      <trkpt lat="50.47896" lon="1.73052">
        <ele>7.514897</ele>
        <time>2019-06-16T12:06:33.574Z</time>
      </trkpt>
      <trkpt lat="50.4787" lon="1.73047">
        <ele>7.616933</ele>
        <time>2019-06-16T12:06:44.100Z</time>
      </trkpt>
      <trkpt lat="50.47841" lon="1.73048">
        <ele>7.726054</ele>
        <time>2019-06-16T12:06:55.270Z</time>
      </trkpt>
      <trkpt lat="50.4769" lon="1.73008">
        <ele>8.439015</ele>
        <time>2019-06-16T12:07:55.520Z</time>
      </trkpt>
      <trkpt lat="50.47644" lon="1.72985">
        <ele>8.71658</ele>
        <time>2019-06-16T12:08:14.361Z</time>
      </trkpt>
      <trkpt lat="50.47607" lon="1.72998">
        <ele>9.065901</ele>
        <time>2019-06-16T12:08:29.603Z</time>
      </trkpt>
      <trkpt lat="50.47601" lon="1.72999">
        <ele>9.121022</ele>
        <time>2019-06-16T12:08:32.607Z</time>
      </trkpt>
      <trkpt lat="50.47609" lon="1.73059">
        <ele>9.479624</ele>
        <time>2019-06-16T12:08:42.771Z</time>
      </trkpt>
      <trkpt lat="50.47613" lon="1.73088">
        <ele>9.652906</ele>
        <time>2019-06-16T12:08:47.387Z</time>
      </trkpt>
      <trkpt lat="50.47616" lon="1.73177">
        <ele>10.176745</ele>
        <time>2019-06-16T12:09:03.675Z</time>
      </trkpt>
      <trkpt lat="50.47599" lon="1.73267">
        <ele>10.842632</ele>
        <time>2019-06-16T12:09:20.823Z</time>
      </trkpt>
      <trkpt lat="50.47557" lon="1.73389">
        <ele>11.856766</ele>
        <time>2019-06-16T12:09:46.951Z</time>
      </trkpt>
      <trkpt lat="50.47499" lon="1.73488">
        <ele>12.095095</ele>
        <time>2019-06-16T12:10:08.977Z</time>
      </trkpt>
      <trkpt lat="50.47468" lon="1.73536">
        <ele>11.851925</ele>
        <time>2019-06-16T12:10:18.290Z</time>
      </trkpt>
      <trkpt lat="50.47439" lon="1.73581">
        <ele>11.62747</ele>
        <time>2019-06-16T12:10:26.397Z</time>
      </trkpt>
      <trkpt lat="50.47403" lon="1.73639">
        <ele>11.341551</ele>
        <time>2019-06-16T12:10:36.392Z</time>
      </trkpt>
      <trkpt lat="50.47422" lon="1.73655">
        <ele>10.976834</ele>
        <time>2019-06-16T12:10:40.734Z</time>
      </trkpt>
      <trkpt lat="50.47543" lon="1.73744">
        <ele>8.605073</ele>
        <time>2019-06-16T12:11:08.218Z</time>
      </trkpt>
      <trkpt lat="50.47535" lon="1.7379">
        <ele>8.110614</ele>
        <time>2019-06-16T12:11:14.706Z</time>
      </trkpt>
      <trkpt lat="50.47536" lon="1.73851">
        <ele>7.78756</ele>
        <time>2019-06-16T12:11:23.189Z</time>
      </trkpt>
      <trkpt lat="50.47547" lon="1.73918">
        <ele>7.41271</ele>
        <time>2019-06-16T12:11:33.212Z</time>
      </trkpt>
      <trkpt lat="50.47548" lon="1.7395">
        <ele>7.241116</ele>
        <time>2019-06-16T12:11:37.845Z</time>
      </trkpt>
      <trkpt lat="50.47542" lon="1.73986">
        <ele>7.040551</ele>
        <time>2019-06-16T12:11:43.336Z</time>
      </trkpt>
      <trkpt lat="50.4748" lon="1.74177">
        <ele>6.352034</ele>
        <time>2019-06-16T12:12:15.835Z</time>
      </trkpt>
      <trkpt lat="50.47468" lon="1.74197">
        <ele>6.295782</ele>
        <time>2019-06-16T12:12:20.108Z</time>
      </trkpt>
      <trkpt lat="50.47446" lon="1.74229">
        <ele>6.202538</ele>
        <time>2019-06-16T12:12:27.317Z</time>
      </trkpt>
      <trkpt lat="50.47442" lon="1.74214">
        <ele>6.170932</ele>
        <time>2019-06-16T12:12:29.614Z</time>
      </trkpt>
      <trkpt lat="50.47432" lon="1.7421">
        <ele>6.137025</ele>
        <time>2019-06-16T12:12:32.235Z</time>
      </trkpt>
      <trkpt lat="50.47417" lon="1.74214">
        <ele>6.089495</ele>
        <time>2019-06-16T12:12:35.926Z</time>
      </trkpt>
      <trkpt lat="50.47375" lon="1.74314">
        <ele>5.936665</ele>
        <time>2019-06-16T12:12:54.212Z</time>
      </trkpt>
      <trkpt lat="50.4735" lon="1.7439">
        <ele>5.835303</ele>
        <time>2019-06-16T12:13:07.310Z</time>
      </trkpt>
      <trkpt lat="50.47323" lon="1.74632">
        <ele>5.666298</ele>
        <time>2019-06-16T12:13:45.618Z</time>
      </trkpt>
      <trkpt lat="50.47301" lon="1.74828">
        <ele>5.714733</ele>
        <time>2019-06-16T12:14:17.202Z</time>
      </trkpt>
      <trkpt lat="50.47286" lon="1.74878">
        <ele>5.792874</ele>
        <time>2019-06-16T12:14:26.317Z</time>
      </trkpt>
      <trkpt lat="50.47255" lon="1.74917">
        <ele>5.880022</ele>
        <time>2019-06-16T12:14:36.570Z</time>
      </trkpt>
      <trkpt lat="50.47236" lon="1.74939">
        <ele>5.93011</ele>
        <time>2019-06-16T12:14:42.462Z</time>
      </trkpt>
      <trkpt lat="50.47194" lon="1.74989">
        <ele>6.135372</ele>
        <time>2019-06-16T12:14:56.690Z</time>
      </trkpt>
      <trkpt lat="50.47116" lon="1.75084">
        <ele>6.866351</ele>
        <time>2019-06-16T12:15:24.354Z</time>
      </trkpt>
      <trkpt lat="50.47101" lon="1.75105">
        <ele>7.015915</ele>
        <time>2019-06-16T12:15:30.346Z</time>
      </trkpt>
      <trkpt lat="50.47092" lon="1.75133">
        <ele>7.162819</ele>
        <time>2019-06-16T12:15:35.994Z</time>
      </trkpt>
      <trkpt lat="50.47091" lon="1.75141">
        <ele>7.200477</ele>
        <time>2019-06-16T12:15:37.590Z</time>
      </trkpt>
      <trkpt lat="50.47076" lon="1.75141">
        <ele>7.313587</ele>
        <time>2019-06-16T12:15:41.957Z</time>
      </trkpt>
      <trkpt lat="50.47043" lon="1.7514">
        <ele>7.748598</ele>
        <time>2019-06-16T12:15:51.174Z</time>
      </trkpt>
      <trkpt lat="50.47014" lon="1.75148">
        <ele>8.171946</ele>
        <time>2019-06-16T12:15:59.622Z</time>
      </trkpt>
      <trkpt lat="50.46969" lon="1.75157">
        <ele>8.824083</ele>
        <time>2019-06-16T12:16:12.999Z</time>
      </trkpt>
      <trkpt lat="50.46958" lon="1.75157">
        <ele>8.975775</ele>
        <time>2019-06-16T12:16:16.297Z</time>
      </trkpt>
      <trkpt lat="50.46914" lon="1.75161">
        <ele>9.602388</ele>
        <time>2019-06-16T12:16:30.731Z</time>
      </trkpt>
      <trkpt lat="50.46906" lon="1.75155">
        <ele>9.739839</ele>
        <time>2019-06-16T12:16:33.899Z</time>
      </trkpt>
      <trkpt lat="50.46899" lon="1.75147">
        <ele>9.856386</ele>
        <time>2019-06-16T12:16:36.439Z</time>
      </trkpt>
      <trkpt lat="50.46863" lon="1.7505">
        <ele>10.919104</ele>
        <time>2019-06-16T12:16:59.771Z</time>
      </trkpt>
      <trkpt lat="50.46846" lon="1.75005">
        <ele>11.414546</ele>
        <time>2019-06-16T12:17:10.376Z</time>
      </trkpt>
      <trkpt lat="50.46823" lon="1.75033">
        <ele>11.855934</ele>
        <time>2019-06-16T12:17:19.322Z</time>
      </trkpt>
      <trkpt lat="50.46786" lon="1.7508">
        <ele>12.560741</ele>
        <time>2019-06-16T12:17:32.864Z</time>
      </trkpt>
      <trkpt lat="50.46718" lon="1.75228">
        <ele>12.576353</ele>
        <time>2019-06-16T12:18:00.886Z</time>
      </trkpt>
      <trkpt lat="50.46679" lon="1.75326">
        <ele>12.513143</ele>
        <time>2019-06-16T12:18:15.648Z</time>
      </trkpt>
      <trkpt lat="50.46617" lon="1.75429">
        <ele>11.870639</ele>
        <time>2019-06-16T12:18:33.310Z</time>
      </trkpt>
      <trkpt lat="50.46562" lon="1.75506">
        <ele>11.34225</ele>
        <time>2019-06-16T12:18:48.738Z</time>
      </trkpt>
      <trkpt lat="50.4655" lon="1.75524">
        <ele>11.39314</ele>
        <time>2019-06-16T12:18:52.136Z</time>
      </trkpt>
      <trkpt lat="50.46541" lon="1.75541">
        <ele>11.566694</ele>
        <time>2019-06-16T12:18:55.684Z</time>
      </trkpt>
      <trkpt lat="50.46536" lon="1.75552">
        <ele>11.682736</ele>
        <time>2019-06-16T12:18:58.100Z</time>
      </trkpt>
      <trkpt lat="50.46525" lon="1.75571">
        <ele>11.890796</ele>
        <time>2019-06-16T12:19:01.815Z</time>
      </trkpt>
      <trkpt lat="50.46522" lon="1.75575">
        <ele>11.946009</ele>
        <time>2019-06-16T12:19:03.071Z</time>
      </trkpt>
      <trkpt lat="50.46516" lon="1.7558">
        <ele>12.031823</ele>
        <time>2019-06-16T12:19:05.152Z</time>
      </trkpt>
      <trkpt lat="50.46486" lon="1.75587">
        <ele>12.41834</ele>
        <time>2019-06-16T12:19:13.182Z</time>
      </trkpt>
      <trkpt lat="50.4645" lon="1.75586">
        <ele>12.867451</ele>
        <time>2019-06-16T12:19:23.346Z</time>
      </trkpt>
      <trkpt lat="50.46422" lon="1.75585">
        <ele>13.234935</ele>
        <time>2019-06-16T12:19:32.028Z</time>
      </trkpt>
      <trkpt lat="50.4638" lon="1.75586">
        <ele>14.123974</ele>
        <time>2019-06-16T12:19:46.877Z</time>
      </trkpt>
      <trkpt lat="50.46253" lon="1.75584">
        <ele>19.015043</ele>
        <time>2019-06-16T12:20:38.716Z</time>
      </trkpt>
      <trkpt lat="50.46253" lon="1.75584">
        <ele>19.015043</ele>
        <time>2019-06-16T12:20:38.958Z</time>
      </trkpt>
      <trkpt lat="50.462" lon="1.7559">
        <ele>21.31322</ele>
        <time>2019-06-16T12:21:02.912Z</time>
      </trkpt>
      <trkpt lat="50.46106" lon="1.75653">
        <ele>26.95719</ele>
        <time>2019-06-16T12:21:54.314Z</time>
      </trkpt>
      <trkpt lat="50.46082" lon="1.75662">
        <ele>28.278604</ele>
        <time>2019-06-16T12:22:06.513Z</time>
      </trkpt>
      <trkpt lat="50.46042" lon="1.75664">
        <ele>30.447672</ele>
        <time>2019-06-16T12:22:28.088Z</time>
      </trkpt>
      <trkpt lat="50.45942" lon="1.75648">
        <ele>35.001621</ele>
        <time>2019-06-16T12:23:18.770Z</time>
      </trkpt>
      <trkpt lat="50.45927" lon="1.75647">
        <ele>35.667227</ele>
        <time>2019-06-16T12:23:25.072Z</time>
      </trkpt>
      <trkpt lat="50.45926" lon="1.75659">
        <ele>36.031507</ele>
        <time>2019-06-16T12:23:30.604Z</time>
      </trkpt>
      <trkpt lat="50.45936" lon="1.75699">
        <ele>37.24521</ele>
        <time>2019-06-16T12:23:44.010Z</time>
      </trkpt>
      <trkpt lat="50.45957" lon="1.75713">
        <ele>38.280752</ele>
        <time>2019-06-16T12:23:55.585Z</time>
      </trkpt>
      <trkpt lat="50.45982" lon="1.7572">
        <ele>38.598989</ele>
        <time>2019-06-16T12:24:08.706Z</time>
      </trkpt>
      <trkpt lat="50.46068" lon="1.75752">
        <ele>39.201132</ele>
        <time>2019-06-16T12:24:46.039Z</time>
      </trkpt>
      <trkpt lat="50.46114" lon="1.75766">
        <ele>39.51776</ele>
        <time>2019-06-16T12:25:02.637Z</time>
      </trkpt>
      <trkpt lat="50.46138" lon="1.75715">
        <ele>39.708793</ele>
        <time>2019-06-16T12:25:16.472Z</time>
      </trkpt>
      <trkpt lat="50.46177" lon="1.75691">
        <ele>39.789197</ele>
        <time>2019-06-16T12:25:31.121Z</time>
      </trkpt>
      <trkpt lat="50.46186" lon="1.75693">
        <ele>39.80518</ele>
        <time>2019-06-16T12:25:34.165Z</time>
      </trkpt>
      <trkpt lat="50.46186" lon="1.75693">
        <ele>39.80518</ele>
        <time>2019-06-16T12:25:34.173Z</time>
      </trkpt>
      <trkpt lat="50.46238" lon="1.75814">
        <ele>39.984393</ele>
        <time>2019-06-16T12:26:11.809Z</time>
      </trkpt>
      <trkpt lat="50.46249" lon="1.75825">
        <ele>40.009605</ele>
        <time>2019-06-16T12:26:17.540Z</time>
      </trkpt>
      <trkpt lat="50.46281" lon="1.75833">
        <ele>40.460901</ele>
        <time>2019-06-16T12:26:31.379Z</time>
      </trkpt>
      <trkpt lat="50.46325" lon="1.75833">
        <ele>41.194635</ele>
        <time>2019-06-16T12:26:50.661Z</time>
      </trkpt>
      <trkpt lat="50.46375" lon="1.75824">
        <ele>42.038064</ele>
        <time>2019-06-16T12:27:15.340Z</time>
      </trkpt>
      <trkpt lat="50.46383" lon="1.75833">
        <ele>42.209941</ele>
        <time>2019-06-16T12:27:19.936Z</time>
      </trkpt>
      <trkpt lat="50.46416" lon="1.7593">
        <ele>43.398302</ele>
        <time>2019-06-16T12:27:52.018Z</time>
      </trkpt>
      <trkpt lat="50.46429" lon="1.75942">
        <ele>43.672836</ele>
        <time>2019-06-16T12:27:58.964Z</time>
      </trkpt>
      <trkpt lat="50.46429" lon="1.75942">
        <ele>43.672836</ele>
        <time>2019-06-16T12:27:58.987Z</time>
      </trkpt>
      <trkpt lat="50.46439" lon="1.75938">
        <ele>43.866469</ele>
        <time>2019-06-16T12:28:04.487Z</time>
      </trkpt>
      <trkpt lat="50.46449" lon="1.75948">
        <ele>44.075632</ele>
        <time>2019-06-16T12:28:08.834Z</time>
      </trkpt>
      <trkpt lat="50.4647" lon="1.75952">
        <ele>44.451381</ele>
        <time>2019-06-16T12:28:18.704Z</time>
      </trkpt>
      <trkpt lat="50.46477" lon="1.75953">
        <ele>44.578909</ele>
        <time>2019-06-16T12:28:22.001Z</time>
      </trkpt>
      <trkpt lat="50.46489" lon="1.75952">
        <ele>44.803311</ele>
        <time>2019-06-16T12:28:30.678Z</time>
      </trkpt>
      <trkpt lat="50.46525" lon="1.75956">
        <ele>45.436569</ele>
        <time>2019-06-16T12:28:55.225Z</time>
      </trkpt>
      <trkpt lat="50.46547" lon="1.75941">
        <ele>45.871112</ele>
        <time>2019-06-16T12:29:12.048Z</time>
      </trkpt>
      <trkpt lat="50.46548" lon="1.75939">
        <ele>45.900993</ele>
        <time>2019-06-16T12:29:13.227Z</time>
      </trkpt>
      <trkpt lat="50.46551" lon="1.7594">
        <ele>45.965823</ele>
        <time>2019-06-16T12:29:15.698Z</time>
      </trkpt>
      <trkpt lat="50.46554" lon="1.75939">
        <ele>46.021391</ele>
        <time>2019-06-16T12:29:16.890Z</time>
      </trkpt>
      <trkpt lat="50.46558" lon="1.75947">
        <ele>46.140342</ele>
        <time>2019-06-16T12:29:20.047Z</time>
      </trkpt>
      <trkpt lat="50.46564" lon="1.7596">
        <ele>46.337691</ele>
        <time>2019-06-16T12:29:25.376Z</time>
      </trkpt>
      <trkpt lat="50.46567" lon="1.75965">
        <ele>46.427224</ele>
        <time>2019-06-16T12:29:28.333Z</time>
      </trkpt>
      <trkpt lat="50.46574" lon="1.75966">
        <ele>46.57787</ele>
        <time>2019-06-16T12:29:33.270Z</time>
      </trkpt>
      <trkpt lat="50.46592" lon="1.75975">
        <ele>46.98205</ele>
        <time>2019-06-16T12:29:46.524Z</time>
      </trkpt>
      <trkpt lat="50.46598" lon="1.7598">
        <ele>47.129628</ele>
        <time>2019-06-16T12:29:51.398Z</time>
      </trkpt>
      <trkpt lat="50.46601" lon="1.75985">
        <ele>47.209677</ele>
        <time>2019-06-16T12:29:52.991Z</time>
      </trkpt>
      <trkpt lat="50.46605" lon="1.75992">
        <ele>47.343114</ele>
        <time>2019-06-16T12:29:54.888Z</time>
      </trkpt>
      <trkpt lat="50.46606" lon="1.76018">
        <ele>47.690639</ele>
        <time>2019-06-16T12:30:00.101Z</time>
      </trkpt>
      <trkpt lat="50.46606" lon="1.76029">
        <ele>47.843393</ele>
        <time>2019-06-16T12:30:02.802Z</time>
      </trkpt>
      <trkpt lat="50.46602" lon="1.76032">
        <ele>47.92798</ele>
        <time>2019-06-16T12:30:04.290Z</time>
      </trkpt>
      <trkpt lat="50.46575" lon="1.76048">
        <ele>48.538921</ele>
        <time>2019-06-16T12:30:14.021Z</time>
      </trkpt>
      <trkpt lat="50.4657" lon="1.76051">
        <ele>48.659414</ele>
        <time>2019-06-16T12:30:16.138Z</time>
      </trkpt>
      <trkpt lat="50.46572" lon="1.7606">
        <ele>48.787813</ele>
        <time>2019-06-16T12:30:18.349Z</time>
      </trkpt>
      <trkpt lat="50.46579" lon="1.76097">
        <ele>49.31065</ele>
        <time>2019-06-16T12:30:26.817Z</time>
      </trkpt>
      <trkpt lat="50.46581" lon="1.76108">
        <ele>49.458193</ele>
        <time>2019-06-16T12:30:29.507Z</time>
      </trkpt>
      <trkpt lat="50.46582" lon="1.76115">
        <ele>49.556341</ele>
        <time>2019-06-16T12:30:31.149Z</time>
      </trkpt>
      <trkpt lat="50.46576" lon="1.76118">
        <ele>49.696326</ele>
        <time>2019-06-16T12:30:33.460Z</time>
      </trkpt>
      <trkpt lat="50.46552" lon="1.76128">
        <ele>50.070324</ele>
        <time>2019-06-16T12:30:41.182Z</time>
      </trkpt>
      <trkpt lat="50.46552" lon="1.76128">
        <ele>50.070324</ele>
        <time>2019-06-16T12:30:41.222Z</time>
      </trkpt>
      <trkpt lat="50.46536" lon="1.76129">
        <ele>50.085654</ele>
        <time>2019-06-16T12:30:46.321Z</time>
      </trkpt>
      <trkpt lat="50.46512" lon="1.76131">
        <ele>50.10828</ele>
        <time>2019-06-16T12:30:53.245Z</time>
      </trkpt>
      <trkpt lat="50.46479" lon="1.76136">
        <ele>50.139657</ele>
        <time>2019-06-16T12:31:02.256Z</time>
      </trkpt>
      <trkpt lat="50.46456" lon="1.76148">
        <ele>50.161977</ele>
        <time>2019-06-16T12:31:07.660Z</time>
      </trkpt>
      <trkpt lat="50.46453" lon="1.76151">
        <ele>50.165307</ele>
        <time>2019-06-16T12:31:08.430Z</time>
      </trkpt>
      <trkpt lat="50.46451" lon="1.76145">
        <ele>50.169016</ele>
        <time>2019-06-16T12:31:09.288Z</time>
      </trkpt>
      <trkpt lat="50.46448" lon="1.76137">
        <ele>50.175008</ele>
        <time>2019-06-16T12:31:10.737Z</time>
      </trkpt>
      <trkpt lat="50.46443" lon="1.76125">
        <ele>50.183339</ele>
        <time>2019-06-16T12:31:12.798Z</time>
      </trkpt>
      <trkpt lat="50.46441" lon="1.76128">
        <ele>50.186365</ele>
        <time>2019-06-16T12:31:13.501Z</time>
      </trkpt>
      <trkpt lat="50.46437" lon="1.76133">
        <ele>50.191012</ele>
        <time>2019-06-16T12:31:14.550Z</time>
      </trkpt>
      <trkpt lat="50.46429" lon="1.76146">
        <ele>50.201842</ele>
        <time>2019-06-16T12:31:16.951Z</time>
      </trkpt>
      <trkpt lat="50.46421" lon="1.76164">
        <ele>50.215318</ele>
        <time>2019-06-16T12:31:19.849Z</time>
      </trkpt>
      <trkpt lat="50.46415" lon="1.7618">
        <ele>50.226234</ele>
        <time>2019-06-16T12:31:22.187Z</time>
      </trkpt>
      <trkpt lat="50.46412" lon="1.76188">
        <ele>50.231952</ele>
        <time>2019-06-16T12:31:23.392Z</time>
      </trkpt>
      <trkpt lat="50.46407" lon="1.7621">
        <ele>49.731586</ele>
        <time>2019-06-16T12:31:26.216Z</time>
      </trkpt>
      <trkpt lat="50.46401" lon="1.76239">
        <ele>48.980313</ele>
        <time>2019-06-16T12:31:30.023Z</time>
      </trkpt>
      <trkpt lat="50.46399" lon="1.76249">
        <ele>48.740559</ele>
        <time>2019-06-16T12:31:31.258Z</time>
      </trkpt>
      <trkpt lat="50.46398" lon="1.76258">
        <ele>48.509042</ele>
        <time>2019-06-16T12:31:32.372Z</time>
      </trkpt>
      <trkpt lat="50.46395" lon="1.76266">
        <ele>48.282984</ele>
        <time>2019-06-16T12:31:33.366Z</time>
      </trkpt>
      <trkpt lat="50.46394" lon="1.76272">
        <ele>48.119633</ele>
        <time>2019-06-16T12:31:34.196Z</time>
      </trkpt>
      <trkpt lat="50.46392" lon="1.76279">
        <ele>47.946652</ele>
        <time>2019-06-16T12:31:35.057Z</time>
      </trkpt>
      <trkpt lat="50.46385" lon="1.76294">
        <ele>47.504517</ele>
        <time>2019-06-16T12:31:37.206Z</time>
      </trkpt>
      <trkpt lat="50.46377" lon="1.76304">
        <ele>47.096314</ele>
        <time>2019-06-16T12:31:39.073Z</time>
      </trkpt>
      <trkpt lat="50.4637" lon="1.76314">
        <ele>46.746616</ele>
        <time>2019-06-16T12:31:40.620Z</time>
      </trkpt>
      <trkpt lat="50.46351" lon="1.76343">
        <ele>45.741753</ele>
        <time>2019-06-16T12:31:45.061Z</time>
      </trkpt>
      <trkpt lat="50.46347" lon="1.76348">
        <ele>45.54359</ele>
        <time>2019-06-16T12:31:45.862Z</time>
      </trkpt>
      <trkpt lat="50.46343" lon="1.76353">
        <ele>45.36337</ele>
        <time>2019-06-16T12:31:46.684Z</time>
      </trkpt>
      <trkpt lat="50.46339" lon="1.76356">
        <ele>45.193136</ele>
        <time>2019-06-16T12:31:47.393Z</time>
      </trkpt>
      <trkpt lat="50.46327" lon="1.76358">
        <ele>44.731125</ele>
        <time>2019-06-16T12:31:49.430Z</time>
      </trkpt>
      <trkpt lat="50.46321" lon="1.76359">
        <ele>44.501661</ele>
        <time>2019-06-16T12:31:50.435Z</time>
      </trkpt>
      <trkpt lat="50.4631" lon="1.76358">
        <ele>44.062414</ele>
        <time>2019-06-16T12:31:52.257Z</time>
      </trkpt>
      <trkpt lat="50.46304" lon="1.76358">
        <ele>43.821853</ele>
        <time>2019-06-16T12:31:53.285Z</time>
      </trkpt>
      <trkpt lat="50.46301" lon="1.7636">
        <ele>43.704542</ele>
        <time>2019-06-16T12:31:53.801Z</time>
      </trkpt>
      <trkpt lat="50.46298" lon="1.76364">
        <ele>43.555919</ele>
        <time>2019-06-16T12:31:54.467Z</time>
      </trkpt>
      <trkpt lat="50.46293" lon="1.76374">
        <ele>43.276859</ele>
        <time>2019-06-16T12:31:55.769Z</time>
      </trkpt>
      <trkpt lat="50.46291" lon="1.76382">
        <ele>43.083999</ele>
        <time>2019-06-16T12:31:56.721Z</time>
      </trkpt>
      <trkpt lat="50.46289" lon="1.76388">
        <ele>42.919326</ele>
        <time>2019-06-16T12:31:57.440Z</time>
      </trkpt>
      <trkpt lat="50.4628" lon="1.76404">
        <ele>42.460469</ele>
        <time>2019-06-16T12:31:59.687Z</time>
      </trkpt>
      <trkpt lat="50.46264" lon="1.76418">
        <ele>41.831335</ele>
        <time>2019-06-16T12:32:02.823Z</time>
      </trkpt>
      <trkpt lat="50.46257" lon="1.76425">
        <ele>41.547458</ele>
        <time>2019-06-16T12:32:04.122Z</time>
      </trkpt>
      <trkpt lat="50.46255" lon="1.76424">
        <ele>41.465898</ele>
        <time>2019-06-16T12:32:04.569Z</time>
      </trkpt>
      <trkpt lat="50.46252" lon="1.76431">
        <ele>41.288171</ele>
        <time>2019-06-16T12:32:06.024Z</time>
      </trkpt>
      <trkpt lat="50.46236" lon="1.76447">
        <ele>40.634113</ele>
        <time>2019-06-16T12:32:11.739Z</time>
      </trkpt>
      <trkpt lat="50.4623" lon="1.76455">
        <ele>40.348214</ele>
        <time>2019-06-16T12:32:14.021Z</time>
      </trkpt>
      <trkpt lat="50.46225" lon="1.76458">
        <ele>40.192061</ele>
        <time>2019-06-16T12:32:15.448Z</time>
      </trkpt>
      <trkpt lat="50.46213" lon="1.76463">
        <ele>39.758013</ele>
        <time>2019-06-16T12:32:19.220Z</time>
      </trkpt>
      <trkpt lat="50.4622" lon="1.76487">
        <ele>39.198772</ele>
        <time>2019-06-16T12:32:24.219Z</time>
      </trkpt>
      <trkpt lat="50.46241" lon="1.76558">
        <ele>37.480437</ele>
        <time>2019-06-16T12:32:40.771Z</time>
      </trkpt>
      <trkpt lat="50.46246" lon="1.76566">
        <ele>37.226527</ele>
        <time>2019-06-16T12:32:43.167Z</time>
      </trkpt>
      <trkpt lat="50.46241" lon="1.76558">
        <ele>37.29166</ele>
        <time>2019-06-16T12:32:45.858Z</time>
      </trkpt>
      <trkpt lat="50.4622" lon="1.76487">
        <ele>38.225285</ele>
        <time>2019-06-16T12:33:04.705Z</time>
      </trkpt>
      <trkpt lat="50.46213" lon="1.76463">
        <ele>38.529138</ele>
        <time>2019-06-16T12:33:11.816Z</time>
      </trkpt>
      <trkpt lat="50.46225" lon="1.76458">
        <ele>38.76497</ele>
        <time>2019-06-16T12:33:18.964Z</time>
      </trkpt>
      <trkpt lat="50.4623" lon="1.76455">
        <ele>38.849813</ele>
        <time>2019-06-16T12:33:20.795Z</time>
      </trkpt>
      <trkpt lat="50.46236" lon="1.76447">
        <ele>39.00515</ele>
        <time>2019-06-16T12:33:25.323Z</time>
      </trkpt>
      <trkpt lat="50.46252" lon="1.76431">
        <ele>39.36052</ele>
        <time>2019-06-16T12:33:35.177Z</time>
      </trkpt>
      <trkpt lat="50.46255" lon="1.76424">
        <ele>39.457085</ele>
        <time>2019-06-16T12:33:38.201Z</time>
      </trkpt>
      <trkpt lat="50.46247" lon="1.76421">
        <ele>39.605404</ele>
        <time>2019-06-16T12:33:41.272Z</time>
      </trkpt>
      <trkpt lat="50.46217" lon="1.76375">
        <ele>40.378516</ele>
        <time>2019-06-16T12:33:58.527Z</time>
      </trkpt>
      <trkpt lat="50.46212" lon="1.76364">
        <ele>40.556619</ele>
        <time>2019-06-16T12:34:01.680Z</time>
      </trkpt>
      <trkpt lat="50.46214" lon="1.76355">
        <ele>40.690437</ele>
        <time>2019-06-16T12:34:04.478Z</time>
      </trkpt>
      <trkpt lat="50.46221" lon="1.76339">
        <ele>40.982638</ele>
        <time>2019-06-16T12:34:10.143Z</time>
      </trkpt>
      <trkpt lat="50.46228" lon="1.76322">
        <ele>41.272615</ele>
        <time>2019-06-16T12:34:15.088Z</time>
      </trkpt>
      <trkpt lat="50.46225" lon="1.76319">
        <ele>41.343329</ele>
        <time>2019-06-16T12:34:16.021Z</time>
      </trkpt>
      <trkpt lat="50.46212" lon="1.76306">
        <ele>41.702943</ele>
        <time>2019-06-16T12:34:22.796Z</time>
      </trkpt>
      <trkpt lat="50.46187" lon="1.76279">
        <ele>42.402654</ele>
        <time>2019-06-16T12:34:33.501Z</time>
      </trkpt>
      <trkpt lat="50.46184" lon="1.76273">
        <ele>42.51463</ele>
        <time>2019-06-16T12:34:35.252Z</time>
      </trkpt>
      <trkpt lat="50.46185" lon="1.76269">
        <ele>42.572092</ele>
        <time>2019-06-16T12:34:36.551Z</time>
      </trkpt>
      <trkpt lat="50.46197" lon="1.7622">
        <ele>43.346851</ele>
        <time>2019-06-16T12:34:45.723Z</time>
      </trkpt>
      <trkpt lat="50.46199" lon="1.76212">
        <ele>43.481521</ele>
        <time>2019-06-16T12:34:48.295Z</time>
      </trkpt>
      <trkpt lat="50.46193" lon="1.76204">
        <ele>43.671062</ele>
        <time>2019-06-16T12:34:50.207Z</time>
      </trkpt>
      <trkpt lat="50.46145" lon="1.76155">
        <ele>44.836197</ele>
        <time>2019-06-16T12:35:08.729Z</time>
      </trkpt>
      <trkpt lat="50.46138" lon="1.76153">
        <ele>44.918227</ele>
        <time>2019-06-16T12:35:11.669Z</time>
      </trkpt>
      <trkpt lat="50.4613" lon="1.7615">
        <ele>45.016105</ele>
        <time>2019-06-16T12:35:13.459Z</time>
      </trkpt>
      <trkpt lat="50.46101" lon="1.76137">
        <ele>45.357051</ele>
        <time>2019-06-16T12:35:22.978Z</time>
      </trkpt>
      <trkpt lat="50.46095" lon="1.76136">
        <ele>45.424478</ele>
        <time>2019-06-16T12:35:24.173Z</time>
      </trkpt>
      <trkpt lat="50.46096" lon="1.76121">
        <ele>45.529423</ele>
        <time>2019-06-16T12:35:26.806Z</time>
      </trkpt>
      <trkpt lat="50.46097" lon="1.76115">
        <ele>45.578324</ele>
        <time>2019-06-16T12:35:28.322Z</time>
      </trkpt>
      <trkpt lat="50.46099" lon="1.76116">
        <ele>45.603243</ele>
        <time>2019-06-16T12:35:29.022Z</time>
      </trkpt>
      <trkpt lat="50.46103" lon="1.76117">
        <ele>45.652612</ele>
        <time>2019-06-16T12:35:30.651Z</time>
      </trkpt>
      <trkpt lat="50.46106" lon="1.76092">
        <ele>45.834077</ele>
        <time>2019-06-16T12:35:35.560Z</time>
      </trkpt>
      <trkpt lat="50.46108" lon="1.76079">
        <ele>45.931878</ele>
        <time>2019-06-16T12:35:38.537Z</time>
      </trkpt>
      <trkpt lat="50.46108" lon="1.76074">
        <ele>45.968741</ele>
        <time>2019-06-16T12:35:39.979Z</time>
      </trkpt>
      <trkpt lat="50.46113" lon="1.76042">
        <ele>46.207812</ele>
        <time>2019-06-16T12:35:46.682Z</time>
      </trkpt>
      <trkpt lat="50.4612" lon="1.76045">
        <ele>46.291677</ele>
        <time>2019-06-16T12:35:51.827Z</time>
      </trkpt>
      <trkpt lat="50.46113" lon="1.76042">
        <ele>46.375542</ele>
        <time>2019-06-16T12:35:56.972Z</time>
      </trkpt>
      <trkpt lat="50.46122" lon="1.75983">
        <ele>46.789281</ele>
        <time>2019-06-16T12:36:10.191Z</time>
      </trkpt>
      <trkpt lat="50.46117" lon="1.75981">
        <ele>46.826044</ele>
        <time>2019-06-16T12:36:12.028Z</time>
      </trkpt>
      <trkpt lat="50.46115" lon="1.75981">
        <ele>46.842499</ele>
        <time>2019-06-16T12:36:12.784Z</time>
      </trkpt>
      <trkpt lat="50.46116" lon="1.75974">
        <ele>46.873369</ele>
        <time>2019-06-16T12:36:13.899Z</time>
      </trkpt>
      <trkpt lat="50.46119" lon="1.75962">
        <ele>46.938952</ele>
        <time>2019-06-16T12:36:15.911Z</time>
      </trkpt>
      <trkpt lat="50.46121" lon="1.75952">
        <ele>46.989459</ele>
        <time>2019-06-16T12:36:17.833Z</time>
      </trkpt>
      <trkpt lat="50.46129" lon="1.75959">
        <ele>47.065741</ele>
        <time>2019-06-16T12:36:21.224Z</time>
      </trkpt>
      <trkpt lat="50.46138" lon="1.75966">
        <ele>47.142722</ele>
        <time>2019-06-16T12:36:24.410Z</time>
      </trkpt>
      <trkpt lat="50.46149" lon="1.75974">
        <ele>47.233936</ele>
        <time>2019-06-16T12:36:27.500Z</time>
      </trkpt>
      <trkpt lat="50.46162" lon="1.7598">
        <ele>47.339389</ele>
        <time>2019-06-16T12:36:31.446Z</time>
      </trkpt>
      <trkpt lat="50.46182" lon="1.75989">
        <ele>47.498124</ele>
        <time>2019-06-16T12:36:36.576Z</time>
      </trkpt>
      <trkpt lat="50.462" lon="1.75996">
        <ele>47.640622</ele>
        <time>2019-06-16T12:36:40.923Z</time>
      </trkpt>
      <trkpt lat="50.46233" lon="1.7601">
        <ele>47.899171</ele>
        <time>2019-06-16T12:36:48.608Z</time>
      </trkpt>
      <trkpt lat="50.46244" lon="1.76014">
        <ele>47.986357</ele>
        <time>2019-06-16T12:36:51.213Z</time>
      </trkpt>
      <trkpt lat="50.46281" lon="1.7602">
        <ele>48.318256</ele>
        <time>2019-06-16T12:37:01.183Z</time>
      </trkpt>
      <trkpt lat="50.46281" lon="1.7602">
        <ele>48.318256</ele>
        <time>2019-06-16T12:37:01.205Z</time>
      </trkpt>
      <trkpt lat="50.46281" lon="1.7602">
        <ele>48.318256</ele>
        <time>2019-06-16T12:37:01.227Z</time>
      </trkpt>
      <trkpt lat="50.46288" lon="1.7602">
        <ele>48.397375</ele>
        <time>2019-06-16T12:37:03.564Z</time>
      </trkpt>
      <trkpt lat="50.46311" lon="1.76014">
        <ele>48.625762</ele>
        <time>2019-06-16T12:37:09.543Z</time>
      </trkpt>
      <trkpt lat="50.46374" lon="1.7597">
        <ele>49.326697</ele>
        <time>2019-06-16T12:37:30.584Z</time>
      </trkpt>
      <trkpt lat="50.46381" lon="1.75969">
        <ele>49.404869</ele>
        <time>2019-06-16T12:37:32.754Z</time>
      </trkpt>
      <trkpt lat="50.46386" lon="1.75974">
        <ele>49.467395</ele>
        <time>2019-06-16T12:37:34.949Z</time>
      </trkpt>
      <trkpt lat="50.46398" lon="1.75994">
        <ele>49.637665</ele>
        <time>2019-06-16T12:37:39.143Z</time>
      </trkpt>
      <trkpt lat="50.46404" lon="1.76008">
        <ele>49.749917</ele>
        <time>2019-06-16T12:37:42.217Z</time>
      </trkpt>
      <trkpt lat="50.46406" lon="1.76014">
        <ele>49.794222</ele>
        <time>2019-06-16T12:37:43.991Z</time>
      </trkpt>
      <trkpt lat="50.46428" lon="1.76088">
        <ele>49.916169</ele>
        <time>2019-06-16T12:37:57.565Z</time>
      </trkpt>
      <trkpt lat="50.46432" lon="1.761">
        <ele>49.91072</ele>
        <time>2019-06-16T12:38:00.366Z</time>
      </trkpt>
      <trkpt lat="50.46437" lon="1.76112">
        <ele>49.905178</ele>
        <time>2019-06-16T12:38:02.873Z</time>
      </trkpt>
      <trkpt lat="50.46443" lon="1.76125">
        <ele>49.899004</ele>
        <time>2019-06-16T12:38:05.719Z</time>
      </trkpt>
      <trkpt lat="50.46448" lon="1.76137">
        <ele>49.893655</ele>
        <time>2019-06-16T12:38:07.682Z</time>
      </trkpt>
      <trkpt lat="50.46451" lon="1.76145">
        <ele>49.889808</ele>
        <time>2019-06-16T12:38:09.650Z</time>
      </trkpt>
      <trkpt lat="50.46453" lon="1.76151">
        <ele>49.887427</ele>
        <time>2019-06-16T12:38:10.712Z</time>
      </trkpt>
      <trkpt lat="50.46478" lon="1.76208">
        <ele>49.86075</ele>
        <time>2019-06-16T12:38:21.622Z</time>
      </trkpt>
      <trkpt lat="50.46505" lon="1.76258">
        <ele>49.835551</ele>
        <time>2019-06-16T12:38:30.392Z</time>
      </trkpt>
      <trkpt lat="50.46508" lon="1.76263">
        <ele>49.83277</ele>
        <time>2019-06-16T12:38:31.221Z</time>
      </trkpt>
      <trkpt lat="50.46513" lon="1.76273">
        <ele>49.684199</ele>
        <time>2019-06-16T12:38:32.829Z</time>
      </trkpt>
      <trkpt lat="50.46531" lon="1.76303">
        <ele>48.485625</ele>
        <time>2019-06-16T12:38:37.932Z</time>
      </trkpt>
      <trkpt lat="50.46545" lon="1.76326">
        <ele>47.562389</ele>
        <time>2019-06-16T12:38:41.528Z</time>
      </trkpt>
      <trkpt lat="50.46549" lon="1.76334">
        <ele>47.249561</ele>
        <time>2019-06-16T12:38:42.675Z</time>
      </trkpt>
      <trkpt lat="50.46554" lon="1.76341">
        <ele>46.957489</ele>
        <time>2019-06-16T12:38:43.810Z</time>
      </trkpt>
      <trkpt lat="50.46557" lon="1.76344">
        <ele>46.787147</ele>
        <time>2019-06-16T12:38:44.417Z</time>
      </trkpt>
      <trkpt lat="50.46559" lon="1.76352">
        <ele>46.533446</ele>
        <time>2019-06-16T12:38:48.268Z</time>
      </trkpt>
      <trkpt lat="50.46566" lon="1.76363">
        <ele>46.088794</ele>
        <time>2019-06-16T12:38:55.040Z</time>
      </trkpt>
      <trkpt lat="50.46573" lon="1.76378">
        <ele>45.53047</ele>
        <time>2019-06-16T12:38:57.141Z</time>
      </trkpt>
      <trkpt lat="50.4659" lon="1.76419">
        <ele>44.09928</ele>
        <time>2019-06-16T12:39:02.373Z</time>
      </trkpt>
      <trkpt lat="50.46592" lon="1.76425">
        <ele>43.920676</ele>
        <time>2019-06-16T12:39:03.005Z</time>
      </trkpt>
      <trkpt lat="50.46596" lon="1.76428">
        <ele>43.730151</ele>
        <time>2019-06-16T12:39:03.723Z</time>
      </trkpt>
      <trkpt lat="50.46632" lon="1.76452">
        <ele>41.904294</ele>
        <time>2019-06-16T12:39:10.014Z</time>
      </trkpt>
      <trkpt lat="50.46641" lon="1.7645">
        <ele>41.440435</ele>
        <time>2019-06-16T12:39:11.291Z</time>
      </trkpt>
      <trkpt lat="50.46642" lon="1.76458">
        <ele>41.024515</ele>
        <time>2019-06-16T12:39:12.003Z</time>
      </trkpt>
      <trkpt lat="50.46646" lon="1.76469">
        <ele>40.305258</ele>
        <time>2019-06-16T12:39:13.238Z</time>
      </trkpt>
      <trkpt lat="50.46654" lon="1.76488">
        <ele>39.035843</ele>
        <time>2019-06-16T12:39:15.539Z</time>
      </trkpt>
      <trkpt lat="50.46657" lon="1.76502">
        <ele>38.170497</ele>
        <time>2019-06-16T12:39:16.965Z</time>
      </trkpt>
      <trkpt lat="50.46661" lon="1.76528">
        <ele>36.737465</ele>
        <time>2019-06-16T12:39:19.403Z</time>
      </trkpt>
      <trkpt lat="50.46662" lon="1.76541">
        <ele>35.967187</ele>
        <time>2019-06-16T12:39:20.702Z</time>
      </trkpt>
      <trkpt lat="50.46664" lon="1.76569">
        <ele>34.402336</ele>
        <time>2019-06-16T12:39:23.291Z</time>
      </trkpt>
      <trkpt lat="50.46666" lon="1.766">
        <ele>32.670481</ele>
        <time>2019-06-16T12:39:26.170Z</time>
      </trkpt>
      <trkpt lat="50.46666" lon="1.76622">
        <ele>31.450155</ele>
        <time>2019-06-16T12:39:28.123Z</time>
      </trkpt>
      <trkpt lat="50.46663" lon="1.76643">
        <ele>30.236914</ele>
        <time>2019-06-16T12:39:30.116Z</time>
      </trkpt>
      <trkpt lat="50.46657" lon="1.76666">
        <ele>28.87252</ele>
        <time>2019-06-16T12:39:32.278Z</time>
      </trkpt>
      <trkpt lat="50.46625" lon="1.76729">
        <ele>24.624015</ele>
        <time>2019-06-16T12:39:39.629Z</time>
      </trkpt>
      <trkpt lat="50.46614" lon="1.76754">
        <ele>23.152186</ele>
        <time>2019-06-16T12:39:42.499Z</time>
      </trkpt>
      <trkpt lat="50.46602" lon="1.76777">
        <ele>21.797992</ele>
        <time>2019-06-16T12:39:45.195Z</time>
      </trkpt>
      <trkpt lat="50.466" lon="1.76788">
        <ele>21.259806</ele>
        <time>2019-06-16T12:39:46.364Z</time>
      </trkpt>
      <trkpt lat="50.46599" lon="1.76793">
        <ele>21.000536</ele>
        <time>2019-06-16T12:39:46.863Z</time>
      </trkpt>
      <trkpt lat="50.466" lon="1.76797">
        <ele>20.803276</ele>
        <time>2019-06-16T12:39:47.234Z</time>
      </trkpt>
      <trkpt lat="50.46602" lon="1.76803">
        <ele>20.53468</ele>
        <time>2019-06-16T12:39:47.746Z</time>
      </trkpt>
      <trkpt lat="50.46606" lon="1.76803">
        <ele>20.24455</ele>
        <time>2019-06-16T12:39:48.342Z</time>
      </trkpt>
      <trkpt lat="50.46608" lon="1.76804">
        <ele>20.036744</ele>
        <time>2019-06-16T12:39:48.798Z</time>
      </trkpt>
      <trkpt lat="50.46608" lon="1.76804">
        <ele>20.020811</ele>
        <time>2019-06-16T12:39:48.824Z</time>
      </trkpt>
      <trkpt lat="50.46613" lon="1.76808">
        <ele>19.656288</ele>
        <time>2019-06-16T12:39:49.528Z</time>
      </trkpt>
      <trkpt lat="50.46627" lon="1.76821">
        <ele>18.445963</ele>
        <time>2019-06-16T12:39:52.030Z</time>
      </trkpt>
      <trkpt lat="50.46632" lon="1.76824">
        <ele>18.01081</ele>
        <time>2019-06-16T12:39:52.846Z</time>
      </trkpt>
      <trkpt lat="50.46637" lon="1.76829">
        <ele>17.600058</ele>
        <time>2019-06-16T12:39:53.716Z</time>
      </trkpt>
      <trkpt lat="50.46654" lon="1.76833">
        <ele>16.33156</ele>
        <time>2019-06-16T12:39:56.434Z</time>
      </trkpt>
      <trkpt lat="50.46679" lon="1.76812">
        <ele>14.218805</ele>
        <time>2019-06-16T12:40:00.748Z</time>
      </trkpt>
      <trkpt lat="50.46703" lon="1.76786">
        <ele>12.386416</ele>
        <time>2019-06-16T12:40:05.152Z</time>
      </trkpt>
      <trkpt lat="50.46713" lon="1.76776">
        <ele>12.043771</ele>
        <time>2019-06-16T12:40:06.996Z</time>
      </trkpt>
      <trkpt lat="50.46731" lon="1.76759">
        <ele>11.415243</ele>
        <time>2019-06-16T12:40:10.382Z</time>
      </trkpt>
      <trkpt lat="50.46739" lon="1.76755">
        <ele>11.170805</ele>
        <time>2019-06-16T12:40:11.741Z</time>
      </trkpt>
      <trkpt lat="50.46745" lon="1.76756">
        <ele>11.006819</ele>
        <time>2019-06-16T12:40:12.731Z</time>
      </trkpt>
      <trkpt lat="50.46749" lon="1.76756">
        <ele>10.886596</ele>
        <time>2019-06-16T12:40:13.484Z</time>
      </trkpt>
      <trkpt lat="50.46754" lon="1.76759">
        <ele>10.735818</ele>
        <time>2019-06-16T12:40:14.441Z</time>
      </trkpt>
      <trkpt lat="50.46759" lon="1.76762">
        <ele>10.575893</ele>
        <time>2019-06-16T12:40:15.291Z</time>
      </trkpt>
      <trkpt lat="50.46768" lon="1.76773">
        <ele>10.236717</ele>
        <time>2019-06-16T12:40:17.358Z</time>
      </trkpt>
      <trkpt lat="50.46775" lon="1.7678">
        <ele>9.985929</ele>
        <time>2019-06-16T12:40:18.933Z</time>
      </trkpt>
      <trkpt lat="50.46789" lon="1.76792">
        <ele>9.538167</ele>
        <time>2019-06-16T12:40:21.732Z</time>
      </trkpt>
      <trkpt lat="50.46792" lon="1.76795">
        <ele>9.429908</ele>
        <time>2019-06-16T12:40:22.401Z</time>
      </trkpt>
      <trkpt lat="50.46796" lon="1.76799">
        <ele>9.277263</ele>
        <time>2019-06-16T12:40:23.468Z</time>
      </trkpt>
      <trkpt lat="50.46833" lon="1.76839">
        <ele>7.966342</ele>
        <time>2019-06-16T12:40:31.948Z</time>
      </trkpt>
      <trkpt lat="50.46848" lon="1.76853">
        <ele>7.459785</ele>
        <time>2019-06-16T12:40:35.184Z</time>
      </trkpt>
      <trkpt lat="50.46947" lon="1.76955">
        <ele>6.582772</ele>
        <time>2019-06-16T12:40:59.184Z</time>
      </trkpt>
      <trkpt lat="50.46957" lon="1.76966">
        <ele>6.507491</ele>
        <time>2019-06-16T12:41:01.795Z</time>
      </trkpt>
      <trkpt lat="50.46965" lon="1.76977">
        <ele>6.440294</ele>
        <time>2019-06-16T12:41:04.155Z</time>
      </trkpt>
      <trkpt lat="50.47125" lon="1.77196">
        <ele>5.9737</ele>
        <time>2019-06-16T12:41:50.971Z</time>
      </trkpt>
      <trkpt lat="50.47131" lon="1.77203">
        <ele>5.965569</ele>
        <time>2019-06-16T12:41:52.719Z</time>
      </trkpt>
      <trkpt lat="50.47142" lon="1.77218">
        <ele>5.980439</ele>
        <time>2019-06-16T12:41:55.773Z</time>
      </trkpt>
      <trkpt lat="50.47147" lon="1.77226">
        <ele>5.992414</ele>
        <time>2019-06-16T12:41:57.177Z</time>
      </trkpt>
      <trkpt lat="50.47144" lon="1.77231">
        <ele>6.000238</ele>
        <time>2019-06-16T12:41:58.126Z</time>
      </trkpt>
      <trkpt lat="50.47147" lon="1.77242">
        <ele>6.013157</ele>
        <time>2019-06-16T12:41:59.902Z</time>
      </trkpt>
      <trkpt lat="50.47147" lon="1.77245">
        <ele>6.017112</ele>
        <time>2019-06-16T12:42:00.443Z</time>
      </trkpt>
      <trkpt lat="50.47147" lon="1.77251">
        <ele>6.024112</ele>
        <time>2019-06-16T12:42:01.323Z</time>
      </trkpt>
      <trkpt lat="50.47144" lon="1.77276">
        <ele>6.052418</ele>
        <time>2019-06-16T12:42:04.990Z</time>
      </trkpt>
      <trkpt lat="50.47142" lon="1.77281">
        <ele>6.058417</ele>
        <time>2019-06-16T12:42:05.714Z</time>
      </trkpt>
      <trkpt lat="50.47143" lon="1.77283">
        <ele>6.061881</ele>
        <time>2019-06-16T12:42:06.405Z</time>
      </trkpt>
      <trkpt lat="50.47145" lon="1.77289">
        <ele>6.068503</ele>
        <time>2019-06-16T12:42:07.780Z</time>
      </trkpt>
      <trkpt lat="50.4715" lon="1.77301">
        <ele>6.085071</ele>
        <time>2019-06-16T12:42:11.474Z</time>
      </trkpt>
      <trkpt lat="50.47153" lon="1.77311">
        <ele>6.097626</ele>
        <time>2019-06-16T12:42:13.166Z</time>
      </trkpt>
      <trkpt lat="50.47153" lon="1.77313">
        <ele>6.099538</ele>
        <time>2019-06-16T12:42:13.428Z</time>
      </trkpt>
      <trkpt lat="50.47159" lon="1.77313">
        <ele>6.110011</ele>
        <time>2019-06-16T12:42:14.784Z</time>
      </trkpt>
      <trkpt lat="50.47166" lon="1.77314">
        <ele>6.121265</ele>
        <time>2019-06-16T12:42:16.219Z</time>
      </trkpt>
      <trkpt lat="50.47169" lon="1.77315">
        <ele>6.128019</ele>
        <time>2019-06-16T12:42:17.045Z</time>
      </trkpt>
      <trkpt lat="50.47173" lon="1.77313">
        <ele>6.134654</ele>
        <time>2019-06-16T12:42:17.927Z</time>
      </trkpt>
      <trkpt lat="50.47179" lon="1.77308">
        <ele>6.147432</ele>
        <time>2019-06-16T12:42:19.883Z</time>
      </trkpt>
      <trkpt lat="50.47187" lon="1.77309">
        <ele>6.161648</ele>
        <time>2019-06-16T12:42:21.819Z</time>
      </trkpt>
      <trkpt lat="50.47193" lon="1.7731">
        <ele>6.172155</ele>
        <time>2019-06-16T12:42:23.210Z</time>
      </trkpt>
      <trkpt lat="50.47199" lon="1.77308">
        <ele>6.183255</ele>
        <time>2019-06-16T12:42:24.643Z</time>
      </trkpt>
      <trkpt lat="50.47269" lon="1.77407">
        <ele>6.83173</ele>
        <time>2019-06-16T12:42:47.890Z</time>
      </trkpt>
      <trkpt lat="50.47389" lon="1.77561">
        <ele>9.063199</ele>
        <time>2019-06-16T12:43:34.785Z</time>
      </trkpt>
      <trkpt lat="50.47437" lon="1.77604">
        <ele>10.139102</ele>
        <time>2019-06-16T12:43:53.528Z</time>
      </trkpt>
      <trkpt lat="50.47499" lon="1.77632">
        <ele>11.403411</ele>
        <time>2019-06-16T12:44:14.943Z</time>
      </trkpt>
      <trkpt lat="50.47498" lon="1.77647">
        <ele>11.5791</ele>
        <time>2019-06-16T12:44:18.624Z</time>
      </trkpt>
      <trkpt lat="50.47485" lon="1.77881">
        <ele>12.825714</ele>
        <time>2019-06-16T12:45:01.868Z</time>
      </trkpt>
      <trkpt lat="50.47477" lon="1.77923">
        <ele>12.95662</ele>
        <time>2019-06-16T12:45:08.081Z</time>
      </trkpt>
      <trkpt lat="50.47474" lon="1.7794">
        <ele>13.009063</ele>
        <time>2019-06-16T12:45:10.131Z</time>
      </trkpt>
      <trkpt lat="50.4745" lon="1.78048">
        <ele>12.73953</ele>
        <time>2019-06-16T12:45:24.234Z</time>
      </trkpt>
      <trkpt lat="50.47438" lon="1.78169">
        <ele>12.045779</ele>
        <time>2019-06-16T12:45:39.348Z</time>
      </trkpt>
      <trkpt lat="50.47433" lon="1.78189">
        <ele>11.925457</ele>
        <time>2019-06-16T12:45:42.082Z</time>
      </trkpt>
      <trkpt lat="50.47417" lon="1.7823">
        <ele>11.651045</ele>
        <time>2019-06-16T12:45:48.412Z</time>
      </trkpt>
      <trkpt lat="50.4741" lon="1.78244">
        <ele>11.547921</ele>
        <time>2019-06-16T12:45:51.080Z</time>
      </trkpt>
      <trkpt lat="50.47401" lon="1.78263">
        <ele>11.681816</ele>
        <time>2019-06-16T12:45:54.435Z</time>
      </trkpt>
      <trkpt lat="50.47393" lon="1.78276">
        <ele>11.80019</ele>
        <time>2019-06-16T12:45:56.975Z</time>
      </trkpt>
      <trkpt lat="50.47376" lon="1.78299">
        <ele>12.041344</ele>
        <time>2019-06-16T12:46:02.993Z</time>
      </trkpt>
      <trkpt lat="50.47339" lon="1.78355">
        <ele>12.582162</ele>
        <time>2019-06-16T12:46:16.747Z</time>
      </trkpt>
      <trkpt lat="50.47316" lon="1.78408">
        <ele>13.014637</ele>
        <time>2019-06-16T12:46:28.999Z</time>
      </trkpt>
      <trkpt lat="50.47292" lon="1.78473">
        <ele>13.57912</ele>
        <time>2019-06-16T12:46:44.856Z</time>
      </trkpt>
      <trkpt lat="50.47202" lon="1.78722">
        <ele>16.638271</ele>
        <time>2019-06-16T12:47:42.134Z</time>
      </trkpt>
      <trkpt lat="50.47196" lon="1.7874">
        <ele>16.66009</ele>
        <time>2019-06-16T12:47:46.025Z</time>
      </trkpt>
      <trkpt lat="50.47189" lon="1.78756">
        <ele>16.681205</ele>
        <time>2019-06-16T12:47:49.156Z</time>
      </trkpt>
      <trkpt lat="50.47172" lon="1.78786">
        <ele>16.723707</ele>
        <time>2019-06-16T12:47:55.517Z</time>
      </trkpt>
      <trkpt lat="50.47156" lon="1.78804">
        <ele>16.758047</ele>
        <time>2019-06-16T12:47:59.961Z</time>
      </trkpt>
      <trkpt lat="50.4714" lon="1.78821">
        <ele>16.789272</ele>
        <time>2019-06-16T12:48:04.747Z</time>
      </trkpt>
      <trkpt lat="50.47111" lon="1.78852">
        <ele>16.848388</ele>
        <time>2019-06-16T12:48:12.466Z</time>
      </trkpt>
      <trkpt lat="50.47071" lon="1.78903">
        <ele>16.812071</ele>
        <time>2019-06-16T12:48:23.148Z</time>
      </trkpt>
      <trkpt lat="50.47007" lon="1.79021">
        <ele>15.181192</ele>
        <time>2019-06-16T12:48:41.602Z</time>
      </trkpt>
      <trkpt lat="50.46895" lon="1.79232">
        <ele>12.180121</ele>
        <time>2019-06-16T12:49:13.884Z</time>
      </trkpt>
      <trkpt lat="50.46846" lon="1.79346">
        <ele>10.725381</ele>
        <time>2019-06-16T12:49:30.363Z</time>
      </trkpt>
      <trkpt lat="50.46812" lon="1.79479">
        <ele>10.18793</ele>
        <time>2019-06-16T12:49:48.543Z</time>
      </trkpt>
      <trkpt lat="50.46777" lon="1.79642">
        <ele>9.795616</ele>
        <time>2019-06-16T12:50:13.291Z</time>
      </trkpt>
      <trkpt lat="50.46744" lon="1.79772">
        <ele>10.048594</ele>
        <time>2019-06-16T12:50:35.063Z</time>
      </trkpt>
      <trkpt lat="50.46694" lon="1.7998">
        <ele>10.269487</ele>
        <time>2019-06-16T12:51:08.066Z</time>
      </trkpt>
      <trkpt lat="50.46682" lon="1.80031">
        <ele>10.288973</ele>
        <time>2019-06-16T12:51:15.629Z</time>
      </trkpt>
      <trkpt lat="50.46673" lon="1.80108">
        <ele>10.317196</ele>
        <time>2019-06-16T12:51:26.706Z</time>
      </trkpt>
      <trkpt lat="50.46669" lon="1.80131">
        <ele>10.32585</ele>
        <time>2019-06-16T12:51:30.083Z</time>
      </trkpt>
      <trkpt lat="50.46616" lon="1.80276">
        <ele>10.290435</ele>
        <time>2019-06-16T12:51:54.129Z</time>
      </trkpt>
      <trkpt lat="50.46522" lon="1.80594">
        <ele>10.000576</ele>
        <time>2019-06-16T12:52:43.036Z</time>
      </trkpt>
      <trkpt lat="50.46496" lon="1.80685">
        <ele>9.895649</ele>
        <time>2019-06-16T12:52:56.772Z</time>
      </trkpt>
      <trkpt lat="50.46442" lon="1.80863">
        <ele>9.699833</ele>
        <time>2019-06-16T12:53:23.998Z</time>
      </trkpt>
      <trkpt lat="50.4643" lon="1.80898">
        <ele>9.67424</ele>
        <time>2019-06-16T12:53:29.438Z</time>
      </trkpt>
      <trkpt lat="50.46414" lon="1.8094">
        <ele>9.743797</ele>
        <time>2019-06-16T12:53:36.610Z</time>
      </trkpt>
      <trkpt lat="50.46402" lon="1.80971">
        <ele>9.793177</ele>
        <time>2019-06-16T12:53:41.967Z</time>
      </trkpt>
      <trkpt lat="50.46391" lon="1.81004">
        <ele>9.846569</ele>
        <time>2019-06-16T12:53:47.834Z</time>
      </trkpt>
      <trkpt lat="50.4639" lon="1.81009">
        <ele>9.854214</ele>
        <time>2019-06-16T12:53:48.583Z</time>
      </trkpt>
      <trkpt lat="50.46381" lon="1.81035">
        <ele>9.894829</ele>
        <time>2019-06-16T12:53:52.706Z</time>
      </trkpt>
      <trkpt lat="50.46373" lon="1.81062">
        <ele>9.936327</ele>
        <time>2019-06-16T12:53:57.545Z</time>
      </trkpt>
      <trkpt lat="50.4634" lon="1.81159">
        <ele>10.07266</ele>
        <time>2019-06-16T12:54:14.396Z</time>
      </trkpt>
      <trkpt lat="50.46301" lon="1.81302">
        <ele>10.155153</ele>
        <time>2019-06-16T12:54:37.512Z</time>
      </trkpt>
      <trkpt lat="50.46288" lon="1.81324">
        <ele>10.170944</ele>
        <time>2019-06-16T12:54:41.732Z</time>
      </trkpt>
      <trkpt lat="50.46266" lon="1.81288">
        <ele>10.197445</ele>
        <time>2019-06-16T12:54:48.926Z</time>
      </trkpt>
      <trkpt lat="50.46241" lon="1.81256">
        <ele>10.171641</ele>
        <time>2019-06-16T12:54:56.146Z</time>
      </trkpt>
      <trkpt lat="50.46236" lon="1.81252">
        <ele>10.154896</ele>
        <time>2019-06-16T12:54:57.452Z</time>
      </trkpt>
      <trkpt lat="50.46233" lon="1.81269">
        <ele>10.124205</ele>
        <time>2019-06-16T12:54:59.955Z</time>
      </trkpt>
      <trkpt lat="50.46225" lon="1.81309">
        <ele>10.050857</ele>
        <time>2019-06-16T12:55:05.894Z</time>
      </trkpt>
      <trkpt lat="50.46155" lon="1.81285">
        <ele>9.852679</ele>
        <time>2019-06-16T12:55:31.655Z</time>
      </trkpt>
      <trkpt lat="50.46093" lon="1.81262">
        <ele>9.751755</ele>
        <time>2019-06-16T12:55:55.100Z</time>
      </trkpt>
      <trkpt lat="50.45986" lon="1.81161">
        <ele>10.060467</ele>
        <time>2019-06-16T12:56:43.455Z</time>
      </trkpt>
      <trkpt lat="50.45846" lon="1.81054">
        <ele>10.399315</ele>
        <time>2019-06-16T12:57:43.891Z</time>
      </trkpt>
      <trkpt lat="50.4584" lon="1.81044">
        <ele>10.417726</ele>
        <time>2019-06-16T12:57:47.565Z</time>
      </trkpt>
      <trkpt lat="50.45809" lon="1.81093">
        <ele>10.508499</ele>
        <time>2019-06-16T12:57:57.682Z</time>
      </trkpt>
      <trkpt lat="50.45799" lon="1.81103">
        <ele>10.532786</ele>
        <time>2019-06-16T12:58:00.289Z</time>
      </trkpt>
      <trkpt lat="50.45735" lon="1.81173">
        <ele>10.242527</ele>
        <time>2019-06-16T12:58:17.744Z</time>
      </trkpt>
      <trkpt lat="50.45695" lon="1.81199">
        <ele>10.07936</ele>
        <time>2019-06-16T12:58:27.246Z</time>
      </trkpt>
      <trkpt lat="50.45691" lon="1.81209">
        <ele>10.052246</ele>
        <time>2019-06-16T12:58:28.796Z</time>
      </trkpt>
      <trkpt lat="50.45693" lon="1.8137">
        <ele>9.742919</ele>
        <time>2019-06-16T12:58:51.272Z</time>
      </trkpt>
      <trkpt lat="50.45686" lon="1.8231">
        <ele>8.825021</ele>
        <time>2019-06-16T13:01:07.194Z</time>
      </trkpt>
      <trkpt lat="50.45687" lon="1.82327">
        <ele>8.845327</ele>
        <time>2019-06-16T13:01:09.688Z</time>
      </trkpt>
      <trkpt lat="50.45691" lon="1.82384">
        <ele>8.912278</ele>
        <time>2019-06-16T13:01:18.962Z</time>
      </trkpt>
      <trkpt lat="50.45699" lon="1.82422">
        <ele>9.004927</ele>
        <time>2019-06-16T13:01:25.934Z</time>
      </trkpt>
      <trkpt lat="50.45755" lon="1.82549">
        <ele>10.444173</ele>
        <time>2019-06-16T13:01:55.966Z</time>
      </trkpt>
      <trkpt lat="50.45794" lon="1.8268">
        <ele>11.713148</ele>
        <time>2019-06-16T13:02:25.501Z</time>
      </trkpt>
      <trkpt lat="50.45794" lon="1.82687">
        <ele>11.758821</ele>
        <time>2019-06-16T13:02:27.188Z</time>
      </trkpt>
      <trkpt lat="50.45822" lon="1.82694">
        <ele>12.021004</ele>
        <time>2019-06-16T13:02:35.491Z</time>
      </trkpt>
      <trkpt lat="50.45831" lon="1.82697">
        <ele>12.107655</ele>
        <time>2019-06-16T13:02:38.125Z</time>
      </trkpt>
      <trkpt lat="50.45834" lon="1.82698">
        <ele>12.136311</ele>
        <time>2019-06-16T13:02:39.641Z</time>
      </trkpt>
      <trkpt lat="50.45839" lon="1.82698">
        <ele>12.179595</ele>
        <time>2019-06-16T13:02:40.976Z</time>
      </trkpt>
      <trkpt lat="50.45838" lon="1.82738">
        <ele>12.413799</ele>
        <time>2019-06-16T13:02:47.455Z</time>
      </trkpt>
      <trkpt lat="50.45838" lon="1.82761">
        <ele>12.550283</ele>
        <time>2019-06-16T13:02:51.862Z</time>
      </trkpt>
      <trkpt lat="50.45837" lon="1.82786">
        <ele>12.695379</ele>
        <time>2019-06-16T13:02:55.546Z</time>
      </trkpt>
      <trkpt lat="50.45834" lon="1.82816">
        <ele>12.871429</ele>
        <time>2019-06-16T13:03:00.984Z</time>
      </trkpt>
      <trkpt lat="50.45832" lon="1.82878">
        <ele>13.235451</ele>
        <time>2019-06-16T13:03:10.713Z</time>
      </trkpt>
      <trkpt lat="50.45844" lon="1.8305">
        <ele>12.888042</ele>
        <time>2019-06-16T13:03:33.442Z</time>
      </trkpt>
      <trkpt lat="50.45851" lon="1.83128">
        <ele>12.725775</ele>
        <time>2019-06-16T13:03:44.183Z</time>
      </trkpt>
      <trkpt lat="50.45868" lon="1.83174">
        <ele>12.709991</ele>
        <time>2019-06-16T13:03:51.476Z</time>
      </trkpt>
      <trkpt lat="50.45879" lon="1.83196">
        <ele>12.772325</ele>
        <time>2019-06-16T13:03:55.354Z</time>
      </trkpt>
      <trkpt lat="50.45892" lon="1.83218">
        <ele>12.840405</ele>
        <time>2019-06-16T13:03:59.854Z</time>
      </trkpt>
      <trkpt lat="50.4594" lon="1.83325">
        <ele>13.131707</ele>
        <time>2019-06-16T13:04:19.929Z</time>
      </trkpt>
      <trkpt lat="50.45997" lon="1.83433">
        <ele>13.701092</ele>
        <time>2019-06-16T13:04:43.623Z</time>
      </trkpt>
      <trkpt lat="50.46076" lon="1.83507">
        <ele>14.558807</ele>
        <time>2019-06-16T13:05:08.299Z</time>
      </trkpt>
      <trkpt lat="50.46171" lon="1.83607">
        <ele>15.605483</ele>
        <time>2019-06-16T13:05:39.654Z</time>
      </trkpt>
      <trkpt lat="50.46177" lon="1.83613">
        <ele>15.676906</ele>
        <time>2019-06-16T13:05:42.188Z</time>
      </trkpt>
      <trkpt lat="50.46249" lon="1.8368">
        <ele>16.435708</ele>
        <time>2019-06-16T13:06:04.308Z</time>
      </trkpt>
      <trkpt lat="50.46284" lon="1.83721">
        <ele>16.687828</ele>
        <time>2019-06-16T13:06:15.593Z</time>
      </trkpt>
      <trkpt lat="50.46321" lon="1.8379">
        <ele>16.868613</ele>
        <time>2019-06-16T13:06:29.988Z</time>
      </trkpt>
      <trkpt lat="50.46394" lon="1.83979">
        <ele>17.055732</ele>
        <time>2019-06-16T13:07:01.599Z</time>
      </trkpt>
      <trkpt lat="50.46469" lon="1.84114">
        <ele>16.730013</ele>
        <time>2019-06-16T13:07:25.825Z</time>
      </trkpt>
      <trkpt lat="50.46498" lon="1.8416">
        <ele>16.583734</ele>
        <time>2019-06-16T13:07:34.342Z</time>
      </trkpt>
      <trkpt lat="50.46518" lon="1.84177">
        <ele>16.481844</ele>
        <time>2019-06-16T13:07:39.127Z</time>
      </trkpt>
      <trkpt lat="50.46545" lon="1.84204">
        <ele>16.334688</ele>
        <time>2019-06-16T13:07:45.946Z</time>
      </trkpt>
      <trkpt lat="50.46556" lon="1.84216">
        <ele>16.275353</ele>
        <time>2019-06-16T13:07:48.656Z</time>
      </trkpt>
      <trkpt lat="50.46579" lon="1.84257">
        <ele>16.116972</ele>
        <time>2019-06-16T13:07:56.021Z</time>
      </trkpt>
      <trkpt lat="50.46587" lon="1.84296">
        <ele>15.999356</ele>
        <time>2019-06-16T13:08:01.547Z</time>
      </trkpt>
      <trkpt lat="50.46591" lon="1.84383">
        <ele>16.039607</ele>
        <time>2019-06-16T13:08:13.412Z</time>
      </trkpt>
      <trkpt lat="50.46604" lon="1.84429">
        <ele>16.300182</ele>
        <time>2019-06-16T13:08:20.544Z</time>
      </trkpt>
      <trkpt lat="50.46648" lon="1.84525">
        <ele>16.90731</ele>
        <time>2019-06-16T13:08:39.237Z</time>
      </trkpt>
      <trkpt lat="50.46653" lon="1.84556">
        <ele>17.077302</ele>
        <time>2019-06-16T13:08:45.381Z</time>
      </trkpt>
      <trkpt lat="50.46653" lon="1.84573">
        <ele>17.165167</ele>
        <time>2019-06-16T13:08:49.058Z</time>
      </trkpt>
      <trkpt lat="50.46617" lon="1.84665">
        <ele>18.90933</ele>
        <time>2019-06-16T13:09:12.722Z</time>
      </trkpt>
      <trkpt lat="50.46601" lon="1.84715">
        <ele>20.033417</ele>
        <time>2019-06-16T13:09:26.347Z</time>
      </trkpt>
      <trkpt lat="50.46594" lon="1.84744">
        <ele>20.669583</ele>
        <time>2019-06-16T13:09:34.792Z</time>
      </trkpt>
      <trkpt lat="50.4658" lon="1.84796">
        <ele>21.79608</ele>
        <time>2019-06-16T13:09:50.223Z</time>
      </trkpt>
      <trkpt lat="50.46623" lon="1.84877">
        <ele>23.588463</ele>
        <time>2019-06-16T13:10:17.293Z</time>
      </trkpt>
      <trkpt lat="50.46659" lon="1.85018">
        <ele>25.586826</ele>
        <time>2019-06-16T13:10:50.411Z</time>
      </trkpt>
      <trkpt lat="50.46667" lon="1.85025">
        <ele>25.781355</ele>
        <time>2019-06-16T13:10:52.576Z</time>
      </trkpt>
      <trkpt lat="50.4673" lon="1.85088">
        <ele>26.702169</ele>
        <time>2019-06-16T13:11:11.835Z</time>
      </trkpt>
      <trkpt lat="50.46903" lon="1.85332">
        <ele>26.905009</ele>
        <time>2019-06-16T13:12:01.838Z</time>
      </trkpt>
      <trkpt lat="50.47012" lon="1.85431">
        <ele>27.471878</ele>
        <time>2019-06-16T13:12:34.535Z</time>
      </trkpt>
      <trkpt lat="50.47153" lon="1.8554">
        <ele>28.92874</ele>
        <time>2019-06-16T13:13:18.233Z</time>
      </trkpt>
      <trkpt lat="50.47263" lon="1.85668">
        <ele>29.278644</ele>
        <time>2019-06-16T13:13:51.467Z</time>
      </trkpt>
      <trkpt lat="50.47336" lon="1.85708">
        <ele>28.895987</ele>
        <time>2019-06-16T13:14:07.631Z</time>
      </trkpt>
      <trkpt lat="50.47372" lon="1.8575">
        <ele>28.348648</ele>
        <time>2019-06-16T13:14:16.452Z</time>
      </trkpt>
      <trkpt lat="50.47381" lon="1.85759">
        <ele>28.225817</ele>
        <time>2019-06-16T13:14:18.401Z</time>
      </trkpt>
      <trkpt lat="50.47401" lon="1.85726">
        <ele>27.868525</ele>
        <time>2019-06-16T13:14:23.956Z</time>
      </trkpt>
      <trkpt lat="50.47467" lon="1.85706">
        <ele>27.044632</ele>
        <time>2019-06-16T13:14:36.626Z</time>
      </trkpt>
      <trkpt lat="50.47472" lon="1.85706">
        <ele>26.983757</ele>
        <time>2019-06-16T13:14:37.428Z</time>
      </trkpt>
      <trkpt lat="50.47514" lon="1.85732">
        <ele>26.388737</ele>
        <time>2019-06-16T13:14:45.949Z</time>
      </trkpt>
      <trkpt lat="50.47601" lon="1.85781">
        <ele>25.156849</ele>
        <time>2019-06-16T13:15:03.807Z</time>
      </trkpt>
      <trkpt lat="50.47654" lon="1.85814">
        <ele>24.871437</ele>
        <time>2019-06-16T13:15:15.393Z</time>
      </trkpt>
      <trkpt lat="50.4767" lon="1.8583">
        <ele>24.904192</ele>
        <time>2019-06-16T13:15:19.502Z</time>
      </trkpt>
      <trkpt lat="50.47704" lon="1.85882">
        <ele>24.98446</ele>
        <time>2019-06-16T13:15:29.997Z</time>
      </trkpt>
      <trkpt lat="50.47745" lon="1.85957">
        <ele>25.091175</ele>
        <time>2019-06-16T13:15:45.868Z</time>
      </trkpt>
      <trkpt lat="50.47723" lon="1.85974">
        <ele>25.196581</ele>
        <time>2019-06-16T13:15:53.678Z</time>
      </trkpt>
      <trkpt lat="50.47745" lon="1.85957">
        <ele>25.538758</ele>
        <time>2019-06-16T13:16:00.404Z</time>
      </trkpt>
      <trkpt lat="50.4776" lon="1.85992">
        <ele>25.91466</ele>
        <time>2019-06-16T13:16:07.609Z</time>
      </trkpt>
      <trkpt lat="50.47761" lon="1.86002">
        <ele>25.997323</ele>
        <time>2019-06-16T13:16:09.990Z</time>
      </trkpt>
      <trkpt lat="50.47745" lon="1.86058">
        <ele>26.539718</ele>
        <time>2019-06-16T13:16:21.525Z</time>
      </trkpt>
      <trkpt lat="50.47738" lon="1.86117">
        <ele>27.067395</ele>
        <time>2019-06-16T13:16:32.965Z</time>
      </trkpt>
      <trkpt lat="50.47781" lon="1.86287">
        <ele>29.792867</ele>
        <time>2019-06-16T13:17:08.743Z</time>
      </trkpt>
      <trkpt lat="50.47796" lon="1.86382">
        <ele>31.545285</ele>
        <time>2019-06-16T13:17:32.241Z</time>
      </trkpt>
      <trkpt lat="50.47803" lon="1.86402">
        <ele>31.975722</ele>
        <time>2019-06-16T13:17:37.587Z</time>
      </trkpt>
      <trkpt lat="50.47801" lon="1.86407">
        <ele>32.086618</ele>
        <time>2019-06-16T13:17:39.394Z</time>
      </trkpt>
      <trkpt lat="50.478" lon="1.86427">
        <ele>32.457437</ele>
        <time>2019-06-16T13:17:45.257Z</time>
      </trkpt>
      <trkpt lat="50.47789" lon="1.86445">
        <ele>33.111157</ele>
        <time>2019-06-16T13:17:51.667Z</time>
      </trkpt>
      <trkpt lat="50.47785" lon="1.8645">
        <ele>33.435556</ele>
        <time>2019-06-16T13:17:54.227Z</time>
      </trkpt>
      <trkpt lat="50.47773" lon="1.86469">
        <ele>34.406422</ele>
        <time>2019-06-16T13:18:05.007Z</time>
      </trkpt>
      <trkpt lat="50.47692" lon="1.86583">
        <ele>40.729737</ele>
        <time>2019-06-16T13:19:19.036Z</time>
      </trkpt>
      <trkpt lat="50.47641" lon="1.86655">
        <ele>44.996295</ele>
        <time>2019-06-16T13:20:06.746Z</time>
      </trkpt>
      <trkpt lat="50.4764" lon="1.86668">
        <ele>45.574428</ele>
        <time>2019-06-16T13:20:11.814Z</time>
      </trkpt>
      <trkpt lat="50.47677" lon="1.86805">
        <ele>52.106341</ele>
        <time>2019-06-16T13:21:03.741Z</time>
      </trkpt>
      <trkpt lat="50.47693" lon="1.87002">
        <ele>61.826931</ele>
        <time>2019-06-16T13:22:23.618Z</time>
      </trkpt>
      <trkpt lat="50.47688" lon="1.87032">
        <ele>63.457166</ele>
        <time>2019-06-16T13:22:35.950Z</time>
      </trkpt>
      <trkpt lat="50.47676" lon="1.87058">
        <ele>65.131871</ele>
        <time>2019-06-16T13:22:50.418Z</time>
      </trkpt>
      <trkpt lat="50.4762" lon="1.87151">
        <ele>71.670963</ele>
        <time>2019-06-16T13:23:44.566Z</time>
      </trkpt>
      <trkpt lat="50.47594" lon="1.87297">
        <ele>78.57468</ele>
        <time>2019-06-16T13:24:45.903Z</time>
      </trkpt>
      <trkpt lat="50.47547" lon="1.87455">
        <ele>85.305733</ele>
        <time>2019-06-16T13:25:41.681Z</time>
      </trkpt>
      <trkpt lat="50.47467" lon="1.87589">
        <ele>90.667923</ele>
        <time>2019-06-16T13:26:35.029Z</time>
      </trkpt>
      <trkpt lat="50.47337" lon="1.87784">
        <ele>96.679599</ele>
        <time>2019-06-16T13:27:47.696Z</time>
      </trkpt>
      <trkpt lat="50.47298" lon="1.87818">
        <ele>97.321499</ele>
        <time>2019-06-16T13:28:02.027Z</time>
      </trkpt>
      <trkpt lat="50.47247" lon="1.87863">
        <ele>97.540075</ele>
        <time>2019-06-16T13:28:18.814Z</time>
      </trkpt>
      <trkpt lat="50.47052" lon="1.88085">
        <ele>96.263893</ele>
        <time>2019-06-16T13:29:09.560Z</time>
      </trkpt>
      <trkpt lat="50.46912" lon="1.88284">
        <ele>92.971085</ele>
        <time>2019-06-16T13:29:46.227Z</time>
      </trkpt>
      <trkpt lat="50.4682" lon="1.88428">
        <ele>89.742824</ele>
        <time>2019-06-16T13:30:10.881Z</time>
      </trkpt>
      <trkpt lat="50.46813" lon="1.88427">
        <ele>89.566366</ele>
        <time>2019-06-16T13:30:12.091Z</time>
      </trkpt>
      <trkpt lat="50.46813" lon="1.88487">
        <ele>88.569201</ele>
        <time>2019-06-16T13:30:18.770Z</time>
      </trkpt>
      <trkpt lat="50.46811" lon="1.88576">
        <ele>86.599641</ele>
        <time>2019-06-16T13:30:28.481Z</time>
      </trkpt>
      <trkpt lat="50.46804" lon="1.88654">
        <ele>84.440399</ele>
        <time>2019-06-16T13:30:36.726Z</time>
      </trkpt>
      <trkpt lat="50.4678" lon="1.88751">
        <ele>81.589138</ele>
        <time>2019-06-16T13:30:47.337Z</time>
      </trkpt>
      <trkpt lat="50.46775" lon="1.88833">
        <ele>79.202286</ele>
        <time>2019-06-16T13:30:55.795Z</time>
      </trkpt>
      <trkpt lat="50.46781" lon="1.88912">
        <ele>76.730242</ele>
        <time>2019-06-16T13:31:03.811Z</time>
      </trkpt>
      <trkpt lat="50.46828" lon="1.89284">
        <ele>65.560971</ele>
        <time>2019-06-16T13:31:42.493Z</time>
      </trkpt>
      <trkpt lat="50.46825" lon="1.89616">
        <ele>57.590502</ele>
        <time>2019-06-16T13:32:18.066Z</time>
      </trkpt>
      <trkpt lat="50.4683" lon="1.89672">
        <ele>56.330319</ele>
        <time>2019-06-16T13:32:24.233Z</time>
      </trkpt>
      <trkpt lat="50.46836" lon="1.89726">
        <ele>55.156381</ele>
        <time>2019-06-16T13:32:30.192Z</time>
      </trkpt>
      <trkpt lat="50.46839" lon="1.89754">
        <ele>54.546141</ele>
        <time>2019-06-16T13:32:33.215Z</time>
      </trkpt>
      <trkpt lat="50.46841" lon="1.89778">
        <ele>54.024129</ele>
        <time>2019-06-16T13:32:35.858Z</time>
      </trkpt>
      <trkpt lat="50.46822" lon="1.89835">
        <ele>52.651925</ele>
        <time>2019-06-16T13:32:42.664Z</time>
      </trkpt>
      <trkpt lat="50.46816" lon="1.89878">
        <ele>51.695036</ele>
        <time>2019-06-16T13:32:47.436Z</time>
      </trkpt>
      <trkpt lat="50.46821" lon="1.89933">
        <ele>50.66202</ele>
        <time>2019-06-16T13:32:53.526Z</time>
      </trkpt>
      <trkpt lat="50.46829" lon="1.89966">
        <ele>50.292969</ele>
        <time>2019-06-16T13:32:57.312Z</time>
      </trkpt>
      <trkpt lat="50.4684" lon="1.90008">
        <ele>49.804317</ele>
        <time>2019-06-16T13:33:02.523Z</time>
      </trkpt>
      <trkpt lat="50.46856" lon="1.90061">
        <ele>49.174949</ele>
        <time>2019-06-16T13:33:09.433Z</time>
      </trkpt>
      <trkpt lat="50.46939" lon="1.90208">
        <ele>48.837787</ele>
        <time>2019-06-16T13:33:34.903Z</time>
      </trkpt>
      <trkpt lat="50.46944" lon="1.90224">
        <ele>49.107974</ele>
        <time>2019-06-16T13:33:38.135Z</time>
      </trkpt>
      <trkpt lat="50.46942" lon="1.90266">
        <ele>49.751308</ele>
        <time>2019-06-16T13:33:46.145Z</time>
      </trkpt>
      <trkpt lat="50.46935" lon="1.90302">
        <ele>50.328364</ele>
        <time>2019-06-16T13:33:55.261Z</time>
      </trkpt>
      <trkpt lat="50.46962" lon="1.90315">
        <ele>51.002648</ele>
        <time>2019-06-16T13:34:06.429Z</time>
      </trkpt>
      <trkpt lat="50.47011" lon="1.90357">
        <ele>52.633001</ele>
        <time>2019-06-16T13:34:32.848Z</time>
      </trkpt>
      <trkpt lat="50.47004" lon="1.90484">
        <ele>57.157695</ele>
        <time>2019-06-16T13:35:13.306Z</time>
      </trkpt>
      <trkpt lat="50.47" lon="1.90567">
        <ele>60.139829</ele>
        <time>2019-06-16T13:35:38.757Z</time>
      </trkpt>
      <trkpt lat="50.46995" lon="1.90659">
        <ele>63.483423</ele>
        <time>2019-06-16T13:36:11.487Z</time>
      </trkpt>
      <trkpt lat="50.46998" lon="1.90737">
        <ele>66.412923</ele>
        <time>2019-06-16T13:36:38.772Z</time>
      </trkpt>
      <trkpt lat="50.47008" lon="1.9079">
        <ele>68.530082</ele>
        <time>2019-06-16T13:36:57.249Z</time>
      </trkpt>
      <trkpt lat="50.46962" lon="1.90803">
        <ele>71.30557</ele>
        <time>2019-06-16T13:37:27.084Z</time>
      </trkpt>
      <trkpt lat="50.4694" lon="1.9079">
        <ele>72.663215</ele>
        <time>2019-06-16T13:37:41.511Z</time>
      </trkpt>
      <trkpt lat="50.46905" lon="1.90792">
        <ele>74.602485</ele>
        <time>2019-06-16T13:38:05.245Z</time>
      </trkpt>
      <trkpt lat="50.46595" lon="1.90921">
        <ele>91.176902</ele>
        <time>2019-06-16T13:41:30.454Z</time>
      </trkpt>
      <trkpt lat="50.46401" lon="1.90926">
        <ele>96.421154</ele>
        <time>2019-06-16T13:43:06.276Z</time>
      </trkpt>
      <trkpt lat="50.46236" lon="1.90916">
        <ele>98.789491</ele>
        <time>2019-06-16T13:44:19.151Z</time>
      </trkpt>
      <trkpt lat="50.46165" lon="1.90943">
        <ele>98.90424</ele>
        <time>2019-06-16T13:44:48.825Z</time>
      </trkpt>
      <trkpt lat="50.46055" lon="1.90966">
        <ele>98.897001</ele>
        <time>2019-06-16T13:45:29.212Z</time>
      </trkpt>
      <trkpt lat="50.45769" lon="1.91153">
        <ele>95.0886</ele>
        <time>2019-06-16T13:47:12.868Z</time>
      </trkpt>
      <trkpt lat="50.45641" lon="1.91269">
        <ele>94.8898</ele>
        <time>2019-06-16T13:48:06.748Z</time>
      </trkpt>
      <trkpt lat="50.4547" lon="1.91303">
        <ele>96.277502</ele>
        <time>2019-06-16T13:49:21.209Z</time>
      </trkpt>
      <trkpt lat="50.45341" lon="1.91348">
        <ele>97.433774</ele>
        <time>2019-06-16T13:50:18.258Z</time>
      </trkpt>
      <trkpt lat="50.45128" lon="1.91653">
        <ele>96.253012</ele>
        <time>2019-06-16T13:52:03.059Z</time>
      </trkpt>
      <trkpt lat="50.45053" lon="1.9179">
        <ele>93.271901</ele>
        <time>2019-06-16T13:52:38.862Z</time>
      </trkpt>
      <trkpt lat="50.44986" lon="1.91878">
        <ele>90.435848</ele>
        <time>2019-06-16T13:53:04.540Z</time>
      </trkpt>
      <trkpt lat="50.44903" lon="1.91962">
        <ele>89.39234</ele>
        <time>2019-06-16T13:53:36.568Z</time>
      </trkpt>
      <trkpt lat="50.44934" lon="1.91994">
        <ele>89.09863</ele>
        <time>2019-06-16T13:53:44.855Z</time>
      </trkpt>
      <trkpt lat="50.44941" lon="1.92004">
        <ele>89.017057</ele>
        <time>2019-06-16T13:53:47.931Z</time>
      </trkpt>
      <trkpt lat="50.44898" lon="1.92131">
        <ele>89.007959</ele>
        <time>2019-06-16T13:54:15.613Z</time>
      </trkpt>
      <trkpt lat="50.44866" lon="1.92235">
        <ele>89.561344</ele>
        <time>2019-06-16T13:54:41.849Z</time>
      </trkpt>
      <trkpt lat="50.44798" lon="1.92407">
        <ele>86.885859</ele>
        <time>2019-06-16T13:55:07.597Z</time>
      </trkpt>
      <trkpt lat="50.44669" lon="1.92573">
        <ele>77.066137</ele>
        <time>2019-06-16T13:55:34.228Z</time>
      </trkpt>
      <trkpt lat="50.44644" lon="1.92597">
        <ele>74.543727</ele>
        <time>2019-06-16T13:55:38.674Z</time>
      </trkpt>
      <trkpt lat="50.44615" lon="1.92602">
        <ele>72.074543</ele>
        <time>2019-06-16T13:55:43.015Z</time>
      </trkpt>
      <trkpt lat="50.44581" lon="1.9259">
        <ele>69.131645</ele>
        <time>2019-06-16T13:55:48.155Z</time>
      </trkpt>
      <trkpt lat="50.44556" lon="1.9257">
        <ele>66.693801</ele>
        <time>2019-06-16T13:55:52.396Z</time>
      </trkpt>
      <trkpt lat="50.44514" lon="1.92512">
        <ele>61.363418</ele>
        <time>2019-06-16T13:56:00.699Z</time>
      </trkpt>
      <trkpt lat="50.44506" lon="1.92511">
        <ele>60.504164</ele>
        <time>2019-06-16T13:56:02.022Z</time>
      </trkpt>
      <trkpt lat="50.44504" lon="1.92531">
        <ele>59.239071</ele>
        <time>2019-06-16T13:56:03.986Z</time>
      </trkpt>
      <trkpt lat="50.4451" lon="1.92578">
        <ele>56.272968</ele>
        <time>2019-06-16T13:56:08.595Z</time>
      </trkpt>
      <trkpt lat="50.44506" lon="1.92601">
        <ele>54.818567</ele>
        <time>2019-06-16T13:56:10.863Z</time>
      </trkpt>
      <trkpt lat="50.44493" lon="1.92613">
        <ele>53.381678</ele>
        <time>2019-06-16T13:56:13.101Z</time>
      </trkpt>
      <trkpt lat="50.44478" lon="1.92606">
        <ele>51.876329</ele>
        <time>2019-06-16T13:56:15.416Z</time>
      </trkpt>
      <trkpt lat="50.44443" lon="1.92571">
        <ele>48.192992</ele>
        <time>2019-06-16T13:56:21.605Z</time>
      </trkpt>
      <trkpt lat="50.44344" lon="1.92569">
        <ele>40.563769</ele>
        <time>2019-06-16T13:56:37.031Z</time>
      </trkpt>
      <trkpt lat="50.44344" lon="1.92569">
        <ele>40.563769</ele>
        <time>2019-06-16T13:56:37.046Z</time>
      </trkpt>
      <trkpt lat="50.44316" lon="1.92544">
        <ele>38.111285</ele>
        <time>2019-06-16T13:56:42.084Z</time>
      </trkpt>
      <trkpt lat="50.44302" lon="1.92543">
        <ele>37.062722</ele>
        <time>2019-06-16T13:56:44.176Z</time>
      </trkpt>
      <trkpt lat="50.44242" lon="1.92589">
        <ele>33.406989</ele>
        <time>2019-06-16T13:56:54.978Z</time>
      </trkpt>
      <trkpt lat="50.44206" lon="1.92567">
        <ele>31.671872</ele>
        <time>2019-06-16T13:57:01.476Z</time>
      </trkpt>
      <trkpt lat="50.44203" lon="1.92568">
        <ele>31.537275</ele>
        <time>2019-06-16T13:57:01.903Z</time>
      </trkpt>
      <trkpt lat="50.442" lon="1.92554">
        <ele>31.134522</ele>
        <time>2019-06-16T13:57:03.488Z</time>
      </trkpt>
      <trkpt lat="50.44142" lon="1.92439">
        <ele>27.236467</ele>
        <time>2019-06-16T13:57:20.085Z</time>
      </trkpt>
      <trkpt lat="50.44089" lon="1.92362">
        <ele>26.244125</ele>
        <time>2019-06-16T13:57:33.985Z</time>
      </trkpt>
      <trkpt lat="50.44054" lon="1.92291">
        <ele>25.459884</ele>
        <time>2019-06-16T13:57:46.568Z</time>
      </trkpt>
      <trkpt lat="50.44049" lon="1.92289">
        <ele>25.392354</ele>
        <time>2019-06-16T13:57:47.502Z</time>
      </trkpt>
      <trkpt lat="50.44049" lon="1.92247">
        <ele>25.028939</ele>
        <time>2019-06-16T13:57:53.702Z</time>
      </trkpt>
      <trkpt lat="50.44046" lon="1.92216">
        <ele>24.843946</ele>
        <time>2019-06-16T13:57:58.518Z</time>
      </trkpt>
      <trkpt lat="50.44037" lon="1.92182">
        <ele>24.725665</ele>
        <time>2019-06-16T13:58:03.541Z</time>
      </trkpt>
      <trkpt lat="50.44016" lon="1.92143">
        <ele>24.558907</ele>
        <time>2019-06-16T13:58:11.106Z</time>
      </trkpt>
      <trkpt lat="50.44011" lon="1.9214">
        <ele>24.529801</ele>
        <time>2019-06-16T13:58:12.200Z</time>
      </trkpt>
      <trkpt lat="50.44011" lon="1.92125">
        <ele>24.48091</ele>
        <time>2019-06-16T13:58:14.746Z</time>
      </trkpt>
      <trkpt lat="50.44009" lon="1.92096">
        <ele>24.388902</ele>
        <time>2019-06-16T13:58:18.584Z</time>
      </trkpt>
      <trkpt lat="50.4401" lon="1.92084">
        <ele>24.347351</ele>
        <time>2019-06-16T13:58:20.180Z</time>
      </trkpt>
      <trkpt lat="50.43991" lon="1.92062">
        <ele>24.229035</ele>
        <time>2019-06-16T13:58:25.238Z</time>
      </trkpt>
      <trkpt lat="50.43966" lon="1.92016">
        <ele>24.03496</ele>
        <time>2019-06-16T13:58:33.420Z</time>
      </trkpt>
      <trkpt lat="50.43951" lon="1.91997">
        <ele>23.892609</ele>
        <time>2019-06-16T13:58:37.617Z</time>
      </trkpt>
      <trkpt lat="50.43881" lon="1.9205">
        <ele>23.131284</ele>
        <time>2019-06-16T13:58:53.589Z</time>
      </trkpt>
      <trkpt lat="50.43881" lon="1.9205">
        <ele>23.131284</ele>
        <time>2019-06-16T13:58:53.608Z</time>
      </trkpt>
      <trkpt lat="50.43874" lon="1.92077">
        <ele>22.946609</ele>
        <time>2019-06-16T13:58:57.690Z</time>
      </trkpt>
      <trkpt lat="50.43882" lon="1.92134">
        <ele>22.588157</ele>
        <time>2019-06-16T13:59:05.333Z</time>
      </trkpt>
      <trkpt lat="50.43886" lon="1.92227">
        <ele>22.362972</ele>
        <time>2019-06-16T13:59:17.815Z</time>
      </trkpt>
      <trkpt lat="50.43889" lon="1.92236">
        <ele>22.400368</ele>
        <time>2019-06-16T13:59:19.346Z</time>
      </trkpt>
      <trkpt lat="50.43885" lon="1.92251">
        <ele>22.462172</ele>
        <time>2019-06-16T13:59:21.665Z</time>
      </trkpt>
      <trkpt lat="50.43875" lon="1.92288">
        <ele>22.61326</ele>
        <time>2019-06-16T13:59:26.859Z</time>
      </trkpt>
      <trkpt lat="50.4387" lon="1.92304">
        <ele>22.682002</ele>
        <time>2019-06-16T13:59:29.590Z</time>
      </trkpt>
      <trkpt lat="50.43859" lon="1.92345">
        <ele>22.85105</ele>
        <time>2019-06-16T13:59:36.686Z</time>
      </trkpt>
      <trkpt lat="50.43854" lon="1.9243">
        <ele>23.170993</ele>
        <time>2019-06-16T13:59:52.016Z</time>
      </trkpt>
      <trkpt lat="50.43851" lon="1.92484">
        <ele>23.681605</ele>
        <time>2019-06-16T14:00:03.765Z</time>
      </trkpt>
      <trkpt lat="50.43851" lon="1.92488">
        <ele>23.754384</ele>
        <time>2019-06-16T14:00:04.682Z</time>
      </trkpt>
      <trkpt lat="50.43842" lon="1.92505">
        <ele>24.148062</ele>
        <time>2019-06-16T14:00:09.861Z</time>
      </trkpt>
      <trkpt lat="50.43828" lon="1.9253">
        <ele>24.75136</ele>
        <time>2019-06-16T14:00:17.497Z</time>
      </trkpt>
      <trkpt lat="50.43807" lon="1.92559">
        <ele>25.530416</ele>
        <time>2019-06-16T14:00:27.446Z</time>
      </trkpt>
      <trkpt lat="50.43762" lon="1.92611">
        <ele>27.122165</ele>
        <time>2019-06-16T14:00:47.820Z</time>
      </trkpt>
      <trkpt lat="50.43751" lon="1.92617">
        <ele>27.454657</ele>
        <time>2019-06-16T14:00:52.327Z</time>
      </trkpt>
      <trkpt lat="50.43742" lon="1.92619">
        <ele>27.686347</ele>
        <time>2019-06-16T14:00:55.050Z</time>
      </trkpt>
      <trkpt lat="50.43731" lon="1.92615">
        <ele>28.022308</ele>
        <time>2019-06-16T14:00:59.839Z</time>
      </trkpt>
      <trkpt lat="50.43735" lon="1.92626">
        <ele>28.243773</ele>
        <time>2019-06-16T14:01:02.971Z</time>
      </trkpt>
      <trkpt lat="50.43737" lon="1.92633">
        <ele>28.395766</ele>
        <time>2019-06-16T14:01:05.051Z</time>
      </trkpt>
      <trkpt lat="50.43741" lon="1.92649">
        <ele>28.804845</ele>
        <time>2019-06-16T14:01:08.990Z</time>
      </trkpt>
      <trkpt lat="50.43741" lon="1.92651">
        <ele>28.875829</ele>
        <time>2019-06-16T14:01:09.951Z</time>
      </trkpt>
      <trkpt lat="50.43749" lon="1.9269">
        <ele>29.866</ele>
        <time>2019-06-16T14:01:20.932Z</time>
      </trkpt>
      <trkpt lat="50.43776" lon="1.92776">
        <ele>32.259625</ele>
        <time>2019-06-16T14:01:47.303Z</time>
      </trkpt>
      <trkpt lat="50.43778" lon="1.92817">
        <ele>33.273546</ele>
        <time>2019-06-16T14:01:58.455Z</time>
      </trkpt>
      <trkpt lat="50.43759" lon="1.92842">
        <ele>34.249328</ele>
        <time>2019-06-16T14:02:08.951Z</time>
      </trkpt>
      <trkpt lat="50.43743" lon="1.92867">
        <ele>35.130493</ele>
        <time>2019-06-16T14:02:18.413Z</time>
      </trkpt>
      <trkpt lat="50.43713" lon="1.92909">
        <ele>36.998509</ele>
        <time>2019-06-16T14:02:35.493Z</time>
      </trkpt>
      <trkpt lat="50.43673" lon="1.92973">
        <ele>39.736067</ele>
        <time>2019-06-16T14:03:01.381Z</time>
      </trkpt>
      <trkpt lat="50.43674" lon="1.92989">
        <ele>40.21754</ele>
        <time>2019-06-16T14:03:06.532Z</time>
      </trkpt>
      <trkpt lat="50.43698" lon="1.93044">
        <ele>42.248779</ele>
        <time>2019-06-16T14:03:28.534Z</time>
      </trkpt>
      <trkpt lat="50.43697" lon="1.93061">
        <ele>42.765033</ele>
        <time>2019-06-16T14:03:33.986Z</time>
      </trkpt>
      <trkpt lat="50.43669" lon="1.93117">
        <ele>44.894945</ele>
        <time>2019-06-16T14:03:56.353Z</time>
      </trkpt>
      <trkpt lat="50.43647" lon="1.93148">
        <ele>46.260302</ele>
        <time>2019-06-16T14:04:10.521Z</time>
      </trkpt>
      <trkpt lat="50.4362" lon="1.93179">
        <ele>47.795485</ele>
        <time>2019-06-16T14:04:26.480Z</time>
      </trkpt>
      <trkpt lat="50.43598" lon="1.93202">
        <ele>49.018203</ele>
        <time>2019-06-16T14:04:39.073Z</time>
      </trkpt>
      <trkpt lat="50.43438" lon="1.93318">
        <ele>56.732429</ele>
        <time>2019-06-16T14:05:54.257Z</time>
      </trkpt>
      <trkpt lat="50.43307" lon="1.93472">
        <ele>64.892122</ele>
        <time>2019-06-16T14:07:10.920Z</time>
      </trkpt>
      <trkpt lat="50.43306" lon="1.93476">
        <ele>65.044984</ele>
        <time>2019-06-16T14:07:12.815Z</time>
      </trkpt>
      <trkpt lat="50.43302" lon="1.93488">
        <ele>65.504117</ele>
        <time>2019-06-16T14:07:18.490Z</time>
      </trkpt>
      <trkpt lat="50.43234" lon="1.93667">
        <ele>73.15262</ele>
        <time>2019-06-16T14:08:30.100Z</time>
      </trkpt>
      <trkpt lat="50.43142" lon="1.93823">
        <ele>81.228949</ele>
        <time>2019-06-16T14:09:42.737Z</time>
      </trkpt>
      <trkpt lat="50.43061" lon="1.93936">
        <ele>86.611928</ele>
        <time>2019-06-16T14:10:36.037Z</time>
      </trkpt>
      <trkpt lat="50.43005" lon="1.94127">
        <ele>92.198934</ele>
        <time>2019-06-16T14:11:35.881Z</time>
      </trkpt>
      <trkpt lat="50.4299" lon="1.94239">
        <ele>94.730398</ele>
        <time>2019-06-16T14:12:04.827Z</time>
      </trkpt>
      <trkpt lat="50.42991" lon="1.94281">
        <ele>95.644969</ele>
        <time>2019-06-16T14:12:14.532Z</time>
      </trkpt>
      <trkpt lat="50.4299" lon="1.94301">
        <ele>96.008746</ele>
        <time>2019-06-16T14:12:19.131Z</time>
      </trkpt>
      <trkpt lat="50.42989" lon="1.94383">
        <ele>96.717248</ele>
        <time>2019-06-16T14:12:36.650Z</time>
      </trkpt>
      <trkpt lat="50.42979" lon="1.94418">
        <ele>97.044012</ele>
        <time>2019-06-16T14:12:44.271Z</time>
      </trkpt>
      <trkpt lat="50.42922" lon="1.9455">
        <ele>98.377545</ele>
        <time>2019-06-16T14:13:12.390Z</time>
      </trkpt>
      <trkpt lat="50.4288" lon="1.94644">
        <ele>98.071065</ele>
        <time>2019-06-16T14:13:29.196Z</time>
      </trkpt>
      <trkpt lat="50.42853" lon="1.94707">
        <ele>97.869879</ele>
        <time>2019-06-16T14:13:46.480Z</time>
      </trkpt>
      <trkpt lat="50.42825" lon="1.94743">
        <ele>97.717279</ele>
        <time>2019-06-16T14:13:58.933Z</time>
      </trkpt>
      <trkpt lat="50.42721" lon="1.94845">
        <ele>96.20814</ele>
        <time>2019-06-16T14:14:40.085Z</time>
      </trkpt>
      <trkpt lat="50.42716" lon="1.94855">
        <ele>96.092198</ele>
        <time>2019-06-16T14:14:42.768Z</time>
      </trkpt>
      <trkpt lat="50.42719" lon="1.94878">
        <ele>95.88072</ele>
        <time>2019-06-16T14:14:47.779Z</time>
      </trkpt>
      <trkpt lat="50.42721" lon="1.94934">
        <ele>95.389015</ele>
        <time>2019-06-16T14:14:59.567Z</time>
      </trkpt>
      <trkpt lat="50.42716" lon="1.94981">
        <ele>95.136952</ele>
        <time>2019-06-16T14:15:09.709Z</time>
      </trkpt>
      <trkpt lat="50.42672" lon="1.95174">
        <ele>95.206801</ele>
        <time>2019-06-16T14:15:58.333Z</time>
      </trkpt>
      <trkpt lat="50.42671" lon="1.9522">
        <ele>95.222172</ele>
        <time>2019-06-16T14:16:09.823Z</time>
      </trkpt>
      <trkpt lat="50.42671" lon="1.95231">
        <ele>95.225921</ele>
        <time>2019-06-16T14:16:12.704Z</time>
      </trkpt>
      <trkpt lat="50.42658" lon="1.95489">
        <ele>97.652804</ele>
        <time>2019-06-16T14:17:04.956Z</time>
      </trkpt>
      <trkpt lat="50.42618" lon="1.95949">
        <ele>101.011307</ele>
        <time>2019-06-16T14:18:30.399Z</time>
      </trkpt>
      <trkpt lat="50.4253" lon="1.96515">
        <ele>103.716078</ele>
        <time>2019-06-16T14:20:13.436Z</time>
      </trkpt>
      <trkpt lat="50.425" lon="1.9679">
        <ele>102.470502</ele>
        <time>2019-06-16T14:20:50.901Z</time>
      </trkpt>
      <trkpt lat="50.42483" lon="1.96931">
        <ele>101.258549</ele>
        <time>2019-06-16T14:21:08.562Z</time>
      </trkpt>
      <trkpt lat="50.42456" lon="1.97351">
        <ele>98.506704</ele>
        <time>2019-06-16T14:22:02.760Z</time>
      </trkpt>
      <trkpt lat="50.42454" lon="1.97391">
        <ele>98.426088</ele>
        <time>2019-06-16T14:22:10.351Z</time>
      </trkpt>
      <trkpt lat="50.42368" lon="1.9758">
        <ele>98.514976</ele>
        <time>2019-06-16T14:22:54.435Z</time>
      </trkpt>
      <trkpt lat="50.42186" lon="1.98133">
        <ele>93.845309</ele>
        <time>2019-06-16T14:24:15.672Z</time>
      </trkpt>
      <trkpt lat="50.42123" lon="1.98375">
        <ele>87.172642</ele>
        <time>2019-06-16T14:24:44.391Z</time>
      </trkpt>
      <trkpt lat="50.42068" lon="1.98455">
        <ele>83.022494</ele>
        <time>2019-06-16T14:24:56.655Z</time>
      </trkpt>
      <trkpt lat="50.41865" lon="1.987">
        <ele>62.374983</ele>
        <time>2019-06-16T14:25:36.057Z</time>
      </trkpt>
      <trkpt lat="50.41853" lon="1.98717">
        <ele>60.977364</ele>
        <time>2019-06-16T14:25:38.396Z</time>
      </trkpt>
      <trkpt lat="50.41845" lon="1.98738">
        <ele>59.568903</ele>
        <time>2019-06-16T14:25:40.765Z</time>
      </trkpt>
      <trkpt lat="50.41796" lon="1.98881">
        <ele>51.072815</ele>
        <time>2019-06-16T14:25:56.379Z</time>
      </trkpt>
      <trkpt lat="50.41793" lon="1.98902">
        <ele>50.034175</ele>
        <time>2019-06-16T14:25:58.395Z</time>
      </trkpt>
      <trkpt lat="50.41795" lon="1.98913">
        <ele>49.498664</ele>
        <time>2019-06-16T14:25:59.459Z</time>
      </trkpt>
      <trkpt lat="50.41829" lon="1.99029">
        <ele>43.273874</ele>
        <time>2019-06-16T14:26:12.481Z</time>
      </trkpt>
      <trkpt lat="50.41827" lon="1.99113">
        <ele>40.1089</ele>
        <time>2019-06-16T14:26:21.199Z</time>
      </trkpt>
      <trkpt lat="50.41825" lon="1.99118">
        <ele>39.931851</ele>
        <time>2019-06-16T14:26:21.783Z</time>
      </trkpt>
      <trkpt lat="50.41836" lon="1.99121">
        <ele>39.43877</ele>
        <time>2019-06-16T14:26:23.748Z</time>
      </trkpt>
      <trkpt lat="50.41833" lon="1.99157">
        <ele>38.398666</ele>
        <time>2019-06-16T14:26:30.601Z</time>
      </trkpt>
      <trkpt lat="50.41822" lon="1.99229">
        <ele>36.301171</ele>
        <time>2019-06-16T14:26:44.715Z</time>
      </trkpt>
      <trkpt lat="50.41791" lon="1.99318">
        <ele>33.413353</ele>
        <time>2019-06-16T14:27:04.038Z</time>
      </trkpt>
      <trkpt lat="50.41786" lon="1.9933">
        <ele>33.200807</ele>
        <time>2019-06-16T14:27:06.843Z</time>
      </trkpt>
      <trkpt lat="50.41784" lon="1.99341">
        <ele>33.022972</ele>
        <time>2019-06-16T14:27:08.183Z</time>
      </trkpt>
      <trkpt lat="50.41775" lon="1.99358">
        <ele>32.699751</ele>
        <time>2019-06-16T14:27:10.636Z</time>
      </trkpt>
      <trkpt lat="50.4177" lon="1.9935">
        <ele>32.536166</ele>
        <time>2019-06-16T14:27:11.886Z</time>
      </trkpt>
      <trkpt lat="50.41737" lon="1.99324">
        <ele>31.665625</ele>
        <time>2019-06-16T14:27:18.719Z</time>
      </trkpt>
      <trkpt lat="50.41716" lon="1.99302">
        <ele>31.073953</ele>
        <time>2019-06-16T14:27:23.441Z</time>
      </trkpt>
      <trkpt lat="50.41688" lon="1.99295">
        <ele>30.400837</ele>
        <time>2019-06-16T14:27:28.786Z</time>
      </trkpt>
      <trkpt lat="50.41646" lon="1.99287">
        <ele>29.418062</ele>
        <time>2019-06-16T14:27:36.997Z</time>
      </trkpt>
      <trkpt lat="50.41635" lon="1.99283">
        <ele>29.189419</ele>
        <time>2019-06-16T14:27:39.377Z</time>
      </trkpt>
      <trkpt lat="50.41627" lon="1.99279">
        <ele>29.215956</ele>
        <time>2019-06-16T14:27:41.155Z</time>
      </trkpt>
      <trkpt lat="50.41619" lon="1.99274">
        <ele>29.243953</ele>
        <time>2019-06-16T14:27:42.987Z</time>
      </trkpt>
      <trkpt lat="50.4161" lon="1.99267">
        <ele>29.278163</ele>
        <time>2019-06-16T14:27:45.330Z</time>
      </trkpt>
      <trkpt lat="50.41604" lon="1.99265">
        <ele>29.297284</ele>
        <time>2019-06-16T14:27:46.616Z</time>
      </trkpt>
      <trkpt lat="50.41591" lon="1.99263">
        <ele>29.340497</ele>
        <time>2019-06-16T14:27:49.570Z</time>
      </trkpt>
      <trkpt lat="50.41576" lon="1.99265">
        <ele>29.389617</ele>
        <time>2019-06-16T14:27:53.577Z</time>
      </trkpt>
      <trkpt lat="50.4154" lon="1.99296">
        <ele>29.523195</ele>
        <time>2019-06-16T14:28:03.923Z</time>
      </trkpt>
      <trkpt lat="50.41458" lon="1.99339">
        <ele>29.930487</ele>
        <time>2019-06-16T14:28:27.931Z</time>
      </trkpt>
      <trkpt lat="50.41444" lon="1.99346">
        <ele>30.161239</ele>
        <time>2019-06-16T14:28:33.413Z</time>
      </trkpt>
      <trkpt lat="50.41352" lon="1.9939">
        <ele>31.63922</ele>
        <time>2019-06-16T14:29:02.764Z</time>
      </trkpt>
      <trkpt lat="50.41339" lon="1.99403">
        <ele>31.868298</ele>
        <time>2019-06-16T14:29:08.501Z</time>
      </trkpt>
      <trkpt lat="50.41325" lon="1.99388">
        <ele>32.134637</ele>
        <time>2019-06-16T14:29:12.973Z</time>
      </trkpt>
      <trkpt lat="50.41271" lon="1.99327">
        <ele>33.193264</ele>
        <time>2019-06-16T14:29:33.476Z</time>
      </trkpt>
      <trkpt lat="50.4124" lon="1.99293">
        <ele>33.812364</ele>
        <time>2019-06-16T14:29:44.912Z</time>
      </trkpt>
      <trkpt lat="50.41228" lon="1.99275">
        <ele>34.076414</ele>
        <time>2019-06-16T14:29:50.255Z</time>
      </trkpt>
      <trkpt lat="50.41172" lon="1.99188">
        <ele>35.363649</ele>
        <time>2019-06-16T14:30:13.202Z</time>
      </trkpt>
      <trkpt lat="50.41153" lon="1.99171">
        <ele>35.845199</ele>
        <time>2019-06-16T14:30:19.973Z</time>
      </trkpt>
      <trkpt lat="50.41083" lon="1.99235">
        <ele>37.85005</ele>
        <time>2019-06-16T14:30:47.534Z</time>
      </trkpt>
      <trkpt lat="50.41042" lon="1.99262">
        <ele>38.961173</ele>
        <time>2019-06-16T14:31:03.865Z</time>
      </trkpt>
      <trkpt lat="50.40989" lon="1.9928">
        <ele>40.513523</ele>
        <time>2019-06-16T14:31:25.100Z</time>
      </trkpt>
      <trkpt lat="50.40919" lon="1.99318">
        <ele>43.287841</ele>
        <time>2019-06-16T14:31:55.763Z</time>
      </trkpt>
      <trkpt lat="50.40886" lon="1.99359">
        <ele>44.859905</ele>
        <time>2019-06-16T14:32:13.907Z</time>
      </trkpt>
      <trkpt lat="50.40866" lon="1.99421">
        <ele>46.534498</ele>
        <time>2019-06-16T14:32:33.546Z</time>
      </trkpt>
      <trkpt lat="50.40833" lon="1.9949">
        <ele>48.576985</ele>
        <time>2019-06-16T14:32:57.522Z</time>
      </trkpt>
      <trkpt lat="50.40763" lon="1.99569">
        <ele>51.791655</ele>
        <time>2019-06-16T14:33:33.878Z</time>
      </trkpt>
      <trkpt lat="50.40735" lon="1.99634">
        <ele>53.614867</ele>
        <time>2019-06-16T14:33:53.840Z</time>
      </trkpt>
      <trkpt lat="50.4064" lon="1.99923">
        <ele>60.362656</ele>
        <time>2019-06-16T14:35:12.855Z</time>
      </trkpt>
      <trkpt lat="50.40613" lon="2.00133">
        <ele>65.785643</ele>
        <time>2019-06-16T14:36:14.001Z</time>
      </trkpt>
      <trkpt lat="50.40589" lon="2.00202">
        <ele>67.488404</ele>
        <time>2019-06-16T14:36:36.562Z</time>
      </trkpt>
      <trkpt lat="50.40567" lon="2.00265">
        <ele>68.97188</ele>
        <time>2019-06-16T14:36:56.265Z</time>
      </trkpt>
      <trkpt lat="50.40575" lon="2.00348">
        <ele>70.723042</ele>
        <time>2019-06-16T14:37:17.009Z</time>
      </trkpt>
      <trkpt lat="50.40572" lon="2.00384">
        <ele>71.477521</ele>
        <time>2019-06-16T14:37:25.769Z</time>
      </trkpt>
      <trkpt lat="50.40504" lon="2.00597">
        <ele>73.707843</ele>
        <time>2019-06-16T14:38:09.319Z</time>
      </trkpt>
      <trkpt lat="50.4049" lon="2.00701">
        <ele>74.743542</ele>
        <time>2019-06-16T14:38:28.471Z</time>
      </trkpt>
      <trkpt lat="50.40484" lon="2.00743">
        <ele>75.283617</ele>
        <time>2019-06-16T14:38:36.823Z</time>
      </trkpt>
      <trkpt lat="50.4046" lon="2.00827">
        <ele>76.453145</ele>
        <time>2019-06-16T14:38:55.799Z</time>
      </trkpt>
      <trkpt lat="50.40383" lon="2.00951">
        <ele>79.140886</ele>
        <time>2019-06-16T14:39:36.531Z</time>
      </trkpt>
      <trkpt lat="50.40297" lon="2.01061">
        <ele>82.691796</ele>
        <time>2019-06-16T14:40:19.986Z</time>
      </trkpt>
      <trkpt lat="50.40248" lon="2.01153">
        <ele>85.51148</ele>
        <time>2019-06-16T14:40:51.880Z</time>
      </trkpt>
      <trkpt lat="50.40163" lon="2.0149">
        <ele>94.701496</ele>
        <time>2019-06-16T14:42:33.262Z</time>
      </trkpt>
      <trkpt lat="50.4016" lon="2.01636">
        <ele>98.349024</ele>
        <time>2019-06-16T14:43:13.669Z</time>
      </trkpt>
      <trkpt lat="50.40201" lon="2.02063">
        <ele>106.838694</ele>
        <time>2019-06-16T14:45:01.133Z</time>
      </trkpt>
      <trkpt lat="50.40275" lon="2.02369">
        <ele>111.788233</ele>
        <time>2019-06-16T14:46:11.850Z</time>
      </trkpt>
      <trkpt lat="50.40275" lon="2.02369">
        <ele>111.788233</ele>
        <time>2019-06-16T14:46:12.170Z</time>
      </trkpt>
      <trkpt lat="50.40289" lon="2.0255">
        <ele>113.984486</ele>
        <time>2019-06-16T14:46:50.321Z</time>
      </trkpt>
      <trkpt lat="50.40268" lon="2.02706">
        <ele>115.751764</ele>
        <time>2019-06-16T14:47:22.000Z</time>
      </trkpt>
      <trkpt lat="50.40272" lon="2.02818">
        <ele>116.830629</ele>
        <time>2019-06-16T14:47:43.351Z</time>
      </trkpt>
      <trkpt lat="50.40297" lon="2.03022">
        <ele>118.819579</ele>
        <time>2019-06-16T14:48:24.102Z</time>
      </trkpt>
      <trkpt lat="50.40308" lon="2.03206">
        <ele>120.645138</ele>
        <time>2019-06-16T14:49:01.238Z</time>
      </trkpt>
      <trkpt lat="50.40291" lon="2.03344">
        <ele>121.974929</ele>
        <time>2019-06-16T14:49:28.113Z</time>
      </trkpt>
      <trkpt lat="50.40322" lon="2.03481">
        <ele>123.312212</ele>
        <time>2019-06-16T14:49:55.669Z</time>
      </trkpt>
      <trkpt lat="50.40326" lon="2.03496">
        <ele>123.462467</ele>
        <time>2019-06-16T14:49:59.208Z</time>
      </trkpt>
      <trkpt lat="50.40407" lon="2.03444">
        <ele>124.626915</ele>
        <time>2019-06-16T14:50:25.821Z</time>
      </trkpt>
      <trkpt lat="50.40423" lon="2.03542">
        <ele>125.447688</ele>
        <time>2019-06-16T14:50:45.971Z</time>
      </trkpt>
      <trkpt lat="50.40528" lon="2.044">
        <ele>128.489258</ele>
        <time>2019-06-16T14:53:11.092Z</time>
      </trkpt>
      <trkpt lat="50.40527" lon="2.04422">
        <ele>128.514642</ele>
        <time>2019-06-16T14:53:14.014Z</time>
      </trkpt>
      <trkpt lat="50.40525" lon="2.04439">
        <ele>128.535479</ele>
        <time>2019-06-16T14:53:16.469Z</time>
      </trkpt>
      <trkpt lat="50.40422" lon="2.04397">
        <ele>127.392981</ele>
        <time>2019-06-16T14:53:37.610Z</time>
      </trkpt>
      <trkpt lat="50.40349" lon="2.04375">
        <ele>126.420447</ele>
        <time>2019-06-16T14:53:51.520Z</time>
      </trkpt>
      <trkpt lat="50.40237" lon="2.0437">
        <ele>124.584876</ele>
        <time>2019-06-16T14:54:12.372Z</time>
      </trkpt>
      <trkpt lat="50.40128" lon="2.04367">
        <ele>122.499812</ele>
        <time>2019-06-16T14:54:32.986Z</time>
      </trkpt>
      <trkpt lat="50.40128" lon="2.04384">
        <ele>122.199546</ele>
        <time>2019-06-16T14:54:36.434Z</time>
      </trkpt>
      <trkpt lat="50.40207" lon="2.05546">
        <ele>100.702975</ele>
        <time>2019-06-16T14:57:34.946Z</time>
      </trkpt>
      <trkpt lat="50.40207" lon="2.05564">
        <ele>100.239237</ele>
        <time>2019-06-16T14:57:37.204Z</time>
      </trkpt>
      <trkpt lat="50.40212" lon="2.05596">
        <ele>99.342325</ele>
        <time>2019-06-16T14:57:43.540Z</time>
      </trkpt>
      <trkpt lat="50.40213" lon="2.05601">
        <ele>99.207857</ele>
        <time>2019-06-16T14:57:44.329Z</time>
      </trkpt>
      <trkpt lat="50.4032" lon="2.06114">
        <ele>84.857776</ele>
        <time>2019-06-16T14:59:25.170Z</time>
      </trkpt>
      <trkpt lat="50.40357" lon="2.06268">
        <ele>81.536128</ele>
        <time>2019-06-16T14:59:58.929Z</time>
      </trkpt>
      <trkpt lat="50.40444" lon="2.06454">
        <ele>79.222413</ele>
        <time>2019-06-16T15:00:48.236Z</time>
      </trkpt>
      <trkpt lat="50.40428" lon="2.06479">
        <ele>78.879035</ele>
        <time>2019-06-16T15:00:55.644Z</time>
      </trkpt>
      <trkpt lat="50.40452" lon="2.06629">
        <ele>76.940143</ele>
        <time>2019-06-16T15:01:21.070Z</time>
      </trkpt>
      <trkpt lat="50.40477" lon="2.06789">
        <ele>74.6125</ele>
        <time>2019-06-16T15:01:47.008Z</time>
      </trkpt>
      <trkpt lat="50.40615" lon="2.07649">
        <ele>56.807377</ele>
        <time>2019-06-16T15:03:59.570Z</time>
      </trkpt>
      <trkpt lat="50.40603" lon="2.0767">
        <ele>56.399013</ele>
        <time>2019-06-16T15:04:02.857Z</time>
      </trkpt>
      <trkpt lat="50.40594" lon="2.07686">
        <ele>56.090771</ele>
        <time>2019-06-16T15:04:05.195Z</time>
      </trkpt>
      <trkpt lat="50.40357" lon="2.0808">
        <ele>49.273046</ele>
        <time>2019-06-16T15:05:09.530Z</time>
      </trkpt>
      <trkpt lat="50.40305" lon="2.08202">
        <ele>47.52249</ele>
        <time>2019-06-16T15:05:27.019Z</time>
      </trkpt>
      <trkpt lat="50.40215" lon="2.08536">
        <ele>43.308232</ele>
        <time>2019-06-16T15:06:10.038Z</time>
      </trkpt>
      <trkpt lat="50.40195" lon="2.08607">
        <ele>42.422516</ele>
        <time>2019-06-16T15:06:19.252Z</time>
      </trkpt>
      <trkpt lat="50.40164" lon="2.0873">
        <ele>40.916666</ele>
        <time>2019-06-16T15:06:35.000Z</time>
      </trkpt>
      <trkpt lat="50.40136" lon="2.08815">
        <ele>39.759014</ele>
        <time>2019-06-16T15:06:46.322Z</time>
      </trkpt>
      <trkpt lat="50.40084" lon="2.08912">
        <ele>38.190662</ele>
        <time>2019-06-16T15:07:01.119Z</time>
      </trkpt>
      <trkpt lat="50.40066" lon="2.08958">
        <ele>37.524118</ele>
        <time>2019-06-16T15:07:07.442Z</time>
      </trkpt>
      <trkpt lat="50.40063" lon="2.08969">
        <ele>37.371595</ele>
        <time>2019-06-16T15:07:08.881Z</time>
      </trkpt>
      <trkpt lat="50.40061" lon="2.08996">
        <ele>37.049045</ele>
        <time>2019-06-16T15:07:12.043Z</time>
      </trkpt>
      <trkpt lat="50.40061" lon="2.09022">
        <ele>36.814224</ele>
        <time>2019-06-16T15:07:15.246Z</time>
      </trkpt>
      <trkpt lat="50.40066" lon="2.09146">
        <ele>35.705712</ele>
        <time>2019-06-16T15:07:30.247Z</time>
      </trkpt>
      <trkpt lat="50.4007" lon="2.09241">
        <ele>34.848702</ele>
        <time>2019-06-16T15:07:42.042Z</time>
      </trkpt>
      <trkpt lat="50.40078" lon="2.09273">
        <ele>34.546603</ele>
        <time>2019-06-16T15:07:46.423Z</time>
      </trkpt>
      <trkpt lat="50.40078" lon="2.09287">
        <ele>34.489693</ele>
        <time>2019-06-16T15:07:48.128Z</time>
      </trkpt>
      <trkpt lat="50.40079" lon="2.09297">
        <ele>34.444114</ele>
        <time>2019-06-16T15:07:49.494Z</time>
      </trkpt>
      <trkpt lat="50.40061" lon="2.09344">
        <ele>34.205431</ele>
        <time>2019-06-16T15:07:56.699Z</time>
      </trkpt>
      <trkpt lat="50.39966" lon="2.09526">
        <ele>33.263385</ele>
        <time>2019-06-16T15:08:27.707Z</time>
      </trkpt>
      <trkpt lat="50.39959" lon="2.09539">
        <ele>33.22843</ele>
        <time>2019-06-16T15:08:29.997Z</time>
      </trkpt>
      <trkpt lat="50.39951" lon="2.0956">
        <ele>33.178181</ele>
        <time>2019-06-16T15:08:33.330Z</time>
      </trkpt>
      <trkpt lat="50.39947" lon="2.09572">
        <ele>33.151439</ele>
        <time>2019-06-16T15:08:35.075Z</time>
      </trkpt>
      <trkpt lat="50.3994" lon="2.0961">
        <ele>33.070736</ele>
        <time>2019-06-16T15:08:40.481Z</time>
      </trkpt>
      <trkpt lat="50.39937" lon="2.09622">
        <ele>33.044351</ele>
        <time>2019-06-16T15:08:42.223Z</time>
      </trkpt>
      <trkpt lat="50.39931" lon="2.09641">
        <ele>33.003119</ele>
        <time>2019-06-16T15:08:45.001Z</time>
      </trkpt>
      <trkpt lat="50.39924" lon="2.09656">
        <ele>32.964091</ele>
        <time>2019-06-16T15:08:47.674Z</time>
      </trkpt>
      <trkpt lat="50.39917" lon="2.09666">
        <ele>32.934534</ele>
        <time>2019-06-16T15:08:49.659Z</time>
      </trkpt>
      <trkpt lat="50.39899" lon="2.09691">
        <ele>32.858584</ele>
        <time>2019-06-16T15:08:54.872Z</time>
      </trkpt>
      <trkpt lat="50.39867" lon="2.09732">
        <ele>32.792148</ele>
        <time>2019-06-16T15:09:04.135Z</time>
      </trkpt>
      <trkpt lat="50.39857" lon="2.09762">
        <ele>32.868508</ele>
        <time>2019-06-16T15:09:08.983Z</time>
      </trkpt>
      <trkpt lat="50.39881" lon="2.0992">
        <ele>33.238994</ele>
        <time>2019-06-16T15:09:33.255Z</time>
      </trkpt>
      <trkpt lat="50.39893" lon="2.09995">
        <ele>33.44413</ele>
        <time>2019-06-16T15:09:46.089Z</time>
      </trkpt>
      <trkpt lat="50.39894" lon="2.10003">
        <ele>33.495327</ele>
        <time>2019-06-16T15:09:47.267Z</time>
      </trkpt>
      <trkpt lat="50.39888" lon="2.10028">
        <ele>33.682238</ele>
        <time>2019-06-16T15:09:51.894Z</time>
      </trkpt>
      <trkpt lat="50.39874" lon="2.10052">
        <ele>33.901022</ele>
        <time>2019-06-16T15:09:57.695Z</time>
      </trkpt>
      <trkpt lat="50.39873" lon="2.10074">
        <ele>34.04597</ele>
        <time>2019-06-16T15:10:01.442Z</time>
      </trkpt>
      <trkpt lat="50.39884" lon="2.10112">
        <ele>34.331794</ele>
        <time>2019-06-16T15:10:09.235Z</time>
      </trkpt>
      <trkpt lat="50.39891" lon="2.10139">
        <ele>34.527359</ele>
        <time>2019-06-16T15:10:14.852Z</time>
      </trkpt>
      <trkpt lat="50.39896" lon="2.10153">
        <ele>34.639197</ele>
        <time>2019-06-16T15:10:17.691Z</time>
      </trkpt>
      <trkpt lat="50.39897" lon="2.10166">
        <ele>34.730056</ele>
        <time>2019-06-16T15:10:20.020Z</time>
      </trkpt>
      <trkpt lat="50.39904" lon="2.1019">
        <ele>34.907728</ele>
        <time>2019-06-16T15:10:25.057Z</time>
      </trkpt>
      <trkpt lat="50.39907" lon="2.10192">
        <ele>34.9441</ele>
        <time>2019-06-16T15:10:26.090Z</time>
      </trkpt>
      <trkpt lat="50.39922" lon="2.10213">
        <ele>35.161071</ele>
        <time>2019-06-16T15:10:31.371Z</time>
      </trkpt>
      <trkpt lat="50.39928" lon="2.10219">
        <ele>35.231453</ele>
        <time>2019-06-16T15:10:33.348Z</time>
      </trkpt>
      <trkpt lat="50.39928" lon="2.10219">
        <ele>35.231453</ele>
        <time>2019-06-16T15:10:33.396Z</time>
      </trkpt>
      <trkpt lat="50.39936" lon="2.10244">
        <ele>35.352562</ele>
        <time>2019-06-16T15:10:37.553Z</time>
      </trkpt>
      <trkpt lat="50.3994" lon="2.10258">
        <ele>35.379075</ele>
        <time>2019-06-16T15:10:40.070Z</time>
      </trkpt>
      <trkpt lat="50.39955" lon="2.10309">
        <ele>35.477849</ele>
        <time>2019-06-16T15:10:49.281Z</time>
      </trkpt>
      <trkpt lat="50.39963" lon="2.10326">
        <ele>35.514661</ele>
        <time>2019-06-16T15:10:53.245Z</time>
      </trkpt>
      <trkpt lat="50.39973" lon="2.1035">
        <ele>35.566613</ele>
        <time>2019-06-16T15:10:57.411Z</time>
      </trkpt>
      <trkpt lat="50.40005" lon="2.1042">
        <ele>35.717519</ele>
        <time>2019-06-16T15:11:10.574Z</time>
      </trkpt>
      <trkpt lat="50.4001" lon="2.10421">
        <ele>35.730148</ele>
        <time>2019-06-16T15:11:11.460Z</time>
      </trkpt>
      <trkpt lat="50.40017" lon="2.10423">
        <ele>35.750667</ele>
        <time>2019-06-16T15:11:12.899Z</time>
      </trkpt>
      <trkpt lat="50.40031" lon="2.10424">
        <ele>35.787412</ele>
        <time>2019-06-16T15:11:16.018Z</time>
      </trkpt>
      <trkpt lat="50.40089" lon="2.10396">
        <ele>35.732528</ele>
        <time>2019-06-16T15:11:28.549Z</time>
      </trkpt>
      <trkpt lat="50.40111" lon="2.10369">
        <ele>35.676833</ele>
        <time>2019-06-16T15:11:34.585Z</time>
      </trkpt>
      <trkpt lat="50.40144" lon="2.10335">
        <ele>35.599827</ele>
        <time>2019-06-16T15:11:42.783Z</time>
      </trkpt>
      <trkpt lat="50.40164" lon="2.10324">
        <ele>35.558768</ele>
        <time>2019-06-16T15:11:47.410Z</time>
      </trkpt>
      <trkpt lat="50.40208" lon="2.10307">
        <ele>35.500685</ele>
        <time>2019-06-16T15:11:57.862Z</time>
      </trkpt>
      <trkpt lat="50.40232" lon="2.10304">
        <ele>35.894947</ele>
        <time>2019-06-16T15:12:03.575Z</time>
      </trkpt>
      <trkpt lat="50.40239" lon="2.10307">
        <ele>36.013042</ele>
        <time>2019-06-16T15:12:05.496Z</time>
      </trkpt>
      <trkpt lat="50.40252" lon="2.10323">
        <ele>36.277585</ele>
        <time>2019-06-16T15:12:09.649Z</time>
      </trkpt>
      <trkpt lat="50.40274" lon="2.10385">
        <ele>37.015826</ele>
        <time>2019-06-16T15:12:22.901Z</time>
      </trkpt>
      <trkpt lat="50.40328" lon="2.10445">
        <ele>38.092989</ele>
        <time>2019-06-16T15:12:44.859Z</time>
      </trkpt>
      <trkpt lat="50.40342" lon="2.10462">
        <ele>38.390253</ele>
        <time>2019-06-16T15:12:51.487Z</time>
      </trkpt>
      <trkpt lat="50.40358" lon="2.10539">
        <ele>40.689042</ele>
        <time>2019-06-16T15:13:14.559Z</time>
      </trkpt>
      <trkpt lat="50.40381" lon="2.1062">
        <ele>43.267236</ele>
        <time>2019-06-16T15:13:41.967Z</time>
      </trkpt>
      <trkpt lat="50.40395" lon="2.10709">
        <ele>45.926946</ele>
        <time>2019-06-16T15:14:16.654Z</time>
      </trkpt>
      <trkpt lat="50.40437" lon="2.10879">
        <ele>53.920634</ele>
        <time>2019-06-16T15:15:31.354Z</time>
      </trkpt>
      <trkpt lat="50.40441" lon="2.10882">
        <ele>54.213401</ele>
        <time>2019-06-16T15:15:35.460Z</time>
      </trkpt>
      <trkpt lat="50.4045" lon="2.10894">
        <ele>55.059632</ele>
        <time>2019-06-16T15:15:44.084Z</time>
      </trkpt>
      <trkpt lat="50.40482" lon="2.10944">
        <ele>58.310354</ele>
        <time>2019-06-16T15:16:13.082Z</time>
      </trkpt>
      <trkpt lat="50.40517" lon="2.11041">
        <ele>62.759719</ele>
        <time>2019-06-16T15:17:00.394Z</time>
      </trkpt>
      <trkpt lat="50.40525" lon="2.11048">
        <ele>63.270261</ele>
        <time>2019-06-16T15:17:05.164Z</time>
      </trkpt>
      <trkpt lat="50.40566" lon="2.11064">
        <ele>65.817198</ele>
        <time>2019-06-16T15:17:32.696Z</time>
      </trkpt>
      <trkpt lat="50.40722" lon="2.11177">
        <ele>73.852693</ele>
        <time>2019-06-16T15:19:00.410Z</time>
      </trkpt>
      <trkpt lat="50.40746" lon="2.11173">
        <ele>74.761942</ele>
        <time>2019-06-16T15:19:11.705Z</time>
      </trkpt>
      <trkpt lat="50.40791" lon="2.11135">
        <ele>76.649856</ele>
        <time>2019-06-16T15:19:34.203Z</time>
      </trkpt>
      <trkpt lat="50.40813" lon="2.11126">
        <ele>77.20908</ele>
        <time>2019-06-16T15:19:44.067Z</time>
      </trkpt>
      <trkpt lat="50.40848" lon="2.1118">
        <ele>78.05619</ele>
        <time>2019-06-16T15:20:03.931Z</time>
      </trkpt>
      <trkpt lat="50.40872" lon="2.11197">
        <ele>78.496469</ele>
        <time>2019-06-16T15:20:13.759Z</time>
      </trkpt>
      <trkpt lat="50.40931" lon="2.11239">
        <ele>79.613683</ele>
        <time>2019-06-16T15:20:37.340Z</time>
      </trkpt>
      <trkpt lat="50.4097" lon="2.1126">
        <ele>80.072869</ele>
        <time>2019-06-16T15:20:51.457Z</time>
      </trkpt>
      <trkpt lat="50.41017" lon="2.11266">
        <ele>80.184448</ele>
        <time>2019-06-16T15:21:06.508Z</time>
      </trkpt>
      <trkpt lat="50.41049" lon="2.11292">
        <ele>80.272126</ele>
        <time>2019-06-16T15:21:17.468Z</time>
      </trkpt>
      <trkpt lat="50.41092" lon="2.11355">
        <ele>80.413144</ele>
        <time>2019-06-16T15:21:34.470Z</time>
      </trkpt>
      <trkpt lat="50.41129" lon="2.11398">
        <ele>80.416641</ele>
        <time>2019-06-16T15:21:47.336Z</time>
      </trkpt>
      <trkpt lat="50.41166" lon="2.1147">
        <ele>80.304966</ele>
        <time>2019-06-16T15:22:03.822Z</time>
      </trkpt>
      <trkpt lat="50.41251" lon="2.11662">
        <ele>80.580758</ele>
        <time>2019-06-16T15:22:47.365Z</time>
      </trkpt>
      <trkpt lat="50.41265" lon="2.11713">
        <ele>80.894516</ele>
        <time>2019-06-16T15:22:59.207Z</time>
      </trkpt>
      <trkpt lat="50.41264" lon="2.11819">
        <ele>81.481878</ele>
        <time>2019-06-16T15:23:23.601Z</time>
      </trkpt>
      <trkpt lat="50.41286" lon="2.11932">
        <ele>82.781468</ele>
        <time>2019-06-16T15:23:51.492Z</time>
      </trkpt>
      <trkpt lat="50.41291" lon="2.11946">
        <ele>82.995358</ele>
        <time>2019-06-16T15:23:55.893Z</time>
      </trkpt>
      <trkpt lat="50.41291" lon="2.11956">
        <ele>83.134099</ele>
        <time>2019-06-16T15:23:57.880Z</time>
      </trkpt>
      <trkpt lat="50.41316" lon="2.12175">
        <ele>85.89333</ele>
        <time>2019-06-16T15:24:48.134Z</time>
      </trkpt>
      <trkpt lat="50.41315" lon="2.12189">
        <ele>86.000294</ele>
        <time>2019-06-16T15:24:50.980Z</time>
      </trkpt>
      <trkpt lat="50.41315" lon="2.12203">
        <ele>86.118462</ele>
        <time>2019-06-16T15:24:54.740Z</time>
      </trkpt>
      <trkpt lat="50.4128" lon="2.12379">
        <ele>87.589388</ele>
        <time>2019-06-16T15:25:30.326Z</time>
      </trkpt>
      <trkpt lat="50.41276" lon="2.1242">
        <ele>87.406085</ele>
        <time>2019-06-16T15:25:36.751Z</time>
      </trkpt>
      <trkpt lat="50.41277" lon="2.12576">
        <ele>84.279371</ele>
        <time>2019-06-16T15:25:55.063Z</time>
      </trkpt>
      <trkpt lat="50.41261" lon="2.12673">
        <ele>82.269766</ele>
        <time>2019-06-16T15:26:09.109Z</time>
      </trkpt>
      <trkpt lat="50.41251" lon="2.12719">
        <ele>80.724777</ele>
        <time>2019-06-16T15:26:15.792Z</time>
      </trkpt>
      <trkpt lat="50.41248" lon="2.12816">
        <ele>77.430664</ele>
        <time>2019-06-16T15:26:28.912Z</time>
      </trkpt>
      <trkpt lat="50.41218" lon="2.12916">
        <ele>73.6816</ele>
        <time>2019-06-16T15:26:44.111Z</time>
      </trkpt>
      <trkpt lat="50.41211" lon="2.12966">
        <ele>72.28192</ele>
        <time>2019-06-16T15:26:51.414Z</time>
      </trkpt>
      <trkpt lat="50.41195" lon="2.12997">
        <ele>71.671562</ele>
        <time>2019-06-16T15:26:57.371Z</time>
      </trkpt>
      <trkpt lat="50.41218" lon="2.13164">
        <ele>69.094825</ele>
        <time>2019-06-16T15:27:24.392Z</time>
      </trkpt>
      <trkpt lat="50.41232" lon="2.13296">
        <ele>68.579738</ele>
        <time>2019-06-16T15:27:47.960Z</time>
      </trkpt>
      <trkpt lat="50.41244" lon="2.13364">
        <ele>68.831885</ele>
        <time>2019-06-16T15:28:02.578Z</time>
      </trkpt>
      <trkpt lat="50.41252" lon="2.13405">
        <ele>68.986074</ele>
        <time>2019-06-16T15:28:11.933Z</time>
      </trkpt>
      <trkpt lat="50.41264" lon="2.13429">
        <ele>69.095661</ele>
        <time>2019-06-16T15:28:20.735Z</time>
      </trkpt>
      <trkpt lat="50.41272" lon="2.13467">
        <ele>69.237286</ele>
        <time>2019-06-16T15:28:32.138Z</time>
      </trkpt>
      <trkpt lat="50.41278" lon="2.13498">
        <ele>69.505891</ele>
        <time>2019-06-16T15:28:41.467Z</time>
      </trkpt>
      <trkpt lat="50.41286" lon="2.1353">
        <ele>69.952975</ele>
        <time>2019-06-16T15:28:51.657Z</time>
      </trkpt>
      <trkpt lat="50.41314" lon="2.13642">
        <ele>71.567322</ele>
        <time>2019-06-16T15:29:28.487Z</time>
      </trkpt>
      <trkpt lat="50.41346" lon="2.13688">
        <ele>72.487622</ele>
        <time>2019-06-16T15:29:50.359Z</time>
      </trkpt>
      <trkpt lat="50.41384" lon="2.13843">
        <ele>73.995175</ele>
        <time>2019-06-16T15:30:41.158Z</time>
      </trkpt>
      <trkpt lat="50.41406" lon="2.13933">
        <ele>74.727304</ele>
        <time>2019-06-16T15:31:07.159Z</time>
      </trkpt>
      <trkpt lat="50.41409" lon="2.14115">
        <ele>74.10444</ele>
        <time>2019-06-16T15:31:48.765Z</time>
      </trkpt>
      <trkpt lat="50.41386" lon="2.14195">
        <ele>73.280642</ele>
        <time>2019-06-16T15:32:07.313Z</time>
      </trkpt>
      <trkpt lat="50.41387" lon="2.1432">
        <ele>71.093792</ele>
        <time>2019-06-16T15:32:33.086Z</time>
      </trkpt>
      <trkpt lat="50.41399" lon="2.14546">
        <ele>64.333584</ele>
        <time>2019-06-16T15:33:14.556Z</time>
      </trkpt>
      <trkpt lat="50.41401" lon="2.14586">
        <ele>62.679683</ele>
        <time>2019-06-16T15:33:21.986Z</time>
      </trkpt>
      <trkpt lat="50.4139" lon="2.14603">
        <ele>61.660981</ele>
        <time>2019-06-16T15:33:24.282Z</time>
      </trkpt>
      <trkpt lat="50.41379" lon="2.14623">
        <ele>60.5765</ele>
        <time>2019-06-16T15:33:26.999Z</time>
      </trkpt>
      <trkpt lat="50.41374" lon="2.14644">
        <ele>59.613729</ele>
        <time>2019-06-16T15:33:29.211Z</time>
      </trkpt>
      <trkpt lat="50.4137" lon="2.1475">
        <ele>55.115976</ele>
        <time>2019-06-16T15:33:39.817Z</time>
      </trkpt>
      <trkpt lat="50.41383" lon="2.14854">
        <ele>51.233423</ele>
        <time>2019-06-16T15:33:50.490Z</time>
      </trkpt>
      <trkpt lat="50.41415" lon="2.14944">
        <ele>48.601048</ele>
        <time>2019-06-16T15:34:01.719Z</time>
      </trkpt>
      <trkpt lat="50.41501" lon="2.151">
        <ele>44.359914</ele>
        <time>2019-06-16T15:34:25.899Z</time>
      </trkpt>
      <trkpt lat="50.41509" lon="2.15118">
        <ele>44.162055</ele>
        <time>2019-06-16T15:34:28.552Z</time>
      </trkpt>
      <trkpt lat="50.41524" lon="2.15134">
        <ele>43.90445</ele>
        <time>2019-06-16T15:34:32.110Z</time>
      </trkpt>
      <trkpt lat="50.41549" lon="2.15188">
        <ele>43.285748</ele>
        <time>2019-06-16T15:34:40.621Z</time>
      </trkpt>
      <trkpt lat="50.41578" lon="2.15236">
        <ele>42.688051</ele>
        <time>2019-06-16T15:34:48.970Z</time>
      </trkpt>
      <trkpt lat="50.41606" lon="2.15294">
        <ele>42.309208</ele>
        <time>2019-06-16T15:34:58.377Z</time>
      </trkpt>
      <trkpt lat="50.41615" lon="2.15307">
        <ele>42.284013</ele>
        <time>2019-06-16T15:35:01.159Z</time>
      </trkpt>
      <trkpt lat="50.41682" lon="2.15407">
        <ele>42.099949</ele>
        <time>2019-06-16T15:35:21.402Z</time>
      </trkpt>
      <trkpt lat="50.41758" lon="2.15536">
        <ele>42.007756</ele>
        <time>2019-06-16T15:35:47.043Z</time>
      </trkpt>
      <trkpt lat="50.41769" lon="2.15545">
        <ele>42.009712</ele>
        <time>2019-06-16T15:35:49.755Z</time>
      </trkpt>
      <trkpt lat="50.4178" lon="2.15545">
        <ele>42.011649</ele>
        <time>2019-06-16T15:35:52.247Z</time>
      </trkpt>
      <trkpt lat="50.41802" lon="2.15558">
        <ele>42.015429</ele>
        <time>2019-06-16T15:35:57.422Z</time>
      </trkpt>
      <trkpt lat="50.41834" lon="2.15589">
        <ele>42.021671</ele>
        <time>2019-06-16T15:36:05.697Z</time>
      </trkpt>
      <trkpt lat="50.41891" lon="2.15631">
        <ele>42.061929</ele>
        <time>2019-06-16T15:36:19.755Z</time>
      </trkpt>
      <trkpt lat="50.41903" lon="2.15629">
        <ele>42.076298</ele>
        <time>2019-06-16T15:36:22.270Z</time>
      </trkpt>
      <trkpt lat="50.41965" lon="2.1565">
        <ele>42.154683</ele>
        <time>2019-06-16T15:36:37.096Z</time>
      </trkpt>
      <trkpt lat="50.42009" lon="2.15675">
        <ele>42.212886</ele>
        <time>2019-06-16T15:36:48.010Z</time>
      </trkpt>
      <trkpt lat="50.42016" lon="2.15679">
        <ele>42.221185</ele>
        <time>2019-06-16T15:36:49.560Z</time>
      </trkpt>
      <trkpt lat="50.42028" lon="2.15686">
        <ele>42.237316</ele>
        <time>2019-06-16T15:36:52.893Z</time>
      </trkpt>
      <trkpt lat="50.42252" lon="2.15822">
        <ele>42.362334</ele>
        <time>2019-06-16T15:37:47.119Z</time>
      </trkpt>
      <trkpt lat="50.42294" lon="2.15856">
        <ele>42.348391</ele>
        <time>2019-06-16T15:37:57.534Z</time>
      </trkpt>
      <trkpt lat="50.42366" lon="2.15864">
        <ele>42.327511</ele>
        <time>2019-06-16T15:38:13.269Z</time>
      </trkpt>
      <trkpt lat="50.42396" lon="2.1588">
        <ele>42.333141</ele>
        <time>2019-06-16T15:38:20.295Z</time>
      </trkpt>
      <trkpt lat="50.42473" lon="2.1596">
        <ele>42.368987</ele>
        <time>2019-06-16T15:38:41.005Z</time>
      </trkpt>
      <trkpt lat="50.42537" lon="2.16078">
        <ele>42.494227</ele>
        <time>2019-06-16T15:39:03.546Z</time>
      </trkpt>
      <trkpt lat="50.42543" lon="2.16104">
        <ele>42.546987</ele>
        <time>2019-06-16T15:39:07.586Z</time>
      </trkpt>
      <trkpt lat="50.42546" lon="2.16126">
        <ele>42.591352</ele>
        <time>2019-06-16T15:39:11.211Z</time>
      </trkpt>
      <trkpt lat="50.42554" lon="2.16186">
        <ele>42.709095</ele>
        <time>2019-06-16T15:39:20.531Z</time>
      </trkpt>
      <trkpt lat="50.42569" lon="2.16254">
        <ele>42.846418</ele>
        <time>2019-06-16T15:39:31.452Z</time>
      </trkpt>
      <trkpt lat="50.42573" lon="2.16276">
        <ele>42.891649</ele>
        <time>2019-06-16T15:39:34.894Z</time>
      </trkpt>
      <trkpt lat="50.42576" lon="2.16287">
        <ele>42.914124</ele>
        <time>2019-06-16T15:39:36.949Z</time>
      </trkpt>
      <trkpt lat="50.42626" lon="2.16426">
        <ele>43.351511</ele>
        <time>2019-06-16T15:40:01.760Z</time>
      </trkpt>
      <trkpt lat="50.42663" lon="2.16605">
        <ele>43.865885</ele>
        <time>2019-06-16T15:40:31.451Z</time>
      </trkpt>
      <trkpt lat="50.42687" lon="2.16688">
        <ele>44.093271</ele>
        <time>2019-06-16T15:40:45.516Z</time>
      </trkpt>
      <trkpt lat="50.42695" lon="2.16718">
        <ele>44.177228</ele>
        <time>2019-06-16T15:40:50.493Z</time>
      </trkpt>
      <trkpt lat="50.42711" lon="2.16779">
        <ele>44.340902</ele>
        <time>2019-06-16T15:41:00.534Z</time>
      </trkpt>
      <trkpt lat="50.42728" lon="2.16829">
        <ele>44.463309</ele>
        <time>2019-06-16T15:41:09.199Z</time>
      </trkpt>
      <trkpt lat="50.42775" lon="2.17046">
        <ele>44.763206</ele>
        <time>2019-06-16T15:41:43.288Z</time>
      </trkpt>
      <trkpt lat="50.42775" lon="2.17199">
        <ele>44.908796</ele>
        <time>2019-06-16T15:42:05.471Z</time>
      </trkpt>
      <trkpt lat="50.42776" lon="2.17207">
        <ele>44.915319</ele>
        <time>2019-06-16T15:42:06.584Z</time>
      </trkpt>
      <trkpt lat="50.42779" lon="2.17236">
        <ele>44.939853</ele>
        <time>2019-06-16T15:42:11.020Z</time>
      </trkpt>
      <trkpt lat="50.42787" lon="2.17321">
        <ele>45.012649</ele>
        <time>2019-06-16T15:42:24.332Z</time>
      </trkpt>
      <trkpt lat="50.4282" lon="2.17489">
        <ele>45.256592</ele>
        <time>2019-06-16T15:42:51.496Z</time>
      </trkpt>
      <trkpt lat="50.42826" lon="2.17522">
        <ele>45.311188</ele>
        <time>2019-06-16T15:42:57.041Z</time>
      </trkpt>
      <trkpt lat="50.4285" lon="2.17627">
        <ele>45.48553</ele>
        <time>2019-06-16T15:43:14.484Z</time>
      </trkpt>
      <trkpt lat="50.42869" lon="2.17765">
        <ele>45.726</ele>
        <time>2019-06-16T15:43:36.344Z</time>
      </trkpt>
      <trkpt lat="50.42916" lon="2.17915">
        <ele>46.014169</ele>
        <time>2019-06-16T15:44:02.667Z</time>
      </trkpt>
      <trkpt lat="50.42949" lon="2.18076">
        <ele>46.322827</ele>
        <time>2019-06-16T15:44:29.773Z</time>
      </trkpt>
      <trkpt lat="50.4301" lon="2.18235">
        <ele>46.509862</ele>
        <time>2019-06-16T15:44:57.870Z</time>
      </trkpt>
      <trkpt lat="50.43101" lon="2.18401">
        <ele>46.612795</ele>
        <time>2019-06-16T15:45:30.166Z</time>
      </trkpt>
      <trkpt lat="50.43215" lon="2.18564">
        <ele>47.012631</ele>
        <time>2019-06-16T15:46:07.938Z</time>
      </trkpt>
      <trkpt lat="50.43305" lon="2.18628">
        <ele>47.583547</ele>
        <time>2019-06-16T15:46:33.967Z</time>
      </trkpt>
      <trkpt lat="50.43393" lon="2.18725">
        <ele>48.095257</ele>
        <time>2019-06-16T15:47:02.532Z</time>
      </trkpt>
      <trkpt lat="50.43439" lon="2.18767">
        <ele>48.09034</ele>
        <time>2019-06-16T15:47:15.487Z</time>
      </trkpt>
      <trkpt lat="50.43499" lon="2.18808">
        <ele>48.084292</ele>
        <time>2019-06-16T15:47:30.320Z</time>
      </trkpt>
      <trkpt lat="50.43538" lon="2.18831">
        <ele>48.07546</ele>
        <time>2019-06-16T15:47:39.391Z</time>
      </trkpt>
      <trkpt lat="50.43574" lon="2.1886">
        <ele>47.955801</ele>
        <time>2019-06-16T15:47:48.292Z</time>
      </trkpt>
      <trkpt lat="50.43671" lon="2.1894">
        <ele>47.63519</ele>
        <time>2019-06-16T15:48:12.308Z</time>
      </trkpt>
      <trkpt lat="50.43786" lon="2.18982">
        <ele>48.303001</ele>
        <time>2019-06-16T15:48:42.199Z</time>
      </trkpt>
      <trkpt lat="50.43866" lon="2.19026">
        <ele>49.005836</ele>
        <time>2019-06-16T15:49:06.826Z</time>
      </trkpt>
      <trkpt lat="50.43879" lon="2.19034">
        <ele>49.183666</ele>
        <time>2019-06-16T15:49:11.042Z</time>
      </trkpt>
      <trkpt lat="50.43991" lon="2.19223">
        <ele>51.632199</ele>
        <time>2019-06-16T15:50:02.323Z</time>
      </trkpt>
      <trkpt lat="50.44056" lon="2.19343">
        <ele>52.844184</ele>
        <time>2019-06-16T15:50:32.542Z</time>
      </trkpt>
      <trkpt lat="50.44075" lon="2.19372">
        <ele>53.154252</ele>
        <time>2019-06-16T15:50:39.989Z</time>
      </trkpt>
      <trkpt lat="50.44099" lon="2.19439">
        <ele>53.739711</ele>
        <time>2019-06-16T15:50:53.465Z</time>
      </trkpt>
      <trkpt lat="50.44119" lon="2.19516">
        <ele>53.976007</ele>
        <time>2019-06-16T15:51:07.026Z</time>
      </trkpt>
      <trkpt lat="50.44147" lon="2.19566">
        <ele>54.095474</ele>
        <time>2019-06-16T15:51:17.487Z</time>
      </trkpt>
      <trkpt lat="50.44217" lon="2.19648">
        <ele>54.336418</ele>
        <time>2019-06-16T15:51:36.922Z</time>
      </trkpt>
      <trkpt lat="50.44439" lon="2.19831">
        <ele>54.512516</ele>
        <time>2019-06-16T15:52:31.591Z</time>
      </trkpt>
      <trkpt lat="50.44472" lon="2.19866">
        <ele>54.76278</ele>
        <time>2019-06-16T15:52:40.762Z</time>
      </trkpt>
      <trkpt lat="50.44528" lon="2.19973">
        <ele>55.476995</ele>
        <time>2019-06-16T15:53:06.442Z</time>
      </trkpt>
      <trkpt lat="50.44557" lon="2.20032">
        <ele>56.441686</ele>
        <time>2019-06-16T15:53:21.669Z</time>
      </trkpt>
      <trkpt lat="50.44567" lon="2.20057">
        <ele>56.825365</ele>
        <time>2019-06-16T15:53:28.006Z</time>
      </trkpt>
      <trkpt lat="50.44588" lon="2.20098">
        <ele>57.498086</ele>
        <time>2019-06-16T15:53:39.312Z</time>
      </trkpt>
      <trkpt lat="50.446" lon="2.20135">
        <ele>58.039129</ele>
        <time>2019-06-16T15:53:48.446Z</time>
      </trkpt>
      <trkpt lat="50.4461" lon="2.20223">
        <ele>58.96064</ele>
        <time>2019-06-16T15:54:07.732Z</time>
      </trkpt>
      <trkpt lat="50.4464" lon="2.20334">
        <ele>59.333635</ele>
        <time>2019-06-16T15:54:29.842Z</time>
      </trkpt>
      <trkpt lat="50.44644" lon="2.20393">
        <ele>59.518037</ele>
        <time>2019-06-16T15:54:38.285Z</time>
      </trkpt>
      <trkpt lat="50.44646" lon="2.20421">
        <ele>59.604454</ele>
        <time>2019-06-16T15:54:42.056Z</time>
      </trkpt>
      <trkpt lat="50.4465" lon="2.20486">
        <ele>59.597098</ele>
        <time>2019-06-16T15:54:50.371Z</time>
      </trkpt>
      <trkpt lat="50.44656" lon="2.20573">
        <ele>58.578488</ele>
        <time>2019-06-16T15:55:00.764Z</time>
      </trkpt>
      <trkpt lat="50.44655" lon="2.20678">
        <ele>57.346741</ele>
        <time>2019-06-16T15:55:12.935Z</time>
      </trkpt>
      <trkpt lat="50.44658" lon="2.20713">
        <ele>56.930467</ele>
        <time>2019-06-16T15:55:17.025Z</time>
      </trkpt>
      <trkpt lat="50.44662" lon="2.20734">
        <ele>56.678874</ele>
        <time>2019-06-16T15:55:19.571Z</time>
      </trkpt>
      <trkpt lat="50.44682" lon="2.20804">
        <ele>55.930737</ele>
        <time>2019-06-16T15:55:28.657Z</time>
      </trkpt>
      <trkpt lat="50.447" lon="2.20842">
        <ele>55.498794</ele>
        <time>2019-06-16T15:55:34.346Z</time>
      </trkpt>
      <trkpt lat="50.44745" lon="2.20908">
        <ele>54.618557</ele>
        <time>2019-06-16T15:55:46.065Z</time>
      </trkpt>
      <trkpt lat="50.44774" lon="2.20973">
        <ele>53.905216</ele>
        <time>2019-06-16T15:55:56.278Z</time>
      </trkpt>
      <trkpt lat="50.44799" lon="2.21055">
        <ele>53.559404</ele>
        <time>2019-06-16T15:56:08.389Z</time>
      </trkpt>
      <trkpt lat="50.44809" lon="2.21123">
        <ele>53.298229</ele>
        <time>2019-06-16T15:56:17.822Z</time>
      </trkpt>
      <trkpt lat="50.44813" lon="2.21147">
        <ele>53.205043</ele>
        <time>2019-06-16T15:56:21.086Z</time>
      </trkpt>
      <trkpt lat="50.44845" lon="2.21325">
        <ele>52.677171</ele>
        <time>2019-06-16T15:56:45.559Z</time>
      </trkpt>
      <trkpt lat="50.44856" lon="2.21375">
        <ele>52.578753</ele>
        <time>2019-06-16T15:56:52.663Z</time>
      </trkpt>
      <trkpt lat="50.44866" lon="2.21406">
        <ele>52.514078</ele>
        <time>2019-06-16T15:56:57.551Z</time>
      </trkpt>
      <trkpt lat="50.44876" lon="2.21427">
        <ele>52.466615</ele>
        <time>2019-06-16T15:57:00.930Z</time>
      </trkpt>
      <trkpt lat="50.44887" lon="2.21443">
        <ele>52.421426</ele>
        <time>2019-06-16T15:57:04.434Z</time>
      </trkpt>
      <trkpt lat="50.4493" lon="2.21483">
        <ele>52.313675</ele>
        <time>2019-06-16T15:57:15.369Z</time>
      </trkpt>
      <trkpt lat="50.44981" lon="2.21531">
        <ele>52.318008</ele>
        <time>2019-06-16T15:57:28.713Z</time>
      </trkpt>
      <trkpt lat="50.45001" lon="2.21549">
        <ele>52.31962</ele>
        <time>2019-06-16T15:57:33.572Z</time>
      </trkpt>
      <trkpt lat="50.45014" lon="2.21562">
        <ele>52.320754</ele>
        <time>2019-06-16T15:57:37.426Z</time>
      </trkpt>
      <trkpt lat="50.45041" lon="2.21594">
        <ele>52.323203</ele>
        <time>2019-06-16T15:57:45.376Z</time>
      </trkpt>
      <trkpt lat="50.45051" lon="2.21611">
        <ele>52.324227</ele>
        <time>2019-06-16T15:57:48.518Z</time>
      </trkpt>
      <trkpt lat="50.45092" lon="2.21704">
        <ele>52.282234</ele>
        <time>2019-06-16T15:58:04.486Z</time>
      </trkpt>
      <trkpt lat="50.45136" lon="2.21814">
        <ele>52.213366</ele>
        <time>2019-06-16T15:58:22.521Z</time>
      </trkpt>
      <trkpt lat="50.45138" lon="2.21829">
        <ele>52.20499</ele>
        <time>2019-06-16T15:58:24.735Z</time>
      </trkpt>
      <trkpt lat="50.45138" lon="2.21841">
        <ele>52.198528</ele>
        <time>2019-06-16T15:58:26.298Z</time>
      </trkpt>
      <trkpt lat="50.45133" lon="2.21859">
        <ele>52.188372</ele>
        <time>2019-06-16T15:58:29.078Z</time>
      </trkpt>
      <trkpt lat="50.45124" lon="2.2188">
        <ele>52.177851</ele>
        <time>2019-06-16T15:58:32.819Z</time>
      </trkpt>
      <trkpt lat="50.45119" lon="2.21893">
        <ele>52.214202</ele>
        <time>2019-06-16T15:58:34.810Z</time>
      </trkpt>
      <trkpt lat="50.45116" lon="2.21909">
        <ele>52.253292</ele>
        <time>2019-06-16T15:58:37.335Z</time>
      </trkpt>
      <trkpt lat="50.45121" lon="2.22024">
        <ele>52.534433</ele>
        <time>2019-06-16T15:58:54.783Z</time>
      </trkpt>
      <trkpt lat="50.45139" lon="2.2212">
        <ele>52.777019</ele>
        <time>2019-06-16T15:59:10.803Z</time>
      </trkpt>
      <trkpt lat="50.45166" lon="2.22222">
        <ele>53.156801</ele>
        <time>2019-06-16T15:59:29.293Z</time>
      </trkpt>
      <trkpt lat="50.45217" lon="2.22477">
        <ele>54.151707</ele>
        <time>2019-06-16T16:00:12.210Z</time>
      </trkpt>
      <trkpt lat="50.45232" lon="2.22548">
        <ele>54.387147</ele>
        <time>2019-06-16T16:00:23.870Z</time>
      </trkpt>
      <trkpt lat="50.45261" lon="2.22696">
        <ele>54.864482</ele>
        <time>2019-06-16T16:00:48.027Z</time>
      </trkpt>
      <trkpt lat="50.45297" lon="2.2289">
        <ele>55.219737</ele>
        <time>2019-06-16T16:01:19.567Z</time>
      </trkpt>
      <trkpt lat="50.45303" lon="2.22955">
        <ele>55.335053</ele>
        <time>2019-06-16T16:01:28.733Z</time>
      </trkpt>
      <trkpt lat="50.45298" lon="2.23002">
        <ele>55.229734</ele>
        <time>2019-06-16T16:01:35.567Z</time>
      </trkpt>
      <trkpt lat="50.45317" lon="2.23105">
        <ele>54.92256</ele>
        <time>2019-06-16T16:01:50.258Z</time>
      </trkpt>
      <trkpt lat="50.45315" lon="2.23113">
        <ele>54.900162</ele>
        <time>2019-06-16T16:01:51.360Z</time>
      </trkpt>
      <trkpt lat="50.45314" lon="2.23116">
        <ele>54.889012</ele>
        <time>2019-06-16T16:01:51.773Z</time>
      </trkpt>
      <trkpt lat="50.45281" lon="2.23141">
        <ele>54.727449</ele>
        <time>2019-06-16T16:01:59.208Z</time>
      </trkpt>
      <trkpt lat="50.4524" lon="2.23187">
        <ele>54.517228</ele>
        <time>2019-06-16T16:02:09.612Z</time>
      </trkpt>
      <trkpt lat="50.45174" lon="2.23198">
        <ele>54.339304</ele>
        <time>2019-06-16T16:02:23.187Z</time>
      </trkpt>
      <trkpt lat="50.45167" lon="2.23204">
        <ele>54.318775</ele>
        <time>2019-06-16T16:02:24.727Z</time>
      </trkpt>
      <trkpt lat="50.45159" lon="2.23215">
        <ele>54.290634</ele>
        <time>2019-06-16T16:02:27.077Z</time>
      </trkpt>
      <trkpt lat="50.4515" lon="2.23232">
        <ele>54.253401</ele>
        <time>2019-06-16T16:02:30.094Z</time>
      </trkpt>
      <trkpt lat="50.45113" lon="2.23274">
        <ele>54.129539</ele>
        <time>2019-06-16T16:02:40.259Z</time>
      </trkpt>
      <trkpt lat="50.45098" lon="2.23291">
        <ele>54.082479</ele>
        <time>2019-06-16T16:02:44.686Z</time>
      </trkpt>
      <trkpt lat="50.45085" lon="2.23309">
        <ele>54.188239</ele>
        <time>2019-06-16T16:02:48.808Z</time>
      </trkpt>
      <trkpt lat="50.45081" lon="2.23313">
        <ele>54.241128</ele>
        <time>2019-06-16T16:02:49.989Z</time>
      </trkpt>
      <trkpt lat="50.45039" lon="2.23368">
        <ele>54.932535</ele>
        <time>2019-06-16T16:03:04.267Z</time>
      </trkpt>
      <trkpt lat="50.44951" lon="2.23592">
        <ele>57.27416</ele>
        <time>2019-06-16T16:03:56.125Z</time>
      </trkpt>
      <trkpt lat="50.44935" lon="2.23601">
        <ele>57.558707</ele>
        <time>2019-06-16T16:04:02.251Z</time>
      </trkpt>
      <trkpt lat="50.44903" lon="2.23598">
        <ele>58.086987</ele>
        <time>2019-06-16T16:04:11.824Z</time>
      </trkpt>
      <trkpt lat="50.44832" lon="2.23574">
        <ele>59.268112</ele>
        <time>2019-06-16T16:04:33.487Z</time>
      </trkpt>
      <trkpt lat="50.44829" lon="2.23575">
        <ele>59.299174</ele>
        <time>2019-06-16T16:04:35.046Z</time>
      </trkpt>
      <trkpt lat="50.4483" lon="2.23581">
        <ele>59.320417</ele>
        <time>2019-06-16T16:04:36.079Z</time>
      </trkpt>
      <trkpt lat="50.44835" lon="2.23644">
        <ele>59.536693</ele>
        <time>2019-06-16T16:04:47.277Z</time>
      </trkpt>
      <trkpt lat="50.44816" lon="2.24062">
        <ele>60.522849</ele>
        <time>2019-06-16T16:05:49.335Z</time>
      </trkpt>
      <trkpt lat="50.44812" lon="2.24159">
        <ele>60.704483</ele>
        <time>2019-06-16T16:06:03.793Z</time>
      </trkpt>
      <trkpt lat="50.44807" lon="2.24264">
        <ele>61.0768</ele>
        <time>2019-06-16T16:06:19.921Z</time>
      </trkpt>
      <trkpt lat="50.44786" lon="2.24689">
        <ele>63.036346</ele>
        <time>2019-06-16T16:07:30.786Z</time>
      </trkpt>
      <trkpt lat="50.4478" lon="2.24729">
        <ele>63.271184</ele>
        <time>2019-06-16T16:07:38.227Z</time>
      </trkpt>
      <trkpt lat="50.44775" lon="2.24755">
        <ele>63.430513</ele>
        <time>2019-06-16T16:07:42.852Z</time>
      </trkpt>
      <trkpt lat="50.44773" lon="2.24764">
        <ele>63.488419</ele>
        <time>2019-06-16T16:07:44.962Z</time>
      </trkpt>
      <trkpt lat="50.44742" lon="2.24905">
        <ele>64.360068</ele>
        <time>2019-06-16T16:08:10.919Z</time>
      </trkpt>
      <trkpt lat="50.44702" lon="2.25091">
        <ele>64.561146</ele>
        <time>2019-06-16T16:08:42.479Z</time>
      </trkpt>
      <trkpt lat="50.44682" lon="2.25185">
        <ele>64.423027</ele>
        <time>2019-06-16T16:08:55.529Z</time>
      </trkpt>
      <trkpt lat="50.4467" lon="2.25237">
        <ele>64.320887</ele>
        <time>2019-06-16T16:09:02.349Z</time>
      </trkpt>
      <trkpt lat="50.44635" lon="2.25401">
        <ele>62.575661</ele>
        <time>2019-06-16T16:09:23.467Z</time>
      </trkpt>
      <trkpt lat="50.44623" lon="2.25457">
        <ele>61.976726</ele>
        <time>2019-06-16T16:09:30.430Z</time>
      </trkpt>
      <trkpt lat="50.44618" lon="2.25479">
        <ele>61.74314</ele>
        <time>2019-06-16T16:09:33.245Z</time>
      </trkpt>
      <trkpt lat="50.44609" lon="2.25535">
        <ele>61.180687</ele>
        <time>2019-06-16T16:09:39.999Z</time>
      </trkpt>
      <trkpt lat="50.44609" lon="2.25546">
        <ele>61.069432</ele>
        <time>2019-06-16T16:09:41.333Z</time>
      </trkpt>
      <trkpt lat="50.44607" lon="2.25572">
        <ele>60.825488</ele>
        <time>2019-06-16T16:09:44.353Z</time>
      </trkpt>
      <trkpt lat="50.44605" lon="2.25587">
        <ele>60.675479</ele>
        <time>2019-06-16T16:09:46.375Z</time>
      </trkpt>
      <trkpt lat="50.44612" lon="2.2559">
        <ele>60.577856</ele>
        <time>2019-06-16T16:09:47.572Z</time>
      </trkpt>
      <trkpt lat="50.44617" lon="2.25592">
        <ele>60.492624</ele>
        <time>2019-06-16T16:09:48.629Z</time>
      </trkpt>
      <trkpt lat="50.44622" lon="2.25594">
        <ele>60.416786</ele>
        <time>2019-06-16T16:09:49.612Z</time>
      </trkpt>
      <trkpt lat="50.44627" lon="2.25597">
        <ele>60.339914</ele>
        <time>2019-06-16T16:09:50.517Z</time>
      </trkpt>
      <trkpt lat="50.44667" lon="2.25645">
        <ele>59.591205</ele>
        <time>2019-06-16T16:10:00.355Z</time>
      </trkpt>
      <trkpt lat="50.44673" lon="2.25655">
        <ele>59.459469</ele>
        <time>2019-06-16T16:10:02.019Z</time>
      </trkpt>
      <trkpt lat="50.44662" lon="2.25676">
        <ele>59.200938</ele>
        <time>2019-06-16T16:10:05.363Z</time>
      </trkpt>
      <trkpt lat="50.44656" lon="2.25692">
        <ele>59.022857</ele>
        <time>2019-06-16T16:10:07.806Z</time>
      </trkpt>
      <trkpt lat="50.4466" lon="2.25733">
        <ele>58.713006</ele>
        <time>2019-06-16T16:10:14.538Z</time>
      </trkpt>
      <trkpt lat="50.44665" lon="2.25764">
        <ele>58.53535</ele>
        <time>2019-06-16T16:10:19.983Z</time>
      </trkpt>
      <trkpt lat="50.44674" lon="2.25795">
        <ele>58.349644</ele>
        <time>2019-06-16T16:10:25.685Z</time>
      </trkpt>
      <trkpt lat="50.44683" lon="2.25818">
        <ele>58.200749</ele>
        <time>2019-06-16T16:10:30.292Z</time>
      </trkpt>
      <trkpt lat="50.44689" lon="2.2583">
        <ele>58.117159</ele>
        <time>2019-06-16T16:10:32.902Z</time>
      </trkpt>
      <trkpt lat="50.4473" lon="2.25901">
        <ele>57.587167</ele>
        <time>2019-06-16T16:10:49.615Z</time>
      </trkpt>
      <trkpt lat="50.44799" lon="2.25999">
        <ele>57.173542</ele>
        <time>2019-06-16T16:11:15.854Z</time>
      </trkpt>
      <trkpt lat="50.44805" lon="2.26005">
        <ele>57.161795</ele>
        <time>2019-06-16T16:11:17.789Z</time>
      </trkpt>
      <trkpt lat="50.44801" lon="2.26017">
        <ele>57.147755</ele>
        <time>2019-06-16T16:11:19.655Z</time>
      </trkpt>
      <trkpt lat="50.44773" lon="2.26095">
        <ele>57.05467</ele>
        <time>2019-06-16T16:11:32.126Z</time>
      </trkpt>
      <trkpt lat="50.4476" lon="2.26134">
        <ele>57.008489</ele>
        <time>2019-06-16T16:11:38.684Z</time>
      </trkpt>
      <trkpt lat="50.44754" lon="2.26154">
        <ele>56.985922</ele>
        <time>2019-06-16T16:11:41.634Z</time>
      </trkpt>
      <trkpt lat="50.44748" lon="2.26174">
        <ele>57.008467</ele>
        <time>2019-06-16T16:11:45.375Z</time>
      </trkpt>
      <trkpt lat="50.4474" lon="2.26202">
        <ele>57.152865</ele>
        <time>2019-06-16T16:11:49.947Z</time>
      </trkpt>
      <trkpt lat="50.44734" lon="2.26233">
        <ele>57.304533</ele>
        <time>2019-06-16T16:11:55.324Z</time>
      </trkpt>
      <trkpt lat="50.4473" lon="2.26276">
        <ele>57.510609</ele>
        <time>2019-06-16T16:12:02.356Z</time>
      </trkpt>
      <trkpt lat="50.44729" lon="2.26318">
        <ele>57.709301</ele>
        <time>2019-06-16T16:12:09.238Z</time>
      </trkpt>
      <trkpt lat="50.44728" lon="2.26349">
        <ele>57.858431</ele>
        <time>2019-06-16T16:12:15.174Z</time>
      </trkpt>
      <trkpt lat="50.44731" lon="2.26387">
        <ele>58.037515</ele>
        <time>2019-06-16T16:12:21.130Z</time>
      </trkpt>
      <trkpt lat="50.44732" lon="2.2639">
        <ele>58.052138</ele>
        <time>2019-06-16T16:12:22.091Z</time>
      </trkpt>
      <trkpt lat="50.44737" lon="2.26419">
        <ele>58.191737</ele>
        <time>2019-06-16T16:12:26.753Z</time>
      </trkpt>
      <trkpt lat="50.44757" lon="2.26477">
        <ele>58.469226</ele>
        <time>2019-06-16T16:12:38.117Z</time>
      </trkpt>
      <trkpt lat="50.44762" lon="2.26489">
        <ele>58.523287</ele>
        <time>2019-06-16T16:12:41.256Z</time>
      </trkpt>
      <trkpt lat="50.44769" lon="2.26503">
        <ele>58.591593</ele>
        <time>2019-06-16T16:12:44.753Z</time>
      </trkpt>
      <trkpt lat="50.44782" lon="2.26531">
        <ele>58.721083</ele>
        <time>2019-06-16T16:12:50.190Z</time>
      </trkpt>
      <trkpt lat="50.44784" lon="2.26536">
        <ele>58.744707</ele>
        <time>2019-06-16T16:12:51.922Z</time>
      </trkpt>
      <trkpt lat="50.44839" lon="2.26672">
        <ele>59.364018</ele>
        <time>2019-06-16T16:13:16.318Z</time>
      </trkpt>
      <trkpt lat="50.44839" lon="2.26672">
        <ele>59.364018</ele>
        <time>2019-06-16T16:13:16.368Z</time>
      </trkpt>
      <trkpt lat="50.44844" lon="2.26691">
        <ele>59.356398</ele>
        <time>2019-06-16T16:13:19.755Z</time>
      </trkpt>
      <trkpt lat="50.44841" lon="2.26693">
        <ele>59.34707</ele>
        <time>2019-06-16T16:13:20.350Z</time>
      </trkpt>
      <trkpt lat="50.44835" lon="2.26701">
        <ele>59.321101</ele>
        <time>2019-06-16T16:13:22.124Z</time>
      </trkpt>
      <trkpt lat="50.44824" lon="2.26714">
        <ele>59.277977</ele>
        <time>2019-06-16T16:13:25.314Z</time>
      </trkpt>
      <trkpt lat="50.44804" lon="2.26737">
        <ele>59.199329</ele>
        <time>2019-06-16T16:13:30.864Z</time>
      </trkpt>
      <trkpt lat="50.44737" lon="2.26816">
        <ele>58.935148</ele>
        <time>2019-06-16T16:13:49.242Z</time>
      </trkpt>
      <trkpt lat="50.44711" lon="2.26904">
        <ele>58.868909</ele>
        <time>2019-06-16T16:14:02.349Z</time>
      </trkpt>
      <trkpt lat="50.44679" lon="2.26966">
        <ele>58.97811</ele>
        <time>2019-06-16T16:14:13.657Z</time>
      </trkpt>
      <trkpt lat="50.44631" lon="2.27084">
        <ele>59.169594</ele>
        <time>2019-06-16T16:14:36.210Z</time>
      </trkpt>
      <trkpt lat="50.44615" lon="2.2715">
        <ele>59.845619</ele>
        <time>2019-06-16T16:14:49.843Z</time>
      </trkpt>
      <trkpt lat="50.4462" lon="2.27187">
        <ele>60.365775</ele>
        <time>2019-06-16T16:14:57.296Z</time>
      </trkpt>
      <trkpt lat="50.44628" lon="2.27212">
        <ele>60.768802</ele>
        <time>2019-06-16T16:15:03.390Z</time>
      </trkpt>
      <trkpt lat="50.44675" lon="2.27335">
        <ele>62.75799</ele>
        <time>2019-06-16T16:15:36.970Z</time>
      </trkpt>
      <trkpt lat="50.44696" lon="2.2737">
        <ele>63.463656</ele>
        <time>2019-06-16T16:15:48.491Z</time>
      </trkpt>
      <trkpt lat="50.44712" lon="2.27384">
        <ele>63.930604</ele>
        <time>2019-06-16T16:15:55.188Z</time>
      </trkpt>
      <trkpt lat="50.44728" lon="2.27388">
        <ele>64.333741</ele>
        <time>2019-06-16T16:16:01.755Z</time>
      </trkpt>
      <trkpt lat="50.44738" lon="2.27454">
        <ele>65.401484</ele>
        <time>2019-06-16T16:16:16.855Z</time>
      </trkpt>
      <trkpt lat="50.44751" lon="2.27497">
        <ele>66.157091</ele>
        <time>2019-06-16T16:16:27.098Z</time>
      </trkpt>
      <trkpt lat="50.44847" lon="2.27736">
        <ele>71.12554</ele>
        <time>2019-06-16T16:17:26.847Z</time>
      </trkpt>
      <trkpt lat="50.44866" lon="2.27793">
        <ele>72.31651</ele>
        <time>2019-06-16T16:17:42.768Z</time>
      </trkpt>
      <trkpt lat="50.44857" lon="2.27804">
        <ele>72.660239</ele>
        <time>2019-06-16T16:17:49.868Z</time>
      </trkpt>
      <trkpt lat="50.44521" lon="2.28162">
        <ele>91.254952</ele>
        <time>2019-06-16T16:21:30.970Z</time>
      </trkpt>
      <trkpt lat="50.44513" lon="2.28182">
        <ele>91.549038</ele>
        <time>2019-06-16T16:21:37.017Z</time>
      </trkpt>
      <trkpt lat="50.44512" lon="2.28217">
        <ele>91.98247</ele>
        <time>2019-06-16T16:21:46.989Z</time>
      </trkpt>
      <trkpt lat="50.44496" lon="2.28217">
        <ele>92.297297</ele>
        <time>2019-06-16T16:21:52.859Z</time>
      </trkpt>
      <trkpt lat="50.44308" lon="2.28232">
        <ele>93.032118</ele>
        <time>2019-06-16T16:22:47.558Z</time>
      </trkpt>
      <trkpt lat="50.44214" lon="2.28203">
        <ele>91.916288</ele>
        <time>2019-06-16T16:23:11.724Z</time>
      </trkpt>
      <trkpt lat="50.44181" lon="2.28205">
        <ele>91.175269</ele>
        <time>2019-06-16T16:23:19.970Z</time>
      </trkpt>
      <trkpt lat="50.44152" lon="2.28218">
        <ele>90.498725</ele>
        <time>2019-06-16T16:23:27.442Z</time>
      </trkpt>
      <trkpt lat="50.44026" lon="2.28292">
        <ele>87.367457</ele>
        <time>2019-06-16T16:24:00.186Z</time>
      </trkpt>
      <trkpt lat="50.43977" lon="2.28331">
        <ele>85.904236</ele>
        <time>2019-06-16T16:24:13.741Z</time>
      </trkpt>
      <trkpt lat="50.4392" lon="2.28395">
        <ele>84.053589</ele>
        <time>2019-06-16T16:24:30.834Z</time>
      </trkpt>
      <trkpt lat="50.43797" lon="2.28556">
        <ele>79.120244</ele>
        <time>2019-06-16T16:25:08.163Z</time>
      </trkpt>
      <trkpt lat="50.43781" lon="2.28565">
        <ele>78.607318</ele>
        <time>2019-06-16T16:25:12.008Z</time>
      </trkpt>
      <trkpt lat="50.43772" lon="2.28567">
        <ele>78.326591</ele>
        <time>2019-06-16T16:25:14.029Z</time>
      </trkpt>
      <trkpt lat="50.43769" lon="2.28549">
        <ele>77.952707</ele>
        <time>2019-06-16T16:25:16.341Z</time>
      </trkpt>
      <trkpt lat="50.4376" lon="2.28553">
        <ele>77.86592</ele>
        <time>2019-06-16T16:25:19.027Z</time>
      </trkpt>
      <trkpt lat="50.43741" lon="2.28569">
        <ele>77.65453</ele>
        <time>2019-06-16T16:25:26.080Z</time>
      </trkpt>
      <trkpt lat="50.4372" lon="2.28596">
        <ele>77.388432</ele>
        <time>2019-06-16T16:25:34.921Z</time>
      </trkpt>
      <trkpt lat="50.43666" lon="2.2873">
        <ele>76.416281</ele>
        <time>2019-06-16T16:26:10.192Z</time>
      </trkpt>
      <trkpt lat="50.43651" lon="2.28745">
        <ele>76.250597</ele>
        <time>2019-06-16T16:26:18.042Z</time>
      </trkpt>
      <trkpt lat="50.43637" lon="2.28743">
        <ele>76.402095</ele>
        <time>2019-06-16T16:26:24.325Z</time>
      </trkpt>
      <trkpt lat="50.43599" lon="2.28762">
        <ele>77.081617</ele>
        <time>2019-06-16T16:26:42.981Z</time>
      </trkpt>
      <trkpt lat="50.43528" lon="2.28847">
        <ele>78.598101</ele>
        <time>2019-06-16T16:27:25.531Z</time>
      </trkpt>
      <trkpt lat="50.43506" lon="2.28887">
        <ele>79.172536</ele>
        <time>2019-06-16T16:27:41.505Z</time>
      </trkpt>
      <trkpt lat="50.43441" lon="2.28964">
        <ele>80.049407</ele>
        <time>2019-06-16T16:28:17.698Z</time>
      </trkpt>
      <trkpt lat="50.43395" lon="2.29028">
        <ele>80.68252</ele>
        <time>2019-06-16T16:28:42.801Z</time>
      </trkpt>
      <trkpt lat="50.43395" lon="2.29028">
        <ele>80.68252</ele>
        <time>2019-06-16T16:28:42.804Z</time>
      </trkpt>
      <trkpt lat="50.43318" lon="2.29108">
        <ele>81.466389</ele>
        <time>2019-06-16T16:29:18.637Z</time>
      </trkpt>
      <trkpt lat="50.43218" lon="2.29226">
        <ele>82.329607</ele>
        <time>2019-06-16T16:30:09.658Z</time>
      </trkpt>
      <trkpt lat="50.43199" lon="2.29271">
        <ele>82.839855</ele>
        <time>2019-06-16T16:30:24.110Z</time>
      </trkpt>
      <trkpt lat="50.43188" lon="2.2928">
        <ele>83.05546</ele>
        <time>2019-06-16T16:30:28.255Z</time>
      </trkpt>
      <trkpt lat="50.43126" lon="2.29328">
        <ele>84.170846</ele>
        <time>2019-06-16T16:30:48.273Z</time>
      </trkpt>
      <trkpt lat="50.43101" lon="2.29334">
        <ele>84.585879</ele>
        <time>2019-06-16T16:30:56.711Z</time>
      </trkpt>
      <trkpt lat="50.43095" lon="2.29338">
        <ele>84.696786</ele>
        <time>2019-06-16T16:30:59.860Z</time>
      </trkpt>
      <trkpt lat="50.43049" lon="2.29353">
        <ele>85.551121</ele>
        <time>2019-06-16T16:31:19.943Z</time>
      </trkpt>
      <trkpt lat="50.43015" lon="2.29373">
        <ele>86.39633</ele>
        <time>2019-06-16T16:31:34.470Z</time>
      </trkpt>
      <trkpt lat="50.42983" lon="2.29416">
        <ele>87.392897</ele>
        <time>2019-06-16T16:31:51.452Z</time>
      </trkpt>
      <trkpt lat="50.42976" lon="2.29434">
        <ele>87.715205</ele>
        <time>2019-06-16T16:31:57.455Z</time>
      </trkpt>
      <trkpt lat="50.42968" lon="2.29443">
        <ele>87.964333</ele>
        <time>2019-06-16T16:32:02.936Z</time>
      </trkpt>
      <trkpt lat="50.42919" lon="2.29482">
        <ele>89.273117</ele>
        <time>2019-06-16T16:32:29.243Z</time>
      </trkpt>
      <trkpt lat="50.42862" lon="2.29496">
        <ele>90.240291</ele>
        <time>2019-06-16T16:32:57.351Z</time>
      </trkpt>
      <trkpt lat="50.42814" lon="2.29516">
        <ele>90.97102</ele>
        <time>2019-06-16T16:33:20.529Z</time>
      </trkpt>
      <trkpt lat="50.4262" lon="2.29609">
        <ele>92.792746</ele>
        <time>2019-06-16T16:34:43.417Z</time>
      </trkpt>
      <trkpt lat="50.42574" lon="2.29623">
        <ele>93.014228</ele>
        <time>2019-06-16T16:35:01.057Z</time>
      </trkpt>
      <trkpt lat="50.4248" lon="2.29676">
        <ele>92.808604</ele>
        <time>2019-06-16T16:35:37.747Z</time>
      </trkpt>
      <trkpt lat="50.42312" lon="2.29856">
        <ele>92.138464</ele>
        <time>2019-06-16T16:36:50.375Z</time>
      </trkpt>
      <trkpt lat="50.42289" lon="2.29904">
        <ele>92.018777</ele>
        <time>2019-06-16T16:37:04.436Z</time>
      </trkpt>
      <trkpt lat="50.42282" lon="2.29946">
        <ele>91.929059</ele>
        <time>2019-06-16T16:37:15.405Z</time>
      </trkpt>
      <trkpt lat="50.42279" lon="2.30001">
        <ele>91.253632</ele>
        <time>2019-06-16T16:37:25.775Z</time>
      </trkpt>
      <trkpt lat="50.42273" lon="2.30111">
        <ele>89.631941</ele>
        <time>2019-06-16T16:37:44.451Z</time>
      </trkpt>
      <trkpt lat="50.4227" lon="2.30176">
        <ele>88.674862</ele>
        <time>2019-06-16T16:37:54.208Z</time>
      </trkpt>
      <trkpt lat="50.42257" lon="2.30182">
        <ele>88.371832</ele>
        <time>2019-06-16T16:37:56.398Z</time>
      </trkpt>
      <trkpt lat="50.42246" lon="2.30189">
        <ele>88.090341</ele>
        <time>2019-06-16T16:37:58.611Z</time>
      </trkpt>
      <trkpt lat="50.42236" lon="2.30198">
        <ele>87.820257</ele>
        <time>2019-06-16T16:38:00.514Z</time>
      </trkpt>
      <trkpt lat="50.42215" lon="2.30219">
        <ele>86.534256</ele>
        <time>2019-06-16T16:38:04.565Z</time>
      </trkpt>
      <trkpt lat="50.42198" lon="2.30235">
        <ele>85.393707</ele>
        <time>2019-06-16T16:38:07.731Z</time>
      </trkpt>
      <trkpt lat="50.42173" lon="2.30247">
        <ele>83.907708</ele>
        <time>2019-06-16T16:38:12.044Z</time>
      </trkpt>
      <trkpt lat="50.42143" lon="2.30255">
        <ele>82.127955</ele>
        <time>2019-06-16T16:38:16.958Z</time>
      </trkpt>
      <trkpt lat="50.42097" lon="2.30266">
        <ele>79.476907</ele>
        <time>2019-06-16T16:38:24.264Z</time>
      </trkpt>
      <trkpt lat="50.42054" lon="2.30274">
        <ele>77.488325</ele>
        <time>2019-06-16T16:38:31.248Z</time>
      </trkpt>
      <trkpt lat="50.42018" lon="2.303">
        <ele>77.418754</ele>
        <time>2019-06-16T16:38:38.115Z</time>
      </trkpt>
      <trkpt lat="50.42013" lon="2.30308">
        <ele>77.405422</ele>
        <time>2019-06-16T16:38:39.445Z</time>
      </trkpt>
      <trkpt lat="50.42006" lon="2.30319">
        <ele>77.387924</ele>
        <time>2019-06-16T16:38:42.407Z</time>
      </trkpt>
      <trkpt lat="50.42002" lon="2.30325">
        <ele>77.37729</ele>
        <time>2019-06-16T16:38:43.562Z</time>
      </trkpt>
      <trkpt lat="50.41996" lon="2.30337">
        <ele>77.360484</ele>
        <time>2019-06-16T16:38:45.449Z</time>
      </trkpt>
      <trkpt lat="50.41972" lon="2.30355">
        <ele>77.313564</ele>
        <time>2019-06-16T16:38:53.040Z</time>
      </trkpt>
      <trkpt lat="50.41962" lon="2.30357">
        <ele>77.295192</ele>
        <time>2019-06-16T16:38:55.657Z</time>
      </trkpt>
      <trkpt lat="50.41959" lon="2.30376">
        <ele>77.273568</ele>
        <time>2019-06-16T16:39:00.212Z</time>
      </trkpt>
      <trkpt lat="50.41946" lon="2.30413">
        <ele>77.224825</ele>
        <time>2019-06-16T16:39:09.762Z</time>
      </trkpt>
      <trkpt lat="50.41925" lon="2.3045">
        <ele>77.521229</ele>
        <time>2019-06-16T16:39:21.949Z</time>
      </trkpt>
      <trkpt lat="50.41919" lon="2.30464">
        <ele>77.988097</ele>
        <time>2019-06-16T16:39:26.064Z</time>
      </trkpt>
      <trkpt lat="50.41914" lon="2.30463">
        <ele>78.226878</ele>
        <time>2019-06-16T16:39:30.183Z</time>
      </trkpt>
      <trkpt lat="50.41854" lon="2.30472">
        <ele>80.846981</ele>
        <time>2019-06-16T16:39:58.102Z</time>
      </trkpt>
      <trkpt lat="50.41789" lon="2.30524">
        <ele>84.04912</ele>
        <time>2019-06-16T16:40:33.922Z</time>
      </trkpt>
      <trkpt lat="50.41732" lon="2.3056">
        <ele>85.816553</ele>
        <time>2019-06-16T16:40:59.379Z</time>
      </trkpt>
      <trkpt lat="50.41667" lon="2.30619">
        <ele>87.342489</ele>
        <time>2019-06-16T16:41:24.005Z</time>
      </trkpt>
      <trkpt lat="50.41562" lon="2.3069">
        <ele>89.151597</ele>
        <time>2019-06-16T16:41:55.079Z</time>
      </trkpt>
      <trkpt lat="50.41483" lon="2.30741">
        <ele>89.942126</ele>
        <time>2019-06-16T16:42:17.611Z</time>
      </trkpt>
      <trkpt lat="50.41409" lon="2.30766">
        <ele>90.961979</ele>
        <time>2019-06-16T16:42:39.992Z</time>
      </trkpt>
      <trkpt lat="50.41306" lon="2.30812">
        <ele>93.103777</ele>
        <time>2019-06-16T16:43:16.303Z</time>
      </trkpt>
      <trkpt lat="50.41227" lon="2.30839">
        <ele>94.767654</ele>
        <time>2019-06-16T16:43:45.172Z</time>
      </trkpt>
      <trkpt lat="50.41134" lon="2.30851">
        <ele>96.727156</ele>
        <time>2019-06-16T16:44:17.199Z</time>
      </trkpt>
      <trkpt lat="50.41012" lon="2.30897">
        <ele>98.722954</ele>
        <time>2019-06-16T16:44:56.354Z</time>
      </trkpt>
      <trkpt lat="50.41005" lon="2.30903">
        <ele>98.832251</ele>
        <time>2019-06-16T16:44:59.086Z</time>
      </trkpt>
      <trkpt lat="50.40984" lon="2.30914">
        <ele>99.115051</ele>
        <time>2019-06-16T16:45:08.408Z</time>
      </trkpt>
      <trkpt lat="50.40943" lon="2.30933">
        <ele>99.64978</ele>
        <time>2019-06-16T16:45:26.213Z</time>
      </trkpt>
      <trkpt lat="50.40739" lon="2.31062">
        <ele>101.052527</ele>
        <time>2019-06-16T16:46:55.090Z</time>
      </trkpt>
      <trkpt lat="50.40663" lon="2.31081">
        <ele>100.671613</ele>
        <time>2019-06-16T16:47:23.473Z</time>
      </trkpt>
      <trkpt lat="50.40494" lon="2.31172">
        <ele>99.095854</ele>
        <time>2019-06-16T16:48:24.924Z</time>
      </trkpt>
      <trkpt lat="50.40478" lon="2.31175">
        <ele>98.88952</ele>
        <time>2019-06-16T16:48:30.331Z</time>
      </trkpt>
      <trkpt lat="50.40448" lon="2.31166">
        <ele>98.490259</ele>
        <time>2019-06-16T16:48:40.481Z</time>
      </trkpt>
      <trkpt lat="50.40443" lon="2.31169">
        <ele>98.429099</ele>
        <time>2019-06-16T16:48:42.104Z</time>
      </trkpt>
      <trkpt lat="50.40439" lon="2.31162">
        <ele>98.346316</ele>
        <time>2019-06-16T16:48:43.266Z</time>
      </trkpt>
      <trkpt lat="50.40435" lon="2.31158">
        <ele>98.285707</ele>
        <time>2019-06-16T16:48:44.283Z</time>
      </trkpt>
      <trkpt lat="50.40431" lon="2.31155">
        <ele>98.235333</ele>
        <time>2019-06-16T16:48:44.987Z</time>
      </trkpt>
      <trkpt lat="50.40427" lon="2.31154">
        <ele>98.173921</ele>
        <time>2019-06-16T16:48:45.884Z</time>
      </trkpt>
      <trkpt lat="50.40422" lon="2.31154">
        <ele>98.115379</ele>
        <time>2019-06-16T16:48:46.879Z</time>
      </trkpt>
      <trkpt lat="50.40413" lon="2.31154">
        <ele>97.994402</ele>
        <time>2019-06-16T16:48:48.777Z</time>
      </trkpt>
      <trkpt lat="50.40404" lon="2.31158">
        <ele>97.870372</ele>
        <time>2019-06-16T16:48:50.569Z</time>
      </trkpt>
      <trkpt lat="50.4037" lon="2.31175">
        <ele>97.387584</ele>
        <time>2019-06-16T16:48:57.589Z</time>
      </trkpt>
      <trkpt lat="50.40178" lon="2.31352">
        <ele>94.317916</ele>
        <time>2019-06-16T16:49:42.751Z</time>
      </trkpt>
      <trkpt lat="50.40098" lon="2.31425">
        <ele>93.009897</ele>
        <time>2019-06-16T16:50:01.212Z</time>
      </trkpt>
      <trkpt lat="50.4006" lon="2.31456">
        <ele>92.637815</ele>
        <time>2019-06-16T16:50:09.854Z</time>
      </trkpt>
      <trkpt lat="50.39995" lon="2.31515">
        <ele>92.110509</ele>
        <time>2019-06-16T16:50:25.248Z</time>
      </trkpt>
      <trkpt lat="50.39976" lon="2.31541">
        <ele>91.93255</ele>
        <time>2019-06-16T16:50:30.767Z</time>
      </trkpt>
      <trkpt lat="50.39967" lon="2.31576">
        <ele>91.764692</ele>
        <time>2019-06-16T16:50:36.130Z</time>
      </trkpt>
      <trkpt lat="50.39959" lon="2.31637">
        <ele>91.794288</ele>
        <time>2019-06-16T16:50:46.399Z</time>
      </trkpt>
      <trkpt lat="50.39951" lon="2.31671">
        <ele>92.02307</ele>
        <time>2019-06-16T16:50:53.016Z</time>
      </trkpt>
      <trkpt lat="50.39945" lon="2.31679">
        <ele>92.108894</ele>
        <time>2019-06-16T16:50:55.549Z</time>
      </trkpt>
      <trkpt lat="50.39931" lon="2.31679">
        <ele>92.24002</ele>
        <time>2019-06-16T16:50:59.473Z</time>
      </trkpt>
      <trkpt lat="50.399" lon="2.31654">
        <ele>92.592957</ele>
        <time>2019-06-16T16:51:10.330Z</time>
      </trkpt>
      <trkpt lat="50.39867" lon="2.31656">
        <ele>92.922626</ele>
        <time>2019-06-16T16:51:20.229Z</time>
      </trkpt>
      <trkpt lat="50.39826" lon="2.31673">
        <ele>93.346663</ele>
        <time>2019-06-16T16:51:32.366Z</time>
      </trkpt>
      <trkpt lat="50.39775" lon="2.31718">
        <ele>93.259371</ele>
        <time>2019-06-16T16:51:48.201Z</time>
      </trkpt>
      <trkpt lat="50.39723" lon="2.31774">
        <ele>93.075878</ele>
        <time>2019-06-16T16:52:02.602Z</time>
      </trkpt>
      <trkpt lat="50.39633" lon="2.31865">
        <ele>92.194422</ele>
        <time>2019-06-16T16:52:24.109Z</time>
      </trkpt>
      <trkpt lat="50.39556" lon="2.31962">
        <ele>90.561996</ele>
        <time>2019-06-16T16:52:43.263Z</time>
      </trkpt>
      <trkpt lat="50.39526" lon="2.3198">
        <ele>90.046619</ele>
        <time>2019-06-16T16:52:49.480Z</time>
      </trkpt>
      <trkpt lat="50.39481" lon="2.31994">
        <ele>89.554418</ele>
        <time>2019-06-16T16:52:58.768Z</time>
      </trkpt>
      <trkpt lat="50.39366" lon="2.32174">
        <ele>88.069292</ele>
        <time>2019-06-16T16:53:33.340Z</time>
      </trkpt>
      <trkpt lat="50.39312" lon="2.32212">
        <ele>87.747672</ele>
        <time>2019-06-16T16:53:45.906Z</time>
      </trkpt>
      <trkpt lat="50.39235" lon="2.32242">
        <ele>87.307275</ele>
        <time>2019-06-16T16:54:03.426Z</time>
      </trkpt>
      <trkpt lat="50.39214" lon="2.32247">
        <ele>87.201024</ele>
        <time>2019-06-16T16:54:08.067Z</time>
      </trkpt>
      <trkpt lat="50.39167" lon="2.32277">
        <ele>87.25078</ele>
        <time>2019-06-16T16:54:19.301Z</time>
      </trkpt>
      <trkpt lat="50.3916" lon="2.32281">
        <ele>87.258283</ele>
        <time>2019-06-16T16:54:20.913Z</time>
      </trkpt>
      <trkpt lat="50.39153" lon="2.32287">
        <ele>87.266408</ele>
        <time>2019-06-16T16:54:22.995Z</time>
      </trkpt>
      <trkpt lat="50.39066" lon="2.3232">
        <ele>87.354232</ele>
        <time>2019-06-16T16:54:44.262Z</time>
      </trkpt>
      <trkpt lat="50.3899" lon="2.3239">
        <ele>88.039219</ele>
        <time>2019-06-16T16:55:08.244Z</time>
      </trkpt>
      <trkpt lat="50.38946" lon="2.32447">
        <ele>88.612102</ele>
        <time>2019-06-16T16:55:25.261Z</time>
      </trkpt>
      <trkpt lat="50.38931" lon="2.32468">
        <ele>88.817924</ele>
        <time>2019-06-16T16:55:30.603Z</time>
      </trkpt>
      <trkpt lat="50.38907" lon="2.32515">
        <ele>89.200761</ele>
        <time>2019-06-16T16:55:41.722Z</time>
      </trkpt>
      <trkpt lat="50.38901" lon="2.32528">
        <ele>89.282471</ele>
        <time>2019-06-16T16:55:45.483Z</time>
      </trkpt>
      <trkpt lat="50.38872" lon="2.32585">
        <ele>89.650687</ele>
        <time>2019-06-16T16:55:58.752Z</time>
      </trkpt>
      <trkpt lat="50.38804" lon="2.32656">
        <ele>90.291552</ele>
        <time>2019-06-16T16:56:21.146Z</time>
      </trkpt>
      <trkpt lat="50.38754" lon="2.32757">
        <ele>90.867584</ele>
        <time>2019-06-16T16:56:40.745Z</time>
      </trkpt>
      <trkpt lat="50.38754" lon="2.32757">
        <ele>90.867584</ele>
        <time>2019-06-16T16:56:40.749Z</time>
      </trkpt>
      <trkpt lat="50.38685" lon="2.32764">
        <ele>91.301699</ele>
        <time>2019-06-16T16:56:57.601Z</time>
      </trkpt>
      <trkpt lat="50.38669" lon="2.32768">
        <ele>91.402921</ele>
        <time>2019-06-16T16:57:01.091Z</time>
      </trkpt>
      <trkpt lat="50.38646" lon="2.32813">
        <ele>91.633186</ele>
        <time>2019-06-16T16:57:11.302Z</time>
      </trkpt>
      <trkpt lat="50.38577" lon="2.3299">
        <ele>94.470028</ele>
        <time>2019-06-16T16:57:56.652Z</time>
      </trkpt>
      <trkpt lat="50.38568" lon="2.33012">
        <ele>94.862468</ele>
        <time>2019-06-16T16:58:03.826Z</time>
      </trkpt>
      <trkpt lat="50.38546" lon="2.33075">
        <ele>95.948554</ele>
        <time>2019-06-16T16:58:21.368Z</time>
      </trkpt>
      <trkpt lat="50.38535" lon="2.33112">
        <ele>96.082579</ele>
        <time>2019-06-16T16:58:31.191Z</time>
      </trkpt>
      <trkpt lat="50.38526" lon="2.33147">
        <ele>96.177099</ele>
        <time>2019-06-16T16:58:39.695Z</time>
      </trkpt>
      <trkpt lat="50.38521" lon="2.33164">
        <ele>96.224511</ele>
        <time>2019-06-16T16:58:44.023Z</time>
      </trkpt>
      <trkpt lat="50.38489" lon="2.33269">
        <ele>96.514587</ele>
        <time>2019-06-16T16:59:01.851Z</time>
      </trkpt>
      <trkpt lat="50.38481" lon="2.33285">
        <ele>96.564017</ele>
        <time>2019-06-16T16:59:04.545Z</time>
      </trkpt>
      <trkpt lat="50.38467" lon="2.33317">
        <ele>96.661068</ele>
        <time>2019-06-16T16:59:09.344Z</time>
      </trkpt>
      <trkpt lat="50.38453" lon="2.33341">
        <ele>96.315337</ele>
        <time>2019-06-16T16:59:13.210Z</time>
      </trkpt>
      <trkpt lat="50.38439" lon="2.33365">
        <ele>95.711901</ele>
        <time>2019-06-16T16:59:17.011Z</time>
      </trkpt>
      <trkpt lat="50.38426" lon="2.33381">
        <ele>95.200906</ele>
        <time>2019-06-16T16:59:19.965Z</time>
      </trkpt>
      <trkpt lat="50.38387" lon="2.33422">
        <ele>93.811534</ele>
        <time>2019-06-16T16:59:28.285Z</time>
      </trkpt>
      <trkpt lat="50.38358" lon="2.33453">
        <ele>92.791102</ele>
        <time>2019-06-16T16:59:34.417Z</time>
      </trkpt>
      <trkpt lat="50.38345" lon="2.33467">
        <ele>92.306322</ele>
        <time>2019-06-16T16:59:37.530Z</time>
      </trkpt>
      <trkpt lat="50.38342" lon="2.33468">
        <ele>92.224996</ele>
        <time>2019-06-16T16:59:37.973Z</time>
      </trkpt>
      <trkpt lat="50.38338" lon="2.33478">
        <ele>92.006764</ele>
        <time>2019-06-16T16:59:39.252Z</time>
      </trkpt>
      <trkpt lat="50.38336" lon="2.33481">
        <ele>91.915671</ele>
        <time>2019-06-16T16:59:39.792Z</time>
      </trkpt>
      <trkpt lat="50.38333" lon="2.33487">
        <ele>91.777197</ele>
        <time>2019-06-16T16:59:40.612Z</time>
      </trkpt>
      <trkpt lat="50.38326" lon="2.33498">
        <ele>91.489256</ele>
        <time>2019-06-16T16:59:42.367Z</time>
      </trkpt>
      <trkpt lat="50.38318" lon="2.33516">
        <ele>91.285736</ele>
        <time>2019-06-16T16:59:44.957Z</time>
      </trkpt>
      <trkpt lat="50.38306" lon="2.33548">
        <ele>91.082882</ele>
        <time>2019-06-16T16:59:49.344Z</time>
      </trkpt>
      <trkpt lat="50.38314" lon="2.33558">
        <ele>91.000522</ele>
        <time>2019-06-16T16:59:51.849Z</time>
      </trkpt>
      <trkpt lat="50.38322" lon="2.33572">
        <ele>90.895937</ele>
        <time>2019-06-16T16:59:54.879Z</time>
      </trkpt>
      <trkpt lat="50.38334" lon="2.3364">
        <ele>90.510832</ele>
        <time>2019-06-16T17:00:06.651Z</time>
      </trkpt>
      <trkpt lat="50.38334" lon="2.3365">
        <ele>90.457332</ele>
        <time>2019-06-16T17:00:09.278Z</time>
      </trkpt>
      <trkpt lat="50.3833" lon="2.3365">
        <ele>90.421593</ele>
        <time>2019-06-16T17:00:10.756Z</time>
      </trkpt>
      <trkpt lat="50.38301" lon="2.33671">
        <ele>90.149499</ele>
        <time>2019-06-16T17:00:19.786Z</time>
      </trkpt>
      <trkpt lat="50.3829" lon="2.3368">
        <ele>90.039904</ele>
        <time>2019-06-16T17:00:24.173Z</time>
      </trkpt>
      <trkpt lat="50.38284" lon="2.33687">
        <ele>89.979173</ele>
        <time>2019-06-16T17:00:26.312Z</time>
      </trkpt>
      <trkpt lat="50.38278" lon="2.33691">
        <ele>89.921585</ele>
        <time>2019-06-16T17:00:28.318Z</time>
      </trkpt>
      <trkpt lat="50.38272" lon="2.33688">
        <ele>89.874171</ele>
        <time>2019-06-16T17:00:29.977Z</time>
      </trkpt>
      <trkpt lat="50.38266" lon="2.33687">
        <ele>89.878196</ele>
        <time>2019-06-16T17:00:32.286Z</time>
      </trkpt>
      <trkpt lat="50.38261" lon="2.33685">
        <ele>89.982584</ele>
        <time>2019-06-16T17:00:34.195Z</time>
      </trkpt>
      <trkpt lat="50.38252" lon="2.3368">
        <ele>90.145811</ele>
        <time>2019-06-16T17:00:36.789Z</time>
      </trkpt>
      <trkpt lat="50.38244" lon="2.33675">
        <ele>90.285496</ele>
        <time>2019-06-16T17:00:39.245Z</time>
      </trkpt>
      <trkpt lat="50.38237" lon="2.33669">
        <ele>90.424731</ele>
        <time>2019-06-16T17:00:42.070Z</time>
      </trkpt>
      <trkpt lat="50.38235" lon="2.33673">
        <ele>90.471946</ele>
        <time>2019-06-16T17:00:43.276Z</time>
      </trkpt>
      <trkpt lat="50.3823" lon="2.33682">
        <ele>90.599371</ele>
        <time>2019-06-16T17:00:45.736Z</time>
      </trkpt>
      <trkpt lat="50.3822" lon="2.33701">
        <ele>90.872737</ele>
        <time>2019-06-16T17:00:51.557Z</time>
      </trkpt>
      <trkpt lat="50.38219" lon="2.33709">
        <ele>90.959328</ele>
        <time>2019-06-16T17:00:53.285Z</time>
      </trkpt>
      <trkpt lat="50.38217" lon="2.33719">
        <ele>91.073575</ele>
        <time>2019-06-16T17:00:56.140Z</time>
      </trkpt>
      <trkpt lat="50.38211" lon="2.33733">
        <ele>91.260986</ele>
        <time>2019-06-16T17:00:59.128Z</time>
      </trkpt>
      <trkpt lat="50.38177" lon="2.33789">
        <ele>92.108</ele>
        <time>2019-06-16T17:01:14.903Z</time>
      </trkpt>
      <trkpt lat="50.38161" lon="2.33826">
        <ele>92.597782</ele>
        <time>2019-06-16T17:01:24.120Z</time>
      </trkpt>
      <trkpt lat="50.38159" lon="2.33831">
        <ele>92.662741</ele>
        <time>2019-06-16T17:01:25.675Z</time>
      </trkpt>
      <trkpt lat="50.38149" lon="2.33867">
        <ele>93.140666</ele>
        <time>2019-06-16T17:01:34.258Z</time>
      </trkpt>
      <trkpt lat="50.38138" lon="2.33896">
        <ele>93.626439</ele>
        <time>2019-06-16T17:01:42.297Z</time>
      </trkpt>
      <trkpt lat="50.38113" lon="2.33962">
        <ele>94.716617</ele>
        <time>2019-06-16T17:01:59.808Z</time>
      </trkpt>
      <trkpt lat="50.38105" lon="2.33996">
        <ele>95.232091</ele>
        <time>2019-06-16T17:02:08.375Z</time>
      </trkpt>
      <trkpt lat="50.38082" lon="2.34129">
        <ele>97.066318</ele>
        <time>2019-06-16T17:02:37.842Z</time>
      </trkpt>
      <trkpt lat="50.38072" lon="2.34199">
        <ele>97.520497</ele>
        <time>2019-06-16T17:02:52.111Z</time>
      </trkpt>
      <trkpt lat="50.38037" lon="2.34454">
        <ele>98.685116</ele>
        <time>2019-06-16T17:03:36.082Z</time>
      </trkpt>
      <trkpt lat="50.38013" lon="2.34699">
        <ele>98.411623</ele>
        <time>2019-06-16T17:04:10.900Z</time>
      </trkpt>
      <trkpt lat="50.37999" lon="2.3476">
        <ele>98.255662</ele>
        <time>2019-06-16T17:04:19.868Z</time>
      </trkpt>
      <trkpt lat="50.37949" lon="2.34986">
        <ele>97.520715</ele>
        <time>2019-06-16T17:04:54.047Z</time>
      </trkpt>
      <trkpt lat="50.37927" lon="2.35059">
        <ele>97.102098</ele>
        <time>2019-06-16T17:05:05.405Z</time>
      </trkpt>
      <trkpt lat="50.37923" lon="2.35072">
        <ele>97.030192</ele>
        <time>2019-06-16T17:05:07.428Z</time>
      </trkpt>
      <trkpt lat="50.37888" lon="2.35134">
        <ele>96.59904</ele>
        <time>2019-06-16T17:05:18.261Z</time>
      </trkpt>
      <trkpt lat="50.37856" lon="2.35188">
        <ele>96.124714</ele>
        <time>2019-06-16T17:05:27.845Z</time>
      </trkpt>
      <trkpt lat="50.37821" lon="2.35243">
        <ele>95.435293</ele>
        <time>2019-06-16T17:05:37.611Z</time>
      </trkpt>
      <trkpt lat="50.37814" lon="2.35241">
        <ele>95.340652</ele>
        <time>2019-06-16T17:05:38.907Z</time>
      </trkpt>
      <trkpt lat="50.37809" lon="2.35235">
        <ele>95.244564</ele>
        <time>2019-06-16T17:05:40.266Z</time>
      </trkpt>
      <trkpt lat="50.37804" lon="2.35256">
        <ele>95.046676</ele>
        <time>2019-06-16T17:05:42.921Z</time>
      </trkpt>
      <trkpt lat="50.37797" lon="2.35281">
        <ele>94.809829</ele>
        <time>2019-06-16T17:05:46.068Z</time>
      </trkpt>
      <trkpt lat="50.37759" lon="2.35397">
        <ele>93.87074</ele>
        <time>2019-06-16T17:06:02.505Z</time>
      </trkpt>
      <trkpt lat="50.37755" lon="2.35407">
        <ele>93.8773</ele>
        <time>2019-06-16T17:06:03.849Z</time>
      </trkpt>
      <trkpt lat="50.37751" lon="2.35418">
        <ele>93.885199</ele>
        <time>2019-06-16T17:06:05.649Z</time>
      </trkpt>
      <trkpt lat="50.37741" lon="2.35445">
        <ele>93.904511</ele>
        <time>2019-06-16T17:06:10.027Z</time>
      </trkpt>
      <trkpt lat="50.37708" lon="2.35542">
        <ele>93.971561</ele>
        <time>2019-06-16T17:06:26.482Z</time>
      </trkpt>
      <trkpt lat="50.37702" lon="2.35566">
        <ele>93.987463</ele>
        <time>2019-06-16T17:06:30.463Z</time>
      </trkpt>
      <trkpt lat="50.37699" lon="2.35574">
        <ele>93.993192</ele>
        <time>2019-06-16T17:06:32.168Z</time>
      </trkpt>
      <trkpt lat="50.37693" lon="2.35597">
        <ele>94.008667</ele>
        <time>2019-06-16T17:06:36.355Z</time>
      </trkpt>
      <trkpt lat="50.37688" lon="2.35618">
        <ele>94.022238</ele>
        <time>2019-06-16T17:06:39.813Z</time>
      </trkpt>
      <trkpt lat="50.37668" lon="2.35689">
        <ele>94.229224</ele>
        <time>2019-06-16T17:06:53.382Z</time>
      </trkpt>
      <trkpt lat="50.37612" lon="2.35852">
        <ele>94.791191</ele>
        <time>2019-06-16T17:07:22.908Z</time>
      </trkpt>
      <trkpt lat="50.37554" lon="2.3598">
        <ele>94.666295</ele>
        <time>2019-06-16T17:07:44.332Z</time>
      </trkpt>
      <trkpt lat="50.37524" lon="2.36069">
        <ele>94.492761</ele>
        <time>2019-06-16T17:07:57.679Z</time>
      </trkpt>
      <trkpt lat="50.3751" lon="2.36113">
        <ele>94.40642</ele>
        <time>2019-06-16T17:08:04.550Z</time>
      </trkpt>
      <trkpt lat="50.37496" lon="2.36155">
        <ele>94.502514</ele>
        <time>2019-06-16T17:08:11.196Z</time>
      </trkpt>
      <trkpt lat="50.37469" lon="2.36239">
        <ele>94.743207</ele>
        <time>2019-06-16T17:08:25.097Z</time>
      </trkpt>
      <trkpt lat="50.37456" lon="2.36267">
        <ele>94.830926</ele>
        <time>2019-06-16T17:08:30.244Z</time>
      </trkpt>
      <trkpt lat="50.37441" lon="2.36297">
        <ele>94.929909</ele>
        <time>2019-06-16T17:08:36.381Z</time>
      </trkpt>
      <trkpt lat="50.37434" lon="2.36309">
        <ele>94.971168</ele>
        <time>2019-06-16T17:08:39.044Z</time>
      </trkpt>
      <trkpt lat="50.37417" lon="2.36343">
        <ele>95.081204</ele>
        <time>2019-06-16T17:08:46.283Z</time>
      </trkpt>
      <trkpt lat="50.37375" lon="2.36443">
        <ele>96.046633</ele>
        <time>2019-06-16T17:09:08.379Z</time>
      </trkpt>
      <trkpt lat="50.37357" lon="2.36491">
        <ele>96.539817</ele>
        <time>2019-06-16T17:09:19.355Z</time>
      </trkpt>
      <trkpt lat="50.37353" lon="2.36503">
        <ele>96.654</ele>
        <time>2019-06-16T17:09:22.037Z</time>
      </trkpt>
      <trkpt lat="50.37344" lon="2.36531">
        <ele>96.940726</ele>
        <time>2019-06-16T17:09:28.218Z</time>
      </trkpt>
      <trkpt lat="50.37332" lon="2.36565">
        <ele>97.275685</ele>
        <time>2019-06-16T17:09:35.461Z</time>
      </trkpt>
      <trkpt lat="50.37315" lon="2.36613">
        <ele>97.714915</ele>
        <time>2019-06-16T17:09:46.008Z</time>
      </trkpt>
      <trkpt lat="50.37216" lon="2.3686">
        <ele>99.241555</ele>
        <time>2019-06-16T17:10:36.175Z</time>
      </trkpt>
      <trkpt lat="50.37143" lon="2.37031">
        <ele>99.083599</ele>
        <time>2019-06-16T17:11:04.327Z</time>
      </trkpt>
      <trkpt lat="50.37125" lon="2.37071">
        <ele>99.047122</ele>
        <time>2019-06-16T17:11:10.868Z</time>
      </trkpt>
      <trkpt lat="50.37106" lon="2.371">
        <ele>99.17577</ele>
        <time>2019-06-16T17:11:16.360Z</time>
      </trkpt>
      <trkpt lat="50.37083" lon="2.37132">
        <ele>99.322443</ele>
        <time>2019-06-16T17:11:22.674Z</time>
      </trkpt>
      <trkpt lat="50.36915" lon="2.37359">
        <ele>102.061714</ele>
        <time>2019-06-16T17:12:22.932Z</time>
      </trkpt>
      <trkpt lat="50.36905" lon="2.3737">
        <ele>102.343965</ele>
        <time>2019-06-16T17:12:27.438Z</time>
      </trkpt>
      <trkpt lat="50.36897" lon="2.37368">
        <ele>102.518156</ele>
        <time>2019-06-16T17:12:32.407Z</time>
      </trkpt>
      <trkpt lat="50.36872" lon="2.3737">
        <ele>103.056431</ele>
        <time>2019-06-16T17:12:40.866Z</time>
      </trkpt>
      <trkpt lat="50.36865" lon="2.37369">
        <ele>103.212573</ele>
        <time>2019-06-16T17:12:44.002Z</time>
      </trkpt>
      <trkpt lat="50.36861" lon="2.37369">
        <ele>103.292797</ele>
        <time>2019-06-16T17:12:47.029Z</time>
      </trkpt>
      <trkpt lat="50.3685" lon="2.37369">
        <ele>103.522592</ele>
        <time>2019-06-16T17:12:50.811Z</time>
      </trkpt>
      <trkpt lat="50.36816" lon="2.37343">
        <ele>104.833828</ele>
        <time>2019-06-16T17:13:06.426Z</time>
      </trkpt>
      <trkpt lat="50.36782" lon="2.373">
        <ele>106.619834</ele>
        <time>2019-06-16T17:13:23.968Z</time>
      </trkpt>
      <trkpt lat="50.36763" lon="2.37267">
        <ele>107.80009</ele>
        <time>2019-06-16T17:13:37.344Z</time>
      </trkpt>
      <trkpt lat="50.36759" lon="2.37261">
        <ele>108.017776</ele>
        <time>2019-06-16T17:13:39.218Z</time>
      </trkpt>
      <trkpt lat="50.36747" lon="2.37232">
        <ele>108.92593</ele>
        <time>2019-06-16T17:13:49.940Z</time>
      </trkpt>
      <trkpt lat="50.36743" lon="2.37223">
        <ele>109.213559</ele>
        <time>2019-06-16T17:13:53.481Z</time>
      </trkpt>
      <trkpt lat="50.36739" lon="2.37211">
        <ele>109.575808</ele>
        <time>2019-06-16T17:13:57.175Z</time>
      </trkpt>
      <trkpt lat="50.36719" lon="2.37146">
        <ele>111.518755</ele>
        <time>2019-06-16T17:14:16.237Z</time>
      </trkpt>
      <trkpt lat="50.36712" lon="2.37134">
        <ele>112.031533</ele>
        <time>2019-06-16T17:14:21.170Z</time>
      </trkpt>
      <trkpt lat="50.36667" lon="2.37079">
        <ele>114.900785</ele>
        <time>2019-06-16T17:14:49.657Z</time>
      </trkpt>
      <trkpt lat="50.36659" lon="2.3707">
        <ele>115.403961</ele>
        <time>2019-06-16T17:14:53.282Z</time>
      </trkpt>
      <trkpt lat="50.36646" lon="2.37089">
        <ele>116.315367</ele>
        <time>2019-06-16T17:15:03.081Z</time>
      </trkpt>
      <trkpt lat="50.36602" lon="2.37132">
        <ele>118.943694</ele>
        <time>2019-06-16T17:15:27.131Z</time>
      </trkpt>
      <trkpt lat="50.3659" lon="2.37144">
        <ele>119.637584</ele>
        <time>2019-06-16T17:15:34.930Z</time>
      </trkpt>
      <trkpt lat="50.36589" lon="2.37159">
        <ele>120.146307</ele>
        <time>2019-06-16T17:15:41.281Z</time>
      </trkpt>
      <trkpt lat="50.36523" lon="2.37181">
        <ele>123.416118</ele>
        <time>2019-06-16T17:16:20.258Z</time>
      </trkpt>
      <trkpt lat="50.36465" lon="2.3719">
        <ele>126.239367</ele>
        <time>2019-06-16T17:16:51.246Z</time>
      </trkpt>
      <trkpt lat="50.36416" lon="2.37209">
        <ele>128.720722</ele>
        <time>2019-06-16T17:17:17.747Z</time>
      </trkpt>
      <trkpt lat="50.36401" lon="2.37204">
        <ele>129.251699</ele>
        <time>2019-06-16T17:17:25.029Z</time>
      </trkpt>
      <trkpt lat="50.36257" lon="2.37225">
        <ele>132.947409</ele>
        <time>2019-06-16T17:18:27.995Z</time>
      </trkpt>
      <trkpt lat="50.36227" lon="2.37226">
        <ele>133.606048</ele>
        <time>2019-06-16T17:18:38.364Z</time>
      </trkpt>
      <trkpt lat="50.36201" lon="2.37242">
        <ele>133.530669</ele>
        <time>2019-06-16T17:18:49.279Z</time>
      </trkpt>
      <trkpt lat="50.36045" lon="2.37323">
        <ele>133.25091</ele>
        <time>2019-06-16T17:19:46.603Z</time>
      </trkpt>
      <trkpt lat="50.35999" lon="2.37362">
        <ele>133.647715</ele>
        <time>2019-06-16T17:20:05.944Z</time>
      </trkpt>
      <trkpt lat="50.35958" lon="2.3741">
        <ele>134.033311</ele>
        <time>2019-06-16T17:20:27.153Z</time>
      </trkpt>
      <trkpt lat="50.3592" lon="2.37469">
        <ele>134.435859</ele>
        <time>2019-06-16T17:20:51.391Z</time>
      </trkpt>
      <trkpt lat="50.35911" lon="2.37485">
        <ele>134.65145</ele>
        <time>2019-06-16T17:20:57.652Z</time>
      </trkpt>
      <trkpt lat="50.35896" lon="2.37508">
        <ele>135.209229</ele>
        <time>2019-06-16T17:21:08.332Z</time>
      </trkpt>
      <trkpt lat="50.35821" lon="2.37732">
        <ele>139.241275</ele>
        <time>2019-06-16T17:22:31.897Z</time>
      </trkpt>
      <trkpt lat="50.358" lon="2.37764">
        <ele>139.643846</ele>
        <time>2019-06-16T17:22:44.916Z</time>
      </trkpt>
      <trkpt lat="50.35794" lon="2.37774">
        <ele>139.771284</ele>
        <time>2019-06-16T17:22:49.252Z</time>
      </trkpt>
      <trkpt lat="50.35747" lon="2.37841">
        <ele>140.67232</ele>
        <time>2019-06-16T17:23:17.401Z</time>
      </trkpt>
      <trkpt lat="50.35747" lon="2.37841">
        <ele>140.67232</ele>
        <time>2019-06-16T17:23:17.448Z</time>
      </trkpt>
      <trkpt lat="50.35375" lon="2.38117">
        <ele>144.081666</ele>
        <time>2019-06-16T17:26:03.108Z</time>
      </trkpt>
      <trkpt lat="50.35312" lon="2.3817">
        <ele>144.835497</ele>
        <time>2019-06-16T17:26:34.636Z</time>
      </trkpt>
      <trkpt lat="50.35252" lon="2.38267">
        <ele>145.822093</ele>
        <time>2019-06-16T17:27:12.734Z</time>
      </trkpt>
      <trkpt lat="50.35196" lon="2.38376">
        <ele>146.065603</ele>
        <time>2019-06-16T17:27:49.288Z</time>
      </trkpt>
      <trkpt lat="50.35192" lon="2.38387">
        <ele>146.032254</ele>
        <time>2019-06-16T17:27:52.432Z</time>
      </trkpt>
      <trkpt lat="50.35169" lon="2.38391">
        <ele>145.93603</ele>
        <time>2019-06-16T17:27:57.563Z</time>
      </trkpt>
      <trkpt lat="50.35115" lon="2.38407">
        <ele>145.70988</ele>
        <time>2019-06-16T17:28:08.410Z</time>
      </trkpt>
      <trkpt lat="50.3504" lon="2.38502">
        <ele>144.795557</ele>
        <time>2019-06-16T17:28:26.907Z</time>
      </trkpt>
      <trkpt lat="50.35034" lon="2.38509">
        <ele>144.695789</ele>
        <time>2019-06-16T17:28:28.134Z</time>
      </trkpt>
      <trkpt lat="50.3502" lon="2.38519">
        <ele>144.471823</ele>
        <time>2019-06-16T17:28:31.419Z</time>
      </trkpt>
      <trkpt lat="50.35015" lon="2.38528">
        <ele>144.369001</ele>
        <time>2019-06-16T17:28:32.850Z</time>
      </trkpt>
      <trkpt lat="50.35012" lon="2.38539">
        <ele>144.26464</ele>
        <time>2019-06-16T17:28:34.189Z</time>
      </trkpt>
      <trkpt lat="50.35008" lon="2.38574">
        <ele>143.951458</ele>
        <time>2019-06-16T17:28:38.625Z</time>
      </trkpt>
      <trkpt lat="50.35004" lon="2.38591">
        <ele>143.790531</ele>
        <time>2019-06-16T17:28:40.797Z</time>
      </trkpt>
      <trkpt lat="50.34999" lon="2.38602">
        <ele>143.665416</ele>
        <time>2019-06-16T17:28:42.423Z</time>
      </trkpt>
      <trkpt lat="50.34989" lon="2.38617">
        <ele>143.478687</ele>
        <time>2019-06-16T17:28:45.217Z</time>
      </trkpt>
      <trkpt lat="50.34923" lon="2.38682">
        <ele>142.783295</ele>
        <time>2019-06-16T17:29:00.436Z</time>
      </trkpt>
      <trkpt lat="50.34899" lon="2.38707">
        <ele>142.635428</ele>
        <time>2019-06-16T17:29:06.192Z</time>
      </trkpt>
      <trkpt lat="50.34863" lon="2.38742">
        <ele>142.408056</ele>
        <time>2019-06-16T17:29:15.303Z</time>
      </trkpt>
      <trkpt lat="50.34855" lon="2.3875">
        <ele>142.361941</ele>
        <time>2019-06-16T17:29:17.178Z</time>
      </trkpt>
      <trkpt lat="50.34794" lon="2.38815">
        <ele>142.307074</ele>
        <time>2019-06-16T17:29:33.453Z</time>
      </trkpt>
      <trkpt lat="50.34714" lon="2.38923">
        <ele>143.497851</ele>
        <time>2019-06-16T17:30:01.698Z</time>
      </trkpt>
      <trkpt lat="50.34694" lon="2.38952">
        <ele>143.811781</ele>
        <time>2019-06-16T17:30:10.261Z</time>
      </trkpt>
      <trkpt lat="50.34634" lon="2.39076">
        <ele>145.998312</ele>
        <time>2019-06-16T17:30:43.835Z</time>
      </trkpt>
      <trkpt lat="50.34574" lon="2.39158">
        <ele>148.065021</ele>
        <time>2019-06-16T17:31:13.836Z</time>
      </trkpt>
      <trkpt lat="50.34511" lon="2.39225">
        <ele>149.661272</ele>
        <time>2019-06-16T17:31:41.049Z</time>
      </trkpt>
      <trkpt lat="50.3448" lon="2.3926">
        <ele>150.334035</ele>
        <time>2019-06-16T17:31:53.352Z</time>
      </trkpt>
      <trkpt lat="50.34469" lon="2.39276">
        <ele>150.594108</ele>
        <time>2019-06-16T17:31:58.065Z</time>
      </trkpt>
      <trkpt lat="50.34415" lon="2.39376">
        <ele>152.001834</ele>
        <time>2019-06-16T17:32:22.022Z</time>
      </trkpt>
      <trkpt lat="50.34352" lon="2.39453">
        <ele>152.121484</ele>
        <time>2019-06-16T17:32:40.419Z</time>
      </trkpt>
      <trkpt lat="50.34339" lon="2.39487">
        <ele>152.160442</ele>
        <time>2019-06-16T17:32:46.077Z</time>
      </trkpt>
      <trkpt lat="50.34335" lon="2.39533">
        <ele>152.204618</ele>
        <time>2019-06-16T17:32:52.495Z</time>
      </trkpt>
      <trkpt lat="50.34302" lon="2.39621">
        <ele>152.336867</ele>
        <time>2019-06-16T17:33:06.747Z</time>
      </trkpt>
      <trkpt lat="50.34301" lon="2.39656">
        <ele>152.400052</ele>
        <time>2019-06-16T17:33:11.530Z</time>
      </trkpt>
      <trkpt lat="50.34287" lon="2.39671">
        <ele>152.449184</ele>
        <time>2019-06-16T17:33:15.592Z</time>
      </trkpt>
      <trkpt lat="50.34263" lon="2.3968">
        <ele>152.518948</ele>
        <time>2019-06-16T17:33:20.960Z</time>
      </trkpt>
      <trkpt lat="50.34216" lon="2.39666">
        <ele>152.656612</ele>
        <time>2019-06-16T17:33:32.711Z</time>
      </trkpt>
      <trkpt lat="50.34186" lon="2.39666">
        <ele>152.74278</ele>
        <time>2019-06-16T17:33:40.316Z</time>
      </trkpt>
      <trkpt lat="50.34157" lon="2.39637">
        <ele>152.845891</ele>
        <time>2019-06-16T17:33:49.519Z</time>
      </trkpt>
      <trkpt lat="50.34132" lon="2.39597">
        <ele>152.956272</ele>
        <time>2019-06-16T17:33:59.107Z</time>
      </trkpt>
      <trkpt lat="50.34118" lon="2.39574">
        <ele>153.018901</ele>
        <time>2019-06-16T17:34:04.378Z</time>
      </trkpt>
      <trkpt lat="50.34111" lon="2.39564">
        <ele>153.048376</ele>
        <time>2019-06-16T17:34:07.012Z</time>
      </trkpt>
      <trkpt lat="50.34082" lon="2.39514">
        <ele>153.180464</ele>
        <time>2019-06-16T17:34:16.938Z</time>
      </trkpt>
      <trkpt lat="50.34029" lon="2.39399">
        <ele>152.854429</ele>
        <time>2019-06-16T17:34:36.249Z</time>
      </trkpt>
      <trkpt lat="50.34021" lon="2.39383">
        <ele>152.697824</ele>
        <time>2019-06-16T17:34:39.133Z</time>
      </trkpt>
      <trkpt lat="50.34004" lon="2.39396">
        <ele>152.477266</ele>
        <time>2019-06-16T17:34:42.723Z</time>
      </trkpt>
      <trkpt lat="50.33862" lon="2.395">
        <ele>150.449904</ele>
        <time>2019-06-16T17:35:12.176Z</time>
      </trkpt>
      <trkpt lat="50.33845" lon="2.39513">
        <ele>150.160025</ele>
        <time>2019-06-16T17:35:15.681Z</time>
      </trkpt>
      <trkpt lat="50.3374" lon="2.39547">
        <ele>148.511725</ele>
        <time>2019-06-16T17:35:36.157Z</time>
      </trkpt>
      <trkpt lat="50.33597" lon="2.39642">
        <ele>147.552036</ele>
        <time>2019-06-16T17:36:07.789Z</time>
      </trkpt>
      <trkpt lat="50.33529" lon="2.39747">
        <ele>148.228377</ele>
        <time>2019-06-16T17:36:30.013Z</time>
      </trkpt>
      <trkpt lat="50.33434" lon="2.39852">
        <ele>149.71115</ele>
        <time>2019-06-16T17:37:07.092Z</time>
      </trkpt>
      <trkpt lat="50.33405" lon="2.3989">
        <ele>150.30661</ele>
        <time>2019-06-16T17:37:20.267Z</time>
      </trkpt>
      <trkpt lat="50.33369" lon="2.39938">
        <ele>151.05004</ele>
        <time>2019-06-16T17:37:36.119Z</time>
      </trkpt>
      <trkpt lat="50.33317" lon="2.40007">
        <ele>152.111039</ele>
        <time>2019-06-16T17:37:56.504Z</time>
      </trkpt>
      <trkpt lat="50.33229" lon="2.40068">
        <ele>151.729666</ele>
        <time>2019-06-16T17:38:18.073Z</time>
      </trkpt>
      <trkpt lat="50.33072" lon="2.40234">
        <ele>149.432072</ele>
        <time>2019-06-16T17:38:53.028Z</time>
      </trkpt>
      <trkpt lat="50.32887" lon="2.40482">
        <ele>146.892196</ele>
        <time>2019-06-16T17:39:41.475Z</time>
      </trkpt>
      <trkpt lat="50.32852" lon="2.4053">
        <ele>146.555572</ele>
        <time>2019-06-16T17:39:51.624Z</time>
      </trkpt>
      <trkpt lat="50.32802" lon="2.40561">
        <ele>146.259723</ele>
        <time>2019-06-16T17:40:03.420Z</time>
      </trkpt>
      <trkpt lat="50.32752" lon="2.40597">
        <ele>145.952923</ele>
        <time>2019-06-16T17:40:15.250Z</time>
      </trkpt>
      <trkpt lat="50.32686" lon="2.40658">
        <ele>145.351435</ele>
        <time>2019-06-16T17:40:30.526Z</time>
      </trkpt>
      <trkpt lat="50.32622" lon="2.40719">
        <ele>144.158998</ele>
        <time>2019-06-16T17:40:44.776Z</time>
      </trkpt>
      <trkpt lat="50.32584" lon="2.40736">
        <ele>143.541166</ele>
        <time>2019-06-16T17:40:52.034Z</time>
      </trkpt>
      <trkpt lat="50.32558" lon="2.40782">
        <ele>142.919009</ele>
        <time>2019-06-16T17:40:59.300Z</time>
      </trkpt>
      <trkpt lat="50.32534" lon="2.40858">
        <ele>142.348448</ele>
        <time>2019-06-16T17:41:09.497Z</time>
      </trkpt>
      <trkpt lat="50.32463" lon="2.4095">
        <ele>141.471613</ele>
        <time>2019-06-16T17:41:27.860Z</time>
      </trkpt>
      <trkpt lat="50.32371" lon="2.41042">
        <ele>140.961277</ele>
        <time>2019-06-16T17:41:51.729Z</time>
      </trkpt>
      <trkpt lat="50.32271" lon="2.41085">
        <ele>140.79449</ele>
        <time>2019-06-16T17:42:14.860Z</time>
      </trkpt>
      <trkpt lat="50.32201" lon="2.41079">
        <ele>139.960579</ele>
        <time>2019-06-16T17:42:29.717Z</time>
      </trkpt>
      <trkpt lat="50.3219" lon="2.41076">
        <ele>139.804983</ele>
        <time>2019-06-16T17:42:32.162Z</time>
      </trkpt>
      <trkpt lat="50.32171" lon="2.41078">
        <ele>139.555769</ele>
        <time>2019-06-16T17:42:35.665Z</time>
      </trkpt>
      <trkpt lat="50.32137" lon="2.41101">
        <ele>139.052291</ele>
        <time>2019-06-16T17:42:42.925Z</time>
      </trkpt>
      <trkpt lat="50.32065" lon="2.41164">
        <ele>137.297788</ele>
        <time>2019-06-16T17:42:57.595Z</time>
      </trkpt>
      <trkpt lat="50.32047" lon="2.41182">
        <ele>136.567114</ele>
        <time>2019-06-16T17:43:01.211Z</time>
      </trkpt>
      <trkpt lat="50.32037" lon="2.41172">
        <ele>136.177058</ele>
        <time>2019-06-16T17:43:03.215Z</time>
      </trkpt>
      <trkpt lat="50.31998" lon="2.41153">
        <ele>134.770531</ele>
        <time>2019-06-16T17:43:10.438Z</time>
      </trkpt>
      <trkpt lat="50.31994" lon="2.41153">
        <ele>134.640659</ele>
        <time>2019-06-16T17:43:11.063Z</time>
      </trkpt>
      <trkpt lat="50.31972" lon="2.41155">
        <ele>133.895731</ele>
        <time>2019-06-16T17:43:15.051Z</time>
      </trkpt>
      <trkpt lat="50.3196" lon="2.41159">
        <ele>133.478872</ele>
        <time>2019-06-16T17:43:17.053Z</time>
      </trkpt>
      <trkpt lat="50.31907" lon="2.41166">
        <ele>131.794813</ele>
        <time>2019-06-16T17:43:26.391Z</time>
      </trkpt>
      <trkpt lat="50.31857" lon="2.41186">
        <ele>130.463594</ele>
        <time>2019-06-16T17:43:35.355Z</time>
      </trkpt>
      <trkpt lat="50.31819" lon="2.41191">
        <ele>129.465039</ele>
        <time>2019-06-16T17:43:42.246Z</time>
      </trkpt>
      <trkpt lat="50.31759" lon="2.41156">
        <ele>127.824719</ele>
        <time>2019-06-16T17:43:55.244Z</time>
      </trkpt>
      <trkpt lat="50.31709" lon="2.41141">
        <ele>127.10994</ele>
        <time>2019-06-16T17:44:06.126Z</time>
      </trkpt>
      <trkpt lat="50.3169" lon="2.41143">
        <ele>126.898093</ele>
        <time>2019-06-16T17:44:10.016Z</time>
      </trkpt>
      <trkpt lat="50.31666" lon="2.41137">
        <ele>126.627504</ele>
        <time>2019-06-16T17:44:15.181Z</time>
      </trkpt>
      <trkpt lat="50.31643" lon="2.41129">
        <ele>126.36172</ele>
        <time>2019-06-16T17:44:20.079Z</time>
      </trkpt>
      <trkpt lat="50.31607" lon="2.41115">
        <ele>125.943314</ele>
        <time>2019-06-16T17:44:27.819Z</time>
      </trkpt>
      <trkpt lat="50.31574" lon="2.41108">
        <ele>125.578492</ele>
        <time>2019-06-16T17:44:34.398Z</time>
      </trkpt>
      <trkpt lat="50.31532" lon="2.41091">
        <ele>124.695508</ele>
        <time>2019-06-16T17:44:43.182Z</time>
      </trkpt>
      <trkpt lat="50.31456" lon="2.4104">
        <ele>122.994589</ele>
        <time>2019-06-16T17:44:58.578Z</time>
      </trkpt>
      <trkpt lat="50.31427" lon="2.41029">
        <ele>122.381751</ele>
        <time>2019-06-16T17:45:03.966Z</time>
      </trkpt>
      <trkpt lat="50.31246" lon="2.411">
        <ele>119.786987</ele>
        <time>2019-06-16T17:45:41.127Z</time>
      </trkpt>
      <trkpt lat="50.31219" lon="2.41114">
        <ele>119.616755</ele>
        <time>2019-06-16T17:45:47.554Z</time>
      </trkpt>
      <trkpt lat="50.31061" lon="2.41146">
        <ele>120.551</ele>
        <time>2019-06-16T17:46:30.837Z</time>
      </trkpt>
      <trkpt lat="50.3098" lon="2.41151">
        <ele>121.139092</ele>
        <time>2019-06-16T17:46:54.429Z</time>
      </trkpt>
      <trkpt lat="50.30932" lon="2.41134">
        <ele>121.509526</ele>
        <time>2019-06-16T17:47:08.064Z</time>
      </trkpt>
      <trkpt lat="50.30866" lon="2.411">
        <ele>121.904071</ele>
        <time>2019-06-16T17:47:26.063Z</time>
      </trkpt>
      <trkpt lat="50.30728" lon="2.41006">
        <ele>121.052419</ele>
        <time>2019-06-16T17:47:58.506Z</time>
      </trkpt>
      <trkpt lat="50.30668" lon="2.40983">
        <ele>120.211218</ele>
        <time>2019-06-16T17:48:11.067Z</time>
      </trkpt>
      <trkpt lat="50.30592" lon="2.40938">
        <ele>118.782414</ele>
        <time>2019-06-16T17:48:26.811Z</time>
      </trkpt>
      <trkpt lat="50.30512" lon="2.40899">
        <ele>117.514348</ele>
        <time>2019-06-16T17:48:42.550Z</time>
      </trkpt>
      <trkpt lat="50.30485" lon="2.40879">
        <ele>117.198468</ele>
        <time>2019-06-16T17:48:48.613Z</time>
      </trkpt>
      <trkpt lat="50.30447" lon="2.40832">
        <ele>116.686563</ele>
        <time>2019-06-16T17:48:59.530Z</time>
      </trkpt>
      <trkpt lat="50.30429" lon="2.40812">
        <ele>116.450253</ele>
        <time>2019-06-16T17:49:03.932Z</time>
      </trkpt>
      <trkpt lat="50.30419" lon="2.4082">
        <ele>116.333174</ele>
        <time>2019-06-16T17:49:07.466Z</time>
      </trkpt>
      <trkpt lat="50.30371" lon="2.40859">
        <ele>115.801089</ele>
        <time>2019-06-16T17:49:17.885Z</time>
      </trkpt>
      <trkpt lat="50.30364" lon="2.40863">
        <ele>115.749514</ele>
        <time>2019-06-16T17:49:19.577Z</time>
      </trkpt>
      <trkpt lat="50.30332" lon="2.40897">
        <ele>115.460266</ele>
        <time>2019-06-16T17:49:27.820Z</time>
      </trkpt>
      <trkpt lat="50.30282" lon="2.40959">
        <ele>114.980437</ele>
        <time>2019-06-16T17:49:41.549Z</time>
      </trkpt>
      <trkpt lat="50.30269" lon="2.40982">
        <ele>114.832866</ele>
        <time>2019-06-16T17:49:45.859Z</time>
      </trkpt>
      <trkpt lat="50.30256" lon="2.41013">
        <ele>114.657124</ele>
        <time>2019-06-16T17:49:50.595Z</time>
      </trkpt>
      <trkpt lat="50.30245" lon="2.41028">
        <ele>114.531064</ele>
        <time>2019-06-16T17:49:53.477Z</time>
      </trkpt>
      <trkpt lat="50.30218" lon="2.41012">
        <ele>113.953371</ele>
        <time>2019-06-16T17:49:58.682Z</time>
      </trkpt>
      <trkpt lat="50.30136" lon="2.41013">
        <ele>112.294264</ele>
        <time>2019-06-16T17:50:13.463Z</time>
      </trkpt>
      <trkpt lat="50.29971" lon="2.41136">
        <ele>108.916787</ele>
        <time>2019-06-16T17:50:46.918Z</time>
      </trkpt>
      <trkpt lat="50.29907" lon="2.41163">
        <ele>107.774118</ele>
        <time>2019-06-16T17:50:59.656Z</time>
      </trkpt>
      <trkpt lat="50.29907" lon="2.41163">
        <ele>107.774118</ele>
        <time>2019-06-16T17:50:59.660Z</time>
      </trkpt>
      <trkpt lat="50.29897" lon="2.41165">
        <ele>107.687161</ele>
        <time>2019-06-16T17:51:01.651Z</time>
      </trkpt>
      <trkpt lat="50.29893" lon="2.41176">
        <ele>107.629006</ele>
        <time>2019-06-16T17:51:03.115Z</time>
      </trkpt>
      <trkpt lat="50.29867" lon="2.41222">
        <ele>107.309275</ele>
        <time>2019-06-16T17:51:11.232Z</time>
      </trkpt>
      <trkpt lat="50.29846" lon="2.41259">
        <ele>107.054647</ele>
        <time>2019-06-16T17:51:17.697Z</time>
      </trkpt>
      <trkpt lat="50.29805" lon="2.41335">
        <ele>106.551989</ele>
        <time>2019-06-16T17:51:31.228Z</time>
      </trkpt>
      <trkpt lat="50.29782" lon="2.41375">
        <ele>106.293276</ele>
        <time>2019-06-16T17:51:38.942Z</time>
      </trkpt>
      <trkpt lat="50.29774" lon="2.41402">
        <ele>106.178925</ele>
        <time>2019-06-16T17:51:43.299Z</time>
      </trkpt>
      <trkpt lat="50.29702" lon="2.41701">
        <ele>105.441235</ele>
        <time>2019-06-16T17:52:27.158Z</time>
      </trkpt>
      <trkpt lat="50.29684" lon="2.4178">
        <ele>105.617459</ele>
        <time>2019-06-16T17:52:39.218Z</time>
      </trkpt>
      <trkpt lat="50.29659" lon="2.41853">
        <ele>105.792989</ele>
        <time>2019-06-16T17:52:53.722Z</time>
      </trkpt>
      <trkpt lat="50.29654" lon="2.41868">
        <ele>105.827208</ele>
        <time>2019-06-16T17:52:56.480Z</time>
      </trkpt>
      <trkpt lat="50.29628" lon="2.41942">
        <ele>107.472758</ele>
        <time>2019-06-16T17:53:14.116Z</time>
      </trkpt>
      <trkpt lat="50.29461" lon="2.42394">
        <ele>121.894383</ele>
        <time>2019-06-16T17:55:48.916Z</time>
      </trkpt>
      <trkpt lat="50.29437" lon="2.42467">
        <ele>124.435357</ele>
        <time>2019-06-16T17:56:15.844Z</time>
      </trkpt>
      <trkpt lat="50.29427" lon="2.42522">
        <ele>126.184907</ele>
        <time>2019-06-16T17:56:33.897Z</time>
      </trkpt>
      <trkpt lat="50.29424" lon="2.42548">
        <ele>127.001649</ele>
        <time>2019-06-16T17:56:42.885Z</time>
      </trkpt>
      <trkpt lat="50.29423" lon="2.42585">
        <ele>128.154411</ele>
        <time>2019-06-16T17:56:53.897Z</time>
      </trkpt>
      <trkpt lat="50.29424" lon="2.42606">
        <ele>128.778718</ele>
        <time>2019-06-16T17:56:59.942Z</time>
      </trkpt>
      <trkpt lat="50.29424" lon="2.42636">
        <ele>129.723791</ele>
        <time>2019-06-16T17:57:08.019Z</time>
      </trkpt>
      <trkpt lat="50.29422" lon="2.42703">
        <ele>129.863666</ele>
        <time>2019-06-16T17:57:25.782Z</time>
      </trkpt>
      <trkpt lat="50.29421" lon="2.42762">
        <ele>129.949785</ele>
        <time>2019-06-16T17:57:38.136Z</time>
      </trkpt>
      <trkpt lat="50.2943" lon="2.42793">
        <ele>129.998395</ele>
        <time>2019-06-16T17:57:43.023Z</time>
      </trkpt>
      <trkpt lat="50.29433" lon="2.42806">
        <ele>130.018762</ele>
        <time>2019-06-16T17:57:45.158Z</time>
      </trkpt>
      <trkpt lat="50.29423" lon="2.42835">
        <ele>130.067189</ele>
        <time>2019-06-16T17:57:49.205Z</time>
      </trkpt>
      <trkpt lat="50.29418" lon="2.42853">
        <ele>130.096117</ele>
        <time>2019-06-16T17:57:51.766Z</time>
      </trkpt>
      <trkpt lat="50.2943" lon="2.42919">
        <ele>129.742389</ele>
        <time>2019-06-16T17:57:59.753Z</time>
      </trkpt>
      <trkpt lat="50.2937" lon="2.42971">
        <ele>125.905224</ele>
        <time>2019-06-16T17:58:10.815Z</time>
      </trkpt>
      <trkpt lat="50.29332" lon="2.43003">
        <ele>123.498731</ele>
        <time>2019-06-16T17:58:17.451Z</time>
      </trkpt>
      <trkpt lat="50.29316" lon="2.43006">
        <ele>122.588089</ele>
        <time>2019-06-16T17:58:19.930Z</time>
      </trkpt>
      <trkpt lat="50.29306" lon="2.43003">
        <ele>122.040654</ele>
        <time>2019-06-16T17:58:21.434Z</time>
      </trkpt>
      <trkpt lat="50.2927" lon="2.42967">
        <ele>119.59365</ele>
        <time>2019-06-16T17:58:27.769Z</time>
      </trkpt>
      <trkpt lat="50.29257" lon="2.42962">
        <ele>118.724369</ele>
        <time>2019-06-16T17:58:29.763Z</time>
      </trkpt>
      <trkpt lat="50.29237" lon="2.42968">
        <ele>117.461024</ele>
        <time>2019-06-16T17:58:32.756Z</time>
      </trkpt>
      <trkpt lat="50.29205" lon="2.42986">
        <ele>115.334553</ele>
        <time>2019-06-16T17:58:37.807Z</time>
      </trkpt>
      <trkpt lat="50.29169" lon="2.4304">
        <ele>112.203118</ele>
        <time>2019-06-16T17:58:45.365Z</time>
      </trkpt>
      <trkpt lat="50.2915" lon="2.43068">
        <ele>110.539935</ele>
        <time>2019-06-16T17:58:49.476Z</time>
      </trkpt>
      <trkpt lat="50.29141" lon="2.43081">
        <ele>109.810815</ele>
        <time>2019-06-16T17:58:51.257Z</time>
      </trkpt>
      <trkpt lat="50.29019" lon="2.43269">
        <ele>105.29572</ele>
        <time>2019-06-16T17:59:20.916Z</time>
      </trkpt>
      <trkpt lat="50.28995" lon="2.4332">
        <ele>105.231268</ele>
        <time>2019-06-16T17:59:33.025Z</time>
      </trkpt>
      <trkpt lat="50.28994" lon="2.43363">
        <ele>106.036156</ele>
        <time>2019-06-16T17:59:42.328Z</time>
      </trkpt>
      <trkpt lat="50.29003" lon="2.43464">
        <ele>107.943716</ele>
        <time>2019-06-16T18:00:05.056Z</time>
      </trkpt>
      <trkpt lat="50.28988" lon="2.43497">
        <ele>108.703634</ele>
        <time>2019-06-16T18:00:16.213Z</time>
      </trkpt>
      <trkpt lat="50.28979" lon="2.43504">
        <ele>109.006735</ele>
        <time>2019-06-16T18:00:21.257Z</time>
      </trkpt>
      <trkpt lat="50.28973" lon="2.43507">
        <ele>109.179579</ele>
        <time>2019-06-16T18:00:24.463Z</time>
      </trkpt>
      <trkpt lat="50.28907" lon="2.43513">
        <ele>111.865446</ele>
        <time>2019-06-16T18:00:55.122Z</time>
      </trkpt>
      <trkpt lat="50.28891" lon="2.43534">
        <ele>112.881169</ele>
        <time>2019-06-16T18:01:04.830Z</time>
      </trkpt>
      <trkpt lat="50.28885" lon="2.43547">
        <ele>113.384703</ele>
        <time>2019-06-16T18:01:10.066Z</time>
      </trkpt>
      <trkpt lat="50.28882" lon="2.43558">
        <ele>113.74906</ele>
        <time>2019-06-16T18:01:13.830Z</time>
      </trkpt>
      <trkpt lat="50.28878" lon="2.43587">
        <ele>114.690682</ele>
        <time>2019-06-16T18:01:22.914Z</time>
      </trkpt>
      <trkpt lat="50.28871" lon="2.43614">
        <ele>115.603983</ele>
        <time>2019-06-16T18:01:32.709Z</time>
      </trkpt>
      <trkpt lat="50.28835" lon="2.43678">
        <ele>118.270883</ele>
        <time>2019-06-16T18:01:57.224Z</time>
      </trkpt>
      <trkpt lat="50.28825" lon="2.43706">
        <ele>119.106769</ele>
        <time>2019-06-16T18:02:06.907Z</time>
      </trkpt>
      <trkpt lat="50.28823" lon="2.43744">
        <ele>119.795109</ele>
        <time>2019-06-16T18:02:17.774Z</time>
      </trkpt>
      <trkpt lat="50.28833" lon="2.43835">
        <ele>121.481384</ele>
        <time>2019-06-16T18:02:41.437Z</time>
      </trkpt>
      <trkpt lat="50.28828" lon="2.4391">
        <ele>122.876431</ele>
        <time>2019-06-16T18:02:57.293Z</time>
      </trkpt>
      <trkpt lat="50.28824" lon="2.43929">
        <ele>123.237406</ele>
        <time>2019-06-16T18:03:01.652Z</time>
      </trkpt>
      <trkpt lat="50.28825" lon="2.43944">
        <ele>123.516833</ele>
        <time>2019-06-16T18:03:04.436Z</time>
      </trkpt>
      <trkpt lat="50.28832" lon="2.4402">
        <ele>123.979445</ele>
        <time>2019-06-16T18:03:17.873Z</time>
      </trkpt>
      <trkpt lat="50.28832" lon="2.44077">
        <ele>123.956537</ele>
        <time>2019-06-16T18:03:26.756Z</time>
      </trkpt>
      <trkpt lat="50.28834" lon="2.4411">
        <ele>123.943169</ele>
        <time>2019-06-16T18:03:31.972Z</time>
      </trkpt>
      <trkpt lat="50.2884" lon="2.44128">
        <ele>123.934951</ele>
        <time>2019-06-16T18:03:34.650Z</time>
      </trkpt>
      <trkpt lat="50.2886" lon="2.4418">
        <ele>123.910207</ele>
        <time>2019-06-16T18:03:43.050Z</time>
      </trkpt>
      <trkpt lat="50.28868" lon="2.44235">
        <ele>123.887537</ele>
        <time>2019-06-16T18:03:49.937Z</time>
      </trkpt>
      <trkpt lat="50.28872" lon="2.44267">
        <ele>123.517232</ele>
        <time>2019-06-16T18:03:54.029Z</time>
      </trkpt>
      <trkpt lat="50.28872" lon="2.4428">
        <ele>123.351389</ele>
        <time>2019-06-16T18:03:55.416Z</time>
      </trkpt>
      <trkpt lat="50.28869" lon="2.44338">
        <ele>122.598999</ele>
        <time>2019-06-16T18:04:02.391Z</time>
      </trkpt>
      <trkpt lat="50.28873" lon="2.44386">
        <ele>121.976463</ele>
        <time>2019-06-16T18:04:08.247Z</time>
      </trkpt>
      <trkpt lat="50.28871" lon="2.44428">
        <ele>121.439439</ele>
        <time>2019-06-16T18:04:13.295Z</time>
      </trkpt>
      <trkpt lat="50.28867" lon="2.44436">
        <ele>121.301306</ele>
        <time>2019-06-16T18:04:14.514Z</time>
      </trkpt>
      <trkpt lat="50.28872" lon="2.4444">
        <ele>121.199032</ele>
        <time>2019-06-16T18:04:15.377Z</time>
      </trkpt>
      <trkpt lat="50.28925" lon="2.44457">
        <ele>120.038025</ele>
        <time>2019-06-16T18:04:25.815Z</time>
      </trkpt>
      <trkpt lat="50.28984" lon="2.44491">
        <ele>118.38984</ele>
        <time>2019-06-16T18:04:36.700Z</time>
      </trkpt>
      <trkpt lat="50.29047" lon="2.44509">
        <ele>116.661699</ele>
        <time>2019-06-16T18:04:48.420Z</time>
      </trkpt>
      <trkpt lat="50.29073" lon="2.44512">
        <ele>115.969342</ele>
        <time>2019-06-16T18:04:53.547Z</time>
      </trkpt>
      <trkpt lat="50.29083" lon="2.44519">
        <ele>115.693573</ele>
        <time>2019-06-16T18:04:55.387Z</time>
      </trkpt>
      <trkpt lat="50.2909" lon="2.44527">
        <ele>115.497369</ele>
        <time>2019-06-16T18:04:57.283Z</time>
      </trkpt>
      <trkpt lat="50.29096" lon="2.44561">
        <ele>115.672172</ele>
        <time>2019-06-16T18:05:01.774Z</time>
      </trkpt>
      <trkpt lat="50.29088" lon="2.44651">
        <ele>116.121373</ele>
        <time>2019-06-16T18:05:14.386Z</time>
      </trkpt>
      <trkpt lat="50.29067" lon="2.44712">
        <ele>116.463782</ele>
        <time>2019-06-16T18:05:26.416Z</time>
      </trkpt>
      <trkpt lat="50.2903" lon="2.44765">
        <ele>116.854584</ele>
        <time>2019-06-16T18:05:45.039Z</time>
      </trkpt>
      <trkpt lat="50.29022" lon="2.44802">
        <ele>117.990787</ele>
        <time>2019-06-16T18:05:56.204Z</time>
      </trkpt>
      <trkpt lat="50.29027" lon="2.44823">
        <ele>118.699803</ele>
        <time>2019-06-16T18:06:02.584Z</time>
      </trkpt>
      <trkpt lat="50.29053" lon="2.44882">
        <ele>121.068465</ele>
        <time>2019-06-16T18:06:25.153Z</time>
      </trkpt>
      <trkpt lat="50.29065" lon="2.44934">
        <ele>122.897352</ele>
        <time>2019-06-16T18:06:43.690Z</time>
      </trkpt>
      <trkpt lat="50.29099" lon="2.4516">
        <ele>130.530127</ele>
        <time>2019-06-16T18:08:02.306Z</time>
      </trkpt>
      <trkpt lat="50.29089" lon="2.452">
        <ele>131.97291</ele>
        <time>2019-06-16T18:08:16.123Z</time>
      </trkpt>
      <trkpt lat="50.29045" lon="2.45271">
        <ele>135.201311</ele>
        <time>2019-06-16T18:08:45.206Z</time>
      </trkpt>
      <trkpt lat="50.29009" lon="2.45425">
        <ele>138.047199</ele>
        <time>2019-06-16T18:09:26.232Z</time>
      </trkpt>
      <trkpt lat="50.29004" lon="2.45499">
        <ele>139.280652</ele>
        <time>2019-06-16T18:09:42.014Z</time>
      </trkpt>
      <trkpt lat="50.29038" lon="2.45808">
        <ele>141.720357</ele>
        <time>2019-06-16T18:10:38.908Z</time>
      </trkpt>
      <trkpt lat="50.2904" lon="2.45823">
        <ele>141.81089</ele>
        <time>2019-06-16T18:10:41.447Z</time>
      </trkpt>
      <trkpt lat="50.29059" lon="2.45984">
        <ele>141.704641</ele>
        <time>2019-06-16T18:11:07.108Z</time>
      </trkpt>
      <trkpt lat="50.29051" lon="2.46091">
        <ele>141.62514</ele>
        <time>2019-06-16T18:11:22.307Z</time>
      </trkpt>
      <trkpt lat="50.29029" lon="2.46235">
        <ele>140.121527</ele>
        <time>2019-06-16T18:11:41.229Z</time>
      </trkpt>
      <trkpt lat="50.29023" lon="2.46357">
        <ele>138.776562</ele>
        <time>2019-06-16T18:11:56.088Z</time>
      </trkpt>
      <trkpt lat="50.29021" lon="2.46438">
        <ele>137.876292</ele>
        <time>2019-06-16T18:12:05.889Z</time>
      </trkpt>
      <trkpt lat="50.29035" lon="2.46521">
        <ele>136.910184</ele>
        <time>2019-06-16T18:12:16.521Z</time>
      </trkpt>
      <trkpt lat="50.29068" lon="2.46636">
        <ele>135.501779</ele>
        <time>2019-06-16T18:12:32.358Z</time>
      </trkpt>
      <trkpt lat="50.29101" lon="2.46782">
        <ele>135.232859</ele>
        <time>2019-06-16T18:12:53.700Z</time>
      </trkpt>
      <trkpt lat="50.29107" lon="2.46807">
        <ele>135.207843</ele>
        <time>2019-06-16T18:12:57.497Z</time>
      </trkpt>
      <trkpt lat="50.29114" lon="2.46836">
        <ele>135.17891</ele>
        <time>2019-06-16T18:13:02.279Z</time>
      </trkpt>
      <trkpt lat="50.29125" lon="2.46936">
        <ele>135.393499</ele>
        <time>2019-06-16T18:13:19.382Z</time>
      </trkpt>
      <trkpt lat="50.29128" lon="2.46971">
        <ele>135.895598</ele>
        <time>2019-06-16T18:13:26.092Z</time>
      </trkpt>
      <trkpt lat="50.2913" lon="2.46989">
        <ele>136.164474</ele>
        <time>2019-06-16T18:13:29.950Z</time>
      </trkpt>
      <trkpt lat="50.29131" lon="2.47009">
        <ele>136.441978</ele>
        <time>2019-06-16T18:13:34.208Z</time>
      </trkpt>
      <trkpt lat="50.29129" lon="2.47053">
        <ele>137.077581</ele>
        <time>2019-06-16T18:13:43.624Z</time>
      </trkpt>
      <trkpt lat="50.29127" lon="2.47066">
        <ele>137.265399</ele>
        <time>2019-06-16T18:13:46.738Z</time>
      </trkpt>
      <trkpt lat="50.29122" lon="2.4709">
        <ele>137.621591</ele>
        <time>2019-06-16T18:13:51.976Z</time>
      </trkpt>
      <trkpt lat="50.29104" lon="2.47144">
        <ele>138.499679</ele>
        <time>2019-06-16T18:14:07.056Z</time>
      </trkpt>
      <trkpt lat="50.29076" lon="2.47233">
        <ele>140.054442</ele>
        <time>2019-06-16T18:14:32.137Z</time>
      </trkpt>
      <trkpt lat="50.29055" lon="2.4732">
        <ele>141.589275</ele>
        <time>2019-06-16T18:14:52.818Z</time>
      </trkpt>
      <trkpt lat="50.29053" lon="2.47333">
        <ele>141.816417</ele>
        <time>2019-06-16T18:14:57.097Z</time>
      </trkpt>
      <trkpt lat="50.29032" lon="2.47311">
        <ele>142.478039</ele>
        <time>2019-06-16T18:15:04.710Z</time>
      </trkpt>
      <trkpt lat="50.29007" lon="2.47313">
        <ele>143.127463</ele>
        <time>2019-06-16T18:15:13.432Z</time>
      </trkpt>
      <trkpt lat="50.28999" lon="2.47323">
        <ele>143.382722</ele>
        <time>2019-06-16T18:15:16.274Z</time>
      </trkpt>
      <trkpt lat="50.28987" lon="2.47344">
        <ele>143.85326</ele>
        <time>2019-06-16T18:15:22.922Z</time>
      </trkpt>
      <trkpt lat="50.28978" lon="2.47385">
        <ele>144.389181</ele>
        <time>2019-06-16T18:15:31.167Z</time>
      </trkpt>
      <trkpt lat="50.28975" lon="2.47396">
        <ele>144.549732</ele>
        <time>2019-06-16T18:15:34.124Z</time>
      </trkpt>
      <trkpt lat="50.28969" lon="2.47405">
        <ele>144.712877</ele>
        <time>2019-06-16T18:15:36.349Z</time>
      </trkpt>
      <trkpt lat="50.28956" lon="2.47417">
        <ele>145.018036</ele>
        <time>2019-06-16T18:15:40.837Z</time>
      </trkpt>
      <trkpt lat="50.28947" lon="2.47417">
        <ele>145.185454</ele>
        <time>2019-06-16T18:15:44.368Z</time>
      </trkpt>
      <trkpt lat="50.28943" lon="2.47417">
        <ele>145.256459</ele>
        <time>2019-06-16T18:15:45.465Z</time>
      </trkpt>
      <trkpt lat="50.28924" lon="2.47416">
        <ele>145.644863</ele>
        <time>2019-06-16T18:15:50.851Z</time>
      </trkpt>
      <trkpt lat="50.28881" lon="2.47413">
        <ele>146.482568</ele>
        <time>2019-06-16T18:16:03.826Z</time>
      </trkpt>
      <trkpt lat="50.28878" lon="2.47424">
        <ele>146.630412</ele>
        <time>2019-06-16T18:16:06.622Z</time>
      </trkpt>
      <trkpt lat="50.28876" lon="2.47471">
        <ele>147.226252</ele>
        <time>2019-06-16T18:16:16.001Z</time>
      </trkpt>
      <trkpt lat="50.28869" lon="2.47483">
        <ele>147.492016</ele>
        <time>2019-06-16T18:16:20.066Z</time>
      </trkpt>
      <trkpt lat="50.28854" lon="2.47495">
        <ele>148.077973</ele>
        <time>2019-06-16T18:16:25.332Z</time>
      </trkpt>
      <trkpt lat="50.2883" lon="2.47502">
        <ele>148.917999</ele>
        <time>2019-06-16T18:16:34.997Z</time>
      </trkpt>
      <trkpt lat="50.288" lon="2.47508">
        <ele>149.924551</ele>
        <time>2019-06-16T18:16:46.941Z</time>
      </trkpt>
      <trkpt lat="50.28753" lon="2.47527">
        <ele>151.589537</ele>
        <time>2019-06-16T18:17:06.097Z</time>
      </trkpt>
      <trkpt lat="50.28712" lon="2.47548">
        <ele>153.045156</ele>
        <time>2019-06-16T18:17:24.004Z</time>
      </trkpt>
      <trkpt lat="50.28708" lon="2.4755">
        <ele>153.204756</ele>
        <time>2019-06-16T18:17:26.722Z</time>
      </trkpt>
      <trkpt lat="50.28673" lon="2.47563">
        <ele>154.547108</ele>
        <time>2019-06-16T18:17:41.575Z</time>
      </trkpt>
      <trkpt lat="50.28498" lon="2.47575">
        <ele>160.601032</ele>
        <time>2019-06-16T18:18:55.569Z</time>
      </trkpt>
      <trkpt lat="50.28481" lon="2.47569">
        <ele>160.704716</ele>
        <time>2019-06-16T18:19:02.319Z</time>
      </trkpt>
      <trkpt lat="50.28471" lon="2.47556">
        <ele>160.786628</ele>
        <time>2019-06-16T18:19:05.996Z</time>
      </trkpt>
      <trkpt lat="50.28449" lon="2.47536">
        <ele>160.944343</ele>
        <time>2019-06-16T18:19:14.152Z</time>
      </trkpt>
      <trkpt lat="50.2842" lon="2.47524">
        <ele>161.123601</ele>
        <time>2019-06-16T18:19:21.758Z</time>
      </trkpt>
      <trkpt lat="50.28358" lon="2.47545">
        <ele>161.51482</ele>
        <time>2019-06-16T18:19:34.922Z</time>
      </trkpt>
      <trkpt lat="50.28199" lon="2.47556">
        <ele>154.881534</ele>
        <time>2019-06-16T18:20:00.919Z</time>
      </trkpt>
      <trkpt lat="50.28072" lon="2.47617">
        <ele>147.024963</ele>
        <time>2019-06-16T18:20:21.055Z</time>
      </trkpt>
      <trkpt lat="50.27963" lon="2.47642">
        <ele>140.709131</ele>
        <time>2019-06-16T18:20:37.781Z</time>
      </trkpt>
      <trkpt lat="50.27904" lon="2.47654">
        <ele>138.119535</ele>
        <time>2019-06-16T18:20:47.104Z</time>
      </trkpt>
      <trkpt lat="50.27883" lon="2.47659">
        <ele>137.170397</ele>
        <time>2019-06-16T18:20:50.696Z</time>
      </trkpt>
      <trkpt lat="50.27848" lon="2.47659">
        <ele>135.626273</ele>
        <time>2019-06-16T18:20:56.655Z</time>
      </trkpt>
      <trkpt lat="50.27816" lon="2.47638">
        <ele>134.333195</ele>
        <time>2019-06-16T18:21:02.703Z</time>
      </trkpt>
      <trkpt lat="50.27799" lon="2.47627">
        <ele>134.240345</ele>
        <time>2019-06-16T18:21:06.093Z</time>
      </trkpt>
      <trkpt lat="50.27796" lon="2.47659">
        <ele>134.137528</ele>
        <time>2019-06-16T18:21:10.205Z</time>
      </trkpt>
      <trkpt lat="50.27796" lon="2.47744">
        <ele>133.870451</ele>
        <time>2019-06-16T18:21:21.603Z</time>
      </trkpt>
      <trkpt lat="50.27806" lon="2.47797">
        <ele>133.698075</ele>
        <time>2019-06-16T18:21:30.075Z</time>
      </trkpt>
      <trkpt lat="50.27823" lon="2.47841">
        <ele>133.534485</ele>
        <time>2019-06-16T18:21:38.431Z</time>
      </trkpt>
      <trkpt lat="50.2783" lon="2.47898">
        <ele>133.626934</ele>
        <time>2019-06-16T18:21:48.859Z</time>
      </trkpt>
      <trkpt lat="50.27824" lon="2.481">
        <ele>134.436825</ele>
        <time>2019-06-16T18:22:22.356Z</time>
      </trkpt>
      <trkpt lat="50.27822" lon="2.48152">
        <ele>134.597001</ele>
        <time>2019-06-16T18:22:30.369Z</time>
      </trkpt>
      <trkpt lat="50.27805" lon="2.48446">
        <ele>134.442306</ele>
        <time>2019-06-16T18:23:11.503Z</time>
      </trkpt>
      <trkpt lat="50.27793" lon="2.48626">
        <ele>134.137206</ele>
        <time>2019-06-16T18:23:36.158Z</time>
      </trkpt>
      <trkpt lat="50.27788" lon="2.48697">
        <ele>134.018336</ele>
        <time>2019-06-16T18:23:46.033Z</time>
      </trkpt>
      <trkpt lat="50.27772" lon="2.48834">
        <ele>134.392192</ele>
        <time>2019-06-16T18:24:06.673Z</time>
      </trkpt>
      <trkpt lat="50.27746" lon="2.48974">
        <ele>134.807133</ele>
        <time>2019-06-16T18:24:30.612Z</time>
      </trkpt>
      <trkpt lat="50.27733" lon="2.49042">
        <ele>135.232254</ele>
        <time>2019-06-16T18:24:43.416Z</time>
      </trkpt>
      <trkpt lat="50.27712" lon="2.49132">
        <ele>135.804767</ele>
        <time>2019-06-16T18:25:00.343Z</time>
      </trkpt>
      <trkpt lat="50.27675" lon="2.49162">
        <ele>136.188525</ele>
        <time>2019-06-16T18:25:11.373Z</time>
      </trkpt>
      <trkpt lat="50.27664" lon="2.4918">
        <ele>136.343968</ele>
        <time>2019-06-16T18:25:16.083Z</time>
      </trkpt>
      <trkpt lat="50.27649" lon="2.49166">
        <ele>136.499998</ele>
        <time>2019-06-16T18:25:20.471Z</time>
      </trkpt>
      <trkpt lat="50.27621" lon="2.49214">
        <ele>136.677049</ele>
        <time>2019-06-16T18:25:31.265Z</time>
      </trkpt>
      <trkpt lat="50.27553" lon="2.49356">
        <ele>137.16849</ele>
        <time>2019-06-16T18:25:59.749Z</time>
      </trkpt>
      <trkpt lat="50.27491" lon="2.49542">
        <ele>137.534038</ele>
        <time>2019-06-16T18:26:31.626Z</time>
      </trkpt>
      <trkpt lat="50.27473" lon="2.49606">
        <ele>137.63857</ele>
        <time>2019-06-16T18:26:42.530Z</time>
      </trkpt>
      <trkpt lat="50.27457" lon="2.49698">
        <ele>138.056692</ele>
        <time>2019-06-16T18:26:58.246Z</time>
      </trkpt>
      <trkpt lat="50.2745" lon="2.49777">
        <ele>138.584063</ele>
        <time>2019-06-16T18:27:12.579Z</time>
      </trkpt>
      <trkpt lat="50.27441" lon="2.49872">
        <ele>139.204604</ele>
        <time>2019-06-16T18:27:30.357Z</time>
      </trkpt>
      <trkpt lat="50.27424" lon="2.49976">
        <ele>140.133449</ele>
        <time>2019-06-16T18:27:51.402Z</time>
      </trkpt>
      <trkpt lat="50.27408" lon="2.50097">
        <ele>141.445342</ele>
        <time>2019-06-16T18:28:16.885Z</time>
      </trkpt>
      <trkpt lat="50.27408" lon="2.50303">
        <ele>143.105212</ele>
        <time>2019-06-16T18:28:58.030Z</time>
      </trkpt>
      <trkpt lat="50.27396" lon="2.5044">
        <ele>143.884585</ele>
        <time>2019-06-16T18:29:21.955Z</time>
      </trkpt>
      <trkpt lat="50.27384" lon="2.50489">
        <ele>144.025105</ele>
        <time>2019-06-16T18:29:29.924Z</time>
      </trkpt>
      <trkpt lat="50.27361" lon="2.50542">
        <ele>143.71019</ele>
        <time>2019-06-16T18:29:38.829Z</time>
      </trkpt>
      <trkpt lat="50.27355" lon="2.50554">
        <ele>143.635155</ele>
        <time>2019-06-16T18:29:40.894Z</time>
      </trkpt>
      <trkpt lat="50.27357" lon="2.50597">
        <ele>143.416153</ele>
        <time>2019-06-16T18:29:46.644Z</time>
      </trkpt>
      <trkpt lat="50.27358" lon="2.50666">
        <ele>143.073415</ele>
        <time>2019-06-16T18:29:55.447Z</time>
      </trkpt>
      <trkpt lat="50.27359" lon="2.50698">
        <ele>142.916219</ele>
        <time>2019-06-16T18:29:59.437Z</time>
      </trkpt>
      <trkpt lat="50.27359" lon="2.50719">
        <ele>142.807924</ele>
        <time>2019-06-16T18:30:02.117Z</time>
      </trkpt>
      <trkpt lat="50.27361" lon="2.5083">
        <ele>141.644854</ele>
        <time>2019-06-16T18:30:15.550Z</time>
      </trkpt>
      <trkpt lat="50.27388" lon="2.51014">
        <ele>139.381513</ele>
        <time>2019-06-16T18:30:38.012Z</time>
      </trkpt>
      <trkpt lat="50.27389" lon="2.51024">
        <ele>139.23682</ele>
        <time>2019-06-16T18:30:38.995Z</time>
      </trkpt>
      <trkpt lat="50.27398" lon="2.5109">
        <ele>138.054003</ele>
        <time>2019-06-16T18:30:46.673Z</time>
      </trkpt>
      <trkpt lat="50.27419" lon="2.51237">
        <ele>135.43179</ele>
        <time>2019-06-16T18:31:03.596Z</time>
      </trkpt>
      <trkpt lat="50.2742" lon="2.51246">
        <ele>135.279104</ele>
        <time>2019-06-16T18:31:04.456Z</time>
      </trkpt>
      <trkpt lat="50.27432" lon="2.51341">
        <ele>133.595242</ele>
        <time>2019-06-16T18:31:15.385Z</time>
      </trkpt>
      <trkpt lat="50.27442" lon="2.51399">
        <ele>132.560013</ele>
        <time>2019-06-16T18:31:22.118Z</time>
      </trkpt>
      <trkpt lat="50.27485" lon="2.51532">
        <ele>129.986336</ele>
        <time>2019-06-16T18:31:38.781Z</time>
      </trkpt>
      <trkpt lat="50.27501" lon="2.51598">
        <ele>128.888249</ele>
        <time>2019-06-16T18:31:46.907Z</time>
      </trkpt>
      <trkpt lat="50.27507" lon="2.51673">
        <ele>127.771678</ele>
        <time>2019-06-16T18:31:55.660Z</time>
      </trkpt>
      <trkpt lat="50.27497" lon="2.51898">
        <ele>124.784658</ele>
        <time>2019-06-16T18:32:21.794Z</time>
      </trkpt>
      <trkpt lat="50.27523" lon="2.52023">
        <ele>123.452476</ele>
        <time>2019-06-16T18:32:37.772Z</time>
      </trkpt>
      <trkpt lat="50.27525" lon="2.52043">
        <ele>123.255018</ele>
        <time>2019-06-16T18:32:40.188Z</time>
      </trkpt>
      <trkpt lat="50.27527" lon="2.52075">
        <ele>122.924763</ele>
        <time>2019-06-16T18:32:44.301Z</time>
      </trkpt>
      <trkpt lat="50.27539" lon="2.52272">
        <ele>122.265957</ele>
        <time>2019-06-16T18:33:09.686Z</time>
      </trkpt>
      <trkpt lat="50.27531" lon="2.52333">
        <ele>122.135247</ele>
        <time>2019-06-16T18:33:19.107Z</time>
      </trkpt>
      <trkpt lat="50.27526" lon="2.52369">
        <ele>122.058816</ele>
        <time>2019-06-16T18:33:24.624Z</time>
      </trkpt>
      <trkpt lat="50.2752" lon="2.52446">
        <ele>122.813684</ele>
        <time>2019-06-16T18:33:37.954Z</time>
      </trkpt>
      <trkpt lat="50.27521" lon="2.52458">
        <ele>122.973877</ele>
        <time>2019-06-16T18:33:40.203Z</time>
      </trkpt>
      <trkpt lat="50.27523" lon="2.52472">
        <ele>123.150308</ele>
        <time>2019-06-16T18:33:42.818Z</time>
      </trkpt>
      <trkpt lat="50.27527" lon="2.52482">
        <ele>123.303842</ele>
        <time>2019-06-16T18:33:45.074Z</time>
      </trkpt>
      <trkpt lat="50.27531" lon="2.52488">
        <ele>123.415475</ele>
        <time>2019-06-16T18:33:46.827Z</time>
      </trkpt>
      <trkpt lat="50.27539" lon="2.52507">
        <ele>123.707167</ele>
        <time>2019-06-16T18:33:51.151Z</time>
      </trkpt>
      <trkpt lat="50.27552" lon="2.52541">
        <ele>124.215255</ele>
        <time>2019-06-16T18:33:59.287Z</time>
      </trkpt>
      <trkpt lat="50.27586" lon="2.5264">
        <ele>125.673456</ele>
        <time>2019-06-16T18:34:25.342Z</time>
      </trkpt>
      <trkpt lat="50.27592" lon="2.52655">
        <ele>126.062598</ele>
        <time>2019-06-16T18:34:30.187Z</time>
      </trkpt>
      <trkpt lat="50.27606" lon="2.5269">
        <ele>126.996096</ele>
        <time>2019-06-16T18:34:40.705Z</time>
      </trkpt>
      <trkpt lat="50.2762" lon="2.5272">
        <ele>127.840685</ele>
        <time>2019-06-16T18:34:51.531Z</time>
      </trkpt>
      <trkpt lat="50.27625" lon="2.52727">
        <ele>128.079729</ele>
        <time>2019-06-16T18:34:54.185Z</time>
      </trkpt>
      <trkpt lat="50.27633" lon="2.52735">
        <ele>128.412545</ele>
        <time>2019-06-16T18:34:57.839Z</time>
      </trkpt>
      <trkpt lat="50.27643" lon="2.52743">
        <ele>128.800587</ele>
        <time>2019-06-16T18:35:02.720Z</time>
      </trkpt>
      <trkpt lat="50.27651" lon="2.52748">
        <ele>129.113383</ele>
        <time>2019-06-16T18:35:06.723Z</time>
      </trkpt>
      <trkpt lat="50.27697" lon="2.52785">
        <ele>130.941641</ele>
        <time>2019-06-16T18:35:27.189Z</time>
      </trkpt>
      <trkpt lat="50.27701" lon="2.52789">
        <ele>131.114123</ele>
        <time>2019-06-16T18:35:29.989Z</time>
      </trkpt>
      <trkpt lat="50.27737" lon="2.52817">
        <ele>132.171086</ele>
        <time>2019-06-16T18:35:44.670Z</time>
      </trkpt>
      <trkpt lat="50.27748" lon="2.52827">
        <ele>132.339189</ele>
        <time>2019-06-16T18:35:49.880Z</time>
      </trkpt>
      <trkpt lat="50.27752" lon="2.52832">
        <ele>132.400273</ele>
        <time>2019-06-16T18:35:51.380Z</time>
      </trkpt>
      <trkpt lat="50.27764" lon="2.52845">
        <ele>132.581881</ele>
        <time>2019-06-16T18:35:56.533Z</time>
      </trkpt>
      <trkpt lat="50.2777" lon="2.52853">
        <ele>132.679297</ele>
        <time>2019-06-16T18:35:58.961Z</time>
      </trkpt>
      <trkpt lat="50.27771" lon="2.52854">
        <ele>132.697743</ele>
        <time>2019-06-16T18:35:59.680Z</time>
      </trkpt>
      <trkpt lat="50.27776" lon="2.5286">
        <ele>132.773521</ele>
        <time>2019-06-16T18:36:01.974Z</time>
      </trkpt>
      <trkpt lat="50.27779" lon="2.52867">
        <ele>132.83637</ele>
        <time>2019-06-16T18:36:03.198Z</time>
      </trkpt>
      <trkpt lat="50.27782" lon="2.52874">
        <ele>132.909135</ele>
        <time>2019-06-16T18:36:04.657Z</time>
      </trkpt>
      <trkpt lat="50.27787" lon="2.52886">
        <ele>133.018842</ele>
        <time>2019-06-16T18:36:07.675Z</time>
      </trkpt>
      <trkpt lat="50.27788" lon="2.52891">
        <ele>133.062424</ele>
        <time>2019-06-16T18:36:08.565Z</time>
      </trkpt>
      <trkpt lat="50.27794" lon="2.52913">
        <ele>133.252692</ele>
        <time>2019-06-16T18:36:12.638Z</time>
      </trkpt>
      <trkpt lat="50.27796" lon="2.52921">
        <ele>133.320405</ele>
        <time>2019-06-16T18:36:13.836Z</time>
      </trkpt>
      <trkpt lat="50.27808" lon="2.52975">
        <ele>133.778013</ele>
        <time>2019-06-16T18:36:23.232Z</time>
      </trkpt>
      <trkpt lat="50.27812" lon="2.53019">
        <ele>134.130035</ele>
        <time>2019-06-16T18:36:29.393Z</time>
      </trkpt>
      <trkpt lat="50.27813" lon="2.53031">
        <ele>134.224957</ele>
        <time>2019-06-16T18:36:31.035Z</time>
      </trkpt>
      <trkpt lat="50.27814" lon="2.53042">
        <ele>134.137744</ele>
        <time>2019-06-16T18:36:32.485Z</time>
      </trkpt>
      <trkpt lat="50.27819" lon="2.53103">
        <ele>133.656803</ele>
        <time>2019-06-16T18:36:40.197Z</time>
      </trkpt>
      <trkpt lat="50.27824" lon="2.53179">
        <ele>133.057853</ele>
        <time>2019-06-16T18:36:49.550Z</time>
      </trkpt>
      <trkpt lat="50.27825" lon="2.53186">
        <ele>133.001004</ele>
        <time>2019-06-16T18:36:50.426Z</time>
      </trkpt>
      <trkpt lat="50.27835" lon="2.53309">
        <ele>132.028986</ele>
        <time>2019-06-16T18:37:05.532Z</time>
      </trkpt>
      <trkpt lat="50.27842" lon="2.53361">
        <ele>131.723746</ele>
        <time>2019-06-16T18:37:12.021Z</time>
      </trkpt>
      <trkpt lat="50.27845" lon="2.53382">
        <ele>131.601443</ele>
        <time>2019-06-16T18:37:14.670Z</time>
      </trkpt>
      <trkpt lat="50.27848" lon="2.5338">
        <ele>131.575321</ele>
        <time>2019-06-16T18:37:15.285Z</time>
      </trkpt>
      <trkpt lat="50.27854" lon="2.53376">
        <ele>131.517165</ele>
        <time>2019-06-16T18:37:16.631Z</time>
      </trkpt>
      <trkpt lat="50.2786" lon="2.53396">
        <ele>131.385455</ele>
        <time>2019-06-16T18:37:19.629Z</time>
      </trkpt>
      <trkpt lat="50.27865" lon="2.53421">
        <ele>131.235663</ele>
        <time>2019-06-16T18:37:23.108Z</time>
      </trkpt>
      <trkpt lat="50.27872" lon="2.53461">
        <ele>131.001196</ele>
        <time>2019-06-16T18:37:28.550Z</time>
      </trkpt>
      <trkpt lat="50.27874" lon="2.5347">
        <ele>130.947295</ele>
        <time>2019-06-16T18:37:29.793Z</time>
      </trkpt>
      <trkpt lat="50.27888" lon="2.53519">
        <ele>130.638742</ele>
        <time>2019-06-16T18:37:37.310Z</time>
      </trkpt>
      <trkpt lat="50.27894" lon="2.53539">
        <ele>130.5141</ele>
        <time>2019-06-16T18:37:40.718Z</time>
      </trkpt>
      <trkpt lat="50.27929" lon="2.53662">
        <ele>130.040117</ele>
        <time>2019-06-16T18:38:00.586Z</time>
      </trkpt>
      <trkpt lat="50.27931" lon="2.53672">
        <ele>130.00647</ele>
        <time>2019-06-16T18:38:02.050Z</time>
      </trkpt>
      <trkpt lat="50.27939" lon="2.53671">
        <ele>129.967862</ele>
        <time>2019-06-16T18:38:03.562Z</time>
      </trkpt>
      <trkpt lat="50.27948" lon="2.53671">
        <ele>129.92301</ele>
        <time>2019-06-16T18:38:05.437Z</time>
      </trkpt>
      <trkpt lat="50.27973" lon="2.53684">
        <ele>129.791559</ele>
        <time>2019-06-16T18:38:10.977Z</time>
      </trkpt>
      <trkpt lat="50.27989" lon="2.53695">
        <ele>129.705232</ele>
        <time>2019-06-16T18:38:14.690Z</time>
      </trkpt>
      <trkpt lat="50.28007" lon="2.53704">
        <ele>129.607506</ele>
        <time>2019-06-16T18:38:18.693Z</time>
      </trkpt>
      <trkpt lat="50.28037" lon="2.53714">
        <ele>129.328207</ele>
        <time>2019-06-16T18:38:24.912Z</time>
      </trkpt>
      <trkpt lat="50.28037" lon="2.53714">
        <ele>129.328207</ele>
        <time>2019-06-16T18:38:24.923Z</time>
      </trkpt>
      <trkpt lat="50.2805" lon="2.53718">
        <ele>129.112728</ele>
        <time>2019-06-16T18:38:27.507Z</time>
      </trkpt>
      <trkpt lat="50.2817" lon="2.53754">
        <ele>127.132012</ele>
        <time>2019-06-16T18:38:50.638Z</time>
      </trkpt>
      <trkpt lat="50.28201" lon="2.53773">
        <ele>126.580108</ele>
        <time>2019-06-16T18:38:56.588Z</time>
      </trkpt>
      <trkpt lat="50.28228" lon="2.53789">
        <ele>125.930119</ele>
        <time>2019-06-16T18:39:01.726Z</time>
      </trkpt>
      <trkpt lat="50.28275" lon="2.5382">
        <ele>124.764215</ele>
        <time>2019-06-16T18:39:10.995Z</time>
      </trkpt>
      <trkpt lat="50.28279" lon="2.53837">
        <ele>124.495096</ele>
        <time>2019-06-16T18:39:13.164Z</time>
      </trkpt>
      <trkpt lat="50.28334" lon="2.53918">
        <ele>122.768885</ele>
        <time>2019-06-16T18:39:27.566Z</time>
      </trkpt>
      <trkpt lat="50.28407" lon="2.53958">
        <ele>120.688413</ele>
        <time>2019-06-16T18:39:42.010Z</time>
      </trkpt>
      <trkpt lat="50.28457" lon="2.54025">
        <ele>118.856147</ele>
        <time>2019-06-16T18:39:54.065Z</time>
      </trkpt>
      <trkpt lat="50.28493" lon="2.54088">
        <ele>117.327937</ele>
        <time>2019-06-16T18:40:03.793Z</time>
      </trkpt>
      <trkpt lat="50.28523" lon="2.54105">
        <ele>116.270051</ele>
        <time>2019-06-16T18:40:09.545Z</time>
      </trkpt>
      <trkpt lat="50.28572" lon="2.54139">
        <ele>114.52845</ele>
        <time>2019-06-16T18:40:18.981Z</time>
      </trkpt>
      <trkpt lat="50.28652" lon="2.54218">
        <ele>111.458152</ele>
        <time>2019-06-16T18:40:35.877Z</time>
      </trkpt>
      <trkpt lat="50.28706" lon="2.5428">
        <ele>109.821644</ele>
        <time>2019-06-16T18:40:48.036Z</time>
      </trkpt>
      <trkpt lat="50.28827" lon="2.54443">
        <ele>106.549618</ele>
        <time>2019-06-16T18:41:18.412Z</time>
      </trkpt>
      <trkpt lat="50.29011" lon="2.54612">
        <ele>105.390726</ele>
        <time>2019-06-16T18:42:04.041Z</time>
      </trkpt>
      <trkpt lat="50.29027" lon="2.54632">
        <ele>105.476196</ele>
        <time>2019-06-16T18:42:09.566Z</time>
      </trkpt>
      <trkpt lat="50.29041" lon="2.54653">
        <ele>105.552659</ele>
        <time>2019-06-16T18:42:14.612Z</time>
      </trkpt>
      <trkpt lat="50.29033" lon="2.54689">
        <ele>105.651302</ele>
        <time>2019-06-16T18:42:23.079Z</time>
      </trkpt>
      <trkpt lat="50.29053" lon="2.54968">
        <ele>109.210034</ele>
        <time>2019-06-16T18:43:37.182Z</time>
      </trkpt>
      <trkpt lat="50.29055" lon="2.54981">
        <ele>109.405258</ele>
        <time>2019-06-16T18:43:41.515Z</time>
      </trkpt>
      <trkpt lat="50.29056" lon="2.54986">
        <ele>109.48744</ele>
        <time>2019-06-16T18:43:43.460Z</time>
      </trkpt>
      <trkpt lat="50.29073" lon="2.55075">
        <ele>110.669421</ele>
        <time>2019-06-16T18:44:01.310Z</time>
      </trkpt>
      <trkpt lat="50.29079" lon="2.55092">
        <ele>110.898241</ele>
        <time>2019-06-16T18:44:07.401Z</time>
      </trkpt>
      <trkpt lat="50.29076" lon="2.55124">
        <ele>111.28188</ele>
        <time>2019-06-16T18:44:12.675Z</time>
      </trkpt>
      <trkpt lat="50.29075" lon="2.55175">
        <ele>111.878926</ele>
        <time>2019-06-16T18:44:23.729Z</time>
      </trkpt>
      <trkpt lat="50.29075" lon="2.55218">
        <ele>112.398773</ele>
        <time>2019-06-16T18:44:34.458Z</time>
      </trkpt>
      <trkpt lat="50.29076" lon="2.55233">
        <ele>112.575938</ele>
        <time>2019-06-16T18:44:36.742Z</time>
      </trkpt>
      <trkpt lat="50.29087" lon="2.55275">
        <ele>113.106237</ele>
        <time>2019-06-16T18:44:45.912Z</time>
      </trkpt>
      <trkpt lat="50.29093" lon="2.55282">
        <ele>113.242347</ele>
        <time>2019-06-16T18:44:47.567Z</time>
      </trkpt>
      <trkpt lat="50.29087" lon="2.55298">
        <ele>113.248873</ele>
        <time>2019-06-16T18:44:50.677Z</time>
      </trkpt>
      <trkpt lat="50.29092" lon="2.55304">
        <ele>113.2472</ele>
        <time>2019-06-16T18:44:53.284Z</time>
      </trkpt>
      <trkpt lat="50.29149" lon="2.55372">
        <ele>113.227862</ele>
        <time>2019-06-16T18:45:09.731Z</time>
      </trkpt>
      <trkpt lat="50.2915" lon="2.55381">
        <ele>113.226273</ele>
        <time>2019-06-16T18:45:11.838Z</time>
      </trkpt>
      <trkpt lat="50.29151" lon="2.5539">
        <ele>113.224731</ele>
        <time>2019-06-16T18:45:12.925Z</time>
      </trkpt>
      <trkpt lat="50.29138" lon="2.55487">
        <ele>113.207616</ele>
        <time>2019-06-16T18:45:27.048Z</time>
      </trkpt>
      <trkpt lat="50.29137" lon="2.55494">
        <ele>113.206331</ele>
        <time>2019-06-16T18:45:28.561Z</time>
      </trkpt>
      <trkpt lat="50.29137" lon="2.55504">
        <ele>113.204692</ele>
        <time>2019-06-16T18:45:29.586Z</time>
      </trkpt>
      <trkpt lat="50.29146" lon="2.55662">
        <ele>112.122397</ele>
        <time>2019-06-16T18:45:50.906Z</time>
      </trkpt>
      <trkpt lat="50.29148" lon="2.55692">
        <ele>111.910954</ele>
        <time>2019-06-16T18:45:54.408Z</time>
      </trkpt>
      <trkpt lat="50.29148" lon="2.55738">
        <ele>111.582289</ele>
        <time>2019-06-16T18:46:00.281Z</time>
      </trkpt>
      <trkpt lat="50.29165" lon="2.55917">
        <ele>110.868535</ele>
        <time>2019-06-16T18:46:25.158Z</time>
      </trkpt>
      <trkpt lat="50.29171" lon="2.56067">
        <ele>110.469045</ele>
        <time>2019-06-16T18:46:47.464Z</time>
      </trkpt>
      <trkpt lat="50.29204" lon="2.56217">
        <ele>109.782994</ele>
        <time>2019-06-16T18:47:09.610Z</time>
      </trkpt>
      <trkpt lat="50.29226" lon="2.5643">
        <ele>108.624056</ele>
        <time>2019-06-16T18:47:38.236Z</time>
      </trkpt>
      <trkpt lat="50.2928" lon="2.56601">
        <ele>107.314755</ele>
        <time>2019-06-16T18:48:03.544Z</time>
      </trkpt>
      <trkpt lat="50.29417" lon="2.57149">
        <ele>101.454057</ele>
        <time>2019-06-16T18:49:19.146Z</time>
      </trkpt>
      <trkpt lat="50.29417" lon="2.57149">
        <ele>101.454057</ele>
        <time>2019-06-16T18:49:19.185Z</time>
      </trkpt>
      <trkpt lat="50.29437" lon="2.57222">
        <ele>99.953964</ele>
        <time>2019-06-16T18:49:28.524Z</time>
      </trkpt>
      <trkpt lat="50.2939" lon="2.57272">
        <ele>98.276258</ele>
        <time>2019-06-16T18:49:38.685Z</time>
      </trkpt>
      <trkpt lat="50.2931" lon="2.57365">
        <ele>95.436309</ele>
        <time>2019-06-16T18:49:56.243Z</time>
      </trkpt>
      <trkpt lat="50.29277" lon="2.574">
        <ele>94.397756</ele>
        <time>2019-06-16T18:50:03.493Z</time>
      </trkpt>
      <trkpt lat="50.2926" lon="2.57419">
        <ele>93.856634</ele>
        <time>2019-06-16T18:50:07.353Z</time>
      </trkpt>
      <trkpt lat="50.29218" lon="2.57457">
        <ele>92.5731</ele>
        <time>2019-06-16T18:50:16.687Z</time>
      </trkpt>
      <trkpt lat="50.292" lon="2.57465">
        <ele>92.090374</ele>
        <time>2019-06-16T18:50:20.236Z</time>
      </trkpt>
      <trkpt lat="50.29181" lon="2.57473">
        <ele>91.815956</ele>
        <time>2019-06-16T18:50:24.080Z</time>
      </trkpt>
      <trkpt lat="50.29194" lon="2.57506">
        <ele>91.774595</ele>
        <time>2019-06-16T18:50:30.466Z</time>
      </trkpt>
      <trkpt lat="50.29223" lon="2.57583">
        <ele>91.680163</ele>
        <time>2019-06-16T18:50:45.910Z</time>
      </trkpt>
      <trkpt lat="50.29226" lon="2.57604">
        <ele>91.656902</ele>
        <time>2019-06-16T18:50:49.934Z</time>
      </trkpt>
      <trkpt lat="50.29217" lon="2.57614">
        <ele>91.639707</ele>
        <time>2019-06-16T18:50:52.113Z</time>
      </trkpt>
      <trkpt lat="50.29146" lon="2.57713">
        <ele>92.164731</ele>
        <time>2019-06-16T18:51:20.130Z</time>
      </trkpt>
      <trkpt lat="50.29107" lon="2.57768">
        <ele>93.210046</ele>
        <time>2019-06-16T18:51:37.296Z</time>
      </trkpt>
      <trkpt lat="50.29099" lon="2.57779">
        <ele>93.419443</ele>
        <time>2019-06-16T18:51:40.739Z</time>
      </trkpt>
      <trkpt lat="50.29053" lon="2.57842">
        <ele>94.639778</ele>
        <time>2019-06-16T18:52:01.152Z</time>
      </trkpt>
      <trkpt lat="50.29057" lon="2.5785">
        <ele>94.76019</ele>
        <time>2019-06-16T18:52:03.292Z</time>
      </trkpt>
      <trkpt lat="50.2908" lon="2.57914">
        <ele>95.572158</ele>
        <time>2019-06-16T18:52:19.837Z</time>
      </trkpt>
      <trkpt lat="50.29119" lon="2.57997">
        <ele>96.623113</ele>
        <time>2019-06-16T18:52:42.835Z</time>
      </trkpt>
      <trkpt lat="50.29131" lon="2.58047">
        <ele>97.152229</ele>
        <time>2019-06-16T18:52:52.943Z</time>
      </trkpt>
      <trkpt lat="50.2915" lon="2.58111">
        <ele>97.860721</ele>
        <time>2019-06-16T18:53:04.950Z</time>
      </trkpt>
      <trkpt lat="50.29203" lon="2.5827">
        <ele>97.681611</ele>
        <time>2019-06-16T18:53:32.122Z</time>
      </trkpt>
      <trkpt lat="50.29216" lon="2.58315">
        <ele>97.602365</ele>
        <time>2019-06-16T18:53:38.943Z</time>
      </trkpt>
      <trkpt lat="50.29233" lon="2.58378">
        <ele>97.443271</ele>
        <time>2019-06-16T18:53:48.040Z</time>
      </trkpt>
      <trkpt lat="50.29252" lon="2.58437">
        <ele>96.844131</ele>
        <time>2019-06-16T18:53:56.698Z</time>
      </trkpt>
      <trkpt lat="50.29356" lon="2.58655">
        <ele>95.110127</ele>
        <time>2019-06-16T18:54:31.121Z</time>
      </trkpt>
      <trkpt lat="50.29364" lon="2.58676">
        <ele>95.164836</ele>
        <time>2019-06-16T18:54:34.284Z</time>
      </trkpt>
      <trkpt lat="50.29373" lon="2.58708">
        <ele>95.244773</ele>
        <time>2019-06-16T18:54:40.592Z</time>
      </trkpt>
      <trkpt lat="50.29483" lon="2.595">
        <ele>97.783958</ele>
        <time>2019-06-16T18:57:33.626Z</time>
      </trkpt>
      <trkpt lat="50.29546" lon="2.59688">
        <ele>97.855582</ele>
        <time>2019-06-16T18:58:13.216Z</time>
      </trkpt>
      <trkpt lat="50.29551" lon="2.59702">
        <ele>97.774069</ele>
        <time>2019-06-16T18:58:15.895Z</time>
      </trkpt>
      <trkpt lat="50.29555" lon="2.59721">
        <ele>97.662111</ele>
        <time>2019-06-16T18:58:20.470Z</time>
      </trkpt>
      <trkpt lat="50.29621" lon="2.60061">
        <ele>95.87438</ele>
        <time>2019-06-16T18:59:38.895Z</time>
      </trkpt>
      <trkpt lat="50.29631" lon="2.60118">
        <ele>95.616242</ele>
        <time>2019-06-16T18:59:52.261Z</time>
      </trkpt>
      <trkpt lat="50.2963" lon="2.60159">
        <ele>95.436645</ele>
        <time>2019-06-16T19:00:01.741Z</time>
      </trkpt>
      <trkpt lat="50.29631" lon="2.60175">
        <ele>95.3665</ele>
        <time>2019-06-16T19:00:05.373Z</time>
      </trkpt>
      <trkpt lat="50.29632" lon="2.60191">
        <ele>95.298012</ele>
        <time>2019-06-16T19:00:09.021Z</time>
      </trkpt>
      <trkpt lat="50.29635" lon="2.60237">
        <ele>95.200898</ele>
        <time>2019-06-16T19:00:19.754Z</time>
      </trkpt>
      <trkpt lat="50.29665" lon="2.60392">
        <ele>95.155505</ele>
        <time>2019-06-16T19:00:58.203Z</time>
      </trkpt>
      <trkpt lat="50.29654" lon="2.60464">
        <ele>95.134926</ele>
        <time>2019-06-16T19:01:16.185Z</time>
      </trkpt>
      <trkpt lat="50.29633" lon="2.60543">
        <ele>95.324148</ele>
        <time>2019-06-16T19:01:36.898Z</time>
      </trkpt>
      <trkpt lat="50.29622" lon="2.60607">
        <ele>95.516729</ele>
        <time>2019-06-16T19:01:52.885Z</time>
      </trkpt>
      <trkpt lat="50.29618" lon="2.60692">
        <ele>95.767278</ele>
        <time>2019-06-16T19:02:15.285Z</time>
      </trkpt>
      <trkpt lat="50.29607" lon="2.60785">
        <ele>96.045704</ele>
        <time>2019-06-16T19:02:39.737Z</time>
      </trkpt>
      <trkpt lat="50.29602" lon="2.60809">
        <ele>96.120583</ele>
        <time>2019-06-16T19:02:46.415Z</time>
      </trkpt>
      <trkpt lat="50.29532" lon="2.60781">
        <ele>96.453788</ele>
        <time>2019-06-16T19:03:04.356Z</time>
      </trkpt>
      <trkpt lat="50.29536" lon="2.60794">
        <ele>96.496655</ele>
        <time>2019-06-16T19:03:07.782Z</time>
      </trkpt>
      <trkpt lat="50.2957" lon="2.60922">
        <ele>96.676748</ele>
        <time>2019-06-16T19:03:42.625Z</time>
      </trkpt>
      <trkpt lat="50.2954" lon="2.61026">
        <ele>96.350788</ele>
        <time>2019-06-16T19:04:08.941Z</time>
      </trkpt>
      <trkpt lat="50.29526" lon="2.61095">
        <ele>96.144839</ele>
        <time>2019-06-16T19:04:25.198Z</time>
      </trkpt>
      <trkpt lat="50.29493" lon="2.61769">
        <ele>91.579925</ele>
        <time>2019-06-16T19:06:53.914Z</time>
      </trkpt>
      <trkpt lat="50.2949" lon="2.61818">
        <ele>91.107802</ele>
        <time>2019-06-16T19:07:04.308Z</time>
      </trkpt>
      <trkpt lat="50.2949" lon="2.61849">
        <ele>90.810799</ele>
        <time>2019-06-16T19:07:09.466Z</time>
      </trkpt>
      <trkpt lat="50.29489" lon="2.6187">
        <ele>90.598839</ele>
        <time>2019-06-16T19:07:12.965Z</time>
      </trkpt>
      <trkpt lat="50.29491" lon="2.61879">
        <ele>90.513037</ele>
        <time>2019-06-16T19:07:14.393Z</time>
      </trkpt>
      <trkpt lat="50.29496" lon="2.61896">
        <ele>90.330258</ele>
        <time>2019-06-16T19:07:17.588Z</time>
      </trkpt>
      <trkpt lat="50.29503" lon="2.61899">
        <ele>90.2238</ele>
        <time>2019-06-16T19:07:19.393Z</time>
      </trkpt>
      <trkpt lat="50.29502" lon="2.61917">
        <ele>90.050004</ele>
        <time>2019-06-16T19:07:21.471Z</time>
      </trkpt>
      <trkpt lat="50.29524" lon="2.62024">
        <ele>88.94769</ele>
        <time>2019-06-16T19:07:34.977Z</time>
      </trkpt>
      <trkpt lat="50.2952" lon="2.62056">
        <ele>88.618885</ele>
        <time>2019-06-16T19:07:39.094Z</time>
      </trkpt>
      <trkpt lat="50.29513" lon="2.62074">
        <ele>88.412172</ele>
        <time>2019-06-16T19:07:41.579Z</time>
      </trkpt>
      <trkpt lat="50.29511" lon="2.62077">
        <ele>88.368949</ele>
        <time>2019-06-16T19:07:42.058Z</time>
      </trkpt>
      <trkpt lat="50.29515" lon="2.62078">
        <ele>88.312819</ele>
        <time>2019-06-16T19:07:42.773Z</time>
      </trkpt>
      <trkpt lat="50.29659" lon="2.6202">
        <ele>85.65528</ele>
        <time>2019-06-16T19:08:11.311Z</time>
      </trkpt>
      <trkpt lat="50.29659" lon="2.6202">
        <ele>85.65528</ele>
        <time>2019-06-16T19:08:11.323Z</time>
      </trkpt>
      <trkpt lat="50.2976" lon="2.62025">
        <ele>83.201541</ele>
        <time>2019-06-16T19:08:29.171Z</time>
      </trkpt>
      <trkpt lat="50.2977" lon="2.62034">
        <ele>82.917969</ele>
        <time>2019-06-16T19:08:31.196Z</time>
      </trkpt>
      <trkpt lat="50.29793" lon="2.62065">
        <ele>82.211549</ele>
        <time>2019-06-16T19:08:36.383Z</time>
      </trkpt>
      <trkpt lat="50.29805" lon="2.62071">
        <ele>82.023569</ele>
        <time>2019-06-16T19:08:38.599Z</time>
      </trkpt>
      <trkpt lat="50.29825" lon="2.62075">
        <ele>81.735081</ele>
        <time>2019-06-16T19:08:42.130Z</time>
      </trkpt>
      <trkpt lat="50.29919" lon="2.62142">
        <ele>80.265873</ele>
        <time>2019-06-16T19:09:01.243Z</time>
      </trkpt>
      <trkpt lat="50.29931" lon="2.62152">
        <ele>80.069137</ele>
        <time>2019-06-16T19:09:03.850Z</time>
      </trkpt>
      <trkpt lat="50.29938" lon="2.62159">
        <ele>79.95072</ele>
        <time>2019-06-16T19:09:05.677Z</time>
      </trkpt>
      <trkpt lat="50.29957" lon="2.62181">
        <ele>79.767348</ele>
        <time>2019-06-16T19:09:10.727Z</time>
      </trkpt>
      <trkpt lat="50.30156" lon="2.62387">
        <ele>84.686104</ele>
        <time>2019-06-16T19:10:35.804Z</time>
      </trkpt>
      <trkpt lat="50.3026" lon="2.62414">
        <ele>86.51753</ele>
        <time>2019-06-16T19:11:07.976Z</time>
      </trkpt>
      <trkpt lat="50.30274" lon="2.62422">
        <ele>86.663275</ele>
        <time>2019-06-16T19:11:13.041Z</time>
      </trkpt>
      <trkpt lat="50.30268" lon="2.62433">
        <ele>86.518541</ele>
        <time>2019-06-16T19:11:14.649Z</time>
      </trkpt>
      <trkpt lat="50.30223" lon="2.62493">
        <ele>85.575204</ele>
        <time>2019-06-16T19:11:27.727Z</time>
      </trkpt>
      <trkpt lat="50.30167" lon="2.62589">
        <ele>84.235242</ele>
        <time>2019-06-16T19:11:43.241Z</time>
      </trkpt>
      <trkpt lat="50.3011" lon="2.62728">
        <ele>81.420416</ele>
        <time>2019-06-16T19:12:01.980Z</time>
      </trkpt>
      <trkpt lat="50.30065" lon="2.62822">
        <ele>79.163901</ele>
        <time>2019-06-16T19:12:15.623Z</time>
      </trkpt>
      <trkpt lat="50.30059" lon="2.62866">
        <ele>78.355313</ele>
        <time>2019-06-16T19:12:20.964Z</time>
      </trkpt>
      <trkpt lat="50.30058" lon="2.62882">
        <ele>78.188912</ele>
        <time>2019-06-16T19:12:22.875Z</time>
      </trkpt>
      <trkpt lat="50.30046" lon="2.62989">
        <ele>77.099969</ele>
        <time>2019-06-16T19:12:36.252Z</time>
      </trkpt>
      <trkpt lat="50.30041" lon="2.63068">
        <ele>76.30822</ele>
        <time>2019-06-16T19:12:46.444Z</time>
      </trkpt>
      <trkpt lat="50.30038" lon="2.63122">
        <ele>75.763215</ele>
        <time>2019-06-16T19:12:53.643Z</time>
      </trkpt>
      <trkpt lat="50.30053" lon="2.63163">
        <ele>75.597746</ele>
        <time>2019-06-16T19:12:59.978Z</time>
      </trkpt>
      <trkpt lat="50.30144" lon="2.63373">
        <ele>75.669221</ele>
        <time>2019-06-16T19:13:37.655Z</time>
      </trkpt>
      <trkpt lat="50.30166" lon="2.63427">
        <ele>75.794595</ele>
        <time>2019-06-16T19:13:47.846Z</time>
      </trkpt>
      <trkpt lat="50.30172" lon="2.63443">
        <ele>75.832247</ele>
        <time>2019-06-16T19:13:51.049Z</time>
      </trkpt>
      <trkpt lat="50.30265" lon="2.63711">
        <ele>76.238952</ele>
        <time>2019-06-16T19:14:36.865Z</time>
      </trkpt>
      <trkpt lat="50.30325" lon="2.63825">
        <ele>76.26801</ele>
        <time>2019-06-16T19:14:57.665Z</time>
      </trkpt>
      <trkpt lat="50.30366" lon="2.63894">
        <ele>76.213467</ele>
        <time>2019-06-16T19:15:10.833Z</time>
      </trkpt>
      <trkpt lat="50.3039" lon="2.63925">
        <ele>76.170247</ele>
        <time>2019-06-16T19:15:17.808Z</time>
      </trkpt>
      <trkpt lat="50.30458" lon="2.64096">
        <ele>75.959882</ele>
        <time>2019-06-16T19:15:45.820Z</time>
      </trkpt>
      <trkpt lat="50.30488" lon="2.64153">
        <ele>75.825665</ele>
        <time>2019-06-16T19:15:55.970Z</time>
      </trkpt>
      <trkpt lat="50.30527" lon="2.64253">
        <ele>75.61112</ele>
        <time>2019-06-16T19:16:11.999Z</time>
      </trkpt>
      <trkpt lat="50.30574" lon="2.64338">
        <ele>75.400627</ele>
        <time>2019-06-16T19:16:27.327Z</time>
      </trkpt>
      <trkpt lat="50.30587" lon="2.64383">
        <ele>75.305704</ele>
        <time>2019-06-16T19:16:34.140Z</time>
      </trkpt>
      <trkpt lat="50.30704" lon="2.64647">
        <ele>74.644188</ele>
        <time>2019-06-16T19:17:18.252Z</time>
      </trkpt>
      <trkpt lat="50.30755" lon="2.6471">
        <ele>74.418058</ele>
        <time>2019-06-16T19:17:31.989Z</time>
      </trkpt>
      <trkpt lat="50.30783" lon="2.64736">
        <ele>74.287993</ele>
        <time>2019-06-16T19:17:38.893Z</time>
      </trkpt>
      <trkpt lat="50.30847" lon="2.64838">
        <ele>73.857192</ele>
        <time>2019-06-16T19:17:57.995Z</time>
      </trkpt>
      <trkpt lat="50.30922" lon="2.65043">
        <ele>73.399101</ele>
        <time>2019-06-16T19:18:29.897Z</time>
      </trkpt>
      <trkpt lat="50.30937" lon="2.65071">
        <ele>73.36731</ele>
        <time>2019-06-16T19:18:34.991Z</time>
      </trkpt>
      <trkpt lat="50.30965" lon="2.65097">
        <ele>73.322041</ele>
        <time>2019-06-16T19:18:42.465Z</time>
      </trkpt>
      <trkpt lat="50.30973" lon="2.65102">
        <ele>73.310601</ele>
        <time>2019-06-16T19:18:44.345Z</time>
      </trkpt>
      <trkpt lat="50.30974" lon="2.65121">
        <ele>73.293804</ele>
        <time>2019-06-16T19:18:47.453Z</time>
      </trkpt>
      <trkpt lat="50.31003" lon="2.65198">
        <ele>73.257138</ele>
        <time>2019-06-16T19:19:00.797Z</time>
      </trkpt>
      <trkpt lat="50.31014" lon="2.65223">
        <ele>73.258596</ele>
        <time>2019-06-16T19:19:05.759Z</time>
      </trkpt>
      <trkpt lat="50.31016" lon="2.65227">
        <ele>73.258801</ele>
        <time>2019-06-16T19:19:06.435Z</time>
      </trkpt>
      <trkpt lat="50.31057" lon="2.65335">
        <ele>73.264574</ele>
        <time>2019-06-16T19:19:25.485Z</time>
      </trkpt>
      <trkpt lat="50.31061" lon="2.65355">
        <ele>73.265527</ele>
        <time>2019-06-16T19:19:28.609Z</time>
      </trkpt>
      <trkpt lat="50.31052" lon="2.65369">
        <ele>73.266444</ele>
        <time>2019-06-16T19:19:31.470Z</time>
      </trkpt>
      <trkpt lat="50.30989" lon="2.65443">
        <ele>73.231181</ele>
        <time>2019-06-16T19:19:48.964Z</time>
      </trkpt>
      <trkpt lat="50.30882" lon="2.65541">
        <ele>73.170983</ele>
        <time>2019-06-16T19:20:17.295Z</time>
      </trkpt>
      <trkpt lat="50.30882" lon="2.65541">
        <ele>73.170983</ele>
        <time>2019-06-16T19:20:17.297Z</time>
      </trkpt>
      <trkpt lat="50.30867" lon="2.65553">
        <ele>73.42933</ele>
        <time>2019-06-16T19:20:21.849Z</time>
      </trkpt>
      <trkpt lat="50.30861" lon="2.65557">
        <ele>73.535323</ele>
        <time>2019-06-16T19:20:23.638Z</time>
      </trkpt>
      <trkpt lat="50.30854" lon="2.65563">
        <ele>73.656445</ele>
        <time>2019-06-16T19:20:25.810Z</time>
      </trkpt>
      <trkpt lat="50.30842" lon="2.65572">
        <ele>73.857853</ele>
        <time>2019-06-16T19:20:29.554Z</time>
      </trkpt>
      <trkpt lat="50.30825" lon="2.65588">
        <ele>74.159949</ele>
        <time>2019-06-16T19:20:35.235Z</time>
      </trkpt>
      <trkpt lat="50.30796" lon="2.65614">
        <ele>74.689961</ele>
        <time>2019-06-16T19:20:45.905Z</time>
      </trkpt>
      <trkpt lat="50.30774" lon="2.65635">
        <ele>75.083141</ele>
        <time>2019-06-16T19:20:54.378Z</time>
      </trkpt>
      <trkpt lat="50.30753" lon="2.65658">
        <ele>75.477646</ele>
        <time>2019-06-16T19:21:03.366Z</time>
      </trkpt>
      <trkpt lat="50.30724" lon="2.65693">
        <ele>76.065027</ele>
        <time>2019-06-16T19:21:16.656Z</time>
      </trkpt>
      <trkpt lat="50.30662" lon="2.65761">
        <ele>77.337814</ele>
        <time>2019-06-16T19:21:42.163Z</time>
      </trkpt>
      <trkpt lat="50.30649" lon="2.65783">
        <ele>77.663092</ele>
        <time>2019-06-16T19:21:47.656Z</time>
      </trkpt>
      <trkpt lat="50.30634" lon="2.65794">
        <ele>77.93556</ele>
        <time>2019-06-16T19:21:53.162Z</time>
      </trkpt>
      <trkpt lat="50.30642" lon="2.65833">
        <ele>78.368122</ele>
        <time>2019-06-16T19:22:00.359Z</time>
      </trkpt>
      <trkpt lat="50.30657" lon="2.65897">
        <ele>79.051839</ele>
        <time>2019-06-16T19:22:13.185Z</time>
      </trkpt>
      <trkpt lat="50.3066" lon="2.65904">
        <ele>79.093341</ele>
        <time>2019-06-16T19:22:14.333Z</time>
      </trkpt>
      <trkpt lat="50.30663" lon="2.65919">
        <ele>79.190071</ele>
        <time>2019-06-16T19:22:16.992Z</time>
      </trkpt>
      <trkpt lat="50.30669" lon="2.65927">
        <ele>79.259554</ele>
        <time>2019-06-16T19:22:18.848Z</time>
      </trkpt>
      <trkpt lat="50.30679" lon="2.65937">
        <ele>79.363906</ele>
        <time>2019-06-16T19:22:22.302Z</time>
      </trkpt>
      <trkpt lat="50.30683" lon="2.65952">
        <ele>79.457862</ele>
        <time>2019-06-16T19:22:24.972Z</time>
      </trkpt>
      <trkpt lat="50.30696" lon="2.66025">
        <ele>79.894866</ele>
        <time>2019-06-16T19:22:37.010Z</time>
      </trkpt>
      <trkpt lat="50.3071" lon="2.66179">
        <ele>80.98832</ele>
        <time>2019-06-16T19:23:03.412Z</time>
      </trkpt>
      <trkpt lat="50.30716" lon="2.66249">
        <ele>81.798562</ele>
        <time>2019-06-16T19:23:17.141Z</time>
      </trkpt>
      <trkpt lat="50.30716" lon="2.66342">
        <ele>82.874363</ele>
        <time>2019-06-16T19:23:36.555Z</time>
      </trkpt>
      <trkpt lat="50.30716" lon="2.66375">
        <ele>83.267372</ele>
        <time>2019-06-16T19:23:44.015Z</time>
      </trkpt>
      <trkpt lat="50.30716" lon="2.66429">
        <ele>83.887484</ele>
        <time>2019-06-16T19:23:55.444Z</time>
      </trkpt>
      <trkpt lat="50.30723" lon="2.66465">
        <ele>84.317266</ele>
        <time>2019-06-16T19:24:03.349Z</time>
      </trkpt>
      <trkpt lat="50.30732" lon="2.66501">
        <ele>84.761774</ele>
        <time>2019-06-16T19:24:11.197Z</time>
      </trkpt>
      <trkpt lat="50.3072" lon="2.66511">
        <ele>85.003795</ele>
        <time>2019-06-16T19:24:16.164Z</time>
      </trkpt>
      <trkpt lat="50.30695" lon="2.66544">
        <ele>85.599928</ele>
        <time>2019-06-16T19:24:27.177Z</time>
      </trkpt>
      <trkpt lat="50.30649" lon="2.6658">
        <ele>86.524555</ele>
        <time>2019-06-16T19:24:43.561Z</time>
      </trkpt>
      <trkpt lat="50.30631" lon="2.66616">
        <ele>87.053994</ele>
        <time>2019-06-16T19:24:52.435Z</time>
      </trkpt>
      <trkpt lat="50.30601" lon="2.66719">
        <ele>87.298315</ele>
        <time>2019-06-16T19:25:12.130Z</time>
      </trkpt>
      <trkpt lat="50.30548" lon="2.66985">
        <ele>86.940048</ele>
        <time>2019-06-16T19:25:52.332Z</time>
      </trkpt>
      <trkpt lat="50.3049" lon="2.67139">
        <ele>85.810624</ele>
        <time>2019-06-16T19:26:15.365Z</time>
      </trkpt>
      <trkpt lat="50.30478" lon="2.67166">
        <ele>85.495704</ele>
        <time>2019-06-16T19:26:19.418Z</time>
      </trkpt>
      <trkpt lat="50.30466" lon="2.67197">
        <ele>85.130479</ele>
        <time>2019-06-16T19:26:24.051Z</time>
      </trkpt>
      <trkpt lat="50.30442" lon="2.67271">
        <ele>84.325125</ele>
        <time>2019-06-16T19:26:34.337Z</time>
      </trkpt>
      <trkpt lat="50.30433" lon="2.67382">
        <ele>83.226333</ele>
        <time>2019-06-16T19:26:48.389Z</time>
      </trkpt>
      <trkpt lat="50.3043" lon="2.67475">
        <ele>83.070984</ele>
        <time>2019-06-16T19:27:01.074Z</time>
      </trkpt>
      <trkpt lat="50.30409" lon="2.67616">
        <ele>83.077018</ele>
        <time>2019-06-16T19:27:23.409Z</time>
      </trkpt>
      <trkpt lat="50.30403" lon="2.67643">
        <ele>83.078225</ele>
        <time>2019-06-16T19:27:28.302Z</time>
      </trkpt>
      <trkpt lat="50.304" lon="2.67665">
        <ele>83.079134</ele>
        <time>2019-06-16T19:27:32.190Z</time>
      </trkpt>
      <trkpt lat="50.30399" lon="2.67747">
        <ele>83.682005</ele>
        <time>2019-06-16T19:27:47.386Z</time>
      </trkpt>
      <trkpt lat="50.30404" lon="2.67809">
        <ele>84.187782</ele>
        <time>2019-06-16T19:27:59.653Z</time>
      </trkpt>
      <trkpt lat="50.3042" lon="2.67901">
        <ele>84.964137</ele>
        <time>2019-06-16T19:28:18.636Z</time>
      </trkpt>
      <trkpt lat="50.30428" lon="2.67931">
        <ele>85.225104</ele>
        <time>2019-06-16T19:28:24.787Z</time>
      </trkpt>
      <trkpt lat="50.30426" lon="2.67958">
        <ele>85.424108</ele>
        <time>2019-06-16T19:28:29.826Z</time>
      </trkpt>
      <trkpt lat="50.30426" lon="2.67964">
        <ele>85.45778</ele>
        <time>2019-06-16T19:28:30.967Z</time>
      </trkpt>
      <trkpt lat="50.30426" lon="2.67971">
        <ele>85.490888</ele>
        <time>2019-06-16T19:28:32.218Z</time>
      </trkpt>
      <trkpt lat="50.30425" lon="2.68007">
        <ele>85.683743</ele>
        <time>2019-06-16T19:28:38.913Z</time>
      </trkpt>
      <trkpt lat="50.30424" lon="2.68127">
        <ele>86.325446</ele>
        <time>2019-06-16T19:29:00.402Z</time>
      </trkpt>
      <trkpt lat="50.30422" lon="2.68172">
        <ele>86.569385</ele>
        <time>2019-06-16T19:29:08.333Z</time>
      </trkpt>
      <trkpt lat="50.30421" lon="2.68194">
        <ele>86.683869</ele>
        <time>2019-06-16T19:29:11.838Z</time>
      </trkpt>
      <trkpt lat="50.30421" lon="2.68218">
        <ele>86.813064</ele>
        <time>2019-06-16T19:29:15.732Z</time>
      </trkpt>
      <trkpt lat="50.30419" lon="2.68309">
        <ele>86.819301</ele>
        <time>2019-06-16T19:29:29.807Z</time>
      </trkpt>
      <trkpt lat="50.30419" lon="2.6831">
        <ele>86.819002</ele>
        <time>2019-06-16T19:29:29.847Z</time>
      </trkpt>
      <trkpt lat="50.30418" lon="2.68524">
        <ele>86.588349</ele>
        <time>2019-06-16T19:30:00.907Z</time>
      </trkpt>
      <trkpt lat="50.30395" lon="2.68727">
        <ele>85.260525</ele>
        <time>2019-06-16T19:30:28.623Z</time>
      </trkpt>
      <trkpt lat="50.30387" lon="2.68786">
        <ele>84.867945</ele>
        <time>2019-06-16T19:30:36.368Z</time>
      </trkpt>
      <trkpt lat="50.30378" lon="2.68798">
        <ele>84.568655</ele>
        <time>2019-06-16T19:30:38.779Z</time>
      </trkpt>
      <trkpt lat="50.30383" lon="2.6885">
        <ele>83.654054</ele>
        <time>2019-06-16T19:30:47.265Z</time>
      </trkpt>
      <trkpt lat="50.30382" lon="2.68944">
        <ele>82.030401</ele>
        <time>2019-06-16T19:31:02.026Z</time>
      </trkpt>
      <trkpt lat="50.30373" lon="2.69004">
        <ele>80.962476</ele>
        <time>2019-06-16T19:31:11.205Z</time>
      </trkpt>
      <trkpt lat="50.3036" lon="2.69053">
        <ele>80.033039</ele>
        <time>2019-06-16T19:31:18.973Z</time>
      </trkpt>
      <trkpt lat="50.30345" lon="2.69178">
        <ele>77.224189</ele>
        <time>2019-06-16T19:31:37.424Z</time>
      </trkpt>
      <trkpt lat="50.30344" lon="2.69215">
        <ele>76.397728</ele>
        <time>2019-06-16T19:31:42.905Z</time>
      </trkpt>
      <trkpt lat="50.30343" lon="2.69237">
        <ele>75.895132</ele>
        <time>2019-06-16T19:31:45.390Z</time>
      </trkpt>
      <trkpt lat="50.30343" lon="2.69316">
        <ele>74.133157</ele>
        <time>2019-06-16T19:31:54.386Z</time>
      </trkpt>
      <trkpt lat="50.30297" lon="2.69581">
        <ele>70.682317</ele>
        <time>2019-06-16T19:32:28.222Z</time>
      </trkpt>
      <trkpt lat="50.30305" lon="2.69672">
        <ele>70.36345</ele>
        <time>2019-06-16T19:32:41.249Z</time>
      </trkpt>
      <trkpt lat="50.30303" lon="2.69712">
        <ele>70.358874</ele>
        <time>2019-06-16T19:32:47.071Z</time>
      </trkpt>
      <trkpt lat="50.30273" lon="2.69851">
        <ele>70.342147</ele>
        <time>2019-06-16T19:33:10.095Z</time>
      </trkpt>
      <trkpt lat="50.30275" lon="2.69861">
        <ele>70.340883</ele>
        <time>2019-06-16T19:33:12.018Z</time>
      </trkpt>
      <trkpt lat="50.30308" lon="2.69855">
        <ele>70.498084</ele>
        <time>2019-06-16T19:33:25.234Z</time>
      </trkpt>
      <trkpt lat="50.30317" lon="2.69856">
        <ele>70.568665</ele>
        <time>2019-06-16T19:33:28.932Z</time>
      </trkpt>
      <trkpt lat="50.30314" lon="2.69866">
        <ele>70.623652</ele>
        <time>2019-06-16T19:33:30.752Z</time>
      </trkpt>
      <trkpt lat="50.30313" lon="2.69876">
        <ele>70.673892</ele>
        <time>2019-06-16T19:33:32.493Z</time>
      </trkpt>
      <trkpt lat="50.30314" lon="2.69902">
        <ele>70.800249</ele>
        <time>2019-06-16T19:33:36.978Z</time>
      </trkpt>
      <trkpt lat="50.30312" lon="2.69914">
        <ele>70.860037</ele>
        <time>2019-06-16T19:33:39.034Z</time>
      </trkpt>
      <trkpt lat="50.30312" lon="2.69921">
        <ele>70.894254</ele>
        <time>2019-06-16T19:33:40.182Z</time>
      </trkpt>
      <trkpt lat="50.30308" lon="2.6993">
        <ele>70.942355</ele>
        <time>2019-06-16T19:33:41.842Z</time>
      </trkpt>
      <trkpt lat="50.30298" lon="2.69943">
        <ele>71.045037</ele>
        <time>2019-06-16T19:33:45.518Z</time>
      </trkpt>
      <trkpt lat="50.3022" lon="2.7002">
        <ele>71.771362</ele>
        <time>2019-06-16T19:34:10.741Z</time>
      </trkpt>
      <trkpt lat="50.30066" lon="2.70116">
        <ele>73.73289</ele>
        <time>2019-06-16T19:34:58.808Z</time>
      </trkpt>
      <trkpt lat="50.29738" lon="2.70444">
        <ele>80.152961</ele>
        <time>2019-06-16T19:37:01.110Z</time>
      </trkpt>
      <trkpt lat="50.29709" lon="2.70485">
        <ele>80.983182</ele>
        <time>2019-06-16T19:37:13.993Z</time>
      </trkpt>
      <trkpt lat="50.29658" lon="2.70584">
        <ele>82.721327</ele>
        <time>2019-06-16T19:37:41.493Z</time>
      </trkpt>
      <trkpt lat="50.29632" lon="2.70624">
        <ele>83.488613</ele>
        <time>2019-06-16T19:37:53.869Z</time>
      </trkpt>
      <trkpt lat="50.29404" lon="2.70899">
        <ele>92.303355</ele>
        <time>2019-06-16T19:39:43.408Z</time>
      </trkpt>
      <trkpt lat="50.29388" lon="2.70912">
        <ele>92.928266</ele>
        <time>2019-06-16T19:39:50.945Z</time>
      </trkpt>
      <trkpt lat="50.29368" lon="2.70922">
        <ele>93.659492</ele>
        <time>2019-06-16T19:40:00.904Z</time>
      </trkpt>
      <trkpt lat="50.29284" lon="2.70956">
        <ele>96.325469</ele>
        <time>2019-06-16T19:40:38.040Z</time>
      </trkpt>
      <trkpt lat="50.29268" lon="2.70961">
        <ele>96.7972</ele>
        <time>2019-06-16T19:40:45.663Z</time>
      </trkpt>
      <trkpt lat="50.29254" lon="2.70975">
        <ele>97.281601</ele>
        <time>2019-06-16T19:40:52.136Z</time>
      </trkpt>
      <trkpt lat="50.29242" lon="2.70987">
        <ele>97.687477</ele>
        <time>2019-06-16T19:40:58.487Z</time>
      </trkpt>
      <trkpt lat="50.2923" lon="2.70998">
        <ele>98.058741</ele>
        <time>2019-06-16T19:41:03.244Z</time>
      </trkpt>
      <trkpt lat="50.29199" lon="2.71027">
        <ele>99.106537</ele>
        <time>2019-06-16T19:41:14.937Z</time>
      </trkpt>
      <trkpt lat="50.29194" lon="2.71028">
        <ele>99.237915</ele>
        <time>2019-06-16T19:41:16.574Z</time>
      </trkpt>
      <trkpt lat="50.29187" lon="2.71036">
        <ele>99.486906</ele>
        <time>2019-06-16T19:41:19.770Z</time>
      </trkpt>
      <trkpt lat="50.29186" lon="2.71038">
        <ele>99.537748</ele>
        <time>2019-06-16T19:41:20.594Z</time>
      </trkpt>
      <trkpt lat="50.29176" lon="2.71046">
        <ele>99.854854</ele>
        <time>2019-06-16T19:41:24.388Z</time>
      </trkpt>
      <trkpt lat="50.29107" lon="2.71108">
        <ele>99.7539</ele>
        <time>2019-06-16T19:41:45.377Z</time>
      </trkpt>
      <trkpt lat="50.29096" lon="2.71116">
        <ele>99.71527</ele>
        <time>2019-06-16T19:41:48.065Z</time>
      </trkpt>
      <trkpt lat="50.29088" lon="2.7113">
        <ele>99.677018</ele>
        <time>2019-06-16T19:41:50.692Z</time>
      </trkpt>
      <trkpt lat="50.29081" lon="2.71146">
        <ele>99.636921</ele>
        <time>2019-06-16T19:41:53.218Z</time>
      </trkpt>
      <trkpt lat="50.29048" lon="2.71203">
        <ele>99.481496</ele>
        <time>2019-06-16T19:42:02.764Z</time>
      </trkpt>
      <trkpt lat="50.29006" lon="2.71246">
        <ele>98.547964</ele>
        <time>2019-06-16T19:42:11.946Z</time>
      </trkpt>
      <trkpt lat="50.28987" lon="2.71261">
        <ele>97.936168</ele>
        <time>2019-06-16T19:42:15.742Z</time>
      </trkpt>
      <trkpt lat="50.28949" lon="2.71286">
        <ele>96.757978</ele>
        <time>2019-06-16T19:42:22.990Z</time>
      </trkpt>
      <trkpt lat="50.28887" lon="2.71328">
        <ele>94.866564</ele>
        <time>2019-06-16T19:42:34.387Z</time>
      </trkpt>
      <trkpt lat="50.28819" lon="2.7137">
        <ele>92.547777</ele>
        <time>2019-06-16T19:42:46.684Z</time>
      </trkpt>
      <trkpt lat="50.28783" lon="2.71395">
        <ele>91.263909</ele>
        <time>2019-06-16T19:42:53.292Z</time>
      </trkpt>
      <trkpt lat="50.28746" lon="2.7142">
        <ele>89.93973</ele>
        <time>2019-06-16T19:43:00.220Z</time>
      </trkpt>
      <trkpt lat="50.28694" lon="2.71452">
        <ele>88.198538</ele>
        <time>2019-06-16T19:43:09.784Z</time>
      </trkpt>
      <trkpt lat="50.28681" lon="2.71463">
        <ele>87.836707</ele>
        <time>2019-06-16T19:43:12.420Z</time>
      </trkpt>
      <trkpt lat="50.28639" lon="2.7149">
        <ele>86.74846</ele>
        <time>2019-06-16T19:43:20.614Z</time>
      </trkpt>
      <trkpt lat="50.28634" lon="2.71525">
        <ele>86.208979</ele>
        <time>2019-06-16T19:43:26.092Z</time>
      </trkpt>
      <trkpt lat="50.28633" lon="2.71535">
        <ele>86.044726</ele>
        <time>2019-06-16T19:43:27.841Z</time>
      </trkpt>
      <trkpt lat="50.28623" lon="2.71536">
        <ele>85.804073</ele>
        <time>2019-06-16T19:43:30.417Z</time>
      </trkpt>
      <trkpt lat="50.28619" lon="2.71535">
        <ele>85.710866</ele>
        <time>2019-06-16T19:43:31.357Z</time>
      </trkpt>
      <trkpt lat="50.28615" lon="2.71554">
        <ele>85.409103</ele>
        <time>2019-06-16T19:43:34.394Z</time>
      </trkpt>
      <trkpt lat="50.28606" lon="2.71604">
        <ele>84.631024</ele>
        <time>2019-06-16T19:43:42.544Z</time>
      </trkpt>
      <trkpt lat="50.28603" lon="2.7169">
        <ele>83.606077</ele>
        <time>2019-06-16T19:43:56.756Z</time>
      </trkpt>
      <trkpt lat="50.28602" lon="2.71713">
        <ele>83.381029</ele>
        <time>2019-06-16T19:44:00.220Z</time>
      </trkpt>
      <trkpt lat="50.28596" lon="2.71741">
        <ele>83.095265</ele>
        <time>2019-06-16T19:44:05.141Z</time>
      </trkpt>
      <trkpt lat="50.2858" lon="2.71798">
        <ele>82.486646</ele>
        <time>2019-06-16T19:44:15.393Z</time>
      </trkpt>
      <trkpt lat="50.28576" lon="2.71801">
        <ele>82.422005</ele>
        <time>2019-06-16T19:44:16.467Z</time>
      </trkpt>
      <trkpt lat="50.28572" lon="2.71802">
        <ele>82.357516</ele>
        <time>2019-06-16T19:44:17.418Z</time>
      </trkpt>
      <trkpt lat="50.28541" lon="2.718">
        <ele>81.887791</ele>
        <time>2019-06-16T19:44:25.889Z</time>
      </trkpt>
      <trkpt lat="50.28537" lon="2.71799">
        <ele>81.823824</ele>
        <time>2019-06-16T19:44:26.849Z</time>
      </trkpt>
      <trkpt lat="50.28532" lon="2.71797">
        <ele>81.74766</ele>
        <time>2019-06-16T19:44:28.135Z</time>
      </trkpt>
      <trkpt lat="50.28509" lon="2.71873">
        <ele>81.136805</ele>
        <time>2019-06-16T19:44:39.654Z</time>
      </trkpt>
      <trkpt lat="50.28523" lon="2.71977">
        <ele>80.578796</ele>
        <time>2019-06-16T19:44:53.913Z</time>
      </trkpt>
      <trkpt lat="50.28524" lon="2.71987">
        <ele>80.527069</ele>
        <time>2019-06-16T19:44:55.308Z</time>
      </trkpt>
      <trkpt lat="50.28519" lon="2.71988">
        <ele>80.487938</ele>
        <time>2019-06-16T19:44:56.266Z</time>
      </trkpt>
      <trkpt lat="50.28498" lon="2.72027">
        <ele>80.22153</ele>
        <time>2019-06-16T19:45:03.166Z</time>
      </trkpt>
      <trkpt lat="50.28498" lon="2.72034">
        <ele>80.187218</ele>
        <time>2019-06-16T19:45:04.006Z</time>
      </trkpt>
      <trkpt lat="50.28489" lon="2.72035">
        <ele>80.113661</ele>
        <time>2019-06-16T19:45:06.520Z</time>
      </trkpt>
      <trkpt lat="50.28467" lon="2.72036">
        <ele>79.937352</ele>
        <time>2019-06-16T19:45:12.522Z</time>
      </trkpt>
      <trkpt lat="50.28461" lon="2.72034">
        <ele>79.870876</ele>
        <time>2019-06-16T19:45:14.153Z</time>
      </trkpt>
      <trkpt lat="50.28463" lon="2.7204">
        <ele>79.816138</ele>
        <time>2019-06-16T19:45:15.313Z</time>
      </trkpt>
      <trkpt lat="50.28464" lon="2.72047">
        <ele>79.752914</ele>
        <time>2019-06-16T19:45:16.371Z</time>
      </trkpt>
      <trkpt lat="50.28461" lon="2.72053">
        <ele>79.695169</ele>
        <time>2019-06-16T19:45:17.616Z</time>
      </trkpt>
      <trkpt lat="50.2845" lon="2.72064">
        <ele>79.524992</ele>
        <time>2019-06-16T19:45:20.389Z</time>
      </trkpt>
      <trkpt lat="50.28445" lon="2.72068">
        <ele>79.44204</ele>
        <time>2019-06-16T19:45:21.639Z</time>
      </trkpt>
      <trkpt lat="50.28395" lon="2.72112">
        <ele>78.671515</ele>
        <time>2019-06-16T19:45:33.560Z</time>
      </trkpt>
      <trkpt lat="50.28391" lon="2.72116">
        <ele>78.606654</ele>
        <time>2019-06-16T19:45:34.541Z</time>
      </trkpt>
      <trkpt lat="50.28386" lon="2.72121">
        <ele>78.53845</ele>
        <time>2019-06-16T19:45:35.454Z</time>
      </trkpt>
      <trkpt lat="50.28382" lon="2.72125">
        <ele>78.465662</ele>
        <time>2019-06-16T19:45:36.517Z</time>
      </trkpt>
      <trkpt lat="50.28319" lon="2.72209">
        <ele>77.240235</ele>
        <time>2019-06-16T19:45:52.957Z</time>
      </trkpt>
      <trkpt lat="50.28315" lon="2.72211">
        <ele>77.130007</ele>
        <time>2019-06-16T19:45:53.823Z</time>
      </trkpt>
      <trkpt lat="50.28315" lon="2.72223">
        <ele>76.946969</ele>
        <time>2019-06-16T19:45:55.264Z</time>
      </trkpt>
      <trkpt lat="50.28315" lon="2.72226">
        <ele>76.896018</ele>
        <time>2019-06-16T19:45:55.650Z</time>
      </trkpt>
      <trkpt lat="50.28315" lon="2.72229">
        <ele>76.85142</ele>
        <time>2019-06-16T19:45:55.977Z</time>
      </trkpt>
      <trkpt lat="50.28315" lon="2.72234">
        <ele>76.768574</ele>
        <time>2019-06-16T19:45:56.521Z</time>
      </trkpt>
      <trkpt lat="50.28293" lon="2.72345">
        <ele>74.93234</ele>
        <time>2019-06-16T19:46:09.663Z</time>
      </trkpt>
      <trkpt lat="50.28258" lon="2.72472">
        <ele>72.752692</ele>
        <time>2019-06-16T19:46:25.056Z</time>
      </trkpt>
      <trkpt lat="50.28252" lon="2.72491">
        <ele>72.438171</ele>
        <time>2019-06-16T19:46:27.348Z</time>
      </trkpt>
      <trkpt lat="50.28247" lon="2.72494">
        <ele>72.314428</ele>
        <time>2019-06-16T19:46:28.294Z</time>
      </trkpt>
      <trkpt lat="50.28241" lon="2.72505">
        <ele>72.110634</ele>
        <time>2019-06-16T19:46:29.923Z</time>
      </trkpt>
      <trkpt lat="50.28235" lon="2.72515">
        <ele>71.902015</ele>
        <time>2019-06-16T19:46:31.555Z</time>
      </trkpt>
      <trkpt lat="50.28232" lon="2.72521">
        <ele>71.78835</ele>
        <time>2019-06-16T19:46:32.372Z</time>
      </trkpt>
      <trkpt lat="50.28225" lon="2.72534">
        <ele>71.531878</ele>
        <time>2019-06-16T19:46:34.296Z</time>
      </trkpt>
      <trkpt lat="50.28222" lon="2.72545">
        <ele>71.357848</ele>
        <time>2019-06-16T19:46:35.668Z</time>
      </trkpt>
      <trkpt lat="50.28221" lon="2.72555">
        <ele>71.210381</ele>
        <time>2019-06-16T19:46:36.834Z</time>
      </trkpt>
      <trkpt lat="50.28221" lon="2.7256">
        <ele>71.124388</ele>
        <time>2019-06-16T19:46:37.525Z</time>
      </trkpt>
      <trkpt lat="50.28223" lon="2.72573">
        <ele>70.937886</ele>
        <time>2019-06-16T19:46:38.903Z</time>
      </trkpt>
      <trkpt lat="50.28223" lon="2.72577">
        <ele>70.881682</ele>
        <time>2019-06-16T19:46:39.296Z</time>
      </trkpt>
      <trkpt lat="50.28223" lon="2.72585">
        <ele>70.755729</ele>
        <time>2019-06-16T19:46:40.280Z</time>
      </trkpt>
      <trkpt lat="50.28225" lon="2.72616">
        <ele>70.293174</ele>
        <time>2019-06-16T19:46:43.953Z</time>
      </trkpt>
      <trkpt lat="50.28226" lon="2.72667">
        <ele>69.544893</ele>
        <time>2019-06-16T19:46:49.778Z</time>
      </trkpt>
      <trkpt lat="50.28227" lon="2.72738">
        <ele>68.929455</ele>
        <time>2019-06-16T19:46:58.177Z</time>
      </trkpt>
      <trkpt lat="50.28228" lon="2.72842">
        <ele>69.190632</ele>
        <time>2019-06-16T19:47:12.454Z</time>
      </trkpt>
      <trkpt lat="50.28228" lon="2.72866">
        <ele>69.250167</ele>
        <time>2019-06-16T19:47:15.929Z</time>
      </trkpt>
      <trkpt lat="50.28229" lon="2.72914">
        <ele>69.36976</ele>
        <time>2019-06-16T19:47:23.892Z</time>
      </trkpt>
      <trkpt lat="50.28229" lon="2.7293">
        <ele>69.412034</ele>
        <time>2019-06-16T19:47:27.181Z</time>
      </trkpt>
      <trkpt lat="50.28228" lon="2.72942">
        <ele>69.440092</ele>
        <time>2019-06-16T19:47:29.288Z</time>
      </trkpt>
      <trkpt lat="50.28228" lon="2.72946">
        <ele>69.451101</ele>
        <time>2019-06-16T19:47:30.131Z</time>
      </trkpt>
      <trkpt lat="50.28226" lon="2.72952">
        <ele>69.46766</ele>
        <time>2019-06-16T19:47:31.452Z</time>
      </trkpt>
      <trkpt lat="50.28225" lon="2.72951">
        <ele>69.474315</ele>
        <time>2019-06-16T19:47:31.977Z</time>
      </trkpt>
      <trkpt lat="50.28223" lon="2.72951">
        <ele>69.480658</ele>
        <time>2019-06-16T19:47:32.497Z</time>
      </trkpt>
      <trkpt lat="50.28222" lon="2.72951">
        <ele>69.487354</ele>
        <time>2019-06-16T19:47:33.057Z</time>
      </trkpt>
      <trkpt lat="50.28219" lon="2.72953">
        <ele>69.497666</ele>
        <time>2019-06-16T19:47:33.917Z</time>
      </trkpt>
      <trkpt lat="50.28217" lon="2.72956">
        <ele>69.507779</ele>
        <time>2019-06-16T19:47:34.769Z</time>
      </trkpt>
      <trkpt lat="50.2821" lon="2.72959">
        <ele>69.536021</ele>
        <time>2019-06-16T19:47:37.192Z</time>
      </trkpt>
      <trkpt lat="50.28208" lon="2.72961">
        <ele>69.546438</ele>
        <time>2019-06-16T19:47:38.097Z</time>
      </trkpt>
      <trkpt lat="50.28201" lon="2.72967">
        <ele>69.617209</ele>
        <time>2019-06-16T19:47:40.809Z</time>
      </trkpt>
      <trkpt lat="50.28192" lon="2.72971">
        <ele>69.883237</ele>
        <time>2019-06-16T19:47:44.202Z</time>
      </trkpt>
      <trkpt lat="50.28125" lon="2.73015">
        <ele>71.971886</ele>
        <time>2019-06-16T19:48:11.225Z</time>
      </trkpt>
      <trkpt lat="50.28116" lon="2.73022">
        <ele>72.266371</ele>
        <time>2019-06-16T19:48:15.193Z</time>
      </trkpt>
      <trkpt lat="50.28103" lon="2.73031">
        <ele>72.679353</ele>
        <time>2019-06-16T19:48:20.534Z</time>
      </trkpt>
      <trkpt lat="50.2807" lon="2.73056">
        <ele>73.731665</ele>
        <time>2019-06-16T19:48:34.368Z</time>
      </trkpt>
      <trkpt lat="50.28065" lon="2.7306">
        <ele>73.888492</ele>
        <time>2019-06-16T19:48:36.769Z</time>
      </trkpt>
      <trkpt lat="50.28055" lon="2.73069">
        <ele>74.232347</ele>
        <time>2019-06-16T19:48:41.220Z</time>
      </trkpt>
      <trkpt lat="50.28021" lon="2.73101">
        <ele>75.251596</ele>
        <time>2019-06-16T19:48:55.781Z</time>
      </trkpt>
      <trkpt lat="50.27995" lon="2.73116">
        <ele>75.879774</ele>
        <time>2019-06-16T19:49:05.719Z</time>
      </trkpt>
      <trkpt lat="50.27993" lon="2.73117">
        <ele>75.928987</ele>
        <time>2019-06-16T19:49:06.507Z</time>
      </trkpt>
      <trkpt lat="50.27992" lon="2.73118">
        <ele>75.97246</ele>
        <time>2019-06-16T19:49:07.406Z</time>
      </trkpt>
      <trkpt lat="50.27986" lon="2.73125">
        <ele>76.125477</ele>
        <time>2019-06-16T19:49:09.954Z</time>
      </trkpt>
      <trkpt lat="50.27994" lon="2.7314">
        <ele>76.413139</ele>
        <time>2019-06-16T19:49:14.526Z</time>
      </trkpt>
      <trkpt lat="50.27997" lon="2.73153">
        <ele>76.614692</ele>
        <time>2019-06-16T19:49:17.832Z</time>
      </trkpt>
      <trkpt lat="50.28005" lon="2.73166">
        <ele>76.888725</ele>
        <time>2019-06-16T19:49:21.897Z</time>
      </trkpt>
      <trkpt lat="50.28013" lon="2.73175">
        <ele>77.103546</ele>
        <time>2019-06-16T19:49:24.723Z</time>
      </trkpt>
      <trkpt lat="50.28009" lon="2.73187">
        <ele>77.309811</ele>
        <time>2019-06-16T19:49:27.812Z</time>
      </trkpt>
      <trkpt lat="50.28007" lon="2.73205">
        <ele>77.578415</ele>
        <time>2019-06-16T19:49:31.491Z</time>
      </trkpt>
      <trkpt lat="50.28005" lon="2.73219">
        <ele>77.788673</ele>
        <time>2019-06-16T19:49:34.426Z</time>
      </trkpt>
      <trkpt lat="50.28004" lon="2.73224">
        <ele>77.860483</ele>
        <time>2019-06-16T19:49:35.279Z</time>
      </trkpt>
      <trkpt lat="50.27984" lon="2.73336">
        <ele>79.358534</ele>
        <time>2019-06-16T19:49:56.818Z</time>
      </trkpt>
      <trkpt lat="50.27945" lon="2.73557">
        <ele>81.691243</ele>
        <time>2019-06-16T19:50:41.966Z</time>
      </trkpt>
      <trkpt lat="50.27943" lon="2.73568">
        <ele>81.781</ele>
        <time>2019-06-16T19:50:44.624Z</time>
      </trkpt>
      <trkpt lat="50.27936" lon="2.73628">
        <ele>82.119848</ele>
        <time>2019-06-16T19:50:55.892Z</time>
      </trkpt>
      <trkpt lat="50.27921" lon="2.73758">
        <ele>82.854651</ele>
        <time>2019-06-16T19:51:18.466Z</time>
      </trkpt>
      <trkpt lat="50.2792" lon="2.73768">
        <ele>82.913255</ele>
        <time>2019-06-16T19:51:20.192Z</time>
      </trkpt>
      <trkpt lat="50.27918" lon="2.73787">
        <ele>83.020383</ele>
        <time>2019-06-16T19:51:23.662Z</time>
      </trkpt>
      <trkpt lat="50.27915" lon="2.73807">
        <ele>83.134224</ele>
        <time>2019-06-16T19:51:26.769Z</time>
      </trkpt>
      <trkpt lat="50.27912" lon="2.73834">
        <ele>83.283997</ele>
        <time>2019-06-16T19:51:30.790Z</time>
      </trkpt>
      <trkpt lat="50.27903" lon="2.73912">
        <ele>83.143197</ele>
        <time>2019-06-16T19:51:41.923Z</time>
      </trkpt>
      <trkpt lat="50.27885" lon="2.74068">
        <ele>82.764334</ele>
        <time>2019-06-16T19:52:03.443Z</time>
      </trkpt>
      <trkpt lat="50.27873" lon="2.74118">
        <ele>82.611408</ele>
        <time>2019-06-16T19:52:10.316Z</time>
      </trkpt>
      <trkpt lat="50.27868" lon="2.74136">
        <ele>82.428656</ele>
        <time>2019-06-16T19:52:12.799Z</time>
      </trkpt>
      <trkpt lat="50.27863" lon="2.74146">
        <ele>82.312033</ele>
        <time>2019-06-16T19:52:14.408Z</time>
      </trkpt>
      <trkpt lat="50.27853" lon="2.74162">
        <ele>82.108247</ele>
        <time>2019-06-16T19:52:17.244Z</time>
      </trkpt>
      <trkpt lat="50.27841" lon="2.74178">
        <ele>81.868321</ele>
        <time>2019-06-16T19:52:20.476Z</time>
      </trkpt>
      <trkpt lat="50.27834" lon="2.74185">
        <ele>81.747616</ele>
        <time>2019-06-16T19:52:22.118Z</time>
      </trkpt>
      <trkpt lat="50.27828" lon="2.74187">
        <ele>81.668611</ele>
        <time>2019-06-16T19:52:23.187Z</time>
      </trkpt>
      <trkpt lat="50.2782" lon="2.74197">
        <ele>81.513931</ele>
        <time>2019-06-16T19:52:25.278Z</time>
      </trkpt>
      <trkpt lat="50.27817" lon="2.74204">
        <ele>81.436468</ele>
        <time>2019-06-16T19:52:26.313Z</time>
      </trkpt>
      <trkpt lat="50.27815" lon="2.74213">
        <ele>81.346238</ele>
        <time>2019-06-16T19:52:27.469Z</time>
      </trkpt>
      <trkpt lat="50.27817" lon="2.74232">
        <ele>81.170183</ele>
        <time>2019-06-16T19:52:29.803Z</time>
      </trkpt>
      <trkpt lat="50.2782" lon="2.7424">
        <ele>81.080922</ele>
        <time>2019-06-16T19:52:30.982Z</time>
      </trkpt>
      <trkpt lat="50.2782" lon="2.7424">
        <ele>81.080922</ele>
        <time>2019-06-16T19:52:30.984Z</time>
      </trkpt>
      <trkpt lat="50.27822" lon="2.74242">
        <ele>81.056118</ele>
        <time>2019-06-16T19:52:31.309Z</time>
      </trkpt>
      <trkpt lat="50.27825" lon="2.74264">
        <ele>80.846328</ele>
        <time>2019-06-16T19:52:34.143Z</time>
      </trkpt>
      <trkpt lat="50.27823" lon="2.7429">
        <ele>80.599023</ele>
        <time>2019-06-16T19:52:37.468Z</time>
      </trkpt>
      <trkpt lat="50.27811" lon="2.74321">
        <ele>80.266442</ele>
        <time>2019-06-16T19:52:41.848Z</time>
      </trkpt>
      <trkpt lat="50.27796" lon="2.7436">
        <ele>79.766853</ele>
        <time>2019-06-16T19:52:47.401Z</time>
      </trkpt>
      <trkpt lat="50.27785" lon="2.74411">
        <ele>79.04655</ele>
        <time>2019-06-16T19:52:53.951Z</time>
      </trkpt>
      <trkpt lat="50.27765" lon="2.74521">
        <ele>77.507337</ele>
        <time>2019-06-16T19:53:07.738Z</time>
      </trkpt>
      <trkpt lat="50.2775" lon="2.74574">
        <ele>76.736505</ele>
        <time>2019-06-16T19:53:14.833Z</time>
      </trkpt>
      <trkpt lat="50.27734" lon="2.74607">
        <ele>76.262603</ele>
        <time>2019-06-16T19:53:19.957Z</time>
      </trkpt>
      <trkpt lat="50.27709" lon="2.74648">
        <ele>76.156824</ele>
        <time>2019-06-16T19:53:27.099Z</time>
      </trkpt>
      <trkpt lat="50.27715" lon="2.74659">
        <ele>76.129551</ele>
        <time>2019-06-16T19:53:30.237Z</time>
      </trkpt>
      <trkpt lat="50.27948" lon="2.75003">
        <ele>76.754008</ele>
        <time>2019-06-16T19:55:35.014Z</time>
      </trkpt>
      <trkpt lat="50.2795" lon="2.75008">
        <ele>76.78794</ele>
        <time>2019-06-16T19:55:36.929Z</time>
      </trkpt>
      <trkpt lat="50.2795" lon="2.75008">
        <ele>76.78794</ele>
        <time>2019-06-16T19:55:36.973Z</time>
      </trkpt>
      <trkpt lat="50.2795" lon="2.75008">
        <ele>76.78794</ele>
        <time>2019-06-16T19:55:37.263Z</time>
      </trkpt>
      <trkpt lat="50.27952" lon="2.7501">
        <ele>76.811126</ele>
        <time>2019-06-16T19:55:38.844Z</time>
      </trkpt>
      <trkpt lat="50.27958" lon="2.75017">
        <ele>76.889611</ele>
        <time>2019-06-16T19:55:41.947Z</time>
      </trkpt>
      <trkpt lat="50.27988" lon="2.75186">
        <ele>78.047756</ele>
        <time>2019-06-16T19:56:31.807Z</time>
      </trkpt>
      <trkpt lat="50.27993" lon="2.75208">
        <ele>78.203654</ele>
        <time>2019-06-16T19:56:38.149Z</time>
      </trkpt>
      <trkpt lat="50.28001" lon="2.75219">
        <ele>78.312531</ele>
        <time>2019-06-16T19:56:43.454Z</time>
      </trkpt>
      <trkpt lat="50.28013" lon="2.75249">
        <ele>78.474037</ele>
        <time>2019-06-16T19:56:52.399Z</time>
      </trkpt>
      <trkpt lat="50.28168" lon="2.75574">
        <ele>76.174352</ele>
        <time>2019-06-16T19:58:22.168Z</time>
      </trkpt>
      <trkpt lat="50.28177" lon="2.75596">
        <ele>75.926508</ele>
        <time>2019-06-16T19:58:27.782Z</time>
      </trkpt>
      <trkpt lat="50.28211" lon="2.75661">
        <ele>75.156279</ele>
        <time>2019-06-16T19:58:45.367Z</time>
      </trkpt>
      <trkpt lat="50.28218" lon="2.75672">
        <ele>75.018488</ele>
        <time>2019-06-16T19:58:48.516Z</time>
      </trkpt>
      <trkpt lat="50.28221" lon="2.7569">
        <ele>74.841961</ele>
        <time>2019-06-16T19:58:51.675Z</time>
      </trkpt>
      <trkpt lat="50.28224" lon="2.75703">
        <ele>74.714368</ele>
        <time>2019-06-16T19:58:53.946Z</time>
      </trkpt>
      <trkpt lat="50.28227" lon="2.75713">
        <ele>74.615656</ele>
        <time>2019-06-16T19:58:55.799Z</time>
      </trkpt>
      <trkpt lat="50.28228" lon="2.75724">
        <ele>74.519688</ele>
        <time>2019-06-16T19:58:57.542Z</time>
      </trkpt>
      <trkpt lat="50.28233" lon="2.75731">
        <ele>74.421932</ele>
        <time>2019-06-16T19:58:58.864Z</time>
      </trkpt>
      <trkpt lat="50.28238" lon="2.75734">
        <ele>74.346828</ele>
        <time>2019-06-16T19:58:59.898Z</time>
      </trkpt>
      <trkpt lat="50.2824" lon="2.75736">
        <ele>74.31905</ele>
        <time>2019-06-16T19:59:00.255Z</time>
      </trkpt>
      <trkpt lat="50.28245" lon="2.75743">
        <ele>74.212955</ele>
        <time>2019-06-16T19:59:01.668Z</time>
      </trkpt>
      <trkpt lat="50.28255" lon="2.75779">
        <ele>73.86753</ele>
        <time>2019-06-16T19:59:06.347Z</time>
      </trkpt>
      <trkpt lat="50.28255" lon="2.7579">
        <ele>73.77074</ele>
        <time>2019-06-16T19:59:07.608Z</time>
      </trkpt>
      <trkpt lat="50.28253" lon="2.75822">
        <ele>73.478264</ele>
        <time>2019-06-16T19:59:11.829Z</time>
      </trkpt>
      <trkpt lat="50.28256" lon="2.75829">
        <ele>73.404319</ele>
        <time>2019-06-16T19:59:12.920Z</time>
      </trkpt>
      <trkpt lat="50.28264" lon="2.75843">
        <ele>73.235742</ele>
        <time>2019-06-16T19:59:15.286Z</time>
      </trkpt>
      <trkpt lat="50.28266" lon="2.75846">
        <ele>73.194855</ele>
        <time>2019-06-16T19:59:15.888Z</time>
      </trkpt>
      <trkpt lat="50.28268" lon="2.75849">
        <ele>73.160073</ele>
        <time>2019-06-16T19:59:16.385Z</time>
      </trkpt>
      <trkpt lat="50.28297" lon="2.75904">
        <ele>72.517563</ele>
        <time>2019-06-16T19:59:25.724Z</time>
      </trkpt>
      <trkpt lat="50.28298" lon="2.7594">
        <ele>72.217391</ele>
        <time>2019-06-16T19:59:30.468Z</time>
      </trkpt>
      <trkpt lat="50.28299" lon="2.76004">
        <ele>71.858417</ele>
        <time>2019-06-16T19:59:39.273Z</time>
      </trkpt>
      <trkpt lat="50.28358" lon="2.761">
        <ele>71.10642</ele>
        <time>2019-06-16T19:59:58.165Z</time>
      </trkpt>
      <trkpt lat="50.28361" lon="2.76105">
        <ele>71.072467</ele>
        <time>2019-06-16T19:59:58.981Z</time>
      </trkpt>
      <trkpt lat="50.28375" lon="2.76129">
        <ele>70.887462</ele>
        <time>2019-06-16T20:00:03.274Z</time>
      </trkpt>
      <trkpt lat="50.28392" lon="2.76156">
        <ele>70.676235</ele>
        <time>2019-06-16T20:00:07.999Z</time>
      </trkpt>
      <trkpt lat="50.28399" lon="2.76166">
        <ele>70.497483</ele>
        <time>2019-06-16T20:00:09.909Z</time>
      </trkpt>
      <trkpt lat="50.28406" lon="2.76176">
        <ele>70.308046</ele>
        <time>2019-06-16T20:00:11.666Z</time>
      </trkpt>
      <trkpt lat="50.28417" lon="2.76194">
        <ele>69.992684</ele>
        <time>2019-06-16T20:00:14.993Z</time>
      </trkpt>
      <trkpt lat="50.28432" lon="2.76218">
        <ele>69.5793</ele>
        <time>2019-06-16T20:00:19.089Z</time>
      </trkpt>
      <trkpt lat="50.28454" lon="2.76255">
        <ele>68.950068</ele>
        <time>2019-06-16T20:00:25.498Z</time>
      </trkpt>
      <trkpt lat="50.28456" lon="2.76258">
        <ele>68.902159</ele>
        <time>2019-06-16T20:00:26.110Z</time>
      </trkpt>
      <trkpt lat="50.28465" lon="2.76272">
        <ele>68.647437</ele>
        <time>2019-06-16T20:00:29.631Z</time>
      </trkpt>
      <trkpt lat="50.28467" lon="2.76274">
        <ele>68.599259</ele>
        <time>2019-06-16T20:00:30.254Z</time>
      </trkpt>
      <trkpt lat="50.28478" lon="2.76276">
        <ele>68.393929</ele>
        <time>2019-06-16T20:00:33.082Z</time>
      </trkpt>
      <trkpt lat="50.28473" lon="2.76287">
        <ele>68.22867</ele>
        <time>2019-06-16T20:00:34.419Z</time>
      </trkpt>
      <trkpt lat="50.2846" lon="2.7632">
        <ele>67.745646</ele>
        <time>2019-06-16T20:00:39.295Z</time>
      </trkpt>
      <trkpt lat="50.28445" lon="2.76383">
        <ele>66.926948</ele>
        <time>2019-06-16T20:00:46.759Z</time>
      </trkpt>
      <trkpt lat="50.2844" lon="2.76455">
        <ele>66.052334</ele>
        <time>2019-06-16T20:00:54.810Z</time>
      </trkpt>
      <trkpt lat="50.28443" lon="2.76492">
        <ele>65.609128</ele>
        <time>2019-06-16T20:00:59.264Z</time>
      </trkpt>
      <trkpt lat="50.28444" lon="2.76501">
        <ele>65.49758</ele>
        <time>2019-06-16T20:01:00.166Z</time>
      </trkpt>
      <trkpt lat="50.28447" lon="2.76518">
        <ele>65.290231</ele>
        <time>2019-06-16T20:01:02.346Z</time>
      </trkpt>
      <trkpt lat="50.28453" lon="2.7655">
        <ele>64.888293</ele>
        <time>2019-06-16T20:01:06.569Z</time>
      </trkpt>
      <trkpt lat="50.28457" lon="2.76567">
        <ele>64.670162</ele>
        <time>2019-06-16T20:01:08.731Z</time>
      </trkpt>
      <trkpt lat="50.28461" lon="2.76578">
        <ele>64.533264</ele>
        <time>2019-06-16T20:01:10.284Z</time>
      </trkpt>
      <trkpt lat="50.28468" lon="2.76599">
        <ele>64.237476</ele>
        <time>2019-06-16T20:01:13.559Z</time>
      </trkpt>
      <trkpt lat="50.28473" lon="2.76615">
        <ele>64.026956</ele>
        <time>2019-06-16T20:01:15.647Z</time>
      </trkpt>
      <trkpt lat="50.2848" lon="2.76634">
        <ele>63.828353</ele>
        <time>2019-06-16T20:01:18.663Z</time>
      </trkpt>
      <trkpt lat="50.28487" lon="2.76652">
        <ele>63.874724</ele>
        <time>2019-06-16T20:01:21.325Z</time>
      </trkpt>
      <trkpt lat="50.28493" lon="2.76669">
        <ele>63.917878</ele>
        <time>2019-06-16T20:01:23.873Z</time>
      </trkpt>
      <trkpt lat="50.28497" lon="2.7668">
        <ele>63.946828</ele>
        <time>2019-06-16T20:01:25.982Z</time>
      </trkpt>
      <trkpt lat="50.28505" lon="2.76697">
        <ele>63.99356</ele>
        <time>2019-06-16T20:01:28.863Z</time>
      </trkpt>
      <trkpt lat="50.28512" lon="2.76714">
        <ele>64.036986</ele>
        <time>2019-06-16T20:01:31.417Z</time>
      </trkpt>
      <trkpt lat="50.28515" lon="2.76725">
        <ele>64.063727</ele>
        <time>2019-06-16T20:01:33.368Z</time>
      </trkpt>
      <trkpt lat="50.28536" lon="2.76771">
        <ele>64.188316</ele>
        <time>2019-06-16T20:01:42.485Z</time>
      </trkpt>
      <trkpt lat="50.28537" lon="2.76773">
        <ele>64.194807</ele>
        <time>2019-06-16T20:01:43.106Z</time>
      </trkpt>
      <trkpt lat="50.28541" lon="2.7678">
        <ele>64.214071</ele>
        <time>2019-06-16T20:01:44.546Z</time>
      </trkpt>
      <trkpt lat="50.28545" lon="2.76788">
        <ele>64.23489</ele>
        <time>2019-06-16T20:01:46.114Z</time>
      </trkpt>
      <trkpt lat="50.28546" lon="2.7679">
        <ele>64.241089</ele>
        <time>2019-06-16T20:01:46.586Z</time>
      </trkpt>
      <trkpt lat="50.28548" lon="2.76793">
        <ele>64.250471</ele>
        <time>2019-06-16T20:01:47.305Z</time>
      </trkpt>
      <trkpt lat="50.28552" lon="2.76803">
        <ele>64.277765</ele>
        <time>2019-06-16T20:01:49.436Z</time>
      </trkpt>
      <trkpt lat="50.28562" lon="2.76821">
        <ele>64.328634</ele>
        <time>2019-06-16T20:01:53.643Z</time>
      </trkpt>
      <trkpt lat="50.28566" lon="2.7683">
        <ele>64.3549</ele>
        <time>2019-06-16T20:01:55.736Z</time>
      </trkpt>
      <trkpt lat="50.28612" lon="2.76918">
        <ele>64.902053</ele>
        <time>2019-06-16T20:02:16.574Z</time>
      </trkpt>
      <trkpt lat="50.2862" lon="2.76932">
        <ele>65.016513</ele>
        <time>2019-06-16T20:02:19.911Z</time>
      </trkpt>
      <trkpt lat="50.28629" lon="2.7695">
        <ele>65.156483</ele>
        <time>2019-06-16T20:02:24.193Z</time>
      </trkpt>
      <trkpt lat="50.28637" lon="2.76968">
        <ele>65.292819</ele>
        <time>2019-06-16T20:02:28.134Z</time>
      </trkpt>
      <trkpt lat="50.28647" lon="2.76986">
        <ele>65.43462</ele>
        <time>2019-06-16T20:02:32.111Z</time>
      </trkpt>
      <trkpt lat="50.28652" lon="2.76996">
        <ele>65.521541</ele>
        <time>2019-06-16T20:02:34.456Z</time>
      </trkpt>
      <trkpt lat="50.28686" lon="2.77059">
        <ele>66.026515</ele>
        <time>2019-06-16T20:02:47.614Z</time>
      </trkpt>
      <trkpt lat="50.28706" lon="2.77099">
        <ele>66.223529</ele>
        <time>2019-06-16T20:02:55.817Z</time>
      </trkpt>
      <trkpt lat="50.28722" lon="2.77131">
        <ele>66.299671</ele>
        <time>2019-06-16T20:03:02.384Z</time>
      </trkpt>
      <trkpt lat="50.28723" lon="2.77133">
        <ele>66.304246</ele>
        <time>2019-06-16T20:03:02.780Z</time>
      </trkpt>
      <trkpt lat="50.28724" lon="2.77135">
        <ele>66.308523</ele>
        <time>2019-06-16T20:03:03.137Z</time>
      </trkpt>
      <trkpt lat="50.2873" lon="2.77146">
        <ele>66.335878</ele>
        <time>2019-06-16T20:03:05.454Z</time>
      </trkpt>
      <trkpt lat="50.28741" lon="2.77132">
        <ele>66.377395</ele>
        <time>2019-06-16T20:03:09.441Z</time>
      </trkpt>
      <trkpt lat="50.28747" lon="2.77126">
        <ele>66.399044</ele>
        <time>2019-06-16T20:03:11.113Z</time>
      </trkpt>
      <trkpt lat="50.28749" lon="2.77124">
        <ele>66.407835</ele>
        <time>2019-06-16T20:03:11.846Z</time>
      </trkpt>
      <trkpt lat="50.28763" lon="2.7711">
        <ele>66.455796</ele>
        <time>2019-06-16T20:03:15.607Z</time>
      </trkpt>
      <trkpt lat="50.28772" lon="2.77102">
        <ele>66.484691</ele>
        <time>2019-06-16T20:03:18.197Z</time>
      </trkpt>
      <trkpt lat="50.28773" lon="2.77101">
        <ele>66.488417</ele>
        <time>2019-06-16T20:03:18.484Z</time>
      </trkpt>
      <trkpt lat="50.28775" lon="2.77099">
        <ele>66.494827</ele>
        <time>2019-06-16T20:03:18.915Z</time>
      </trkpt>
      <trkpt lat="50.28778" lon="2.77096">
        <ele>66.506257</ele>
        <time>2019-06-16T20:03:19.781Z</time>
      </trkpt>
      <trkpt lat="50.28788" lon="2.77103">
        <ele>66.539537</ele>
        <time>2019-06-16T20:03:22.354Z</time>
      </trkpt>
      <trkpt lat="50.28795" lon="2.77107">
        <ele>66.559858</ele>
        <time>2019-06-16T20:03:23.970Z</time>
      </trkpt>
      <trkpt lat="50.288" lon="2.7711">
        <ele>66.576155</ele>
        <time>2019-06-16T20:03:25.347Z</time>
      </trkpt>
      <trkpt lat="50.28802" lon="2.77111">
        <ele>66.581969</ele>
        <time>2019-06-16T20:03:26.048Z</time>
      </trkpt>
      <trkpt lat="50.28855" lon="2.77142">
        <ele>66.841401</ele>
        <time>2019-06-16T20:03:38.694Z</time>
      </trkpt>
      <trkpt lat="50.28876" lon="2.77161">
        <ele>67.06184</ele>
        <time>2019-06-16T20:03:44.460Z</time>
      </trkpt>
      <trkpt lat="50.28888" lon="2.7717">
        <ele>67.171035</ele>
        <time>2019-06-16T20:03:47.925Z</time>
      </trkpt>
      <trkpt lat="50.289" lon="2.77178">
        <ele>67.294272</ele>
        <time>2019-06-16T20:03:51.567Z</time>
      </trkpt>
      <trkpt lat="50.28906" lon="2.77183">
        <ele>67.354331</ele>
        <time>2019-06-16T20:03:53.121Z</time>
      </trkpt>
      <trkpt lat="50.28917" lon="2.77188">
        <ele>67.450534</ele>
        <time>2019-06-16T20:03:55.772Z</time>
      </trkpt>
      <trkpt lat="50.28956" lon="2.77204">
        <ele>67.806182</ele>
        <time>2019-06-16T20:04:08.497Z</time>
      </trkpt>
      <trkpt lat="50.28974" lon="2.77207">
        <ele>67.969855</ele>
        <time>2019-06-16T20:04:14.090Z</time>
      </trkpt>
      <trkpt lat="50.28979" lon="2.77207">
        <ele>68.014141</ele>
        <time>2019-06-16T20:04:15.511Z</time>
      </trkpt>
      <trkpt lat="50.28983" lon="2.77207">
        <ele>68.046915</ele>
        <time>2019-06-16T20:04:16.494Z</time>
      </trkpt>
      <trkpt lat="50.28983" lon="2.7721">
        <ele>68.063914</ele>
        <time>2019-06-16T20:04:17.051Z</time>
      </trkpt>
      <trkpt lat="50.28987" lon="2.77215">
        <ele>68.113007</ele>
        <time>2019-06-16T20:04:19.011Z</time>
      </trkpt>
      <trkpt lat="50.28988" lon="2.77214">
        <ele>68.122148</ele>
        <time>2019-06-16T20:04:19.439Z</time>
      </trkpt>
      <trkpt lat="50.28989" lon="2.77221">
        <ele>68.159588</ele>
        <time>2019-06-16T20:04:20.728Z</time>
      </trkpt>
      <trkpt lat="50.28987" lon="2.77229">
        <ele>68.206222</ele>
        <time>2019-06-16T20:04:22.140Z</time>
      </trkpt>
      <trkpt lat="50.28978" lon="2.77262">
        <ele>68.293488</ele>
        <time>2019-06-16T20:04:28.938Z</time>
      </trkpt>
      <trkpt lat="50.2898" lon="2.77264">
        <ele>68.293488</ele>
        <time>2019-06-16T20:04:30.483Z</time>
      </trkpt>
      <trkpt lat="50.29018" lon="2.77307">
        <ele>68.293488</ele>
        <time>2019-06-16T20:04:47.161Z</time>
      </trkpt>
      <trkpt lat="50.29019" lon="2.77309">
        <ele>68.293488</ele>
        <time>2019-06-16T20:04:48.336Z</time>
      </trkpt>
      <trkpt lat="50.29019" lon="2.77314">
        <ele>68.293488</ele>
        <time>2019-06-16T20:04:49.184Z</time>
      </trkpt>
      <trkpt lat="50.2902" lon="2.77319">
        <ele>68.293488</ele>
        <time>2019-06-16T20:04:49.993Z</time>
      </trkpt>
      <trkpt lat="50.29022" lon="2.77321">
        <ele>68.293488</ele>
        <time>2019-06-16T20:04:50.576Z</time>
      </trkpt>
      <trkpt lat="50.29038" lon="2.77336">
        <ele>68.293488</ele>
        <time>2019-06-16T20:04:56.282Z</time>
      </trkpt>
      <trkpt lat="50.29041" lon="2.7734">
        <ele>68.293488</ele>
        <time>2019-06-16T20:04:57.453Z</time>
      </trkpt>
      <trkpt lat="50.29053" lon="2.77351">
        <ele>68.293488</ele>
        <time>2019-06-16T20:05:01.565Z</time>
      </trkpt>
      <trkpt lat="50.29056" lon="2.77354">
        <ele>68.293488</ele>
        <time>2019-06-16T20:05:02.580Z</time>
      </trkpt>
      <trkpt lat="50.29062" lon="2.7736">
        <ele>68.293488</ele>
        <time>2019-06-16T20:05:04.584Z</time>
      </trkpt>
      <trkpt lat="50.29072" lon="2.77369">
        <ele>68.293488</ele>
        <time>2019-06-16T20:05:08.372Z</time>
      </trkpt>
      <trkpt lat="50.29078" lon="2.77374">
        <ele>68.293488</ele>
        <time>2019-06-16T20:05:10.421Z</time>
      </trkpt>
      <trkpt lat="50.29078" lon="2.77373">
        <ele>68.293488</ele>
        <time>2019-06-16T20:05:10.498Z</time>
      </trkpt>
    </trkseg>
  </trk>
</gpx>